<?xml version="1.0" encoding="UTF-8" standalone="no" ?>
<gpx xmlns="http://www.topografix.com/GPX/1/1" xmlns:xsi="http://www.w3.org/2001/XMLSchema-instance" xsi:schemaLocation="http://www.topografix.com/GPX/1/1 http://www.topografix.com/GPX/1/1/gpx.xsd" version="1.1" creator="VisuGPX - https://www.visugpx.com">
  <metadata>
    <name>2018-04-18 Bike ride-Amberieux-Savigneux O 33k</name>
    <desc><![CDATA[2018-04-18 Bike ride-Amberieux-Savigneux O 33k]]></desc>
  </metadata>
  <wpt lat="45.92443" lon="4.73736">
    <ele>228</ele>
    <name><![CDATA[2018-04-18 10:21 (Start)]]></name>
  </wpt>
  <wpt lat="45.94314" lon="4.83077">
    <ele>312</ele>
    <name><![CDATA[2018-04-18 10:21 (End)]]></name>
  </wpt>
  <wpt lat="45.98438" lon="4.85178">
    <ele>325</ele>
    <name><![CDATA[2018-04-18 11:15 (Start)]]></name>
  </wpt>
  <wpt lat="45.9246" lon="4.73713">
    <ele>218</ele>
    <name><![CDATA[2018-04-18 11:15 (End)]]></name>
  </wpt>
  <trk>
    <name><![CDATA[20180418171417-YkSns]]></name>
    <trkseg>
      <trkpt lat="45.92443" lon="4.73736">
        <ele>173</ele>
        <time>2018-04-18T08:21:08.986Z</time>
      </trkpt>
      <trkpt lat="45.9245" lon="4.73724">
        <ele>173</ele>
        <time>2018-04-18T08:21:13.475Z</time>
      </trkpt>
      <trkpt lat="45.92457" lon="4.73717">
        <ele>173</ele>
        <time>2018-04-18T08:21:20Z</time>
      </trkpt>
      <trkpt lat="45.92457" lon="4.73716">
        <ele>173</ele>
        <time>2018-04-18T08:21:21Z</time>
      </trkpt>
      <trkpt lat="45.92462" lon="4.73707">
        <ele>173</ele>
        <time>2018-04-18T08:21:37Z</time>
      </trkpt>
      <trkpt lat="45.92462" lon="4.73704">
        <ele>173</ele>
        <time>2018-04-18T08:21:38Z</time>
      </trkpt>
      <trkpt lat="45.92465" lon="4.73693">
        <ele>173</ele>
        <time>2018-04-18T08:21:41Z</time>
      </trkpt>
      <trkpt lat="45.92466" lon="4.7369">
        <ele>173</ele>
        <time>2018-04-18T08:21:42Z</time>
      </trkpt>
      <trkpt lat="45.92468" lon="4.73678">
        <ele>173</ele>
        <time>2018-04-18T08:21:45Z</time>
      </trkpt>
      <trkpt lat="45.92468" lon="4.73673">
        <ele>173</ele>
        <time>2018-04-18T08:21:46Z</time>
      </trkpt>
      <trkpt lat="45.92469" lon="4.73661">
        <ele>173</ele>
        <time>2018-04-18T08:21:49Z</time>
      </trkpt>
      <trkpt lat="45.92469" lon="4.73657">
        <ele>173</ele>
        <time>2018-04-18T08:21:50Z</time>
      </trkpt>
      <trkpt lat="45.92471" lon="4.73646">
        <ele>173</ele>
        <time>2018-04-18T08:21:53Z</time>
      </trkpt>
      <trkpt lat="45.92473" lon="4.73644">
        <ele>173</ele>
        <time>2018-04-18T08:21:54Z</time>
      </trkpt>
      <trkpt lat="45.92482" lon="4.73641">
        <ele>173</ele>
        <time>2018-04-18T08:21:57Z</time>
      </trkpt>
      <trkpt lat="45.92485" lon="4.7364">
        <ele>173</ele>
        <time>2018-04-18T08:21:58Z</time>
      </trkpt>
      <trkpt lat="45.92488" lon="4.7364">
        <ele>173</ele>
        <time>2018-04-18T08:21:59Z</time>
      </trkpt>
      <trkpt lat="45.92498" lon="4.73639">
        <ele>173</ele>
        <time>2018-04-18T08:22:00Z</time>
      </trkpt>
      <trkpt lat="45.92506" lon="4.73638">
        <ele>173</ele>
        <time>2018-04-18T08:22:02Z</time>
      </trkpt>
      <trkpt lat="45.9251" lon="4.73638">
        <ele>173</ele>
        <time>2018-04-18T08:22:03Z</time>
      </trkpt>
      <trkpt lat="45.92516" lon="4.73637">
        <ele>173</ele>
        <time>2018-04-18T08:22:04Z</time>
      </trkpt>
      <trkpt lat="45.92522" lon="4.73637">
        <ele>173</ele>
        <time>2018-04-18T08:22:05Z</time>
      </trkpt>
      <trkpt lat="45.92527" lon="4.73637">
        <ele>173</ele>
        <time>2018-04-18T08:22:06Z</time>
      </trkpt>
      <trkpt lat="45.92532" lon="4.73637">
        <ele>173</ele>
        <time>2018-04-18T08:22:07Z</time>
      </trkpt>
      <trkpt lat="45.92536" lon="4.73636">
        <ele>173</ele>
        <time>2018-04-18T08:22:08Z</time>
      </trkpt>
      <trkpt lat="45.92542" lon="4.73634">
        <ele>173</ele>
        <time>2018-04-18T08:22:09Z</time>
      </trkpt>
      <trkpt lat="45.92546" lon="4.73634">
        <ele>173</ele>
        <time>2018-04-18T08:22:10Z</time>
      </trkpt>
      <trkpt lat="45.9255" lon="4.73632">
        <ele>173</ele>
        <time>2018-04-18T08:22:11Z</time>
      </trkpt>
      <trkpt lat="45.92555" lon="4.73631">
        <ele>173</ele>
        <time>2018-04-18T08:22:12Z</time>
      </trkpt>
      <trkpt lat="45.9256" lon="4.7363">
        <ele>173</ele>
        <time>2018-04-18T08:22:13Z</time>
      </trkpt>
      <trkpt lat="45.92564" lon="4.73629">
        <ele>173</ele>
        <time>2018-04-18T08:22:14Z</time>
      </trkpt>
      <trkpt lat="45.9257" lon="4.73626">
        <ele>173</ele>
        <time>2018-04-18T08:22:15Z</time>
      </trkpt>
      <trkpt lat="45.92575" lon="4.73625">
        <ele>173</ele>
        <time>2018-04-18T08:22:16Z</time>
      </trkpt>
      <trkpt lat="45.9258" lon="4.73623">
        <ele>173</ele>
        <time>2018-04-18T08:22:17Z</time>
      </trkpt>
      <trkpt lat="45.92584" lon="4.73621">
        <ele>173</ele>
        <time>2018-04-18T08:22:18Z</time>
      </trkpt>
      <trkpt lat="45.92589" lon="4.7362">
        <ele>173</ele>
        <time>2018-04-18T08:22:19Z</time>
      </trkpt>
      <trkpt lat="45.92593" lon="4.7362">
        <ele>173</ele>
        <time>2018-04-18T08:22:20Z</time>
      </trkpt>
      <trkpt lat="45.92598" lon="4.7362">
        <ele>173</ele>
        <time>2018-04-18T08:22:21Z</time>
      </trkpt>
      <trkpt lat="45.92603" lon="4.73622">
        <ele>173</ele>
        <time>2018-04-18T08:22:22Z</time>
      </trkpt>
      <trkpt lat="45.92608" lon="4.73621">
        <ele>173</ele>
        <time>2018-04-18T08:22:23Z</time>
      </trkpt>
      <trkpt lat="45.92611" lon="4.73623">
        <ele>173</ele>
        <time>2018-04-18T08:22:24Z</time>
      </trkpt>
      <trkpt lat="45.92616" lon="4.73632">
        <ele>173</ele>
        <time>2018-04-18T08:22:25Z</time>
      </trkpt>
      <trkpt lat="45.92618" lon="4.73637">
        <ele>173</ele>
        <time>2018-04-18T08:22:26Z</time>
      </trkpt>
      <trkpt lat="45.92622" lon="4.73645">
        <ele>173</ele>
        <time>2018-04-18T08:22:27Z</time>
      </trkpt>
      <trkpt lat="45.92625" lon="4.73651">
        <ele>173</ele>
        <time>2018-04-18T08:22:28Z</time>
      </trkpt>
      <trkpt lat="45.92628" lon="4.73657">
        <ele>173</ele>
        <time>2018-04-18T08:22:29Z</time>
      </trkpt>
      <trkpt lat="45.92631" lon="4.73664">
        <ele>173</ele>
        <time>2018-04-18T08:22:30Z</time>
      </trkpt>
      <trkpt lat="45.92635" lon="4.7367">
        <ele>173</ele>
        <time>2018-04-18T08:22:31Z</time>
      </trkpt>
      <trkpt lat="45.92639" lon="4.73676">
        <ele>173</ele>
        <time>2018-04-18T08:22:32Z</time>
      </trkpt>
      <trkpt lat="45.92643" lon="4.73682">
        <ele>173</ele>
        <time>2018-04-18T08:22:33Z</time>
      </trkpt>
      <trkpt lat="45.92648" lon="4.73687">
        <ele>173</ele>
        <time>2018-04-18T08:22:34Z</time>
      </trkpt>
      <trkpt lat="45.92651" lon="4.73692">
        <ele>173</ele>
        <time>2018-04-18T08:22:35Z</time>
      </trkpt>
      <trkpt lat="45.92657" lon="4.73696">
        <ele>173</ele>
        <time>2018-04-18T08:22:36Z</time>
      </trkpt>
      <trkpt lat="45.92662" lon="4.737">
        <ele>173</ele>
        <time>2018-04-18T08:22:37Z</time>
      </trkpt>
      <trkpt lat="45.92667" lon="4.73703">
        <ele>173</ele>
        <time>2018-04-18T08:22:38Z</time>
      </trkpt>
      <trkpt lat="45.92672" lon="4.73704">
        <ele>173</ele>
        <time>2018-04-18T08:22:39Z</time>
      </trkpt>
      <trkpt lat="45.92677" lon="4.73705">
        <ele>173</ele>
        <time>2018-04-18T08:22:40Z</time>
      </trkpt>
      <trkpt lat="45.92682" lon="4.73706">
        <ele>173</ele>
        <time>2018-04-18T08:22:41Z</time>
      </trkpt>
      <trkpt lat="45.92688" lon="4.73708">
        <ele>173</ele>
        <time>2018-04-18T08:22:42Z</time>
      </trkpt>
      <trkpt lat="45.92693" lon="4.73709">
        <ele>173</ele>
        <time>2018-04-18T08:22:43Z</time>
      </trkpt>
      <trkpt lat="45.92698" lon="4.7371">
        <ele>173</ele>
        <time>2018-04-18T08:22:44Z</time>
      </trkpt>
      <trkpt lat="45.92703" lon="4.73712">
        <ele>173</ele>
        <time>2018-04-18T08:22:45Z</time>
      </trkpt>
      <trkpt lat="45.92709" lon="4.73713">
        <ele>173</ele>
        <time>2018-04-18T08:22:46Z</time>
      </trkpt>
      <trkpt lat="45.92714" lon="4.73714">
        <ele>173</ele>
        <time>2018-04-18T08:22:47Z</time>
      </trkpt>
      <trkpt lat="45.92719" lon="4.73715">
        <ele>173</ele>
        <time>2018-04-18T08:22:48Z</time>
      </trkpt>
      <trkpt lat="45.92725" lon="4.73717">
        <ele>173</ele>
        <time>2018-04-18T08:22:49Z</time>
      </trkpt>
      <trkpt lat="45.92729" lon="4.73719">
        <ele>173</ele>
        <time>2018-04-18T08:22:50Z</time>
      </trkpt>
      <trkpt lat="45.92734" lon="4.73719">
        <ele>173</ele>
        <time>2018-04-18T08:22:51Z</time>
      </trkpt>
      <trkpt lat="45.9274" lon="4.73721">
        <ele>173</ele>
        <time>2018-04-18T08:22:52Z</time>
      </trkpt>
      <trkpt lat="45.92744" lon="4.73722">
        <ele>173</ele>
        <time>2018-04-18T08:22:53Z</time>
      </trkpt>
      <trkpt lat="45.92749" lon="4.73724">
        <ele>173</ele>
        <time>2018-04-18T08:22:54Z</time>
      </trkpt>
      <trkpt lat="45.92753" lon="4.73726">
        <ele>173</ele>
        <time>2018-04-18T08:22:55Z</time>
      </trkpt>
      <trkpt lat="45.92762" lon="4.73728">
        <ele>173</ele>
        <time>2018-04-18T08:22:57Z</time>
      </trkpt>
      <trkpt lat="45.92765" lon="4.73731">
        <ele>173</ele>
        <time>2018-04-18T08:22:58Z</time>
      </trkpt>
      <trkpt lat="45.9277" lon="4.73732">
        <ele>173</ele>
        <time>2018-04-18T08:23:00Z</time>
      </trkpt>
      <trkpt lat="45.92777" lon="4.73739">
        <ele>173</ele>
        <time>2018-04-18T08:23:01Z</time>
      </trkpt>
      <trkpt lat="45.92782" lon="4.73748">
        <ele>173</ele>
        <time>2018-04-18T08:23:03Z</time>
      </trkpt>
      <trkpt lat="45.92783" lon="4.7375">
        <ele>173</ele>
        <time>2018-04-18T08:23:04Z</time>
      </trkpt>
      <trkpt lat="45.92787" lon="4.73756">
        <ele>173</ele>
        <time>2018-04-18T08:23:05Z</time>
      </trkpt>
      <trkpt lat="45.92791" lon="4.73757">
        <ele>173</ele>
        <time>2018-04-18T08:23:06Z</time>
      </trkpt>
      <trkpt lat="45.928" lon="4.73761">
        <ele>173</ele>
        <time>2018-04-18T08:23:08Z</time>
      </trkpt>
      <trkpt lat="45.92804" lon="4.73764">
        <ele>173</ele>
        <time>2018-04-18T08:23:09Z</time>
      </trkpt>
      <trkpt lat="45.92809" lon="4.73767">
        <ele>172.9</ele>
        <time>2018-04-18T08:23:10Z</time>
      </trkpt>
      <trkpt lat="45.92813" lon="4.7377">
        <ele>172.7</ele>
        <time>2018-04-18T08:23:11Z</time>
      </trkpt>
      <trkpt lat="45.92818" lon="4.73773">
        <ele>172.5</ele>
        <time>2018-04-18T08:23:12Z</time>
      </trkpt>
      <trkpt lat="45.92824" lon="4.73776">
        <ele>172.3</ele>
        <time>2018-04-18T08:23:13Z</time>
      </trkpt>
      <trkpt lat="45.92831" lon="4.7378">
        <ele>172.1</ele>
        <time>2018-04-18T08:23:14Z</time>
      </trkpt>
      <trkpt lat="45.92835" lon="4.73785">
        <ele>172</ele>
        <time>2018-04-18T08:23:15Z</time>
      </trkpt>
      <trkpt lat="45.9284" lon="4.73789">
        <ele>171.9</ele>
        <time>2018-04-18T08:23:16Z</time>
      </trkpt>
      <trkpt lat="45.92846" lon="4.73794">
        <ele>171.7</ele>
        <time>2018-04-18T08:23:17Z</time>
      </trkpt>
      <trkpt lat="45.9285" lon="4.73799">
        <ele>171.5</ele>
        <time>2018-04-18T08:23:18Z</time>
      </trkpt>
      <trkpt lat="45.92854" lon="4.73805">
        <ele>171.3</ele>
        <time>2018-04-18T08:23:19Z</time>
      </trkpt>
      <trkpt lat="45.92857" lon="4.73812">
        <ele>171.2</ele>
        <time>2018-04-18T08:23:20Z</time>
      </trkpt>
      <trkpt lat="45.92859" lon="4.7382">
        <ele>171.1</ele>
        <time>2018-04-18T08:23:21Z</time>
      </trkpt>
      <trkpt lat="45.92861" lon="4.73827">
        <ele>171</ele>
        <time>2018-04-18T08:23:22Z</time>
      </trkpt>
      <trkpt lat="45.92863" lon="4.73834">
        <ele>171.3</ele>
        <time>2018-04-18T08:23:23Z</time>
      </trkpt>
      <trkpt lat="45.92864" lon="4.73841">
        <ele>171.9</ele>
        <time>2018-04-18T08:23:24Z</time>
      </trkpt>
      <trkpt lat="45.92867" lon="4.73849">
        <ele>172.4</ele>
        <time>2018-04-18T08:23:25Z</time>
      </trkpt>
      <trkpt lat="45.92868" lon="4.73857">
        <ele>172.6</ele>
        <time>2018-04-18T08:23:26Z</time>
      </trkpt>
      <trkpt lat="45.9287" lon="4.73865">
        <ele>172.8</ele>
        <time>2018-04-18T08:23:27Z</time>
      </trkpt>
      <trkpt lat="45.92872" lon="4.73873">
        <ele>172.9</ele>
        <time>2018-04-18T08:23:28Z</time>
      </trkpt>
      <trkpt lat="45.92871" lon="4.7388">
        <ele>173.1</ele>
        <time>2018-04-18T08:23:29Z</time>
      </trkpt>
      <trkpt lat="45.92871" lon="4.73885">
        <ele>173.2</ele>
        <time>2018-04-18T08:23:30Z</time>
      </trkpt>
      <trkpt lat="45.92874" lon="4.73895">
        <ele>173</ele>
        <time>2018-04-18T08:23:31Z</time>
      </trkpt>
      <trkpt lat="45.92877" lon="4.73904">
        <ele>172.6</ele>
        <time>2018-04-18T08:23:32Z</time>
      </trkpt>
      <trkpt lat="45.92878" lon="4.73912">
        <ele>172.4</ele>
        <time>2018-04-18T08:23:33Z</time>
      </trkpt>
      <trkpt lat="45.9288" lon="4.73919">
        <ele>172.3</ele>
        <time>2018-04-18T08:23:34Z</time>
      </trkpt>
      <trkpt lat="45.92882" lon="4.73927">
        <ele>172.3</ele>
        <time>2018-04-18T08:23:35Z</time>
      </trkpt>
      <trkpt lat="45.92883" lon="4.73935">
        <ele>172.2</ele>
        <time>2018-04-18T08:23:36Z</time>
      </trkpt>
      <trkpt lat="45.92884" lon="4.73942">
        <ele>172.2</ele>
        <time>2018-04-18T08:23:37Z</time>
      </trkpt>
      <trkpt lat="45.92884" lon="4.73949">
        <ele>172.2</ele>
        <time>2018-04-18T08:23:38Z</time>
      </trkpt>
      <trkpt lat="45.92883" lon="4.73955">
        <ele>172.2</ele>
        <time>2018-04-18T08:23:39Z</time>
      </trkpt>
      <trkpt lat="45.92885" lon="4.73966">
        <ele>172.2</ele>
        <time>2018-04-18T08:23:40Z</time>
      </trkpt>
      <trkpt lat="45.92885" lon="4.73978">
        <ele>172.3</ele>
        <time>2018-04-18T08:23:41Z</time>
      </trkpt>
      <trkpt lat="45.92881" lon="4.73984">
        <ele>172.6</ele>
        <time>2018-04-18T08:23:43Z</time>
      </trkpt>
      <trkpt lat="45.92879" lon="4.73991">
        <ele>172.8</ele>
        <time>2018-04-18T08:23:44Z</time>
      </trkpt>
      <trkpt lat="45.92875" lon="4.73999">
        <ele>173</ele>
        <time>2018-04-18T08:23:46Z</time>
      </trkpt>
      <trkpt lat="45.92874" lon="4.74005">
        <ele>173.1</ele>
        <time>2018-04-18T08:23:47Z</time>
      </trkpt>
      <trkpt lat="45.92873" lon="4.74015">
        <ele>173.2</ele>
        <time>2018-04-18T08:23:49Z</time>
      </trkpt>
      <trkpt lat="45.92872" lon="4.74023">
        <ele>173.3</ele>
        <time>2018-04-18T08:23:50Z</time>
      </trkpt>
      <trkpt lat="45.9287" lon="4.74029">
        <ele>173.3</ele>
        <time>2018-04-18T08:23:51Z</time>
      </trkpt>
      <trkpt lat="45.92868" lon="4.74035">
        <ele>173</ele>
        <time>2018-04-18T08:23:52Z</time>
      </trkpt>
      <trkpt lat="45.92864" lon="4.74041">
        <ele>172.6</ele>
        <time>2018-04-18T08:23:53Z</time>
      </trkpt>
      <trkpt lat="45.92862" lon="4.74046">
        <ele>172.4</ele>
        <time>2018-04-18T08:23:54Z</time>
      </trkpt>
      <trkpt lat="45.92856" lon="4.74047">
        <ele>172.4</ele>
        <time>2018-04-18T08:23:55Z</time>
      </trkpt>
      <trkpt lat="45.92853" lon="4.74054">
        <ele>172.3</ele>
        <time>2018-04-18T08:23:56Z</time>
      </trkpt>
      <trkpt lat="45.92849" lon="4.74061">
        <ele>172.4</ele>
        <time>2018-04-18T08:23:57Z</time>
      </trkpt>
      <trkpt lat="45.92845" lon="4.74067">
        <ele>172.3</ele>
        <time>2018-04-18T08:23:58Z</time>
      </trkpt>
      <trkpt lat="45.92842" lon="4.74072">
        <ele>172.3</ele>
        <time>2018-04-18T08:23:59Z</time>
      </trkpt>
      <trkpt lat="45.92837" lon="4.74077">
        <ele>172.2</ele>
        <time>2018-04-18T08:24:00Z</time>
      </trkpt>
      <trkpt lat="45.92833" lon="4.74083">
        <ele>172</ele>
        <time>2018-04-18T08:24:01Z</time>
      </trkpt>
      <trkpt lat="45.92828" lon="4.74088">
        <ele>172.1</ele>
        <time>2018-04-18T08:24:02Z</time>
      </trkpt>
      <trkpt lat="45.92824" lon="4.74092">
        <ele>172.2</ele>
        <time>2018-04-18T08:24:03Z</time>
      </trkpt>
      <trkpt lat="45.92819" lon="4.74097">
        <ele>172.3</ele>
        <time>2018-04-18T08:24:04Z</time>
      </trkpt>
      <trkpt lat="45.92816" lon="4.74102">
        <ele>172.2</ele>
        <time>2018-04-18T08:24:05Z</time>
      </trkpt>
      <trkpt lat="45.92812" lon="4.7411">
        <ele>172</ele>
        <time>2018-04-18T08:24:06Z</time>
      </trkpt>
      <trkpt lat="45.92806" lon="4.74113">
        <ele>172</ele>
        <time>2018-04-18T08:24:07Z</time>
      </trkpt>
      <trkpt lat="45.92802" lon="4.74119">
        <ele>172.1</ele>
        <time>2018-04-18T08:24:08Z</time>
      </trkpt>
      <trkpt lat="45.92798" lon="4.74123">
        <ele>172.2</ele>
        <time>2018-04-18T08:24:09Z</time>
      </trkpt>
      <trkpt lat="45.92793" lon="4.74127">
        <ele>172.2</ele>
        <time>2018-04-18T08:24:10Z</time>
      </trkpt>
      <trkpt lat="45.92789" lon="4.74132">
        <ele>172.2</ele>
        <time>2018-04-18T08:24:11Z</time>
      </trkpt>
      <trkpt lat="45.92784" lon="4.74136">
        <ele>172.1</ele>
        <time>2018-04-18T08:24:12Z</time>
      </trkpt>
      <trkpt lat="45.92779" lon="4.7414">
        <ele>172</ele>
        <time>2018-04-18T08:24:13Z</time>
      </trkpt>
      <trkpt lat="45.92775" lon="4.74144">
        <ele>172.1</ele>
        <time>2018-04-18T08:24:14Z</time>
      </trkpt>
      <trkpt lat="45.92771" lon="4.74149">
        <ele>172.3</ele>
        <time>2018-04-18T08:24:15Z</time>
      </trkpt>
      <trkpt lat="45.92766" lon="4.74153">
        <ele>172.4</ele>
        <time>2018-04-18T08:24:16Z</time>
      </trkpt>
      <trkpt lat="45.92762" lon="4.74158">
        <ele>172.6</ele>
        <time>2018-04-18T08:24:17Z</time>
      </trkpt>
      <trkpt lat="45.92759" lon="4.74164">
        <ele>172.7</ele>
        <time>2018-04-18T08:24:18Z</time>
      </trkpt>
      <trkpt lat="45.92754" lon="4.74168">
        <ele>172.8</ele>
        <time>2018-04-18T08:24:19Z</time>
      </trkpt>
      <trkpt lat="45.9275" lon="4.74174">
        <ele>172.7</ele>
        <time>2018-04-18T08:24:20Z</time>
      </trkpt>
      <trkpt lat="45.92746" lon="4.74179">
        <ele>172.6</ele>
        <time>2018-04-18T08:24:21Z</time>
      </trkpt>
      <trkpt lat="45.92743" lon="4.74184">
        <ele>172.5</ele>
        <time>2018-04-18T08:24:22Z</time>
      </trkpt>
      <trkpt lat="45.9274" lon="4.74191">
        <ele>172.5</ele>
        <time>2018-04-18T08:24:23Z</time>
      </trkpt>
      <trkpt lat="45.92736" lon="4.74195">
        <ele>172.5</ele>
        <time>2018-04-18T08:24:24Z</time>
      </trkpt>
      <trkpt lat="45.92733" lon="4.742">
        <ele>172.5</ele>
        <time>2018-04-18T08:24:25Z</time>
      </trkpt>
      <trkpt lat="45.92729" lon="4.74205">
        <ele>172.5</ele>
        <time>2018-04-18T08:24:26Z</time>
      </trkpt>
      <trkpt lat="45.92726" lon="4.7421">
        <ele>172.4</ele>
        <time>2018-04-18T08:24:27Z</time>
      </trkpt>
      <trkpt lat="45.92722" lon="4.74215">
        <ele>172.3</ele>
        <time>2018-04-18T08:24:28Z</time>
      </trkpt>
      <trkpt lat="45.92718" lon="4.74221">
        <ele>172.2</ele>
        <time>2018-04-18T08:24:29Z</time>
      </trkpt>
      <trkpt lat="45.92714" lon="4.74227">
        <ele>172.3</ele>
        <time>2018-04-18T08:24:30Z</time>
      </trkpt>
      <trkpt lat="45.9271" lon="4.74232">
        <ele>172.4</ele>
        <time>2018-04-18T08:24:31Z</time>
      </trkpt>
      <trkpt lat="45.92706" lon="4.74237">
        <ele>172.6</ele>
        <time>2018-04-18T08:24:32Z</time>
      </trkpt>
      <trkpt lat="45.92703" lon="4.74243">
        <ele>172.7</ele>
        <time>2018-04-18T08:24:33Z</time>
      </trkpt>
      <trkpt lat="45.92699" lon="4.74248">
        <ele>172.8</ele>
        <time>2018-04-18T08:24:34Z</time>
      </trkpt>
      <trkpt lat="45.92695" lon="4.74255">
        <ele>172.8</ele>
        <time>2018-04-18T08:24:35Z</time>
      </trkpt>
      <trkpt lat="45.92692" lon="4.74262">
        <ele>172.7</ele>
        <time>2018-04-18T08:24:36Z</time>
      </trkpt>
      <trkpt lat="45.92687" lon="4.74268">
        <ele>172.6</ele>
        <time>2018-04-18T08:24:37Z</time>
      </trkpt>
      <trkpt lat="45.92684" lon="4.74276">
        <ele>172.5</ele>
        <time>2018-04-18T08:24:38Z</time>
      </trkpt>
      <trkpt lat="45.92681" lon="4.74281">
        <ele>172.5</ele>
        <time>2018-04-18T08:24:39Z</time>
      </trkpt>
      <trkpt lat="45.92677" lon="4.74288">
        <ele>172.6</ele>
        <time>2018-04-18T08:24:40Z</time>
      </trkpt>
      <trkpt lat="45.92672" lon="4.74296">
        <ele>172.8</ele>
        <time>2018-04-18T08:24:41Z</time>
      </trkpt>
      <trkpt lat="45.92667" lon="4.74303">
        <ele>173</ele>
        <time>2018-04-18T08:24:42Z</time>
      </trkpt>
      <trkpt lat="45.92664" lon="4.74311">
        <ele>172.8</ele>
        <time>2018-04-18T08:24:43Z</time>
      </trkpt>
      <trkpt lat="45.9266" lon="4.74317">
        <ele>172.6</ele>
        <time>2018-04-18T08:24:44Z</time>
      </trkpt>
      <trkpt lat="45.92656" lon="4.74324">
        <ele>172.3</ele>
        <time>2018-04-18T08:24:45Z</time>
      </trkpt>
      <trkpt lat="45.92654" lon="4.7433">
        <ele>172.1</ele>
        <time>2018-04-18T08:24:46Z</time>
      </trkpt>
      <trkpt lat="45.9265" lon="4.74338">
        <ele>172</ele>
        <time>2018-04-18T08:24:47Z</time>
      </trkpt>
      <trkpt lat="45.92646" lon="4.74345">
        <ele>172</ele>
        <time>2018-04-18T08:24:48Z</time>
      </trkpt>
      <trkpt lat="45.92642" lon="4.74354">
        <ele>172</ele>
        <time>2018-04-18T08:24:49Z</time>
      </trkpt>
      <trkpt lat="45.92639" lon="4.74361">
        <ele>172</ele>
        <time>2018-04-18T08:24:50Z</time>
      </trkpt>
      <trkpt lat="45.92634" lon="4.74367">
        <ele>172.1</ele>
        <time>2018-04-18T08:24:51Z</time>
      </trkpt>
      <trkpt lat="45.9263" lon="4.74374">
        <ele>172.2</ele>
        <time>2018-04-18T08:24:52Z</time>
      </trkpt>
      <trkpt lat="45.92627" lon="4.74381">
        <ele>172.1</ele>
        <time>2018-04-18T08:24:53Z</time>
      </trkpt>
      <trkpt lat="45.92623" lon="4.7439">
        <ele>172</ele>
        <time>2018-04-18T08:24:54Z</time>
      </trkpt>
      <trkpt lat="45.92619" lon="4.74395">
        <ele>172</ele>
        <time>2018-04-18T08:24:55Z</time>
      </trkpt>
      <trkpt lat="45.92615" lon="4.74403">
        <ele>172</ele>
        <time>2018-04-18T08:24:56Z</time>
      </trkpt>
      <trkpt lat="45.92611" lon="4.74409">
        <ele>172</ele>
        <time>2018-04-18T08:24:57Z</time>
      </trkpt>
      <trkpt lat="45.92607" lon="4.74417">
        <ele>172</ele>
        <time>2018-04-18T08:24:58Z</time>
      </trkpt>
      <trkpt lat="45.92603" lon="4.74425">
        <ele>171.8</ele>
        <time>2018-04-18T08:24:59Z</time>
      </trkpt>
      <trkpt lat="45.92598" lon="4.74431">
        <ele>171.7</ele>
        <time>2018-04-18T08:25:00Z</time>
      </trkpt>
      <trkpt lat="45.92595" lon="4.74439">
        <ele>171.7</ele>
        <time>2018-04-18T08:25:01Z</time>
      </trkpt>
      <trkpt lat="45.9259" lon="4.74445">
        <ele>171.8</ele>
        <time>2018-04-18T08:25:02Z</time>
      </trkpt>
      <trkpt lat="45.92586" lon="4.74451">
        <ele>171.9</ele>
        <time>2018-04-18T08:25:03Z</time>
      </trkpt>
      <trkpt lat="45.92582" lon="4.74456">
        <ele>172.1</ele>
        <time>2018-04-18T08:25:04Z</time>
      </trkpt>
      <trkpt lat="45.92578" lon="4.74463">
        <ele>172.2</ele>
        <time>2018-04-18T08:25:05Z</time>
      </trkpt>
      <trkpt lat="45.92574" lon="4.74471">
        <ele>172.1</ele>
        <time>2018-04-18T08:25:06Z</time>
      </trkpt>
      <trkpt lat="45.92571" lon="4.74477">
        <ele>171.9</ele>
        <time>2018-04-18T08:25:07Z</time>
      </trkpt>
      <trkpt lat="45.92566" lon="4.74484">
        <ele>171.8</ele>
        <time>2018-04-18T08:25:08Z</time>
      </trkpt>
      <trkpt lat="45.92563" lon="4.74492">
        <ele>171.8</ele>
        <time>2018-04-18T08:25:09Z</time>
      </trkpt>
      <trkpt lat="45.9256" lon="4.74499">
        <ele>171.9</ele>
        <time>2018-04-18T08:25:10Z</time>
      </trkpt>
      <trkpt lat="45.92556" lon="4.74505">
        <ele>172</ele>
        <time>2018-04-18T08:25:11Z</time>
      </trkpt>
      <trkpt lat="45.92552" lon="4.74512">
        <ele>172.1</ele>
        <time>2018-04-18T08:25:12Z</time>
      </trkpt>
      <trkpt lat="45.92549" lon="4.74519">
        <ele>172.2</ele>
        <time>2018-04-18T08:25:13Z</time>
      </trkpt>
      <trkpt lat="45.92545" lon="4.74527">
        <ele>172</ele>
        <time>2018-04-18T08:25:14Z</time>
      </trkpt>
      <trkpt lat="45.9254" lon="4.74534">
        <ele>171.9</ele>
        <time>2018-04-18T08:25:15Z</time>
      </trkpt>
      <trkpt lat="45.92536" lon="4.74541">
        <ele>171.9</ele>
        <time>2018-04-18T08:25:16Z</time>
      </trkpt>
      <trkpt lat="45.92532" lon="4.74548">
        <ele>171.9</ele>
        <time>2018-04-18T08:25:17Z</time>
      </trkpt>
      <trkpt lat="45.92527" lon="4.74555">
        <ele>172</ele>
        <time>2018-04-18T08:25:18Z</time>
      </trkpt>
      <trkpt lat="45.92522" lon="4.7456">
        <ele>172.2</ele>
        <time>2018-04-18T08:25:19Z</time>
      </trkpt>
      <trkpt lat="45.92518" lon="4.74565">
        <ele>172.2</ele>
        <time>2018-04-18T08:25:20Z</time>
      </trkpt>
      <trkpt lat="45.92512" lon="4.7457">
        <ele>172.3</ele>
        <time>2018-04-18T08:25:21Z</time>
      </trkpt>
      <trkpt lat="45.92508" lon="4.74575">
        <ele>172.2</ele>
        <time>2018-04-18T08:25:22Z</time>
      </trkpt>
      <trkpt lat="45.92503" lon="4.7458">
        <ele>172.1</ele>
        <time>2018-04-18T08:25:23Z</time>
      </trkpt>
      <trkpt lat="45.92499" lon="4.74585">
        <ele>172.1</ele>
        <time>2018-04-18T08:25:24Z</time>
      </trkpt>
      <trkpt lat="45.92494" lon="4.74591">
        <ele>172.5</ele>
        <time>2018-04-18T08:25:25Z</time>
      </trkpt>
      <trkpt lat="45.9249" lon="4.74598">
        <ele>172.7</ele>
        <time>2018-04-18T08:25:26Z</time>
      </trkpt>
      <trkpt lat="45.92486" lon="4.74603">
        <ele>172.8</ele>
        <time>2018-04-18T08:25:27Z</time>
      </trkpt>
      <trkpt lat="45.92482" lon="4.74609">
        <ele>172.8</ele>
        <time>2018-04-18T08:25:28Z</time>
      </trkpt>
      <trkpt lat="45.92478" lon="4.74615">
        <ele>172.8</ele>
        <time>2018-04-18T08:25:29Z</time>
      </trkpt>
      <trkpt lat="45.92474" lon="4.74621">
        <ele>172.9</ele>
        <time>2018-04-18T08:25:30Z</time>
      </trkpt>
      <trkpt lat="45.9247" lon="4.74627">
        <ele>173.1</ele>
        <time>2018-04-18T08:25:31Z</time>
      </trkpt>
      <trkpt lat="45.92466" lon="4.74633">
        <ele>173.3</ele>
        <time>2018-04-18T08:25:32Z</time>
      </trkpt>
      <trkpt lat="45.92462" lon="4.7464">
        <ele>173.8</ele>
        <time>2018-04-18T08:25:33Z</time>
      </trkpt>
      <trkpt lat="45.92458" lon="4.74645">
        <ele>174.2</ele>
        <time>2018-04-18T08:25:34Z</time>
      </trkpt>
      <trkpt lat="45.92455" lon="4.74651">
        <ele>174.4</ele>
        <time>2018-04-18T08:25:35Z</time>
      </trkpt>
      <trkpt lat="45.92452" lon="4.74655">
        <ele>174.2</ele>
        <time>2018-04-18T08:25:36Z</time>
      </trkpt>
      <trkpt lat="45.92448" lon="4.74662">
        <ele>173.7</ele>
        <time>2018-04-18T08:25:37Z</time>
      </trkpt>
      <trkpt lat="45.92444" lon="4.74668">
        <ele>173</ele>
        <time>2018-04-18T08:25:38Z</time>
      </trkpt>
      <trkpt lat="45.92442" lon="4.74676">
        <ele>173.1</ele>
        <time>2018-04-18T08:25:39Z</time>
      </trkpt>
      <trkpt lat="45.92437" lon="4.74685">
        <ele>173.4</ele>
        <time>2018-04-18T08:25:40Z</time>
      </trkpt>
      <trkpt lat="45.92435" lon="4.74693">
        <ele>173.7</ele>
        <time>2018-04-18T08:25:41Z</time>
      </trkpt>
      <trkpt lat="45.92433" lon="4.74699">
        <ele>173.6</ele>
        <time>2018-04-18T08:25:42Z</time>
      </trkpt>
      <trkpt lat="45.92431" lon="4.74708">
        <ele>173</ele>
        <time>2018-04-18T08:25:43Z</time>
      </trkpt>
      <trkpt lat="45.92429" lon="4.74715">
        <ele>172.5</ele>
        <time>2018-04-18T08:25:44Z</time>
      </trkpt>
      <trkpt lat="45.92425" lon="4.74724">
        <ele>172</ele>
        <time>2018-04-18T08:25:45Z</time>
      </trkpt>
      <trkpt lat="45.92422" lon="4.74734">
        <ele>172.3</ele>
        <time>2018-04-18T08:25:46Z</time>
      </trkpt>
      <trkpt lat="45.92419" lon="4.74743">
        <ele>172.6</ele>
        <time>2018-04-18T08:25:47Z</time>
      </trkpt>
      <trkpt lat="45.92417" lon="4.7475">
        <ele>173</ele>
        <time>2018-04-18T08:25:48Z</time>
      </trkpt>
      <trkpt lat="45.92414" lon="4.74757">
        <ele>172.8</ele>
        <time>2018-04-18T08:25:49Z</time>
      </trkpt>
      <trkpt lat="45.92412" lon="4.74767">
        <ele>172.4</ele>
        <time>2018-04-18T08:25:50Z</time>
      </trkpt>
      <trkpt lat="45.9241" lon="4.74776">
        <ele>172.1</ele>
        <time>2018-04-18T08:25:51Z</time>
      </trkpt>
      <trkpt lat="45.92408" lon="4.74785">
        <ele>172</ele>
        <time>2018-04-18T08:25:52Z</time>
      </trkpt>
      <trkpt lat="45.92406" lon="4.74792">
        <ele>172</ele>
        <time>2018-04-18T08:25:53Z</time>
      </trkpt>
      <trkpt lat="45.92404" lon="4.748">
        <ele>172</ele>
        <time>2018-04-18T08:25:54Z</time>
      </trkpt>
      <trkpt lat="45.92402" lon="4.74812">
        <ele>171.9</ele>
        <time>2018-04-18T08:25:55Z</time>
      </trkpt>
      <trkpt lat="45.924" lon="4.74823">
        <ele>171.8</ele>
        <time>2018-04-18T08:25:56Z</time>
      </trkpt>
      <trkpt lat="45.92399" lon="4.74828">
        <ele>171.7</ele>
        <time>2018-04-18T08:25:57Z</time>
      </trkpt>
      <trkpt lat="45.92396" lon="4.74837">
        <ele>171.7</ele>
        <time>2018-04-18T08:25:58Z</time>
      </trkpt>
      <trkpt lat="45.92393" lon="4.74847">
        <ele>171.9</ele>
        <time>2018-04-18T08:25:59Z</time>
      </trkpt>
      <trkpt lat="45.9239" lon="4.74856">
        <ele>172</ele>
        <time>2018-04-18T08:26:00Z</time>
      </trkpt>
      <trkpt lat="45.92387" lon="4.74867">
        <ele>171.8</ele>
        <time>2018-04-18T08:26:01Z</time>
      </trkpt>
      <trkpt lat="45.92384" lon="4.74875">
        <ele>171.6</ele>
        <time>2018-04-18T08:26:02Z</time>
      </trkpt>
      <trkpt lat="45.9238" lon="4.74883">
        <ele>171.5</ele>
        <time>2018-04-18T08:26:03Z</time>
      </trkpt>
      <trkpt lat="45.92378" lon="4.74889">
        <ele>171.4</ele>
        <time>2018-04-18T08:26:04Z</time>
      </trkpt>
      <trkpt lat="45.92375" lon="4.74898">
        <ele>171.3</ele>
        <time>2018-04-18T08:26:05Z</time>
      </trkpt>
      <trkpt lat="45.92371" lon="4.74906">
        <ele>171.3</ele>
        <time>2018-04-18T08:26:06Z</time>
      </trkpt>
      <trkpt lat="45.92367" lon="4.74914">
        <ele>171.1</ele>
        <time>2018-04-18T08:26:07Z</time>
      </trkpt>
      <trkpt lat="45.92364" lon="4.74922">
        <ele>171</ele>
        <time>2018-04-18T08:26:08Z</time>
      </trkpt>
      <trkpt lat="45.92361" lon="4.74927">
        <ele>171</ele>
        <time>2018-04-18T08:26:09Z</time>
      </trkpt>
      <trkpt lat="45.92358" lon="4.74937">
        <ele>171.1</ele>
        <time>2018-04-18T08:26:10Z</time>
      </trkpt>
      <trkpt lat="45.92355" lon="4.74944">
        <ele>171.2</ele>
        <time>2018-04-18T08:26:11Z</time>
      </trkpt>
      <trkpt lat="45.92352" lon="4.74951">
        <ele>171.3</ele>
        <time>2018-04-18T08:26:12Z</time>
      </trkpt>
      <trkpt lat="45.92349" lon="4.7496">
        <ele>171.4</ele>
        <time>2018-04-18T08:26:13Z</time>
      </trkpt>
      <trkpt lat="45.92346" lon="4.74967">
        <ele>171.5</ele>
        <time>2018-04-18T08:26:14Z</time>
      </trkpt>
      <trkpt lat="45.92345" lon="4.74974">
        <ele>171.5</ele>
        <time>2018-04-18T08:26:15Z</time>
      </trkpt>
      <trkpt lat="45.92343" lon="4.74982">
        <ele>171.4</ele>
        <time>2018-04-18T08:26:16Z</time>
      </trkpt>
      <trkpt lat="45.9234" lon="4.74993">
        <ele>171.2</ele>
        <time>2018-04-18T08:26:17Z</time>
      </trkpt>
      <trkpt lat="45.92339" lon="4.75">
        <ele>171</ele>
        <time>2018-04-18T08:26:18Z</time>
      </trkpt>
      <trkpt lat="45.92335" lon="4.75006">
        <ele>171</ele>
        <time>2018-04-18T08:26:19Z</time>
      </trkpt>
      <trkpt lat="45.92331" lon="4.75015">
        <ele>171</ele>
        <time>2018-04-18T08:26:20Z</time>
      </trkpt>
      <trkpt lat="45.92328" lon="4.75022">
        <ele>171</ele>
        <time>2018-04-18T08:26:21Z</time>
      </trkpt>
      <trkpt lat="45.92325" lon="4.75027">
        <ele>171</ele>
        <time>2018-04-18T08:26:22Z</time>
      </trkpt>
      <trkpt lat="45.92322" lon="4.75036">
        <ele>171</ele>
        <time>2018-04-18T08:26:23Z</time>
      </trkpt>
      <trkpt lat="45.92317" lon="4.75041">
        <ele>171</ele>
        <time>2018-04-18T08:26:24Z</time>
      </trkpt>
      <trkpt lat="45.92313" lon="4.75048">
        <ele>171</ele>
        <time>2018-04-18T08:26:25Z</time>
      </trkpt>
      <trkpt lat="45.9231" lon="4.75053">
        <ele>171</ele>
        <time>2018-04-18T08:26:26Z</time>
      </trkpt>
      <trkpt lat="45.92306" lon="4.75058">
        <ele>171</ele>
        <time>2018-04-18T08:26:27Z</time>
      </trkpt>
      <trkpt lat="45.92302" lon="4.75065">
        <ele>171.1</ele>
        <time>2018-04-18T08:26:28Z</time>
      </trkpt>
      <trkpt lat="45.92298" lon="4.75071">
        <ele>171.3</ele>
        <time>2018-04-18T08:26:29Z</time>
      </trkpt>
      <trkpt lat="45.92293" lon="4.75076">
        <ele>171.4</ele>
        <time>2018-04-18T08:26:30Z</time>
      </trkpt>
      <trkpt lat="45.92288" lon="4.75079">
        <ele>171.6</ele>
        <time>2018-04-18T08:26:31Z</time>
      </trkpt>
      <trkpt lat="45.92284" lon="4.75084">
        <ele>171.8</ele>
        <time>2018-04-18T08:26:32Z</time>
      </trkpt>
      <trkpt lat="45.92279" lon="4.75088">
        <ele>172</ele>
        <time>2018-04-18T08:26:33Z</time>
      </trkpt>
      <trkpt lat="45.92274" lon="4.75093">
        <ele>172.1</ele>
        <time>2018-04-18T08:26:34Z</time>
      </trkpt>
      <trkpt lat="45.92269" lon="4.75096">
        <ele>172.2</ele>
        <time>2018-04-18T08:26:35Z</time>
      </trkpt>
      <trkpt lat="45.92264" lon="4.751">
        <ele>172.2</ele>
        <time>2018-04-18T08:26:36Z</time>
      </trkpt>
      <trkpt lat="45.9226" lon="4.75103">
        <ele>172.2</ele>
        <time>2018-04-18T08:26:37Z</time>
      </trkpt>
      <trkpt lat="45.92256" lon="4.75111">
        <ele>172</ele>
        <time>2018-04-18T08:26:38Z</time>
      </trkpt>
      <trkpt lat="45.92252" lon="4.75115">
        <ele>172</ele>
        <time>2018-04-18T08:26:39Z</time>
      </trkpt>
      <trkpt lat="45.92248" lon="4.7512">
        <ele>172.2</ele>
        <time>2018-04-18T08:26:40Z</time>
      </trkpt>
      <trkpt lat="45.92243" lon="4.75125">
        <ele>172.4</ele>
        <time>2018-04-18T08:26:41Z</time>
      </trkpt>
      <trkpt lat="45.9224" lon="4.75131">
        <ele>172.5</ele>
        <time>2018-04-18T08:26:42Z</time>
      </trkpt>
      <trkpt lat="45.92236" lon="4.75136">
        <ele>172.6</ele>
        <time>2018-04-18T08:26:43Z</time>
      </trkpt>
      <trkpt lat="45.92232" lon="4.75142">
        <ele>172.7</ele>
        <time>2018-04-18T08:26:44Z</time>
      </trkpt>
      <trkpt lat="45.92229" lon="4.75147">
        <ele>172.8</ele>
        <time>2018-04-18T08:26:45Z</time>
      </trkpt>
      <trkpt lat="45.92227" lon="4.75157">
        <ele>172.9</ele>
        <time>2018-04-18T08:26:46Z</time>
      </trkpt>
      <trkpt lat="45.92225" lon="4.75164">
        <ele>173</ele>
        <time>2018-04-18T08:26:47Z</time>
      </trkpt>
      <trkpt lat="45.92222" lon="4.7517">
        <ele>173</ele>
        <time>2018-04-18T08:26:48Z</time>
      </trkpt>
      <trkpt lat="45.92219" lon="4.75176">
        <ele>173.1</ele>
        <time>2018-04-18T08:26:49Z</time>
      </trkpt>
      <trkpt lat="45.92217" lon="4.75181">
        <ele>173.2</ele>
        <time>2018-04-18T08:26:50Z</time>
      </trkpt>
      <trkpt lat="45.92214" lon="4.75186">
        <ele>173.3</ele>
        <time>2018-04-18T08:26:51Z</time>
      </trkpt>
      <trkpt lat="45.92213" lon="4.75194">
        <ele>173.3</ele>
        <time>2018-04-18T08:26:52Z</time>
      </trkpt>
      <trkpt lat="45.92211" lon="4.75201">
        <ele>173.7</ele>
        <time>2018-04-18T08:26:53Z</time>
      </trkpt>
      <trkpt lat="45.9221" lon="4.75208">
        <ele>174</ele>
        <time>2018-04-18T08:26:54Z</time>
      </trkpt>
      <trkpt lat="45.92209" lon="4.75215">
        <ele>174.3</ele>
        <time>2018-04-18T08:26:55Z</time>
      </trkpt>
      <trkpt lat="45.92209" lon="4.75222">
        <ele>174.5</ele>
        <time>2018-04-18T08:26:56Z</time>
      </trkpt>
      <trkpt lat="45.92208" lon="4.75235">
        <ele>174.7</ele>
        <time>2018-04-18T08:26:58Z</time>
      </trkpt>
      <trkpt lat="45.92209" lon="4.75241">
        <ele>174.9</ele>
        <time>2018-04-18T08:26:59Z</time>
      </trkpt>
      <trkpt lat="45.92208" lon="4.75249">
        <ele>175</ele>
        <time>2018-04-18T08:27:00Z</time>
      </trkpt>
      <trkpt lat="45.92208" lon="4.75257">
        <ele>175.1</ele>
        <time>2018-04-18T08:27:01Z</time>
      </trkpt>
      <trkpt lat="45.92206" lon="4.75269">
        <ele>175.3</ele>
        <time>2018-04-18T08:27:03Z</time>
      </trkpt>
      <trkpt lat="45.92206" lon="4.75277">
        <ele>175.4</ele>
        <time>2018-04-18T08:27:04Z</time>
      </trkpt>
      <trkpt lat="45.92205" lon="4.75284">
        <ele>175.4</ele>
        <time>2018-04-18T08:27:05Z</time>
      </trkpt>
      <trkpt lat="45.92204" lon="4.75292">
        <ele>175.4</ele>
        <time>2018-04-18T08:27:06Z</time>
      </trkpt>
      <trkpt lat="45.92204" lon="4.75304">
        <ele>175.3</ele>
        <time>2018-04-18T08:27:08Z</time>
      </trkpt>
      <trkpt lat="45.92203" lon="4.7531">
        <ele>175.3</ele>
        <time>2018-04-18T08:27:09Z</time>
      </trkpt>
      <trkpt lat="45.92202" lon="4.75312">
        <ele>175.3</ele>
        <time>2018-04-18T08:27:10Z</time>
      </trkpt>
      <trkpt lat="45.922" lon="4.75323">
        <ele>175.3</ele>
        <time>2018-04-18T08:27:11Z</time>
      </trkpt>
      <trkpt lat="45.922" lon="4.75335">
        <ele>175.4</ele>
        <time>2018-04-18T08:27:13Z</time>
      </trkpt>
      <trkpt lat="45.92199" lon="4.75343">
        <ele>175.6</ele>
        <time>2018-04-18T08:27:14Z</time>
      </trkpt>
      <trkpt lat="45.92196" lon="4.75349">
        <ele>175.7</ele>
        <time>2018-04-18T08:27:15Z</time>
      </trkpt>
      <trkpt lat="45.92194" lon="4.75357">
        <ele>175.8</ele>
        <time>2018-04-18T08:27:16Z</time>
      </trkpt>
      <trkpt lat="45.92192" lon="4.75362">
        <ele>176</ele>
        <time>2018-04-18T08:27:17Z</time>
      </trkpt>
      <trkpt lat="45.9219" lon="4.75371">
        <ele>176</ele>
        <time>2018-04-18T08:27:18Z</time>
      </trkpt>
      <trkpt lat="45.92187" lon="4.75376">
        <ele>176</ele>
        <time>2018-04-18T08:27:19Z</time>
      </trkpt>
      <trkpt lat="45.92184" lon="4.75384">
        <ele>176</ele>
        <time>2018-04-18T08:27:20Z</time>
      </trkpt>
      <trkpt lat="45.92181" lon="4.75391">
        <ele>176</ele>
        <time>2018-04-18T08:27:21Z</time>
      </trkpt>
      <trkpt lat="45.92178" lon="4.75401">
        <ele>176</ele>
        <time>2018-04-18T08:27:22Z</time>
      </trkpt>
      <trkpt lat="45.92175" lon="4.75409">
        <ele>176</ele>
        <time>2018-04-18T08:27:23Z</time>
      </trkpt>
      <trkpt lat="45.92172" lon="4.75419">
        <ele>175.9</ele>
        <time>2018-04-18T08:27:24Z</time>
      </trkpt>
      <trkpt lat="45.92169" lon="4.75426">
        <ele>175.7</ele>
        <time>2018-04-18T08:27:25Z</time>
      </trkpt>
      <trkpt lat="45.92166" lon="4.75433">
        <ele>175.4</ele>
        <time>2018-04-18T08:27:26Z</time>
      </trkpt>
      <trkpt lat="45.92163" lon="4.75441">
        <ele>175.3</ele>
        <time>2018-04-18T08:27:27Z</time>
      </trkpt>
      <trkpt lat="45.9216" lon="4.75448">
        <ele>175.3</ele>
        <time>2018-04-18T08:27:28Z</time>
      </trkpt>
      <trkpt lat="45.92158" lon="4.75458">
        <ele>175.3</ele>
        <time>2018-04-18T08:27:29Z</time>
      </trkpt>
      <trkpt lat="45.92154" lon="4.75467">
        <ele>175.4</ele>
        <time>2018-04-18T08:27:30Z</time>
      </trkpt>
      <trkpt lat="45.92151" lon="4.75477">
        <ele>175.5</ele>
        <time>2018-04-18T08:27:31Z</time>
      </trkpt>
      <trkpt lat="45.92147" lon="4.75484">
        <ele>175.4</ele>
        <time>2018-04-18T08:27:32Z</time>
      </trkpt>
      <trkpt lat="45.92145" lon="4.75492">
        <ele>175.2</ele>
        <time>2018-04-18T08:27:33Z</time>
      </trkpt>
      <trkpt lat="45.92143" lon="4.75498">
        <ele>175.1</ele>
        <time>2018-04-18T08:27:34Z</time>
      </trkpt>
      <trkpt lat="45.92138" lon="4.75504">
        <ele>174.9</ele>
        <time>2018-04-18T08:27:35Z</time>
      </trkpt>
      <trkpt lat="45.92134" lon="4.75511">
        <ele>174.8</ele>
        <time>2018-04-18T08:27:36Z</time>
      </trkpt>
      <trkpt lat="45.92131" lon="4.7552">
        <ele>174.6</ele>
        <time>2018-04-18T08:27:37Z</time>
      </trkpt>
      <trkpt lat="45.92128" lon="4.75529">
        <ele>174.4</ele>
        <time>2018-04-18T08:27:38Z</time>
      </trkpt>
      <trkpt lat="45.92123" lon="4.75536">
        <ele>174.4</ele>
        <time>2018-04-18T08:27:39Z</time>
      </trkpt>
      <trkpt lat="45.9212" lon="4.75544">
        <ele>174.3</ele>
        <time>2018-04-18T08:27:40Z</time>
      </trkpt>
      <trkpt lat="45.92117" lon="4.75549">
        <ele>174.2</ele>
        <time>2018-04-18T08:27:41Z</time>
      </trkpt>
      <trkpt lat="45.92115" lon="4.75557">
        <ele>174</ele>
        <time>2018-04-18T08:27:42Z</time>
      </trkpt>
      <trkpt lat="45.92111" lon="4.75564">
        <ele>174</ele>
        <time>2018-04-18T08:27:43Z</time>
      </trkpt>
      <trkpt lat="45.92109" lon="4.75572">
        <ele>174</ele>
        <time>2018-04-18T08:27:44Z</time>
      </trkpt>
      <trkpt lat="45.9211" lon="4.75581">
        <ele>174</ele>
        <time>2018-04-18T08:27:45Z</time>
      </trkpt>
      <trkpt lat="45.92116" lon="4.75588">
        <ele>174</ele>
        <time>2018-04-18T08:27:46Z</time>
      </trkpt>
      <trkpt lat="45.9212" lon="4.75594">
        <ele>173.9</ele>
        <time>2018-04-18T08:27:47Z</time>
      </trkpt>
      <trkpt lat="45.92126" lon="4.756">
        <ele>173.7</ele>
        <time>2018-04-18T08:27:48Z</time>
      </trkpt>
      <trkpt lat="45.92131" lon="4.75605">
        <ele>173.4</ele>
        <time>2018-04-18T08:27:49Z</time>
      </trkpt>
      <trkpt lat="45.92136" lon="4.75609">
        <ele>173.1</ele>
        <time>2018-04-18T08:27:50Z</time>
      </trkpt>
      <trkpt lat="45.92141" lon="4.75615">
        <ele>173.1</ele>
        <time>2018-04-18T08:27:51Z</time>
      </trkpt>
      <trkpt lat="45.92146" lon="4.7562">
        <ele>173.3</ele>
        <time>2018-04-18T08:27:52Z</time>
      </trkpt>
      <trkpt lat="45.92151" lon="4.75625">
        <ele>173.4</ele>
        <time>2018-04-18T08:27:53Z</time>
      </trkpt>
      <trkpt lat="45.92156" lon="4.75629">
        <ele>173.6</ele>
        <time>2018-04-18T08:27:54Z</time>
      </trkpt>
      <trkpt lat="45.92161" lon="4.75634">
        <ele>173.8</ele>
        <time>2018-04-18T08:27:55Z</time>
      </trkpt>
      <trkpt lat="45.92165" lon="4.75638">
        <ele>173.9</ele>
        <time>2018-04-18T08:27:56Z</time>
      </trkpt>
      <trkpt lat="45.9217" lon="4.75643">
        <ele>174</ele>
        <time>2018-04-18T08:27:57Z</time>
      </trkpt>
      <trkpt lat="45.92174" lon="4.75648">
        <ele>174</ele>
        <time>2018-04-18T08:27:58Z</time>
      </trkpt>
      <trkpt lat="45.9218" lon="4.75653">
        <ele>174</ele>
        <time>2018-04-18T08:27:59Z</time>
      </trkpt>
      <trkpt lat="45.92184" lon="4.75658">
        <ele>174</ele>
        <time>2018-04-18T08:28:00Z</time>
      </trkpt>
      <trkpt lat="45.92189" lon="4.75663">
        <ele>174</ele>
        <time>2018-04-18T08:28:01Z</time>
      </trkpt>
      <trkpt lat="45.92194" lon="4.75668">
        <ele>174</ele>
        <time>2018-04-18T08:28:02Z</time>
      </trkpt>
      <trkpt lat="45.92199" lon="4.75673">
        <ele>174</ele>
        <time>2018-04-18T08:28:03Z</time>
      </trkpt>
      <trkpt lat="45.92206" lon="4.75679">
        <ele>174</ele>
        <time>2018-04-18T08:28:04Z</time>
      </trkpt>
      <trkpt lat="45.9221" lon="4.75683">
        <ele>174</ele>
        <time>2018-04-18T08:28:05Z</time>
      </trkpt>
      <trkpt lat="45.92216" lon="4.75687">
        <ele>174</ele>
        <time>2018-04-18T08:28:06Z</time>
      </trkpt>
      <trkpt lat="45.92222" lon="4.75693">
        <ele>174</ele>
        <time>2018-04-18T08:28:07Z</time>
      </trkpt>
      <trkpt lat="45.92226" lon="4.75699">
        <ele>174.3</ele>
        <time>2018-04-18T08:28:08Z</time>
      </trkpt>
      <trkpt lat="45.9223" lon="4.75704">
        <ele>174.5</ele>
        <time>2018-04-18T08:28:09Z</time>
      </trkpt>
      <trkpt lat="45.92234" lon="4.7571">
        <ele>174.8</ele>
        <time>2018-04-18T08:28:10Z</time>
      </trkpt>
      <trkpt lat="45.92238" lon="4.75717">
        <ele>174.9</ele>
        <time>2018-04-18T08:28:11Z</time>
      </trkpt>
      <trkpt lat="45.92241" lon="4.75725">
        <ele>175</ele>
        <time>2018-04-18T08:28:12Z</time>
      </trkpt>
      <trkpt lat="45.92243" lon="4.75732">
        <ele>175</ele>
        <time>2018-04-18T08:28:13Z</time>
      </trkpt>
      <trkpt lat="45.92246" lon="4.7574">
        <ele>175</ele>
        <time>2018-04-18T08:28:14Z</time>
      </trkpt>
      <trkpt lat="45.92247" lon="4.75748">
        <ele>175</ele>
        <time>2018-04-18T08:28:15Z</time>
      </trkpt>
      <trkpt lat="45.92249" lon="4.75756">
        <ele>175</ele>
        <time>2018-04-18T08:28:16Z</time>
      </trkpt>
      <trkpt lat="45.9225" lon="4.75764">
        <ele>175</ele>
        <time>2018-04-18T08:28:17Z</time>
      </trkpt>
      <trkpt lat="45.92251" lon="4.75772">
        <ele>175</ele>
        <time>2018-04-18T08:28:18Z</time>
      </trkpt>
      <trkpt lat="45.92253" lon="4.7578">
        <ele>175.2</ele>
        <time>2018-04-18T08:28:19Z</time>
      </trkpt>
      <trkpt lat="45.92254" lon="4.75788">
        <ele>175.4</ele>
        <time>2018-04-18T08:28:20Z</time>
      </trkpt>
      <trkpt lat="45.92256" lon="4.75796">
        <ele>175.6</ele>
        <time>2018-04-18T08:28:21Z</time>
      </trkpt>
      <trkpt lat="45.92258" lon="4.75804">
        <ele>175.7</ele>
        <time>2018-04-18T08:28:22Z</time>
      </trkpt>
      <trkpt lat="45.9226" lon="4.75811">
        <ele>175.5</ele>
        <time>2018-04-18T08:28:23Z</time>
      </trkpt>
      <trkpt lat="45.92264" lon="4.75819">
        <ele>175.3</ele>
        <time>2018-04-18T08:28:24Z</time>
      </trkpt>
      <trkpt lat="45.92269" lon="4.75825">
        <ele>175.1</ele>
        <time>2018-04-18T08:28:25Z</time>
      </trkpt>
      <trkpt lat="45.92273" lon="4.75831">
        <ele>175</ele>
        <time>2018-04-18T08:28:26Z</time>
      </trkpt>
      <trkpt lat="45.92278" lon="4.75835">
        <ele>175</ele>
        <time>2018-04-18T08:28:27Z</time>
      </trkpt>
      <trkpt lat="45.92283" lon="4.7584">
        <ele>175.1</ele>
        <time>2018-04-18T08:28:28Z</time>
      </trkpt>
      <trkpt lat="45.9229" lon="4.75844">
        <ele>175</ele>
        <time>2018-04-18T08:28:29Z</time>
      </trkpt>
      <trkpt lat="45.92296" lon="4.75848">
        <ele>174.8</ele>
        <time>2018-04-18T08:28:30Z</time>
      </trkpt>
      <trkpt lat="45.92303" lon="4.75852">
        <ele>174.5</ele>
        <time>2018-04-18T08:28:31Z</time>
      </trkpt>
      <trkpt lat="45.92309" lon="4.75855">
        <ele>174.2</ele>
        <time>2018-04-18T08:28:32Z</time>
      </trkpt>
      <trkpt lat="45.92315" lon="4.7586">
        <ele>174</ele>
        <time>2018-04-18T08:28:33Z</time>
      </trkpt>
      <trkpt lat="45.92322" lon="4.75863">
        <ele>174</ele>
        <time>2018-04-18T08:28:34Z</time>
      </trkpt>
      <trkpt lat="45.92328" lon="4.75866">
        <ele>174</ele>
        <time>2018-04-18T08:28:35Z</time>
      </trkpt>
      <trkpt lat="45.92334" lon="4.7587">
        <ele>174</ele>
        <time>2018-04-18T08:28:36Z</time>
      </trkpt>
      <trkpt lat="45.9234" lon="4.75874">
        <ele>173.9</ele>
        <time>2018-04-18T08:28:37Z</time>
      </trkpt>
      <trkpt lat="45.92346" lon="4.75878">
        <ele>173.7</ele>
        <time>2018-04-18T08:28:38Z</time>
      </trkpt>
      <trkpt lat="45.92353" lon="4.75882">
        <ele>173.5</ele>
        <time>2018-04-18T08:28:39Z</time>
      </trkpt>
      <trkpt lat="45.9236" lon="4.75886">
        <ele>173.1</ele>
        <time>2018-04-18T08:28:40Z</time>
      </trkpt>
      <trkpt lat="45.92366" lon="4.75889">
        <ele>173</ele>
        <time>2018-04-18T08:28:41Z</time>
      </trkpt>
      <trkpt lat="45.92371" lon="4.75894">
        <ele>173</ele>
        <time>2018-04-18T08:28:42Z</time>
      </trkpt>
      <trkpt lat="45.92378" lon="4.75897">
        <ele>173</ele>
        <time>2018-04-18T08:28:43Z</time>
      </trkpt>
      <trkpt lat="45.92383" lon="4.75901">
        <ele>173</ele>
        <time>2018-04-18T08:28:44Z</time>
      </trkpt>
      <trkpt lat="45.92389" lon="4.75905">
        <ele>173</ele>
        <time>2018-04-18T08:28:45Z</time>
      </trkpt>
      <trkpt lat="45.92395" lon="4.75909">
        <ele>172.9</ele>
        <time>2018-04-18T08:28:46Z</time>
      </trkpt>
      <trkpt lat="45.92401" lon="4.75912">
        <ele>172.9</ele>
        <time>2018-04-18T08:28:47Z</time>
      </trkpt>
      <trkpt lat="45.92406" lon="4.75915">
        <ele>173</ele>
        <time>2018-04-18T08:28:48Z</time>
      </trkpt>
      <trkpt lat="45.92411" lon="4.75919">
        <ele>173</ele>
        <time>2018-04-18T08:28:49Z</time>
      </trkpt>
      <trkpt lat="45.92417" lon="4.75923">
        <ele>173</ele>
        <time>2018-04-18T08:28:50Z</time>
      </trkpt>
      <trkpt lat="45.92422" lon="4.75927">
        <ele>172.9</ele>
        <time>2018-04-18T08:28:51Z</time>
      </trkpt>
      <trkpt lat="45.92426" lon="4.7593">
        <ele>173</ele>
        <time>2018-04-18T08:28:52Z</time>
      </trkpt>
      <trkpt lat="45.92432" lon="4.75935">
        <ele>173.3</ele>
        <time>2018-04-18T08:28:53Z</time>
      </trkpt>
      <trkpt lat="45.92437" lon="4.75939">
        <ele>173.8</ele>
        <time>2018-04-18T08:28:54Z</time>
      </trkpt>
      <trkpt lat="45.92441" lon="4.75943">
        <ele>174.5</ele>
        <time>2018-04-18T08:28:55Z</time>
      </trkpt>
      <trkpt lat="45.92446" lon="4.75947">
        <ele>174.7</ele>
        <time>2018-04-18T08:28:56Z</time>
      </trkpt>
      <trkpt lat="45.92451" lon="4.7595">
        <ele>174.2</ele>
        <time>2018-04-18T08:28:57Z</time>
      </trkpt>
      <trkpt lat="45.92455" lon="4.75953">
        <ele>173.9</ele>
        <time>2018-04-18T08:28:58Z</time>
      </trkpt>
      <trkpt lat="45.9246" lon="4.75956">
        <ele>173.9</ele>
        <time>2018-04-18T08:28:59Z</time>
      </trkpt>
      <trkpt lat="45.92464" lon="4.7596">
        <ele>174.1</ele>
        <time>2018-04-18T08:29:00Z</time>
      </trkpt>
      <trkpt lat="45.92468" lon="4.75963">
        <ele>174.5</ele>
        <time>2018-04-18T08:29:01Z</time>
      </trkpt>
      <trkpt lat="45.92472" lon="4.75966">
        <ele>175.1</ele>
        <time>2018-04-18T08:29:02Z</time>
      </trkpt>
      <trkpt lat="45.92477" lon="4.75969">
        <ele>175.4</ele>
        <time>2018-04-18T08:29:03Z</time>
      </trkpt>
      <trkpt lat="45.92481" lon="4.75972">
        <ele>175.6</ele>
        <time>2018-04-18T08:29:04Z</time>
      </trkpt>
      <trkpt lat="45.92485" lon="4.75975">
        <ele>175.4</ele>
        <time>2018-04-18T08:29:05Z</time>
      </trkpt>
      <trkpt lat="45.92489" lon="4.75979">
        <ele>175.3</ele>
        <time>2018-04-18T08:29:06Z</time>
      </trkpt>
      <trkpt lat="45.92494" lon="4.75982">
        <ele>175.4</ele>
        <time>2018-04-18T08:29:07Z</time>
      </trkpt>
      <trkpt lat="45.92497" lon="4.75987">
        <ele>175.8</ele>
        <time>2018-04-18T08:29:08Z</time>
      </trkpt>
      <trkpt lat="45.92505" lon="4.75992">
        <ele>175.7</ele>
        <time>2018-04-18T08:29:10Z</time>
      </trkpt>
      <trkpt lat="45.92511" lon="4.75996">
        <ele>175</ele>
        <time>2018-04-18T08:29:11Z</time>
      </trkpt>
      <trkpt lat="45.92515" lon="4.75998">
        <ele>174.2</ele>
        <time>2018-04-18T08:29:12Z</time>
      </trkpt>
      <trkpt lat="45.9252" lon="4.76001">
        <ele>173.4</ele>
        <time>2018-04-18T08:29:13Z</time>
      </trkpt>
      <trkpt lat="45.92524" lon="4.76004">
        <ele>172.6</ele>
        <time>2018-04-18T08:29:14Z</time>
      </trkpt>
      <trkpt lat="45.9253" lon="4.76007">
        <ele>172.1</ele>
        <time>2018-04-18T08:29:15Z</time>
      </trkpt>
      <trkpt lat="45.92534" lon="4.76011">
        <ele>172.5</ele>
        <time>2018-04-18T08:29:16Z</time>
      </trkpt>
      <trkpt lat="45.9254" lon="4.76013">
        <ele>173.3</ele>
        <time>2018-04-18T08:29:17Z</time>
      </trkpt>
      <trkpt lat="45.92545" lon="4.76017">
        <ele>174.1</ele>
        <time>2018-04-18T08:29:18Z</time>
      </trkpt>
      <trkpt lat="45.92549" lon="4.7602">
        <ele>175</ele>
        <time>2018-04-18T08:29:19Z</time>
      </trkpt>
      <trkpt lat="45.92554" lon="4.76025">
        <ele>176.3</ele>
        <time>2018-04-18T08:29:20Z</time>
      </trkpt>
      <trkpt lat="45.92558" lon="4.76028">
        <ele>176.9</ele>
        <time>2018-04-18T08:29:21Z</time>
      </trkpt>
      <trkpt lat="45.92562" lon="4.76032">
        <ele>176.7</ele>
        <time>2018-04-18T08:29:22Z</time>
      </trkpt>
      <trkpt lat="45.92567" lon="4.76035">
        <ele>176.5</ele>
        <time>2018-04-18T08:29:23Z</time>
      </trkpt>
      <trkpt lat="45.92571" lon="4.7604">
        <ele>176.5</ele>
        <time>2018-04-18T08:29:24Z</time>
      </trkpt>
      <trkpt lat="45.92575" lon="4.76044">
        <ele>176.5</ele>
        <time>2018-04-18T08:29:25Z</time>
      </trkpt>
      <trkpt lat="45.9258" lon="4.76048">
        <ele>176.7</ele>
        <time>2018-04-18T08:29:26Z</time>
      </trkpt>
      <trkpt lat="45.92585" lon="4.76052">
        <ele>176.9</ele>
        <time>2018-04-18T08:29:27Z</time>
      </trkpt>
      <trkpt lat="45.92591" lon="4.76056">
        <ele>176.4</ele>
        <time>2018-04-18T08:29:28Z</time>
      </trkpt>
      <trkpt lat="45.92596" lon="4.7606">
        <ele>175.6</ele>
        <time>2018-04-18T08:29:29Z</time>
      </trkpt>
      <trkpt lat="45.92601" lon="4.76064">
        <ele>175.1</ele>
        <time>2018-04-18T08:29:30Z</time>
      </trkpt>
      <trkpt lat="45.92607" lon="4.76067">
        <ele>174.9</ele>
        <time>2018-04-18T08:29:31Z</time>
      </trkpt>
      <trkpt lat="45.92612" lon="4.76071">
        <ele>175</ele>
        <time>2018-04-18T08:29:32Z</time>
      </trkpt>
      <trkpt lat="45.92617" lon="4.76076">
        <ele>174.6</ele>
        <time>2018-04-18T08:29:33Z</time>
      </trkpt>
      <trkpt lat="45.92623" lon="4.7608">
        <ele>174.4</ele>
        <time>2018-04-18T08:29:34Z</time>
      </trkpt>
      <trkpt lat="45.92629" lon="4.76083">
        <ele>174.4</ele>
        <time>2018-04-18T08:29:35Z</time>
      </trkpt>
      <trkpt lat="45.92636" lon="4.76088">
        <ele>173.5</ele>
        <time>2018-04-18T08:29:36Z</time>
      </trkpt>
      <trkpt lat="45.92642" lon="4.76092">
        <ele>172.9</ele>
        <time>2018-04-18T08:29:37Z</time>
      </trkpt>
      <trkpt lat="45.92649" lon="4.76097">
        <ele>172.4</ele>
        <time>2018-04-18T08:29:38Z</time>
      </trkpt>
      <trkpt lat="45.92655" lon="4.76101">
        <ele>172.2</ele>
        <time>2018-04-18T08:29:39Z</time>
      </trkpt>
      <trkpt lat="45.92662" lon="4.76105">
        <ele>172.4</ele>
        <time>2018-04-18T08:29:40Z</time>
      </trkpt>
      <trkpt lat="45.92668" lon="4.76109">
        <ele>172.8</ele>
        <time>2018-04-18T08:29:41Z</time>
      </trkpt>
      <trkpt lat="45.92674" lon="4.76114">
        <ele>172.1</ele>
        <time>2018-04-18T08:29:42Z</time>
      </trkpt>
      <trkpt lat="45.92682" lon="4.76118">
        <ele>171.5</ele>
        <time>2018-04-18T08:29:43Z</time>
      </trkpt>
      <trkpt lat="45.92688" lon="4.76123">
        <ele>171.1</ele>
        <time>2018-04-18T08:29:44Z</time>
      </trkpt>
      <trkpt lat="45.92695" lon="4.76125">
        <ele>171</ele>
        <time>2018-04-18T08:29:45Z</time>
      </trkpt>
      <trkpt lat="45.92703" lon="4.76131">
        <ele>170.8</ele>
        <time>2018-04-18T08:29:46Z</time>
      </trkpt>
      <trkpt lat="45.92709" lon="4.76135">
        <ele>170.8</ele>
        <time>2018-04-18T08:29:47Z</time>
      </trkpt>
      <trkpt lat="45.92716" lon="4.7614">
        <ele>171</ele>
        <time>2018-04-18T08:29:48Z</time>
      </trkpt>
      <trkpt lat="45.92722" lon="4.76146">
        <ele>170.7</ele>
        <time>2018-04-18T08:29:49Z</time>
      </trkpt>
      <trkpt lat="45.92729" lon="4.76149">
        <ele>170.4</ele>
        <time>2018-04-18T08:29:50Z</time>
      </trkpt>
      <trkpt lat="45.92737" lon="4.76154">
        <ele>170.3</ele>
        <time>2018-04-18T08:29:51Z</time>
      </trkpt>
      <trkpt lat="45.92743" lon="4.76159">
        <ele>170.4</ele>
        <time>2018-04-18T08:29:52Z</time>
      </trkpt>
      <trkpt lat="45.9275" lon="4.76165">
        <ele>170.8</ele>
        <time>2018-04-18T08:29:53Z</time>
      </trkpt>
      <trkpt lat="45.92756" lon="4.76171">
        <ele>170.4</ele>
        <time>2018-04-18T08:29:54Z</time>
      </trkpt>
      <trkpt lat="45.92762" lon="4.76176">
        <ele>169.9</ele>
        <time>2018-04-18T08:29:55Z</time>
      </trkpt>
      <trkpt lat="45.92769" lon="4.76181">
        <ele>169.7</ele>
        <time>2018-04-18T08:29:56Z</time>
      </trkpt>
      <trkpt lat="45.92774" lon="4.76185">
        <ele>169.7</ele>
        <time>2018-04-18T08:29:57Z</time>
      </trkpt>
      <trkpt lat="45.9278" lon="4.7619">
        <ele>169.8</ele>
        <time>2018-04-18T08:29:58Z</time>
      </trkpt>
      <trkpt lat="45.92785" lon="4.76195">
        <ele>169.7</ele>
        <time>2018-04-18T08:29:59Z</time>
      </trkpt>
      <trkpt lat="45.92791" lon="4.762">
        <ele>169.5</ele>
        <time>2018-04-18T08:30:00Z</time>
      </trkpt>
      <trkpt lat="45.92796" lon="4.76205">
        <ele>169.5</ele>
        <time>2018-04-18T08:30:01Z</time>
      </trkpt>
      <trkpt lat="45.92801" lon="4.76211">
        <ele>169.6</ele>
        <time>2018-04-18T08:30:02Z</time>
      </trkpt>
      <trkpt lat="45.92806" lon="4.76216">
        <ele>169.8</ele>
        <time>2018-04-18T08:30:03Z</time>
      </trkpt>
      <trkpt lat="45.92812" lon="4.76221">
        <ele>169.7</ele>
        <time>2018-04-18T08:30:04Z</time>
      </trkpt>
      <trkpt lat="45.92817" lon="4.76227">
        <ele>169.6</ele>
        <time>2018-04-18T08:30:05Z</time>
      </trkpt>
      <trkpt lat="45.92822" lon="4.76231">
        <ele>169.5</ele>
        <time>2018-04-18T08:30:06Z</time>
      </trkpt>
      <trkpt lat="45.92827" lon="4.76236">
        <ele>169.5</ele>
        <time>2018-04-18T08:30:07Z</time>
      </trkpt>
      <trkpt lat="45.92833" lon="4.76241">
        <ele>169.7</ele>
        <time>2018-04-18T08:30:08Z</time>
      </trkpt>
      <trkpt lat="45.92838" lon="4.76246">
        <ele>169.7</ele>
        <time>2018-04-18T08:30:09Z</time>
      </trkpt>
      <trkpt lat="45.92843" lon="4.76251">
        <ele>169.6</ele>
        <time>2018-04-18T08:30:10Z</time>
      </trkpt>
      <trkpt lat="45.92847" lon="4.76257">
        <ele>169.5</ele>
        <time>2018-04-18T08:30:11Z</time>
      </trkpt>
      <trkpt lat="45.92851" lon="4.76263">
        <ele>169.5</ele>
        <time>2018-04-18T08:30:12Z</time>
      </trkpt>
      <trkpt lat="45.92857" lon="4.76268">
        <ele>169.6</ele>
        <time>2018-04-18T08:30:13Z</time>
      </trkpt>
      <trkpt lat="45.92863" lon="4.76274">
        <ele>169.8</ele>
        <time>2018-04-18T08:30:14Z</time>
      </trkpt>
      <trkpt lat="45.92868" lon="4.7628">
        <ele>169.7</ele>
        <time>2018-04-18T08:30:15Z</time>
      </trkpt>
      <trkpt lat="45.92873" lon="4.76285">
        <ele>169.5</ele>
        <time>2018-04-18T08:30:16Z</time>
      </trkpt>
      <trkpt lat="45.92876" lon="4.7629">
        <ele>169.5</ele>
        <time>2018-04-18T08:30:17Z</time>
      </trkpt>
      <trkpt lat="45.92881" lon="4.76294">
        <ele>169.5</ele>
        <time>2018-04-18T08:30:18Z</time>
      </trkpt>
      <trkpt lat="45.92886" lon="4.76298">
        <ele>169.7</ele>
        <time>2018-04-18T08:30:19Z</time>
      </trkpt>
      <trkpt lat="45.9289" lon="4.76304">
        <ele>169.9</ele>
        <time>2018-04-18T08:30:20Z</time>
      </trkpt>
      <trkpt lat="45.92894" lon="4.76309">
        <ele>169.7</ele>
        <time>2018-04-18T08:30:21Z</time>
      </trkpt>
      <trkpt lat="45.929" lon="4.76313">
        <ele>169.5</ele>
        <time>2018-04-18T08:30:22Z</time>
      </trkpt>
      <trkpt lat="45.92906" lon="4.76317">
        <ele>169.5</ele>
        <time>2018-04-18T08:30:23Z</time>
      </trkpt>
      <trkpt lat="45.92911" lon="4.76322">
        <ele>169.5</ele>
        <time>2018-04-18T08:30:24Z</time>
      </trkpt>
      <trkpt lat="45.92916" lon="4.76326">
        <ele>169.7</ele>
        <time>2018-04-18T08:30:25Z</time>
      </trkpt>
      <trkpt lat="45.92921" lon="4.7633">
        <ele>169.7</ele>
        <time>2018-04-18T08:30:26Z</time>
      </trkpt>
      <trkpt lat="45.92926" lon="4.76335">
        <ele>169.7</ele>
        <time>2018-04-18T08:30:27Z</time>
      </trkpt>
      <trkpt lat="45.9293" lon="4.76339">
        <ele>169.5</ele>
        <time>2018-04-18T08:30:28Z</time>
      </trkpt>
      <trkpt lat="45.92935" lon="4.76343">
        <ele>169.5</ele>
        <time>2018-04-18T08:30:29Z</time>
      </trkpt>
      <trkpt lat="45.9294" lon="4.76348">
        <ele>169.5</ele>
        <time>2018-04-18T08:30:30Z</time>
      </trkpt>
      <trkpt lat="45.92946" lon="4.76352">
        <ele>169.6</ele>
        <time>2018-04-18T08:30:31Z</time>
      </trkpt>
      <trkpt lat="45.92951" lon="4.76356">
        <ele>169.6</ele>
        <time>2018-04-18T08:30:32Z</time>
      </trkpt>
      <trkpt lat="45.92957" lon="4.76361">
        <ele>169.6</ele>
        <time>2018-04-18T08:30:33Z</time>
      </trkpt>
      <trkpt lat="45.92961" lon="4.76365">
        <ele>169.4</ele>
        <time>2018-04-18T08:30:34Z</time>
      </trkpt>
      <trkpt lat="45.92966" lon="4.7637">
        <ele>169.4</ele>
        <time>2018-04-18T08:30:35Z</time>
      </trkpt>
      <trkpt lat="45.92969" lon="4.76375">
        <ele>169.5</ele>
        <time>2018-04-18T08:30:36Z</time>
      </trkpt>
      <trkpt lat="45.92974" lon="4.7638">
        <ele>169.6</ele>
        <time>2018-04-18T08:30:37Z</time>
      </trkpt>
      <trkpt lat="45.92978" lon="4.76384">
        <ele>169.6</ele>
        <time>2018-04-18T08:30:38Z</time>
      </trkpt>
      <trkpt lat="45.92984" lon="4.76388">
        <ele>169.6</ele>
        <time>2018-04-18T08:30:39Z</time>
      </trkpt>
      <trkpt lat="45.9299" lon="4.76394">
        <ele>169.4</ele>
        <time>2018-04-18T08:30:40Z</time>
      </trkpt>
      <trkpt lat="45.92994" lon="4.76399">
        <ele>169.4</ele>
        <time>2018-04-18T08:30:41Z</time>
      </trkpt>
      <trkpt lat="45.92999" lon="4.76405">
        <ele>169.6</ele>
        <time>2018-04-18T08:30:42Z</time>
      </trkpt>
      <trkpt lat="45.93005" lon="4.76409">
        <ele>169.5</ele>
        <time>2018-04-18T08:30:43Z</time>
      </trkpt>
      <trkpt lat="45.9301" lon="4.76414">
        <ele>169.3</ele>
        <time>2018-04-18T08:30:44Z</time>
      </trkpt>
      <trkpt lat="45.93014" lon="4.76418">
        <ele>169</ele>
        <time>2018-04-18T08:30:45Z</time>
      </trkpt>
      <trkpt lat="45.93018" lon="4.76423">
        <ele>168.9</ele>
        <time>2018-04-18T08:30:46Z</time>
      </trkpt>
      <trkpt lat="45.93025" lon="4.76429">
        <ele>169</ele>
        <time>2018-04-18T08:30:47Z</time>
      </trkpt>
      <trkpt lat="45.93031" lon="4.76435">
        <ele>169.2</ele>
        <time>2018-04-18T08:30:48Z</time>
      </trkpt>
      <trkpt lat="45.93035" lon="4.7644">
        <ele>169.3</ele>
        <time>2018-04-18T08:30:49Z</time>
      </trkpt>
      <trkpt lat="45.93041" lon="4.76445">
        <ele>169.1</ele>
        <time>2018-04-18T08:30:50Z</time>
      </trkpt>
      <trkpt lat="45.93046" lon="4.76451">
        <ele>168.9</ele>
        <time>2018-04-18T08:30:51Z</time>
      </trkpt>
      <trkpt lat="45.93051" lon="4.76456">
        <ele>168.9</ele>
        <time>2018-04-18T08:30:52Z</time>
      </trkpt>
      <trkpt lat="45.93056" lon="4.76462">
        <ele>169.3</ele>
        <time>2018-04-18T08:30:53Z</time>
      </trkpt>
      <trkpt lat="45.93061" lon="4.76467">
        <ele>169.5</ele>
        <time>2018-04-18T08:30:54Z</time>
      </trkpt>
      <trkpt lat="45.93068" lon="4.76472">
        <ele>169.5</ele>
        <time>2018-04-18T08:30:55Z</time>
      </trkpt>
      <trkpt lat="45.93073" lon="4.76477">
        <ele>169.4</ele>
        <time>2018-04-18T08:30:56Z</time>
      </trkpt>
      <trkpt lat="45.93078" lon="4.76483">
        <ele>169.4</ele>
        <time>2018-04-18T08:30:57Z</time>
      </trkpt>
      <trkpt lat="45.93083" lon="4.76488">
        <ele>169.6</ele>
        <time>2018-04-18T08:30:58Z</time>
      </trkpt>
      <trkpt lat="45.93087" lon="4.76493">
        <ele>169.7</ele>
        <time>2018-04-18T08:30:59Z</time>
      </trkpt>
      <trkpt lat="45.93093" lon="4.76501">
        <ele>169.7</ele>
        <time>2018-04-18T08:31:00Z</time>
      </trkpt>
      <trkpt lat="45.93098" lon="4.76506">
        <ele>169.6</ele>
        <time>2018-04-18T08:31:01Z</time>
      </trkpt>
      <trkpt lat="45.93103" lon="4.76512">
        <ele>169.8</ele>
        <time>2018-04-18T08:31:02Z</time>
      </trkpt>
      <trkpt lat="45.93108" lon="4.76516">
        <ele>170.1</ele>
        <time>2018-04-18T08:31:03Z</time>
      </trkpt>
      <trkpt lat="45.93112" lon="4.76521">
        <ele>170.5</ele>
        <time>2018-04-18T08:31:04Z</time>
      </trkpt>
      <trkpt lat="45.93119" lon="4.76527">
        <ele>170.4</ele>
        <time>2018-04-18T08:31:05Z</time>
      </trkpt>
      <trkpt lat="45.93123" lon="4.76531">
        <ele>170.2</ele>
        <time>2018-04-18T08:31:06Z</time>
      </trkpt>
      <trkpt lat="45.9313" lon="4.76537">
        <ele>170</ele>
        <time>2018-04-18T08:31:07Z</time>
      </trkpt>
      <trkpt lat="45.93134" lon="4.76542">
        <ele>170.1</ele>
        <time>2018-04-18T08:31:08Z</time>
      </trkpt>
      <trkpt lat="45.9314" lon="4.76548">
        <ele>170.4</ele>
        <time>2018-04-18T08:31:09Z</time>
      </trkpt>
      <trkpt lat="45.93144" lon="4.76553">
        <ele>170.7</ele>
        <time>2018-04-18T08:31:10Z</time>
      </trkpt>
      <trkpt lat="45.9315" lon="4.76558">
        <ele>170.7</ele>
        <time>2018-04-18T08:31:11Z</time>
      </trkpt>
      <trkpt lat="45.93155" lon="4.76562">
        <ele>170.7</ele>
        <time>2018-04-18T08:31:12Z</time>
      </trkpt>
      <trkpt lat="45.93159" lon="4.76568">
        <ele>170.7</ele>
        <time>2018-04-18T08:31:13Z</time>
      </trkpt>
      <trkpt lat="45.93166" lon="4.76573">
        <ele>170.7</ele>
        <time>2018-04-18T08:31:14Z</time>
      </trkpt>
      <trkpt lat="45.93169" lon="4.76579">
        <ele>170.8</ele>
        <time>2018-04-18T08:31:15Z</time>
      </trkpt>
      <trkpt lat="45.9317" lon="4.76581">
        <ele>170.8</ele>
        <time>2018-04-18T08:31:16Z</time>
      </trkpt>
      <trkpt lat="45.93179" lon="4.76592">
        <ele>170.7</ele>
        <time>2018-04-18T08:31:17Z</time>
      </trkpt>
      <trkpt lat="45.93184" lon="4.76598">
        <ele>170.7</ele>
        <time>2018-04-18T08:31:18Z</time>
      </trkpt>
      <trkpt lat="45.93189" lon="4.76599">
        <ele>170.7</ele>
        <time>2018-04-18T08:31:19Z</time>
      </trkpt>
      <trkpt lat="45.93195" lon="4.76604">
        <ele>170.7</ele>
        <time>2018-04-18T08:31:20Z</time>
      </trkpt>
      <trkpt lat="45.93199" lon="4.7661">
        <ele>170.8</ele>
        <time>2018-04-18T08:31:21Z</time>
      </trkpt>
      <trkpt lat="45.93204" lon="4.76614">
        <ele>170.7</ele>
        <time>2018-04-18T08:31:22Z</time>
      </trkpt>
      <trkpt lat="45.93209" lon="4.7662">
        <ele>170.6</ele>
        <time>2018-04-18T08:31:23Z</time>
      </trkpt>
      <trkpt lat="45.93214" lon="4.76625">
        <ele>170.6</ele>
        <time>2018-04-18T08:31:24Z</time>
      </trkpt>
      <trkpt lat="45.9322" lon="4.7663">
        <ele>170.7</ele>
        <time>2018-04-18T08:31:25Z</time>
      </trkpt>
      <trkpt lat="45.93226" lon="4.76635">
        <ele>170.8</ele>
        <time>2018-04-18T08:31:26Z</time>
      </trkpt>
      <trkpt lat="45.9323" lon="4.7664">
        <ele>170.7</ele>
        <time>2018-04-18T08:31:27Z</time>
      </trkpt>
      <trkpt lat="45.93235" lon="4.76644">
        <ele>170.6</ele>
        <time>2018-04-18T08:31:28Z</time>
      </trkpt>
      <trkpt lat="45.93241" lon="4.7665">
        <ele>170.6</ele>
        <time>2018-04-18T08:31:29Z</time>
      </trkpt>
      <trkpt lat="45.93245" lon="4.76655">
        <ele>170.6</ele>
        <time>2018-04-18T08:31:30Z</time>
      </trkpt>
      <trkpt lat="45.93252" lon="4.7666">
        <ele>170.8</ele>
        <time>2018-04-18T08:31:31Z</time>
      </trkpt>
      <trkpt lat="45.93257" lon="4.76666">
        <ele>171</ele>
        <time>2018-04-18T08:31:32Z</time>
      </trkpt>
      <trkpt lat="45.93261" lon="4.76669">
        <ele>171</ele>
        <time>2018-04-18T08:31:33Z</time>
      </trkpt>
      <trkpt lat="45.93266" lon="4.76674">
        <ele>171</ele>
        <time>2018-04-18T08:31:34Z</time>
      </trkpt>
      <trkpt lat="45.93271" lon="4.76678">
        <ele>171</ele>
        <time>2018-04-18T08:31:35Z</time>
      </trkpt>
      <trkpt lat="45.93276" lon="4.76681">
        <ele>171</ele>
        <time>2018-04-18T08:31:36Z</time>
      </trkpt>
      <trkpt lat="45.9328" lon="4.76687">
        <ele>171</ele>
        <time>2018-04-18T08:31:37Z</time>
      </trkpt>
      <trkpt lat="45.93283" lon="4.76692">
        <ele>171</ele>
        <time>2018-04-18T08:31:38Z</time>
      </trkpt>
      <trkpt lat="45.93288" lon="4.76697">
        <ele>171</ele>
        <time>2018-04-18T08:31:39Z</time>
      </trkpt>
      <trkpt lat="45.93293" lon="4.76701">
        <ele>171</ele>
        <time>2018-04-18T08:31:40Z</time>
      </trkpt>
      <trkpt lat="45.93295" lon="4.76704">
        <ele>171</ele>
        <time>2018-04-18T08:31:41Z</time>
      </trkpt>
      <trkpt lat="45.93301" lon="4.76708">
        <ele>171</ele>
        <time>2018-04-18T08:31:42Z</time>
      </trkpt>
      <trkpt lat="45.93306" lon="4.76713">
        <ele>171</ele>
        <time>2018-04-18T08:31:43Z</time>
      </trkpt>
      <trkpt lat="45.93311" lon="4.76717">
        <ele>171</ele>
        <time>2018-04-18T08:31:44Z</time>
      </trkpt>
      <trkpt lat="45.93315" lon="4.76722">
        <ele>171</ele>
        <time>2018-04-18T08:31:45Z</time>
      </trkpt>
      <trkpt lat="45.93319" lon="4.76726">
        <ele>171</ele>
        <time>2018-04-18T08:31:46Z</time>
      </trkpt>
      <trkpt lat="45.93323" lon="4.76731">
        <ele>171</ele>
        <time>2018-04-18T08:31:47Z</time>
      </trkpt>
      <trkpt lat="45.93326" lon="4.76735">
        <ele>171</ele>
        <time>2018-04-18T08:31:48Z</time>
      </trkpt>
      <trkpt lat="45.93331" lon="4.76738">
        <ele>171</ele>
        <time>2018-04-18T08:31:49Z</time>
      </trkpt>
      <trkpt lat="45.93336" lon="4.76743">
        <ele>170.9</ele>
        <time>2018-04-18T08:31:50Z</time>
      </trkpt>
      <trkpt lat="45.9334" lon="4.76747">
        <ele>170.8</ele>
        <time>2018-04-18T08:31:51Z</time>
      </trkpt>
      <trkpt lat="45.93345" lon="4.76751">
        <ele>170.6</ele>
        <time>2018-04-18T08:31:52Z</time>
      </trkpt>
      <trkpt lat="45.93348" lon="4.76755">
        <ele>170.6</ele>
        <time>2018-04-18T08:31:53Z</time>
      </trkpt>
      <trkpt lat="45.93352" lon="4.7676">
        <ele>170.6</ele>
        <time>2018-04-18T08:31:54Z</time>
      </trkpt>
      <trkpt lat="45.93356" lon="4.76764">
        <ele>170.6</ele>
        <time>2018-04-18T08:31:55Z</time>
      </trkpt>
      <trkpt lat="45.9336" lon="4.76769">
        <ele>170.7</ele>
        <time>2018-04-18T08:31:56Z</time>
      </trkpt>
      <trkpt lat="45.93365" lon="4.76774">
        <ele>170.7</ele>
        <time>2018-04-18T08:31:57Z</time>
      </trkpt>
      <trkpt lat="45.9337" lon="4.76778">
        <ele>170.7</ele>
        <time>2018-04-18T08:31:58Z</time>
      </trkpt>
      <trkpt lat="45.93375" lon="4.76783">
        <ele>170.5</ele>
        <time>2018-04-18T08:31:59Z</time>
      </trkpt>
      <trkpt lat="45.93379" lon="4.76788">
        <ele>170.5</ele>
        <time>2018-04-18T08:32:00Z</time>
      </trkpt>
      <trkpt lat="45.93384" lon="4.76794">
        <ele>170.5</ele>
        <time>2018-04-18T08:32:01Z</time>
      </trkpt>
      <trkpt lat="45.93388" lon="4.76798">
        <ele>170.7</ele>
        <time>2018-04-18T08:32:02Z</time>
      </trkpt>
      <trkpt lat="45.93392" lon="4.76804">
        <ele>170.8</ele>
        <time>2018-04-18T08:32:03Z</time>
      </trkpt>
      <trkpt lat="45.93398" lon="4.76809">
        <ele>170.6</ele>
        <time>2018-04-18T08:32:04Z</time>
      </trkpt>
      <trkpt lat="45.93402" lon="4.76815">
        <ele>170.5</ele>
        <time>2018-04-18T08:32:05Z</time>
      </trkpt>
      <trkpt lat="45.93406" lon="4.76821">
        <ele>170.5</ele>
        <time>2018-04-18T08:32:06Z</time>
      </trkpt>
      <trkpt lat="45.9341" lon="4.76828">
        <ele>170.7</ele>
        <time>2018-04-18T08:32:07Z</time>
      </trkpt>
      <trkpt lat="45.93414" lon="4.76835">
        <ele>170.9</ele>
        <time>2018-04-18T08:32:08Z</time>
      </trkpt>
      <trkpt lat="45.93417" lon="4.76841">
        <ele>171</ele>
        <time>2018-04-18T08:32:09Z</time>
      </trkpt>
      <trkpt lat="45.93421" lon="4.76848">
        <ele>170.9</ele>
        <time>2018-04-18T08:32:10Z</time>
      </trkpt>
      <trkpt lat="45.93424" lon="4.76854">
        <ele>170.9</ele>
        <time>2018-04-18T08:32:11Z</time>
      </trkpt>
      <trkpt lat="45.93428" lon="4.76861">
        <ele>171</ele>
        <time>2018-04-18T08:32:12Z</time>
      </trkpt>
      <trkpt lat="45.9343" lon="4.76869">
        <ele>170.7</ele>
        <time>2018-04-18T08:32:13Z</time>
      </trkpt>
      <trkpt lat="45.93433" lon="4.76876">
        <ele>170.5</ele>
        <time>2018-04-18T08:32:14Z</time>
      </trkpt>
      <trkpt lat="45.93435" lon="4.76883">
        <ele>170.2</ele>
        <time>2018-04-18T08:32:15Z</time>
      </trkpt>
      <trkpt lat="45.93438" lon="4.7689">
        <ele>170</ele>
        <time>2018-04-18T08:32:16Z</time>
      </trkpt>
      <trkpt lat="45.9344" lon="4.76898">
        <ele>170.3</ele>
        <time>2018-04-18T08:32:17Z</time>
      </trkpt>
      <trkpt lat="45.93443" lon="4.76905">
        <ele>170.5</ele>
        <time>2018-04-18T08:32:18Z</time>
      </trkpt>
      <trkpt lat="45.93444" lon="4.76913">
        <ele>170.8</ele>
        <time>2018-04-18T08:32:19Z</time>
      </trkpt>
      <trkpt lat="45.93446" lon="4.7692">
        <ele>170.9</ele>
        <time>2018-04-18T08:32:20Z</time>
      </trkpt>
      <trkpt lat="45.93448" lon="4.76928">
        <ele>170.9</ele>
        <time>2018-04-18T08:32:21Z</time>
      </trkpt>
      <trkpt lat="45.93448" lon="4.76937">
        <ele>170.9</ele>
        <time>2018-04-18T08:32:22Z</time>
      </trkpt>
      <trkpt lat="45.93449" lon="4.76946">
        <ele>170.8</ele>
        <time>2018-04-18T08:32:23Z</time>
      </trkpt>
      <trkpt lat="45.93451" lon="4.76954">
        <ele>170.8</ele>
        <time>2018-04-18T08:32:24Z</time>
      </trkpt>
      <trkpt lat="45.93452" lon="4.76962">
        <ele>170.7</ele>
        <time>2018-04-18T08:32:25Z</time>
      </trkpt>
      <trkpt lat="45.93453" lon="4.7697">
        <ele>170.7</ele>
        <time>2018-04-18T08:32:26Z</time>
      </trkpt>
      <trkpt lat="45.93454" lon="4.76978">
        <ele>170.5</ele>
        <time>2018-04-18T08:32:27Z</time>
      </trkpt>
      <trkpt lat="45.93456" lon="4.76987">
        <ele>170.3</ele>
        <time>2018-04-18T08:32:28Z</time>
      </trkpt>
      <trkpt lat="45.93457" lon="4.76995">
        <ele>170.1</ele>
        <time>2018-04-18T08:32:29Z</time>
      </trkpt>
      <trkpt lat="45.93458" lon="4.77004">
        <ele>170</ele>
        <time>2018-04-18T08:32:30Z</time>
      </trkpt>
      <trkpt lat="45.9346" lon="4.77013">
        <ele>170</ele>
        <time>2018-04-18T08:32:31Z</time>
      </trkpt>
      <trkpt lat="45.93461" lon="4.77021">
        <ele>170</ele>
        <time>2018-04-18T08:32:32Z</time>
      </trkpt>
      <trkpt lat="45.93462" lon="4.7703">
        <ele>170</ele>
        <time>2018-04-18T08:32:33Z</time>
      </trkpt>
      <trkpt lat="45.93463" lon="4.77039">
        <ele>170.3</ele>
        <time>2018-04-18T08:32:34Z</time>
      </trkpt>
      <trkpt lat="45.93465" lon="4.77046">
        <ele>170.5</ele>
        <time>2018-04-18T08:32:35Z</time>
      </trkpt>
      <trkpt lat="45.93466" lon="4.77055">
        <ele>170.8</ele>
        <time>2018-04-18T08:32:36Z</time>
      </trkpt>
      <trkpt lat="45.93468" lon="4.77065">
        <ele>170.8</ele>
        <time>2018-04-18T08:32:37Z</time>
      </trkpt>
      <trkpt lat="45.93469" lon="4.77073">
        <ele>170.9</ele>
        <time>2018-04-18T08:32:38Z</time>
      </trkpt>
      <trkpt lat="45.93471" lon="4.77081">
        <ele>171</ele>
        <time>2018-04-18T08:32:39Z</time>
      </trkpt>
      <trkpt lat="45.93474" lon="4.77088">
        <ele>170.9</ele>
        <time>2018-04-18T08:32:40Z</time>
      </trkpt>
      <trkpt lat="45.93476" lon="4.77096">
        <ele>170.9</ele>
        <time>2018-04-18T08:32:41Z</time>
      </trkpt>
      <trkpt lat="45.93477" lon="4.77104">
        <ele>170.8</ele>
        <time>2018-04-18T08:32:42Z</time>
      </trkpt>
      <trkpt lat="45.93479" lon="4.77113">
        <ele>170.8</ele>
        <time>2018-04-18T08:32:43Z</time>
      </trkpt>
      <trkpt lat="45.9348" lon="4.77122">
        <ele>170.7</ele>
        <time>2018-04-18T08:32:44Z</time>
      </trkpt>
      <trkpt lat="45.93481" lon="4.77131">
        <ele>170.7</ele>
        <time>2018-04-18T08:32:45Z</time>
      </trkpt>
      <trkpt lat="45.93483" lon="4.77138">
        <ele>170.6</ele>
        <time>2018-04-18T08:32:46Z</time>
      </trkpt>
      <trkpt lat="45.93485" lon="4.77147">
        <ele>170.4</ele>
        <time>2018-04-18T08:32:47Z</time>
      </trkpt>
      <trkpt lat="45.93486" lon="4.77155">
        <ele>170.2</ele>
        <time>2018-04-18T08:32:48Z</time>
      </trkpt>
      <trkpt lat="45.93489" lon="4.77164">
        <ele>170</ele>
        <time>2018-04-18T08:32:49Z</time>
      </trkpt>
      <trkpt lat="45.93491" lon="4.77171">
        <ele>170</ele>
        <time>2018-04-18T08:32:50Z</time>
      </trkpt>
      <trkpt lat="45.93493" lon="4.7718">
        <ele>170</ele>
        <time>2018-04-18T08:32:51Z</time>
      </trkpt>
      <trkpt lat="45.93494" lon="4.77187">
        <ele>170</ele>
        <time>2018-04-18T08:32:52Z</time>
      </trkpt>
      <trkpt lat="45.93495" lon="4.77196">
        <ele>170</ele>
        <time>2018-04-18T08:32:53Z</time>
      </trkpt>
      <trkpt lat="45.93497" lon="4.77204">
        <ele>170.3</ele>
        <time>2018-04-18T08:32:54Z</time>
      </trkpt>
      <trkpt lat="45.93498" lon="4.77212">
        <ele>170.6</ele>
        <time>2018-04-18T08:32:55Z</time>
      </trkpt>
      <trkpt lat="45.935" lon="4.7722">
        <ele>170.9</ele>
        <time>2018-04-18T08:32:56Z</time>
      </trkpt>
      <trkpt lat="45.93501" lon="4.77228">
        <ele>170.9</ele>
        <time>2018-04-18T08:32:57Z</time>
      </trkpt>
      <trkpt lat="45.93503" lon="4.77236">
        <ele>170.9</ele>
        <time>2018-04-18T08:32:58Z</time>
      </trkpt>
      <trkpt lat="45.93506" lon="4.77244">
        <ele>170.8</ele>
        <time>2018-04-18T08:32:59Z</time>
      </trkpt>
      <trkpt lat="45.93508" lon="4.77251">
        <ele>170.7</ele>
        <time>2018-04-18T08:33:00Z</time>
      </trkpt>
      <trkpt lat="45.93509" lon="4.77259">
        <ele>170.7</ele>
        <time>2018-04-18T08:33:01Z</time>
      </trkpt>
      <trkpt lat="45.93511" lon="4.77266">
        <ele>170.6</ele>
        <time>2018-04-18T08:33:02Z</time>
      </trkpt>
      <trkpt lat="45.93513" lon="4.77274">
        <ele>170.5</ele>
        <time>2018-04-18T08:33:03Z</time>
      </trkpt>
      <trkpt lat="45.93514" lon="4.77282">
        <ele>170.4</ele>
        <time>2018-04-18T08:33:04Z</time>
      </trkpt>
      <trkpt lat="45.93516" lon="4.7729">
        <ele>170.2</ele>
        <time>2018-04-18T08:33:05Z</time>
      </trkpt>
      <trkpt lat="45.93518" lon="4.77297">
        <ele>170.1</ele>
        <time>2018-04-18T08:33:06Z</time>
      </trkpt>
      <trkpt lat="45.9352" lon="4.77304">
        <ele>170</ele>
        <time>2018-04-18T08:33:07Z</time>
      </trkpt>
      <trkpt lat="45.93521" lon="4.77312">
        <ele>170.2</ele>
        <time>2018-04-18T08:33:08Z</time>
      </trkpt>
      <trkpt lat="45.93523" lon="4.7732">
        <ele>170.4</ele>
        <time>2018-04-18T08:33:09Z</time>
      </trkpt>
      <trkpt lat="45.93524" lon="4.77327">
        <ele>170.7</ele>
        <time>2018-04-18T08:33:10Z</time>
      </trkpt>
      <trkpt lat="45.93526" lon="4.77335">
        <ele>170.9</ele>
        <time>2018-04-18T08:33:11Z</time>
      </trkpt>
      <trkpt lat="45.93527" lon="4.77343">
        <ele>171</ele>
        <time>2018-04-18T08:33:12Z</time>
      </trkpt>
      <trkpt lat="45.93528" lon="4.77352">
        <ele>171</ele>
        <time>2018-04-18T08:33:13Z</time>
      </trkpt>
      <trkpt lat="45.9353" lon="4.77359">
        <ele>170.9</ele>
        <time>2018-04-18T08:33:14Z</time>
      </trkpt>
      <trkpt lat="45.93532" lon="4.77367">
        <ele>170.9</ele>
        <time>2018-04-18T08:33:15Z</time>
      </trkpt>
      <trkpt lat="45.93534" lon="4.77375">
        <ele>170.8</ele>
        <time>2018-04-18T08:33:16Z</time>
      </trkpt>
      <trkpt lat="45.93535" lon="4.77383">
        <ele>170.7</ele>
        <time>2018-04-18T08:33:17Z</time>
      </trkpt>
      <trkpt lat="45.93537" lon="4.77391">
        <ele>170.7</ele>
        <time>2018-04-18T08:33:18Z</time>
      </trkpt>
      <trkpt lat="45.93539" lon="4.77399">
        <ele>170.6</ele>
        <time>2018-04-18T08:33:19Z</time>
      </trkpt>
      <trkpt lat="45.93541" lon="4.77407">
        <ele>170.5</ele>
        <time>2018-04-18T08:33:20Z</time>
      </trkpt>
      <trkpt lat="45.93543" lon="4.77415">
        <ele>170.5</ele>
        <time>2018-04-18T08:33:21Z</time>
      </trkpt>
      <trkpt lat="45.93544" lon="4.77423">
        <ele>170.6</ele>
        <time>2018-04-18T08:33:22Z</time>
      </trkpt>
      <trkpt lat="45.93545" lon="4.77432">
        <ele>170.7</ele>
        <time>2018-04-18T08:33:23Z</time>
      </trkpt>
      <trkpt lat="45.93547" lon="4.7744">
        <ele>170.9</ele>
        <time>2018-04-18T08:33:24Z</time>
      </trkpt>
      <trkpt lat="45.93549" lon="4.77447">
        <ele>171</ele>
        <time>2018-04-18T08:33:25Z</time>
      </trkpt>
      <trkpt lat="45.93551" lon="4.77455">
        <ele>170.9</ele>
        <time>2018-04-18T08:33:26Z</time>
      </trkpt>
      <trkpt lat="45.93554" lon="4.77464">
        <ele>170.9</ele>
        <time>2018-04-18T08:33:27Z</time>
      </trkpt>
      <trkpt lat="45.93555" lon="4.77472">
        <ele>171</ele>
        <time>2018-04-18T08:33:28Z</time>
      </trkpt>
      <trkpt lat="45.93557" lon="4.7748">
        <ele>170.9</ele>
        <time>2018-04-18T08:33:29Z</time>
      </trkpt>
      <trkpt lat="45.93559" lon="4.77487">
        <ele>170.9</ele>
        <time>2018-04-18T08:33:30Z</time>
      </trkpt>
      <trkpt lat="45.93561" lon="4.77494">
        <ele>170.8</ele>
        <time>2018-04-18T08:33:31Z</time>
      </trkpt>
      <trkpt lat="45.93563" lon="4.77503">
        <ele>170.7</ele>
        <time>2018-04-18T08:33:32Z</time>
      </trkpt>
      <trkpt lat="45.93565" lon="4.7751">
        <ele>170.7</ele>
        <time>2018-04-18T08:33:33Z</time>
      </trkpt>
      <trkpt lat="45.93566" lon="4.77519">
        <ele>170.6</ele>
        <time>2018-04-18T08:33:34Z</time>
      </trkpt>
      <trkpt lat="45.93569" lon="4.77527">
        <ele>170.5</ele>
        <time>2018-04-18T08:33:35Z</time>
      </trkpt>
      <trkpt lat="45.93571" lon="4.77534">
        <ele>170.3</ele>
        <time>2018-04-18T08:33:36Z</time>
      </trkpt>
      <trkpt lat="45.93573" lon="4.77541">
        <ele>170.2</ele>
        <time>2018-04-18T08:33:37Z</time>
      </trkpt>
      <trkpt lat="45.93574" lon="4.77549">
        <ele>170.1</ele>
        <time>2018-04-18T08:33:38Z</time>
      </trkpt>
      <trkpt lat="45.93576" lon="4.77556">
        <ele>170</ele>
        <time>2018-04-18T08:33:39Z</time>
      </trkpt>
      <trkpt lat="45.93578" lon="4.77563">
        <ele>170.2</ele>
        <time>2018-04-18T08:33:40Z</time>
      </trkpt>
      <trkpt lat="45.93581" lon="4.7757">
        <ele>170.5</ele>
        <time>2018-04-18T08:33:41Z</time>
      </trkpt>
      <trkpt lat="45.93583" lon="4.77578">
        <ele>170.8</ele>
        <time>2018-04-18T08:33:42Z</time>
      </trkpt>
      <trkpt lat="45.93586" lon="4.77585">
        <ele>170.8</ele>
        <time>2018-04-18T08:33:43Z</time>
      </trkpt>
      <trkpt lat="45.93588" lon="4.77593">
        <ele>170.6</ele>
        <time>2018-04-18T08:33:44Z</time>
      </trkpt>
      <trkpt lat="45.93591" lon="4.776">
        <ele>170.4</ele>
        <time>2018-04-18T08:33:45Z</time>
      </trkpt>
      <trkpt lat="45.93593" lon="4.77608">
        <ele>170.3</ele>
        <time>2018-04-18T08:33:46Z</time>
      </trkpt>
      <trkpt lat="45.93596" lon="4.77615">
        <ele>170.1</ele>
        <time>2018-04-18T08:33:47Z</time>
      </trkpt>
      <trkpt lat="45.936" lon="4.77623">
        <ele>169.8</ele>
        <time>2018-04-18T08:33:48Z</time>
      </trkpt>
      <trkpt lat="45.93602" lon="4.77631">
        <ele>169.6</ele>
        <time>2018-04-18T08:33:49Z</time>
      </trkpt>
      <trkpt lat="45.93605" lon="4.7764">
        <ele>169.5</ele>
        <time>2018-04-18T08:33:50Z</time>
      </trkpt>
      <trkpt lat="45.93609" lon="4.77648">
        <ele>169.8</ele>
        <time>2018-04-18T08:33:51Z</time>
      </trkpt>
      <trkpt lat="45.93612" lon="4.77656">
        <ele>170.2</ele>
        <time>2018-04-18T08:33:52Z</time>
      </trkpt>
      <trkpt lat="45.93615" lon="4.77663">
        <ele>170.5</ele>
        <time>2018-04-18T08:33:53Z</time>
      </trkpt>
      <trkpt lat="45.93618" lon="4.7767">
        <ele>170.4</ele>
        <time>2018-04-18T08:33:54Z</time>
      </trkpt>
      <trkpt lat="45.93621" lon="4.77677">
        <ele>170</ele>
        <time>2018-04-18T08:33:55Z</time>
      </trkpt>
      <trkpt lat="45.93624" lon="4.77683">
        <ele>169.7</ele>
        <time>2018-04-18T08:33:56Z</time>
      </trkpt>
      <trkpt lat="45.93627" lon="4.7769">
        <ele>169.5</ele>
        <time>2018-04-18T08:33:57Z</time>
      </trkpt>
      <trkpt lat="45.93629" lon="4.77697">
        <ele>169.6</ele>
        <time>2018-04-18T08:33:58Z</time>
      </trkpt>
      <trkpt lat="45.93633" lon="4.77703">
        <ele>170.1</ele>
        <time>2018-04-18T08:33:59Z</time>
      </trkpt>
      <trkpt lat="45.93637" lon="4.77709">
        <ele>171</ele>
        <time>2018-04-18T08:34:00Z</time>
      </trkpt>
      <trkpt lat="45.93639" lon="4.77713">
        <ele>171.7</ele>
        <time>2018-04-18T08:34:01Z</time>
      </trkpt>
      <trkpt lat="45.93642" lon="4.77719">
        <ele>172.1</ele>
        <time>2018-04-18T08:34:02Z</time>
      </trkpt>
      <trkpt lat="45.93645" lon="4.77724">
        <ele>172</ele>
        <time>2018-04-18T08:34:03Z</time>
      </trkpt>
      <trkpt lat="45.93648" lon="4.77729">
        <ele>171.6</ele>
        <time>2018-04-18T08:34:04Z</time>
      </trkpt>
      <trkpt lat="45.93652" lon="4.77733">
        <ele>171.2</ele>
        <time>2018-04-18T08:34:05Z</time>
      </trkpt>
      <trkpt lat="45.93657" lon="4.77741">
        <ele>171.3</ele>
        <time>2018-04-18T08:34:07Z</time>
      </trkpt>
      <trkpt lat="45.93661" lon="4.77745">
        <ele>171.4</ele>
        <time>2018-04-18T08:34:08Z</time>
      </trkpt>
      <trkpt lat="45.93667" lon="4.77753">
        <ele>172.2</ele>
        <time>2018-04-18T08:34:10Z</time>
      </trkpt>
      <trkpt lat="45.9367" lon="4.77756">
        <ele>172.3</ele>
        <time>2018-04-18T08:34:11Z</time>
      </trkpt>
      <trkpt lat="45.93675" lon="4.77764">
        <ele>172.5</ele>
        <time>2018-04-18T08:34:13Z</time>
      </trkpt>
      <trkpt lat="45.93678" lon="4.77768">
        <ele>172.5</ele>
        <time>2018-04-18T08:34:14Z</time>
      </trkpt>
      <trkpt lat="45.93683" lon="4.77776">
        <ele>172.5</ele>
        <time>2018-04-18T08:34:16Z</time>
      </trkpt>
      <trkpt lat="45.93686" lon="4.7778">
        <ele>172.2</ele>
        <time>2018-04-18T08:34:17Z</time>
      </trkpt>
      <trkpt lat="45.93691" lon="4.77789">
        <ele>171.9</ele>
        <time>2018-04-18T08:34:19Z</time>
      </trkpt>
      <trkpt lat="45.93694" lon="4.77793">
        <ele>172.1</ele>
        <time>2018-04-18T08:34:20Z</time>
      </trkpt>
      <trkpt lat="45.937" lon="4.77801">
        <ele>171.7</ele>
        <time>2018-04-18T08:34:22Z</time>
      </trkpt>
      <trkpt lat="45.93702" lon="4.77805">
        <ele>171.3</ele>
        <time>2018-04-18T08:34:23Z</time>
      </trkpt>
      <trkpt lat="45.93708" lon="4.77813">
        <ele>169.2</ele>
        <time>2018-04-18T08:34:25Z</time>
      </trkpt>
      <trkpt lat="45.93712" lon="4.77817">
        <ele>168.3</ele>
        <time>2018-04-18T08:34:26Z</time>
      </trkpt>
      <trkpt lat="45.93717" lon="4.77825">
        <ele>166.9</ele>
        <time>2018-04-18T08:34:28Z</time>
      </trkpt>
      <trkpt lat="45.9372" lon="4.77829">
        <ele>166.4</ele>
        <time>2018-04-18T08:34:29Z</time>
      </trkpt>
      <trkpt lat="45.93725" lon="4.77836">
        <ele>166</ele>
        <time>2018-04-18T08:34:31Z</time>
      </trkpt>
      <trkpt lat="45.93728" lon="4.7784">
        <ele>166</ele>
        <time>2018-04-18T08:34:32Z</time>
      </trkpt>
      <trkpt lat="45.93734" lon="4.77848">
        <ele>166</ele>
        <time>2018-04-18T08:34:34Z</time>
      </trkpt>
      <trkpt lat="45.93737" lon="4.77852">
        <ele>166</ele>
        <time>2018-04-18T08:34:35Z</time>
      </trkpt>
      <trkpt lat="45.93742" lon="4.7786">
        <ele>166</ele>
        <time>2018-04-18T08:34:37Z</time>
      </trkpt>
      <trkpt lat="45.93745" lon="4.77864">
        <ele>166</ele>
        <time>2018-04-18T08:34:38Z</time>
      </trkpt>
      <trkpt lat="45.93751" lon="4.77872">
        <ele>166</ele>
        <time>2018-04-18T08:34:40Z</time>
      </trkpt>
      <trkpt lat="45.93754" lon="4.77876">
        <ele>166</ele>
        <time>2018-04-18T08:34:41Z</time>
      </trkpt>
      <trkpt lat="45.93761" lon="4.77884">
        <ele>166</ele>
        <time>2018-04-18T08:34:43Z</time>
      </trkpt>
      <trkpt lat="45.93765" lon="4.77888">
        <ele>166</ele>
        <time>2018-04-18T08:34:44Z</time>
      </trkpt>
      <trkpt lat="45.93771" lon="4.77897">
        <ele>166</ele>
        <time>2018-04-18T08:34:46Z</time>
      </trkpt>
      <trkpt lat="45.93775" lon="4.77901">
        <ele>166</ele>
        <time>2018-04-18T08:34:47Z</time>
      </trkpt>
      <trkpt lat="45.93778" lon="4.77906">
        <ele>166</ele>
        <time>2018-04-18T08:34:48Z</time>
      </trkpt>
      <trkpt lat="45.93782" lon="4.77911">
        <ele>166</ele>
        <time>2018-04-18T08:34:49Z</time>
      </trkpt>
      <trkpt lat="45.93788" lon="4.7792">
        <ele>166</ele>
        <time>2018-04-18T08:34:51Z</time>
      </trkpt>
      <trkpt lat="45.93792" lon="4.77926">
        <ele>166</ele>
        <time>2018-04-18T08:34:52Z</time>
      </trkpt>
      <trkpt lat="45.93795" lon="4.77931">
        <ele>166</ele>
        <time>2018-04-18T08:34:53Z</time>
      </trkpt>
      <trkpt lat="45.93799" lon="4.77935">
        <ele>166</ele>
        <time>2018-04-18T08:34:54Z</time>
      </trkpt>
      <trkpt lat="45.93804" lon="4.77941">
        <ele>166</ele>
        <time>2018-04-18T08:34:55Z</time>
      </trkpt>
      <trkpt lat="45.93808" lon="4.77946">
        <ele>166.6</ele>
        <time>2018-04-18T08:34:56Z</time>
      </trkpt>
      <trkpt lat="45.93812" lon="4.77951">
        <ele>167.8</ele>
        <time>2018-04-18T08:34:57Z</time>
      </trkpt>
      <trkpt lat="45.93815" lon="4.77958">
        <ele>169.3</ele>
        <time>2018-04-18T08:34:58Z</time>
      </trkpt>
      <trkpt lat="45.9382" lon="4.77961">
        <ele>170.8</ele>
        <time>2018-04-18T08:34:59Z</time>
      </trkpt>
      <trkpt lat="45.93823" lon="4.77967">
        <ele>172.5</ele>
        <time>2018-04-18T08:35:00Z</time>
      </trkpt>
      <trkpt lat="45.93828" lon="4.77972">
        <ele>174.5</ele>
        <time>2018-04-18T08:35:01Z</time>
      </trkpt>
      <trkpt lat="45.93832" lon="4.77978">
        <ele>176</ele>
        <time>2018-04-18T08:35:02Z</time>
      </trkpt>
      <trkpt lat="45.93837" lon="4.77984">
        <ele>176.4</ele>
        <time>2018-04-18T08:35:03Z</time>
      </trkpt>
      <trkpt lat="45.93839" lon="4.7799">
        <ele>176.6</ele>
        <time>2018-04-18T08:35:04Z</time>
      </trkpt>
      <trkpt lat="45.93841" lon="4.78002">
        <ele>176.9</ele>
        <time>2018-04-18T08:35:06Z</time>
      </trkpt>
      <trkpt lat="45.9384" lon="4.78009">
        <ele>176.8</ele>
        <time>2018-04-18T08:35:07Z</time>
      </trkpt>
      <trkpt lat="45.9384" lon="4.78016">
        <ele>176.6</ele>
        <time>2018-04-18T08:35:08Z</time>
      </trkpt>
      <trkpt lat="45.93841" lon="4.78023">
        <ele>176.4</ele>
        <time>2018-04-18T08:35:09Z</time>
      </trkpt>
      <trkpt lat="45.93844" lon="4.7803">
        <ele>176.4</ele>
        <time>2018-04-18T08:35:10Z</time>
      </trkpt>
      <trkpt lat="45.93846" lon="4.78037">
        <ele>176.6</ele>
        <time>2018-04-18T08:35:11Z</time>
      </trkpt>
      <trkpt lat="45.93849" lon="4.78048">
        <ele>177</ele>
        <time>2018-04-18T08:35:13Z</time>
      </trkpt>
      <trkpt lat="45.93848" lon="4.78055">
        <ele>177.1</ele>
        <time>2018-04-18T08:35:14Z</time>
      </trkpt>
      <trkpt lat="45.93845" lon="4.78066">
        <ele>177</ele>
        <time>2018-04-18T08:35:16Z</time>
      </trkpt>
      <trkpt lat="45.93841" lon="4.78072">
        <ele>177</ele>
        <time>2018-04-18T08:35:17Z</time>
      </trkpt>
      <trkpt lat="45.93841" lon="4.7808">
        <ele>177.2</ele>
        <time>2018-04-18T08:35:18Z</time>
      </trkpt>
      <trkpt lat="45.9384" lon="4.78087">
        <ele>177.3</ele>
        <time>2018-04-18T08:35:19Z</time>
      </trkpt>
      <trkpt lat="45.93839" lon="4.78098">
        <ele>177.6</ele>
        <time>2018-04-18T08:35:21Z</time>
      </trkpt>
      <trkpt lat="45.93835" lon="4.78101">
        <ele>177.7</ele>
        <time>2018-04-18T08:35:22Z</time>
      </trkpt>
      <trkpt lat="45.93834" lon="4.78112">
        <ele>178</ele>
        <time>2018-04-18T08:35:23Z</time>
      </trkpt>
      <trkpt lat="45.93832" lon="4.78117">
        <ele>177.9</ele>
        <time>2018-04-18T08:35:24Z</time>
      </trkpt>
      <trkpt lat="45.93829" lon="4.78125">
        <ele>177.8</ele>
        <time>2018-04-18T08:35:25Z</time>
      </trkpt>
      <trkpt lat="45.93828" lon="4.7813">
        <ele>177.7</ele>
        <time>2018-04-18T08:35:26Z</time>
      </trkpt>
      <trkpt lat="45.93826" lon="4.78141">
        <ele>177.8</ele>
        <time>2018-04-18T08:35:28Z</time>
      </trkpt>
      <trkpt lat="45.93825" lon="4.78147">
        <ele>178</ele>
        <time>2018-04-18T08:35:29Z</time>
      </trkpt>
      <trkpt lat="45.93822" lon="4.78157">
        <ele>178.2</ele>
        <time>2018-04-18T08:35:31Z</time>
      </trkpt>
      <trkpt lat="45.93821" lon="4.78159">
        <ele>178.3</ele>
        <time>2018-04-18T08:35:32Z</time>
      </trkpt>
      <trkpt lat="45.9382" lon="4.78165">
        <ele>178.5</ele>
        <time>2018-04-18T08:35:33Z</time>
      </trkpt>
      <trkpt lat="45.93818" lon="4.78171">
        <ele>178.5</ele>
        <time>2018-04-18T08:35:34Z</time>
      </trkpt>
      <trkpt lat="45.93816" lon="4.78178">
        <ele>178.6</ele>
        <time>2018-04-18T08:35:35Z</time>
      </trkpt>
      <trkpt lat="45.93814" lon="4.78184">
        <ele>178.7</ele>
        <time>2018-04-18T08:35:36Z</time>
      </trkpt>
      <trkpt lat="45.93813" lon="4.78192">
        <ele>178.9</ele>
        <time>2018-04-18T08:35:37Z</time>
      </trkpt>
      <trkpt lat="45.93812" lon="4.78199">
        <ele>179</ele>
        <time>2018-04-18T08:35:38Z</time>
      </trkpt>
      <trkpt lat="45.93811" lon="4.78207">
        <ele>179</ele>
        <time>2018-04-18T08:35:39Z</time>
      </trkpt>
      <trkpt lat="45.93809" lon="4.78214">
        <ele>179</ele>
        <time>2018-04-18T08:35:40Z</time>
      </trkpt>
      <trkpt lat="45.93805" lon="4.78221">
        <ele>179</ele>
        <time>2018-04-18T08:35:41Z</time>
      </trkpt>
      <trkpt lat="45.93803" lon="4.78227">
        <ele>178.9</ele>
        <time>2018-04-18T08:35:42Z</time>
      </trkpt>
      <trkpt lat="45.93799" lon="4.78233">
        <ele>178.8</ele>
        <time>2018-04-18T08:35:43Z</time>
      </trkpt>
      <trkpt lat="45.93794" lon="4.7824">
        <ele>178.8</ele>
        <time>2018-04-18T08:35:44Z</time>
      </trkpt>
      <trkpt lat="45.93792" lon="4.78247">
        <ele>178.9</ele>
        <time>2018-04-18T08:35:45Z</time>
      </trkpt>
      <trkpt lat="45.9379" lon="4.78255">
        <ele>179</ele>
        <time>2018-04-18T08:35:46Z</time>
      </trkpt>
      <trkpt lat="45.93788" lon="4.78263">
        <ele>179</ele>
        <time>2018-04-18T08:35:47Z</time>
      </trkpt>
      <trkpt lat="45.93788" lon="4.7827">
        <ele>179</ele>
        <time>2018-04-18T08:35:48Z</time>
      </trkpt>
      <trkpt lat="45.93786" lon="4.78276">
        <ele>179</ele>
        <time>2018-04-18T08:35:49Z</time>
      </trkpt>
      <trkpt lat="45.93784" lon="4.78283">
        <ele>179</ele>
        <time>2018-04-18T08:35:50Z</time>
      </trkpt>
      <trkpt lat="45.93783" lon="4.78292">
        <ele>179.1</ele>
        <time>2018-04-18T08:35:51Z</time>
      </trkpt>
      <trkpt lat="45.93779" lon="4.78299">
        <ele>179</ele>
        <time>2018-04-18T08:35:52Z</time>
      </trkpt>
      <trkpt lat="45.93777" lon="4.78306">
        <ele>179</ele>
        <time>2018-04-18T08:35:53Z</time>
      </trkpt>
      <trkpt lat="45.93775" lon="4.78312">
        <ele>179.1</ele>
        <time>2018-04-18T08:35:54Z</time>
      </trkpt>
      <trkpt lat="45.93774" lon="4.78322">
        <ele>179.4</ele>
        <time>2018-04-18T08:35:55Z</time>
      </trkpt>
      <trkpt lat="45.93772" lon="4.78329">
        <ele>179.5</ele>
        <time>2018-04-18T08:35:56Z</time>
      </trkpt>
      <trkpt lat="45.93771" lon="4.78336">
        <ele>179.5</ele>
        <time>2018-04-18T08:35:57Z</time>
      </trkpt>
      <trkpt lat="45.93769" lon="4.78343">
        <ele>179.4</ele>
        <time>2018-04-18T08:35:58Z</time>
      </trkpt>
      <trkpt lat="45.93767" lon="4.7835">
        <ele>179.2</ele>
        <time>2018-04-18T08:35:59Z</time>
      </trkpt>
      <trkpt lat="45.93765" lon="4.78356">
        <ele>179.1</ele>
        <time>2018-04-18T08:36:00Z</time>
      </trkpt>
      <trkpt lat="45.93763" lon="4.78363">
        <ele>178.9</ele>
        <time>2018-04-18T08:36:01Z</time>
      </trkpt>
      <trkpt lat="45.93761" lon="4.7837">
        <ele>178.9</ele>
        <time>2018-04-18T08:36:02Z</time>
      </trkpt>
      <trkpt lat="45.93759" lon="4.78378">
        <ele>178.8</ele>
        <time>2018-04-18T08:36:03Z</time>
      </trkpt>
      <trkpt lat="45.93757" lon="4.78386">
        <ele>178.7</ele>
        <time>2018-04-18T08:36:04Z</time>
      </trkpt>
      <trkpt lat="45.93755" lon="4.78393">
        <ele>178.7</ele>
        <time>2018-04-18T08:36:05Z</time>
      </trkpt>
      <trkpt lat="45.93753" lon="4.78402">
        <ele>178.8</ele>
        <time>2018-04-18T08:36:06Z</time>
      </trkpt>
      <trkpt lat="45.93752" lon="4.7841">
        <ele>178.9</ele>
        <time>2018-04-18T08:36:07Z</time>
      </trkpt>
      <trkpt lat="45.9375" lon="4.78419">
        <ele>179</ele>
        <time>2018-04-18T08:36:08Z</time>
      </trkpt>
      <trkpt lat="45.93747" lon="4.78427">
        <ele>178.9</ele>
        <time>2018-04-18T08:36:09Z</time>
      </trkpt>
      <trkpt lat="45.93746" lon="4.78435">
        <ele>178.8</ele>
        <time>2018-04-18T08:36:10Z</time>
      </trkpt>
      <trkpt lat="45.93743" lon="4.78443">
        <ele>178.8</ele>
        <time>2018-04-18T08:36:11Z</time>
      </trkpt>
      <trkpt lat="45.93741" lon="4.78451">
        <ele>178.6</ele>
        <time>2018-04-18T08:36:12Z</time>
      </trkpt>
      <trkpt lat="45.9374" lon="4.7846">
        <ele>178.4</ele>
        <time>2018-04-18T08:36:13Z</time>
      </trkpt>
      <trkpt lat="45.93737" lon="4.78468">
        <ele>178.1</ele>
        <time>2018-04-18T08:36:14Z</time>
      </trkpt>
      <trkpt lat="45.93734" lon="4.78476">
        <ele>177.8</ele>
        <time>2018-04-18T08:36:15Z</time>
      </trkpt>
      <trkpt lat="45.93731" lon="4.78485">
        <ele>177.6</ele>
        <time>2018-04-18T08:36:16Z</time>
      </trkpt>
      <trkpt lat="45.93729" lon="4.78492">
        <ele>177.5</ele>
        <time>2018-04-18T08:36:17Z</time>
      </trkpt>
      <trkpt lat="45.93727" lon="4.78498">
        <ele>177.3</ele>
        <time>2018-04-18T08:36:18Z</time>
      </trkpt>
      <trkpt lat="45.93725" lon="4.78505">
        <ele>177</ele>
        <time>2018-04-18T08:36:19Z</time>
      </trkpt>
      <trkpt lat="45.93723" lon="4.78517">
        <ele>176.4</ele>
        <time>2018-04-18T08:36:20Z</time>
      </trkpt>
      <trkpt lat="45.93721" lon="4.78526">
        <ele>176</ele>
        <time>2018-04-18T08:36:21Z</time>
      </trkpt>
      <trkpt lat="45.93719" lon="4.78534">
        <ele>175.9</ele>
        <time>2018-04-18T08:36:22Z</time>
      </trkpt>
      <trkpt lat="45.93717" lon="4.78544">
        <ele>175.8</ele>
        <time>2018-04-18T08:36:23Z</time>
      </trkpt>
      <trkpt lat="45.93715" lon="4.78553">
        <ele>175.7</ele>
        <time>2018-04-18T08:36:24Z</time>
      </trkpt>
      <trkpt lat="45.93713" lon="4.78561">
        <ele>175.7</ele>
        <time>2018-04-18T08:36:25Z</time>
      </trkpt>
      <trkpt lat="45.93711" lon="4.78571">
        <ele>175.6</ele>
        <time>2018-04-18T08:36:26Z</time>
      </trkpt>
      <trkpt lat="45.9371" lon="4.7858">
        <ele>175.5</ele>
        <time>2018-04-18T08:36:27Z</time>
      </trkpt>
      <trkpt lat="45.93708" lon="4.78587">
        <ele>175.4</ele>
        <time>2018-04-18T08:36:28Z</time>
      </trkpt>
      <trkpt lat="45.93707" lon="4.78593">
        <ele>175.2</ele>
        <time>2018-04-18T08:36:29Z</time>
      </trkpt>
      <trkpt lat="45.93704" lon="4.78601">
        <ele>175</ele>
        <time>2018-04-18T08:36:30Z</time>
      </trkpt>
      <trkpt lat="45.93702" lon="4.78612">
        <ele>174.5</ele>
        <time>2018-04-18T08:36:32Z</time>
      </trkpt>
      <trkpt lat="45.937" lon="4.78618">
        <ele>174.4</ele>
        <time>2018-04-18T08:36:33Z</time>
      </trkpt>
      <trkpt lat="45.93699" lon="4.78624">
        <ele>174.3</ele>
        <time>2018-04-18T08:36:34Z</time>
      </trkpt>
      <trkpt lat="45.93704" lon="4.78631">
        <ele>174.7</ele>
        <time>2018-04-18T08:36:35Z</time>
      </trkpt>
      <trkpt lat="45.93711" lon="4.78633">
        <ele>175.2</ele>
        <time>2018-04-18T08:36:37Z</time>
      </trkpt>
      <trkpt lat="45.93717" lon="4.7863">
        <ele>175.6</ele>
        <time>2018-04-18T08:36:38Z</time>
      </trkpt>
      <trkpt lat="45.93721" lon="4.78627">
        <ele>175.9</ele>
        <time>2018-04-18T08:36:39Z</time>
      </trkpt>
      <trkpt lat="45.93725" lon="4.78626">
        <ele>176.2</ele>
        <time>2018-04-18T08:36:40Z</time>
      </trkpt>
      <trkpt lat="45.93731" lon="4.78625">
        <ele>176.4</ele>
        <time>2018-04-18T08:36:42Z</time>
      </trkpt>
      <trkpt lat="45.93736" lon="4.78623">
        <ele>176.8</ele>
        <time>2018-04-18T08:36:43Z</time>
      </trkpt>
      <trkpt lat="45.93743" lon="4.78622">
        <ele>177.2</ele>
        <time>2018-04-18T08:36:45Z</time>
      </trkpt>
      <trkpt lat="45.93745" lon="4.78621">
        <ele>177.3</ele>
        <time>2018-04-18T08:36:46Z</time>
      </trkpt>
      <trkpt lat="45.93752" lon="4.7862">
        <ele>177.7</ele>
        <time>2018-04-18T08:36:49Z</time>
      </trkpt>
      <trkpt lat="45.93754" lon="4.7862">
        <ele>177.8</ele>
        <time>2018-04-18T08:36:50Z</time>
      </trkpt>
      <trkpt lat="45.93763" lon="4.78618">
        <ele>178.2</ele>
        <time>2018-04-18T08:36:53Z</time>
      </trkpt>
      <trkpt lat="45.93766" lon="4.78617">
        <ele>178.4</ele>
        <time>2018-04-18T08:36:54Z</time>
      </trkpt>
      <trkpt lat="45.93774" lon="4.78614">
        <ele>178.7</ele>
        <time>2018-04-18T08:36:57Z</time>
      </trkpt>
      <trkpt lat="45.93778" lon="4.78613">
        <ele>178.9</ele>
        <time>2018-04-18T08:36:58Z</time>
      </trkpt>
      <trkpt lat="45.93785" lon="4.7861">
        <ele>179.2</ele>
        <time>2018-04-18T08:37:00Z</time>
      </trkpt>
      <trkpt lat="45.93788" lon="4.78608">
        <ele>179.4</ele>
        <time>2018-04-18T08:37:01Z</time>
      </trkpt>
      <trkpt lat="45.93795" lon="4.78605">
        <ele>179.6</ele>
        <time>2018-04-18T08:37:03Z</time>
      </trkpt>
      <trkpt lat="45.93799" lon="4.78604">
        <ele>179.7</ele>
        <time>2018-04-18T08:37:04Z</time>
      </trkpt>
      <trkpt lat="45.93805" lon="4.78601">
        <ele>180</ele>
        <time>2018-04-18T08:37:06Z</time>
      </trkpt>
      <trkpt lat="45.93809" lon="4.786">
        <ele>180.2</ele>
        <time>2018-04-18T08:37:07Z</time>
      </trkpt>
      <trkpt lat="45.93815" lon="4.78598">
        <ele>180.7</ele>
        <time>2018-04-18T08:37:09Z</time>
      </trkpt>
      <trkpt lat="45.93818" lon="4.78597">
        <ele>180.9</ele>
        <time>2018-04-18T08:37:10Z</time>
      </trkpt>
      <trkpt lat="45.93826" lon="4.78595">
        <ele>181.6</ele>
        <time>2018-04-18T08:37:13Z</time>
      </trkpt>
      <trkpt lat="45.93829" lon="4.78595">
        <ele>181.8</ele>
        <time>2018-04-18T08:37:14Z</time>
      </trkpt>
      <trkpt lat="45.93838" lon="4.78594">
        <ele>182.5</ele>
        <time>2018-04-18T08:37:18Z</time>
      </trkpt>
      <trkpt lat="45.9384" lon="4.78594">
        <ele>182.7</ele>
        <time>2018-04-18T08:37:19Z</time>
      </trkpt>
      <trkpt lat="45.93849" lon="4.78594">
        <ele>183.3</ele>
        <time>2018-04-18T08:37:23Z</time>
      </trkpt>
      <trkpt lat="45.9385" lon="4.78595">
        <ele>183.4</ele>
        <time>2018-04-18T08:37:24Z</time>
      </trkpt>
      <trkpt lat="45.93858" lon="4.78597">
        <ele>183.7</ele>
        <time>2018-04-18T08:37:28Z</time>
      </trkpt>
      <trkpt lat="45.9386" lon="4.78598">
        <ele>183.8</ele>
        <time>2018-04-18T08:37:29Z</time>
      </trkpt>
      <trkpt lat="45.93866" lon="4.78598">
        <ele>184.3</ele>
        <time>2018-04-18T08:37:32Z</time>
      </trkpt>
      <trkpt lat="45.93869" lon="4.78598">
        <ele>184.5</ele>
        <time>2018-04-18T08:37:33Z</time>
      </trkpt>
      <trkpt lat="45.93876" lon="4.78597">
        <ele>185.1</ele>
        <time>2018-04-18T08:37:36Z</time>
      </trkpt>
      <trkpt lat="45.93879" lon="4.78596">
        <ele>185.3</ele>
        <time>2018-04-18T08:37:37Z</time>
      </trkpt>
      <trkpt lat="45.93888" lon="4.78593">
        <ele>185.9</ele>
        <time>2018-04-18T08:37:41Z</time>
      </trkpt>
      <trkpt lat="45.93889" lon="4.78592">
        <ele>186.1</ele>
        <time>2018-04-18T08:37:42Z</time>
      </trkpt>
      <trkpt lat="45.93896" lon="4.7859">
        <ele>186.8</ele>
        <time>2018-04-18T08:37:46Z</time>
      </trkpt>
      <trkpt lat="45.93898" lon="4.78589">
        <ele>187</ele>
        <time>2018-04-18T08:37:47Z</time>
      </trkpt>
      <trkpt lat="45.93905" lon="4.78587">
        <ele>187.8</ele>
        <time>2018-04-18T08:37:50Z</time>
      </trkpt>
      <trkpt lat="45.93908" lon="4.78586">
        <ele>188</ele>
        <time>2018-04-18T08:37:51Z</time>
      </trkpt>
      <trkpt lat="45.93915" lon="4.78583">
        <ele>188.8</ele>
        <time>2018-04-18T08:37:54Z</time>
      </trkpt>
      <trkpt lat="45.93916" lon="4.78581">
        <ele>189</ele>
        <time>2018-04-18T08:37:55Z</time>
      </trkpt>
      <trkpt lat="45.93923" lon="4.78574">
        <ele>189.9</ele>
        <time>2018-04-18T08:37:59Z</time>
      </trkpt>
      <trkpt lat="45.93925" lon="4.78574">
        <ele>190.1</ele>
        <time>2018-04-18T08:38:00Z</time>
      </trkpt>
      <trkpt lat="45.93931" lon="4.78579">
        <ele>190.6</ele>
        <time>2018-04-18T08:38:04Z</time>
      </trkpt>
      <trkpt lat="45.93934" lon="4.7859">
        <ele>191</ele>
        <time>2018-04-18T08:38:05Z</time>
      </trkpt>
      <trkpt lat="45.93935" lon="4.78601">
        <ele>191.3</ele>
        <time>2018-04-18T08:38:07Z</time>
      </trkpt>
      <trkpt lat="45.93935" lon="4.78604">
        <ele>191.4</ele>
        <time>2018-04-18T08:38:08Z</time>
      </trkpt>
      <trkpt lat="45.93935" lon="4.78611">
        <ele>191.6</ele>
        <time>2018-04-18T08:38:10Z</time>
      </trkpt>
      <trkpt lat="45.93934" lon="4.78621">
        <ele>191.5</ele>
        <time>2018-04-18T08:38:11Z</time>
      </trkpt>
      <trkpt lat="45.93934" lon="4.78632">
        <ele>191.4</ele>
        <time>2018-04-18T08:38:13Z</time>
      </trkpt>
      <trkpt lat="45.93932" lon="4.78638">
        <ele>191.2</ele>
        <time>2018-04-18T08:38:14Z</time>
      </trkpt>
      <trkpt lat="45.93932" lon="4.78645">
        <ele>191</ele>
        <time>2018-04-18T08:38:15Z</time>
      </trkpt>
      <trkpt lat="45.93932" lon="4.78651">
        <ele>190.8</ele>
        <time>2018-04-18T08:38:16Z</time>
      </trkpt>
      <trkpt lat="45.93934" lon="4.7866">
        <ele>190.7</ele>
        <time>2018-04-18T08:38:17Z</time>
      </trkpt>
      <trkpt lat="45.93933" lon="4.78666">
        <ele>190.4</ele>
        <time>2018-04-18T08:38:18Z</time>
      </trkpt>
      <trkpt lat="45.93934" lon="4.78677">
        <ele>190.6</ele>
        <time>2018-04-18T08:38:20Z</time>
      </trkpt>
      <trkpt lat="45.93934" lon="4.78682">
        <ele>190.7</ele>
        <time>2018-04-18T08:38:21Z</time>
      </trkpt>
      <trkpt lat="45.93933" lon="4.78693">
        <ele>190.7</ele>
        <time>2018-04-18T08:38:24Z</time>
      </trkpt>
      <trkpt lat="45.93933" lon="4.78703">
        <ele>190.9</ele>
        <time>2018-04-18T08:38:25Z</time>
      </trkpt>
      <trkpt lat="45.93933" lon="4.78715">
        <ele>191.2</ele>
        <time>2018-04-18T08:38:27Z</time>
      </trkpt>
      <trkpt lat="45.93933" lon="4.78721">
        <ele>191.3</ele>
        <time>2018-04-18T08:38:28Z</time>
      </trkpt>
      <trkpt lat="45.93932" lon="4.78727">
        <ele>191.2</ele>
        <time>2018-04-18T08:38:29Z</time>
      </trkpt>
      <trkpt lat="45.93932" lon="4.78734">
        <ele>191.2</ele>
        <time>2018-04-18T08:38:30Z</time>
      </trkpt>
      <trkpt lat="45.93932" lon="4.78741">
        <ele>191.2</ele>
        <time>2018-04-18T08:38:31Z</time>
      </trkpt>
      <trkpt lat="45.93932" lon="4.78749">
        <ele>191.3</ele>
        <time>2018-04-18T08:38:32Z</time>
      </trkpt>
      <trkpt lat="45.93933" lon="4.78755">
        <ele>191.2</ele>
        <time>2018-04-18T08:38:33Z</time>
      </trkpt>
      <trkpt lat="45.93935" lon="4.78763">
        <ele>191.3</ele>
        <time>2018-04-18T08:38:34Z</time>
      </trkpt>
      <trkpt lat="45.93935" lon="4.78771">
        <ele>191.1</ele>
        <time>2018-04-18T08:38:35Z</time>
      </trkpt>
      <trkpt lat="45.93933" lon="4.78776">
        <ele>190.8</ele>
        <time>2018-04-18T08:38:36Z</time>
      </trkpt>
      <trkpt lat="45.93933" lon="4.78783">
        <ele>190.6</ele>
        <time>2018-04-18T08:38:37Z</time>
      </trkpt>
      <trkpt lat="45.93933" lon="4.78789">
        <ele>190.5</ele>
        <time>2018-04-18T08:38:38Z</time>
      </trkpt>
      <trkpt lat="45.93933" lon="4.78796">
        <ele>190.4</ele>
        <time>2018-04-18T08:38:39Z</time>
      </trkpt>
      <trkpt lat="45.93933" lon="4.78803">
        <ele>190.2</ele>
        <time>2018-04-18T08:38:40Z</time>
      </trkpt>
      <trkpt lat="45.93933" lon="4.78814">
        <ele>190.2</ele>
        <time>2018-04-18T08:38:42Z</time>
      </trkpt>
      <trkpt lat="45.93933" lon="4.7882">
        <ele>190.2</ele>
        <time>2018-04-18T08:38:43Z</time>
      </trkpt>
      <trkpt lat="45.93934" lon="4.78826">
        <ele>190.2</ele>
        <time>2018-04-18T08:38:44Z</time>
      </trkpt>
      <trkpt lat="45.93934" lon="4.78833">
        <ele>190.3</ele>
        <time>2018-04-18T08:38:45Z</time>
      </trkpt>
      <trkpt lat="45.93933" lon="4.78845">
        <ele>190.2</ele>
        <time>2018-04-18T08:38:47Z</time>
      </trkpt>
      <trkpt lat="45.93935" lon="4.78852">
        <ele>190.3</ele>
        <time>2018-04-18T08:38:48Z</time>
      </trkpt>
      <trkpt lat="45.93934" lon="4.78858">
        <ele>190.3</ele>
        <time>2018-04-18T08:38:49Z</time>
      </trkpt>
      <trkpt lat="45.93935" lon="4.78865">
        <ele>190.4</ele>
        <time>2018-04-18T08:38:50Z</time>
      </trkpt>
      <trkpt lat="45.93935" lon="4.78872">
        <ele>190.6</ele>
        <time>2018-04-18T08:38:51Z</time>
      </trkpt>
      <trkpt lat="45.93937" lon="4.78878">
        <ele>190.9</ele>
        <time>2018-04-18T08:38:52Z</time>
      </trkpt>
      <trkpt lat="45.93938" lon="4.7889">
        <ele>191.3</ele>
        <time>2018-04-18T08:38:54Z</time>
      </trkpt>
      <trkpt lat="45.93937" lon="4.78896">
        <ele>191.2</ele>
        <time>2018-04-18T08:38:55Z</time>
      </trkpt>
      <trkpt lat="45.93938" lon="4.78905">
        <ele>191.3</ele>
        <time>2018-04-18T08:38:57Z</time>
      </trkpt>
      <trkpt lat="45.93938" lon="4.78912">
        <ele>191.3</ele>
        <time>2018-04-18T08:38:58Z</time>
      </trkpt>
      <trkpt lat="45.9394" lon="4.78923">
        <ele>191.5</ele>
        <time>2018-04-18T08:39:00Z</time>
      </trkpt>
      <trkpt lat="45.9394" lon="4.78929">
        <ele>191.5</ele>
        <time>2018-04-18T08:39:01Z</time>
      </trkpt>
      <trkpt lat="45.9394" lon="4.78942">
        <ele>191.5</ele>
        <time>2018-04-18T08:39:03Z</time>
      </trkpt>
      <trkpt lat="45.93939" lon="4.78948">
        <ele>191.4</ele>
        <time>2018-04-18T08:39:04Z</time>
      </trkpt>
      <trkpt lat="45.9394" lon="4.7896">
        <ele>191.5</ele>
        <time>2018-04-18T08:39:06Z</time>
      </trkpt>
      <trkpt lat="45.9394" lon="4.78966">
        <ele>191.5</ele>
        <time>2018-04-18T08:39:07Z</time>
      </trkpt>
      <trkpt lat="45.93939" lon="4.78974">
        <ele>191.4</ele>
        <time>2018-04-18T08:39:08Z</time>
      </trkpt>
      <trkpt lat="45.9394" lon="4.78979">
        <ele>191.5</ele>
        <time>2018-04-18T08:39:09Z</time>
      </trkpt>
      <trkpt lat="45.9394" lon="4.78986">
        <ele>191.5</ele>
        <time>2018-04-18T08:39:10Z</time>
      </trkpt>
      <trkpt lat="45.93942" lon="4.78993">
        <ele>191.7</ele>
        <time>2018-04-18T08:39:11Z</time>
      </trkpt>
      <trkpt lat="45.93941" lon="4.79005">
        <ele>191.6</ele>
        <time>2018-04-18T08:39:13Z</time>
      </trkpt>
      <trkpt lat="45.93941" lon="4.7901">
        <ele>191.7</ele>
        <time>2018-04-18T08:39:14Z</time>
      </trkpt>
      <trkpt lat="45.93942" lon="4.79017">
        <ele>191.8</ele>
        <time>2018-04-18T08:39:15Z</time>
      </trkpt>
      <trkpt lat="45.93943" lon="4.79023">
        <ele>191.8</ele>
        <time>2018-04-18T08:39:16Z</time>
      </trkpt>
      <trkpt lat="45.93944" lon="4.7903">
        <ele>192</ele>
        <time>2018-04-18T08:39:17Z</time>
      </trkpt>
      <trkpt lat="45.93945" lon="4.79036">
        <ele>192.4</ele>
        <time>2018-04-18T08:39:18Z</time>
      </trkpt>
      <trkpt lat="45.93943" lon="4.79048">
        <ele>192.6</ele>
        <time>2018-04-18T08:39:20Z</time>
      </trkpt>
      <trkpt lat="45.93945" lon="4.79055">
        <ele>193</ele>
        <time>2018-04-18T08:39:21Z</time>
      </trkpt>
      <trkpt lat="45.93946" lon="4.79065">
        <ele>193.2</ele>
        <time>2018-04-18T08:39:23Z</time>
      </trkpt>
      <trkpt lat="45.93947" lon="4.79071">
        <ele>193.2</ele>
        <time>2018-04-18T08:39:24Z</time>
      </trkpt>
      <trkpt lat="45.93948" lon="4.79083">
        <ele>193.4</ele>
        <time>2018-04-18T08:39:26Z</time>
      </trkpt>
      <trkpt lat="45.93948" lon="4.79089">
        <ele>193.4</ele>
        <time>2018-04-18T08:39:27Z</time>
      </trkpt>
      <trkpt lat="45.93948" lon="4.79097">
        <ele>193.4</ele>
        <time>2018-04-18T08:39:29Z</time>
      </trkpt>
      <trkpt lat="45.93948" lon="4.79104">
        <ele>193.4</ele>
        <time>2018-04-18T08:39:30Z</time>
      </trkpt>
      <trkpt lat="45.93948" lon="4.79114">
        <ele>193.4</ele>
        <time>2018-04-18T08:39:32Z</time>
      </trkpt>
      <trkpt lat="45.93948" lon="4.7912">
        <ele>193.4</ele>
        <time>2018-04-18T08:39:33Z</time>
      </trkpt>
      <trkpt lat="45.93948" lon="4.79131">
        <ele>193.4</ele>
        <time>2018-04-18T08:39:35Z</time>
      </trkpt>
      <trkpt lat="45.93948" lon="4.79137">
        <ele>193.5</ele>
        <time>2018-04-18T08:39:36Z</time>
      </trkpt>
      <trkpt lat="45.93949" lon="4.79149">
        <ele>193.7</ele>
        <time>2018-04-18T08:39:38Z</time>
      </trkpt>
      <trkpt lat="45.9395" lon="4.79155">
        <ele>193.8</ele>
        <time>2018-04-18T08:39:39Z</time>
      </trkpt>
      <trkpt lat="45.9395" lon="4.79166">
        <ele>193.8</ele>
        <time>2018-04-18T08:39:41Z</time>
      </trkpt>
      <trkpt lat="45.9395" lon="4.79172">
        <ele>194</ele>
        <time>2018-04-18T08:39:42Z</time>
      </trkpt>
      <trkpt lat="45.9395" lon="4.79181">
        <ele>194.3</ele>
        <time>2018-04-18T08:39:44Z</time>
      </trkpt>
      <trkpt lat="45.9395" lon="4.79188">
        <ele>194.6</ele>
        <time>2018-04-18T08:39:45Z</time>
      </trkpt>
      <trkpt lat="45.9395" lon="4.79198">
        <ele>194.8</ele>
        <time>2018-04-18T08:39:47Z</time>
      </trkpt>
      <trkpt lat="45.9395" lon="4.79204">
        <ele>194.7</ele>
        <time>2018-04-18T08:39:48Z</time>
      </trkpt>
      <trkpt lat="45.9395" lon="4.79212">
        <ele>194.8</ele>
        <time>2018-04-18T08:39:50Z</time>
      </trkpt>
      <trkpt lat="45.93951" lon="4.79219">
        <ele>194.9</ele>
        <time>2018-04-18T08:39:51Z</time>
      </trkpt>
      <trkpt lat="45.93951" lon="4.7923">
        <ele>195.2</ele>
        <time>2018-04-18T08:39:53Z</time>
      </trkpt>
      <trkpt lat="45.93951" lon="4.79236">
        <ele>195.4</ele>
        <time>2018-04-18T08:39:54Z</time>
      </trkpt>
      <trkpt lat="45.93951" lon="4.79244">
        <ele>195.7</ele>
        <time>2018-04-18T08:39:56Z</time>
      </trkpt>
      <trkpt lat="45.9395" lon="4.79251">
        <ele>195.9</ele>
        <time>2018-04-18T08:39:57Z</time>
      </trkpt>
      <trkpt lat="45.9395" lon="4.79264">
        <ele>195.8</ele>
        <time>2018-04-18T08:39:59Z</time>
      </trkpt>
      <trkpt lat="45.9395" lon="4.79266">
        <ele>195.8</ele>
        <time>2018-04-18T08:40:00Z</time>
      </trkpt>
      <trkpt lat="45.9395" lon="4.79274">
        <ele>195.8</ele>
        <time>2018-04-18T08:40:01Z</time>
      </trkpt>
      <trkpt lat="45.93951" lon="4.7928">
        <ele>196</ele>
        <time>2018-04-18T08:40:02Z</time>
      </trkpt>
      <trkpt lat="45.93951" lon="4.79289">
        <ele>196.3</ele>
        <time>2018-04-18T08:40:04Z</time>
      </trkpt>
      <trkpt lat="45.93951" lon="4.79296">
        <ele>196.7</ele>
        <time>2018-04-18T08:40:05Z</time>
      </trkpt>
      <trkpt lat="45.93951" lon="4.79308">
        <ele>197.1</ele>
        <time>2018-04-18T08:40:07Z</time>
      </trkpt>
      <trkpt lat="45.93951" lon="4.79313">
        <ele>197.2</ele>
        <time>2018-04-18T08:40:08Z</time>
      </trkpt>
      <trkpt lat="45.93951" lon="4.79325">
        <ele>197.4</ele>
        <time>2018-04-18T08:40:10Z</time>
      </trkpt>
      <trkpt lat="45.93952" lon="4.7933">
        <ele>197.5</ele>
        <time>2018-04-18T08:40:11Z</time>
      </trkpt>
      <trkpt lat="45.93953" lon="4.79342">
        <ele>198.1</ele>
        <time>2018-04-18T08:40:13Z</time>
      </trkpt>
      <trkpt lat="45.93953" lon="4.79348">
        <ele>198.5</ele>
        <time>2018-04-18T08:40:14Z</time>
      </trkpt>
      <trkpt lat="45.93953" lon="4.7936">
        <ele>199.1</ele>
        <time>2018-04-18T08:40:16Z</time>
      </trkpt>
      <trkpt lat="45.93953" lon="4.79365">
        <ele>199.2</ele>
        <time>2018-04-18T08:40:17Z</time>
      </trkpt>
      <trkpt lat="45.93953" lon="4.79377">
        <ele>199.7</ele>
        <time>2018-04-18T08:40:20Z</time>
      </trkpt>
      <trkpt lat="45.93953" lon="4.79387">
        <ele>200.1</ele>
        <time>2018-04-18T08:40:21Z</time>
      </trkpt>
      <trkpt lat="45.93954" lon="4.79397">
        <ele>200.4</ele>
        <time>2018-04-18T08:40:24Z</time>
      </trkpt>
      <trkpt lat="45.93953" lon="4.79407">
        <ele>200.4</ele>
        <time>2018-04-18T08:40:25Z</time>
      </trkpt>
      <trkpt lat="45.93953" lon="4.79415">
        <ele>200.4</ele>
        <time>2018-04-18T08:40:27Z</time>
      </trkpt>
      <trkpt lat="45.93952" lon="4.79423">
        <ele>200.4</ele>
        <time>2018-04-18T08:40:28Z</time>
      </trkpt>
      <trkpt lat="45.93952" lon="4.79429">
        <ele>200.4</ele>
        <time>2018-04-18T08:40:30Z</time>
      </trkpt>
      <trkpt lat="45.93951" lon="4.79437">
        <ele>200.3</ele>
        <time>2018-04-18T08:40:31Z</time>
      </trkpt>
      <trkpt lat="45.93949" lon="4.79448">
        <ele>200</ele>
        <time>2018-04-18T08:40:33Z</time>
      </trkpt>
      <trkpt lat="45.93949" lon="4.79453">
        <ele>199.9</ele>
        <time>2018-04-18T08:40:34Z</time>
      </trkpt>
      <trkpt lat="45.93948" lon="4.79465">
        <ele>199.8</ele>
        <time>2018-04-18T08:40:36Z</time>
      </trkpt>
      <trkpt lat="45.93948" lon="4.79471">
        <ele>199.8</ele>
        <time>2018-04-18T08:40:37Z</time>
      </trkpt>
      <trkpt lat="45.93948" lon="4.79482">
        <ele>199.7</ele>
        <time>2018-04-18T08:40:39Z</time>
      </trkpt>
      <trkpt lat="45.93947" lon="4.79488">
        <ele>199.6</ele>
        <time>2018-04-18T08:40:40Z</time>
      </trkpt>
      <trkpt lat="45.93947" lon="4.795">
        <ele>199.6</ele>
        <time>2018-04-18T08:40:42Z</time>
      </trkpt>
      <trkpt lat="45.93948" lon="4.79505">
        <ele>199.9</ele>
        <time>2018-04-18T08:40:43Z</time>
      </trkpt>
      <trkpt lat="45.93949" lon="4.79516">
        <ele>200.5</ele>
        <time>2018-04-18T08:40:45Z</time>
      </trkpt>
      <trkpt lat="45.93949" lon="4.79519">
        <ele>200.7</ele>
        <time>2018-04-18T08:40:46Z</time>
      </trkpt>
      <trkpt lat="45.93951" lon="4.79532">
        <ele>201.5</ele>
        <time>2018-04-18T08:40:48Z</time>
      </trkpt>
      <trkpt lat="45.93951" lon="4.79534">
        <ele>201.7</ele>
        <time>2018-04-18T08:40:49Z</time>
      </trkpt>
      <trkpt lat="45.93952" lon="4.79538">
        <ele>201.9</ele>
        <time>2018-04-18T08:40:50Z</time>
      </trkpt>
      <trkpt lat="45.93953" lon="4.79547">
        <ele>202.5</ele>
        <time>2018-04-18T08:40:51Z</time>
      </trkpt>
      <trkpt lat="45.93954" lon="4.79554">
        <ele>202.9</ele>
        <time>2018-04-18T08:40:53Z</time>
      </trkpt>
      <trkpt lat="45.93954" lon="4.79563">
        <ele>203.3</ele>
        <time>2018-04-18T08:40:54Z</time>
      </trkpt>
      <trkpt lat="45.93955" lon="4.79574">
        <ele>203.7</ele>
        <time>2018-04-18T08:40:56Z</time>
      </trkpt>
      <trkpt lat="45.93956" lon="4.79579">
        <ele>203.9</ele>
        <time>2018-04-18T08:40:57Z</time>
      </trkpt>
      <trkpt lat="45.93957" lon="4.79589">
        <ele>204.3</ele>
        <time>2018-04-18T08:40:59Z</time>
      </trkpt>
      <trkpt lat="45.93957" lon="4.79595">
        <ele>204.5</ele>
        <time>2018-04-18T08:41:00Z</time>
      </trkpt>
      <trkpt lat="45.93958" lon="4.79607">
        <ele>204.9</ele>
        <time>2018-04-18T08:41:03Z</time>
      </trkpt>
      <trkpt lat="45.93959" lon="4.79614">
        <ele>205.1</ele>
        <time>2018-04-18T08:41:04Z</time>
      </trkpt>
      <trkpt lat="45.93959" lon="4.79625">
        <ele>205.2</ele>
        <time>2018-04-18T08:41:06Z</time>
      </trkpt>
      <trkpt lat="45.93959" lon="4.79627">
        <ele>205.2</ele>
        <time>2018-04-18T08:41:07Z</time>
      </trkpt>
      <trkpt lat="45.93959" lon="4.79635">
        <ele>205.1</ele>
        <time>2018-04-18T08:41:08Z</time>
      </trkpt>
      <trkpt lat="45.93958" lon="4.79641">
        <ele>205</ele>
        <time>2018-04-18T08:41:09Z</time>
      </trkpt>
      <trkpt lat="45.93958" lon="4.79652">
        <ele>204.7</ele>
        <time>2018-04-18T08:41:11Z</time>
      </trkpt>
      <trkpt lat="45.93958" lon="4.79658">
        <ele>204.5</ele>
        <time>2018-04-18T08:41:12Z</time>
      </trkpt>
      <trkpt lat="45.93958" lon="4.79668">
        <ele>204.4</ele>
        <time>2018-04-18T08:41:14Z</time>
      </trkpt>
      <trkpt lat="45.93958" lon="4.79671">
        <ele>204.4</ele>
        <time>2018-04-18T08:41:15Z</time>
      </trkpt>
      <trkpt lat="45.93959" lon="4.79682">
        <ele>204.4</ele>
        <time>2018-04-18T08:41:17Z</time>
      </trkpt>
      <trkpt lat="45.9396" lon="4.79685">
        <ele>204.4</ele>
        <time>2018-04-18T08:41:18Z</time>
      </trkpt>
      <trkpt lat="45.93961" lon="4.79696">
        <ele>204.4</ele>
        <time>2018-04-18T08:41:20Z</time>
      </trkpt>
      <trkpt lat="45.93962" lon="4.79702">
        <ele>204.6</ele>
        <time>2018-04-18T08:41:21Z</time>
      </trkpt>
      <trkpt lat="45.93964" lon="4.79711">
        <ele>204.7</ele>
        <time>2018-04-18T08:41:23Z</time>
      </trkpt>
      <trkpt lat="45.93965" lon="4.7972">
        <ele>205</ele>
        <time>2018-04-18T08:41:24Z</time>
      </trkpt>
      <trkpt lat="45.93967" lon="4.79732">
        <ele>205</ele>
        <time>2018-04-18T08:41:26Z</time>
      </trkpt>
      <trkpt lat="45.93968" lon="4.79738">
        <ele>204.9</ele>
        <time>2018-04-18T08:41:27Z</time>
      </trkpt>
      <trkpt lat="45.93969" lon="4.7975">
        <ele>204.7</ele>
        <time>2018-04-18T08:41:29Z</time>
      </trkpt>
      <trkpt lat="45.9397" lon="4.79757">
        <ele>204.7</ele>
        <time>2018-04-18T08:41:30Z</time>
      </trkpt>
      <trkpt lat="45.9397" lon="4.79765">
        <ele>204.7</ele>
        <time>2018-04-18T08:41:31Z</time>
      </trkpt>
      <trkpt lat="45.93971" lon="4.79772">
        <ele>204.8</ele>
        <time>2018-04-18T08:41:32Z</time>
      </trkpt>
      <trkpt lat="45.93971" lon="4.79779">
        <ele>204.8</ele>
        <time>2018-04-18T08:41:33Z</time>
      </trkpt>
      <trkpt lat="45.93971" lon="4.79786">
        <ele>204.8</ele>
        <time>2018-04-18T08:41:34Z</time>
      </trkpt>
      <trkpt lat="45.93972" lon="4.79798">
        <ele>204.9</ele>
        <time>2018-04-18T08:41:36Z</time>
      </trkpt>
      <trkpt lat="45.93972" lon="4.79805">
        <ele>204.9</ele>
        <time>2018-04-18T08:41:37Z</time>
      </trkpt>
      <trkpt lat="45.93971" lon="4.79817">
        <ele>205.3</ele>
        <time>2018-04-18T08:41:39Z</time>
      </trkpt>
      <trkpt lat="45.93971" lon="4.79823">
        <ele>205.3</ele>
        <time>2018-04-18T08:41:40Z</time>
      </trkpt>
      <trkpt lat="45.93969" lon="4.79833">
        <ele>205.4</ele>
        <time>2018-04-18T08:41:42Z</time>
      </trkpt>
      <trkpt lat="45.93969" lon="4.79837">
        <ele>205.4</ele>
        <time>2018-04-18T08:41:43Z</time>
      </trkpt>
      <trkpt lat="45.93968" lon="4.79845">
        <ele>204.9</ele>
        <time>2018-04-18T08:41:44Z</time>
      </trkpt>
      <trkpt lat="45.93967" lon="4.79853">
        <ele>204.4</ele>
        <time>2018-04-18T08:41:45Z</time>
      </trkpt>
      <trkpt lat="45.93966" lon="4.79858">
        <ele>204</ele>
        <time>2018-04-18T08:41:46Z</time>
      </trkpt>
      <trkpt lat="45.93964" lon="4.79865">
        <ele>203.5</ele>
        <time>2018-04-18T08:41:47Z</time>
      </trkpt>
      <trkpt lat="45.93962" lon="4.79877">
        <ele>203</ele>
        <time>2018-04-18T08:41:49Z</time>
      </trkpt>
      <trkpt lat="45.9396" lon="4.79882">
        <ele>202.7</ele>
        <time>2018-04-18T08:41:50Z</time>
      </trkpt>
      <trkpt lat="45.93957" lon="4.79891">
        <ele>202.4</ele>
        <time>2018-04-18T08:41:51Z</time>
      </trkpt>
      <trkpt lat="45.93955" lon="4.79898">
        <ele>202.5</ele>
        <time>2018-04-18T08:41:52Z</time>
      </trkpt>
      <trkpt lat="45.93952" lon="4.79909">
        <ele>202.8</ele>
        <time>2018-04-18T08:41:54Z</time>
      </trkpt>
      <trkpt lat="45.93951" lon="4.79915">
        <ele>203.2</ele>
        <time>2018-04-18T08:41:55Z</time>
      </trkpt>
      <trkpt lat="45.93949" lon="4.79923">
        <ele>203.2</ele>
        <time>2018-04-18T08:41:56Z</time>
      </trkpt>
      <trkpt lat="45.93948" lon="4.7993">
        <ele>203.1</ele>
        <time>2018-04-18T08:41:57Z</time>
      </trkpt>
      <trkpt lat="45.93946" lon="4.79937">
        <ele>203</ele>
        <time>2018-04-18T08:41:58Z</time>
      </trkpt>
      <trkpt lat="45.93944" lon="4.79944">
        <ele>203</ele>
        <time>2018-04-18T08:41:59Z</time>
      </trkpt>
      <trkpt lat="45.93944" lon="4.7995">
        <ele>203.2</ele>
        <time>2018-04-18T08:42:00Z</time>
      </trkpt>
      <trkpt lat="45.93944" lon="4.79957">
        <ele>203.4</ele>
        <time>2018-04-18T08:42:01Z</time>
      </trkpt>
      <trkpt lat="45.93943" lon="4.7996">
        <ele>203.5</ele>
        <time>2018-04-18T08:42:02Z</time>
      </trkpt>
      <trkpt lat="45.93941" lon="4.7997">
        <ele>203.7</ele>
        <time>2018-04-18T08:42:03Z</time>
      </trkpt>
      <trkpt lat="45.9394" lon="4.79982">
        <ele>203.7</ele>
        <time>2018-04-18T08:42:05Z</time>
      </trkpt>
      <trkpt lat="45.93939" lon="4.79987">
        <ele>203.6</ele>
        <time>2018-04-18T08:42:06Z</time>
      </trkpt>
      <trkpt lat="45.93937" lon="4.79999">
        <ele>203.5</ele>
        <time>2018-04-18T08:42:08Z</time>
      </trkpt>
      <trkpt lat="45.93937" lon="4.80004">
        <ele>203.6</ele>
        <time>2018-04-18T08:42:09Z</time>
      </trkpt>
      <trkpt lat="45.93935" lon="4.80015">
        <ele>203.7</ele>
        <time>2018-04-18T08:42:11Z</time>
      </trkpt>
      <trkpt lat="45.93934" lon="4.80022">
        <ele>203.7</ele>
        <time>2018-04-18T08:42:12Z</time>
      </trkpt>
      <trkpt lat="45.93932" lon="4.80035">
        <ele>204</ele>
        <time>2018-04-18T08:42:14Z</time>
      </trkpt>
      <trkpt lat="45.93933" lon="4.80044">
        <ele>204.6</ele>
        <time>2018-04-18T08:42:15Z</time>
      </trkpt>
      <trkpt lat="45.93933" lon="4.80051">
        <ele>205.1</ele>
        <time>2018-04-18T08:42:16Z</time>
      </trkpt>
      <trkpt lat="45.93932" lon="4.80058">
        <ele>205.3</ele>
        <time>2018-04-18T08:42:17Z</time>
      </trkpt>
      <trkpt lat="45.93934" lon="4.80064">
        <ele>205.8</ele>
        <time>2018-04-18T08:42:18Z</time>
      </trkpt>
      <trkpt lat="45.93934" lon="4.80072">
        <ele>206</ele>
        <time>2018-04-18T08:42:19Z</time>
      </trkpt>
      <trkpt lat="45.93934" lon="4.80082">
        <ele>206.4</ele>
        <time>2018-04-18T08:42:21Z</time>
      </trkpt>
      <trkpt lat="45.93936" lon="4.80091">
        <ele>206.7</ele>
        <time>2018-04-18T08:42:22Z</time>
      </trkpt>
      <trkpt lat="45.93936" lon="4.80097">
        <ele>206.7</ele>
        <time>2018-04-18T08:42:23Z</time>
      </trkpt>
      <trkpt lat="45.93937" lon="4.80105">
        <ele>206.9</ele>
        <time>2018-04-18T08:42:24Z</time>
      </trkpt>
      <trkpt lat="45.93937" lon="4.80113">
        <ele>206.9</ele>
        <time>2018-04-18T08:42:25Z</time>
      </trkpt>
      <trkpt lat="45.93938" lon="4.80119">
        <ele>206.6</ele>
        <time>2018-04-18T08:42:26Z</time>
      </trkpt>
      <trkpt lat="45.93938" lon="4.80126">
        <ele>206.1</ele>
        <time>2018-04-18T08:42:27Z</time>
      </trkpt>
      <trkpt lat="45.93939" lon="4.80134">
        <ele>205.8</ele>
        <time>2018-04-18T08:42:28Z</time>
      </trkpt>
      <trkpt lat="45.93939" lon="4.8014">
        <ele>205.3</ele>
        <time>2018-04-18T08:42:29Z</time>
      </trkpt>
      <trkpt lat="45.9394" lon="4.80147">
        <ele>205.2</ele>
        <time>2018-04-18T08:42:30Z</time>
      </trkpt>
      <trkpt lat="45.93941" lon="4.80154">
        <ele>205.1</ele>
        <time>2018-04-18T08:42:31Z</time>
      </trkpt>
      <trkpt lat="45.93943" lon="4.80161">
        <ele>205</ele>
        <time>2018-04-18T08:42:32Z</time>
      </trkpt>
      <trkpt lat="45.93944" lon="4.80167">
        <ele>205</ele>
        <time>2018-04-18T08:42:33Z</time>
      </trkpt>
      <trkpt lat="45.93945" lon="4.80174">
        <ele>204.9</ele>
        <time>2018-04-18T08:42:34Z</time>
      </trkpt>
      <trkpt lat="45.93947" lon="4.8018">
        <ele>205.1</ele>
        <time>2018-04-18T08:42:35Z</time>
      </trkpt>
      <trkpt lat="45.93948" lon="4.80186">
        <ele>205</ele>
        <time>2018-04-18T08:42:36Z</time>
      </trkpt>
      <trkpt lat="45.93949" lon="4.80193">
        <ele>205</ele>
        <time>2018-04-18T08:42:37Z</time>
      </trkpt>
      <trkpt lat="45.93951" lon="4.80199">
        <ele>204.9</ele>
        <time>2018-04-18T08:42:38Z</time>
      </trkpt>
      <trkpt lat="45.93952" lon="4.80205">
        <ele>204.8</ele>
        <time>2018-04-18T08:42:39Z</time>
      </trkpt>
      <trkpt lat="45.93955" lon="4.80211">
        <ele>204.8</ele>
        <time>2018-04-18T08:42:40Z</time>
      </trkpt>
      <trkpt lat="45.93956" lon="4.80217">
        <ele>204.7</ele>
        <time>2018-04-18T08:42:41Z</time>
      </trkpt>
      <trkpt lat="45.93957" lon="4.80224">
        <ele>204.3</ele>
        <time>2018-04-18T08:42:42Z</time>
      </trkpt>
      <trkpt lat="45.9396" lon="4.80236">
        <ele>203.9</ele>
        <time>2018-04-18T08:42:44Z</time>
      </trkpt>
      <trkpt lat="45.93962" lon="4.80241">
        <ele>203.7</ele>
        <time>2018-04-18T08:42:45Z</time>
      </trkpt>
      <trkpt lat="45.93963" lon="4.80249">
        <ele>203.4</ele>
        <time>2018-04-18T08:42:46Z</time>
      </trkpt>
      <trkpt lat="45.93964" lon="4.80255">
        <ele>203.1</ele>
        <time>2018-04-18T08:42:47Z</time>
      </trkpt>
      <trkpt lat="45.93969" lon="4.80265">
        <ele>203.1</ele>
        <time>2018-04-18T08:42:49Z</time>
      </trkpt>
      <trkpt lat="45.93971" lon="4.80271">
        <ele>203</ele>
        <time>2018-04-18T08:42:50Z</time>
      </trkpt>
      <trkpt lat="45.93974" lon="4.80282">
        <ele>201.9</ele>
        <time>2018-04-18T08:42:52Z</time>
      </trkpt>
      <trkpt lat="45.93976" lon="4.80288">
        <ele>200.8</ele>
        <time>2018-04-18T08:42:53Z</time>
      </trkpt>
      <trkpt lat="45.93978" lon="4.80298">
        <ele>198.9</ele>
        <time>2018-04-18T08:42:55Z</time>
      </trkpt>
      <trkpt lat="45.93979" lon="4.80304">
        <ele>198</ele>
        <time>2018-04-18T08:42:56Z</time>
      </trkpt>
      <trkpt lat="45.93983" lon="4.80315">
        <ele>198.3</ele>
        <time>2018-04-18T08:42:59Z</time>
      </trkpt>
      <trkpt lat="45.93984" lon="4.80317">
        <ele>198.5</ele>
        <time>2018-04-18T08:43:00Z</time>
      </trkpt>
      <trkpt lat="45.93987" lon="4.80327">
        <ele>199.4</ele>
        <time>2018-04-18T08:43:03Z</time>
      </trkpt>
      <trkpt lat="45.93989" lon="4.8033">
        <ele>199.9</ele>
        <time>2018-04-18T08:43:04Z</time>
      </trkpt>
      <trkpt lat="45.93992" lon="4.80341">
        <ele>201.7</ele>
        <time>2018-04-18T08:43:07Z</time>
      </trkpt>
      <trkpt lat="45.93993" lon="4.80344">
        <ele>202.4</ele>
        <time>2018-04-18T08:43:08Z</time>
      </trkpt>
      <trkpt lat="45.93995" lon="4.80354">
        <ele>204.7</ele>
        <time>2018-04-18T08:43:11Z</time>
      </trkpt>
      <trkpt lat="45.93996" lon="4.80358">
        <ele>205.5</ele>
        <time>2018-04-18T08:43:12Z</time>
      </trkpt>
      <trkpt lat="45.93998" lon="4.80368">
        <ele>207.1</ele>
        <time>2018-04-18T08:43:15Z</time>
      </trkpt>
      <trkpt lat="45.93999" lon="4.80371">
        <ele>207.5</ele>
        <time>2018-04-18T08:43:16Z</time>
      </trkpt>
      <trkpt lat="45.94001" lon="4.80381">
        <ele>208.5</ele>
        <time>2018-04-18T08:43:19Z</time>
      </trkpt>
      <trkpt lat="45.94001" lon="4.80384">
        <ele>208.8</ele>
        <time>2018-04-18T08:43:20Z</time>
      </trkpt>
      <trkpt lat="45.94004" lon="4.80396">
        <ele>210</ele>
        <time>2018-04-18T08:43:24Z</time>
      </trkpt>
      <trkpt lat="45.94005" lon="4.80399">
        <ele>210.2</ele>
        <time>2018-04-18T08:43:25Z</time>
      </trkpt>
      <trkpt lat="45.94009" lon="4.8041">
        <ele>211.5</ele>
        <time>2018-04-18T08:43:29Z</time>
      </trkpt>
      <trkpt lat="45.9401" lon="4.80413">
        <ele>211.9</ele>
        <time>2018-04-18T08:43:30Z</time>
      </trkpt>
      <trkpt lat="45.94012" lon="4.80423">
        <ele>212.7</ele>
        <time>2018-04-18T08:43:34Z</time>
      </trkpt>
      <trkpt lat="45.94013" lon="4.80426">
        <ele>212.7</ele>
        <time>2018-04-18T08:43:35Z</time>
      </trkpt>
      <trkpt lat="45.94014" lon="4.80437">
        <ele>212.9</ele>
        <time>2018-04-18T08:43:38Z</time>
      </trkpt>
      <trkpt lat="45.94014" lon="4.8044">
        <ele>213</ele>
        <time>2018-04-18T08:43:39Z</time>
      </trkpt>
      <trkpt lat="45.94015" lon="4.80451">
        <ele>213.3</ele>
        <time>2018-04-18T08:43:42Z</time>
      </trkpt>
      <trkpt lat="45.94015" lon="4.80455">
        <ele>213.4</ele>
        <time>2018-04-18T08:43:43Z</time>
      </trkpt>
      <trkpt lat="45.94015" lon="4.80466">
        <ele>213.6</ele>
        <time>2018-04-18T08:43:46Z</time>
      </trkpt>
      <trkpt lat="45.94015" lon="4.80469">
        <ele>213.7</ele>
        <time>2018-04-18T08:43:47Z</time>
      </trkpt>
      <trkpt lat="45.94015" lon="4.8048">
        <ele>214</ele>
        <time>2018-04-18T08:43:50Z</time>
      </trkpt>
      <trkpt lat="45.94015" lon="4.80483">
        <ele>214.1</ele>
        <time>2018-04-18T08:43:51Z</time>
      </trkpt>
      <trkpt lat="45.94016" lon="4.80493">
        <ele>214.7</ele>
        <time>2018-04-18T08:43:54Z</time>
      </trkpt>
      <trkpt lat="45.94017" lon="4.80497">
        <ele>215</ele>
        <time>2018-04-18T08:43:55Z</time>
      </trkpt>
      <trkpt lat="45.94018" lon="4.80509">
        <ele>215.4</ele>
        <time>2018-04-18T08:43:59Z</time>
      </trkpt>
      <trkpt lat="45.94018" lon="4.80512">
        <ele>215.5</ele>
        <time>2018-04-18T08:44:00Z</time>
      </trkpt>
      <trkpt lat="45.94017" lon="4.80523">
        <ele>215.6</ele>
        <time>2018-04-18T08:44:03Z</time>
      </trkpt>
      <trkpt lat="45.94017" lon="4.80526">
        <ele>215.6</ele>
        <time>2018-04-18T08:44:04Z</time>
      </trkpt>
      <trkpt lat="45.94016" lon="4.80538">
        <ele>215.6</ele>
        <time>2018-04-18T08:44:08Z</time>
      </trkpt>
      <trkpt lat="45.94016" lon="4.80542">
        <ele>215.6</ele>
        <time>2018-04-18T08:44:09Z</time>
      </trkpt>
      <trkpt lat="45.94015" lon="4.80552">
        <ele>215.6</ele>
        <time>2018-04-18T08:44:12Z</time>
      </trkpt>
      <trkpt lat="45.94015" lon="4.80555">
        <ele>215.7</ele>
        <time>2018-04-18T08:44:13Z</time>
      </trkpt>
      <trkpt lat="45.94015" lon="4.80565">
        <ele>215.7</ele>
        <time>2018-04-18T08:44:16Z</time>
      </trkpt>
      <trkpt lat="45.94015" lon="4.80568">
        <ele>215.7</ele>
        <time>2018-04-18T08:44:17Z</time>
      </trkpt>
      <trkpt lat="45.94016" lon="4.8058">
        <ele>215.8</ele>
        <time>2018-04-18T08:44:21Z</time>
      </trkpt>
      <trkpt lat="45.94016" lon="4.80583">
        <ele>215.8</ele>
        <time>2018-04-18T08:44:22Z</time>
      </trkpt>
      <trkpt lat="45.94016" lon="4.80594">
        <ele>216.1</ele>
        <time>2018-04-18T08:44:26Z</time>
      </trkpt>
      <trkpt lat="45.94017" lon="4.80596">
        <ele>216.2</ele>
        <time>2018-04-18T08:44:27Z</time>
      </trkpt>
      <trkpt lat="45.94018" lon="4.80609">
        <ele>216.8</ele>
        <time>2018-04-18T08:44:31Z</time>
      </trkpt>
      <trkpt lat="45.94018" lon="4.80612">
        <ele>216.9</ele>
        <time>2018-04-18T08:44:32Z</time>
      </trkpt>
      <trkpt lat="45.9402" lon="4.80621">
        <ele>217.2</ele>
        <time>2018-04-18T08:44:35Z</time>
      </trkpt>
      <trkpt lat="45.94021" lon="4.80625">
        <ele>217.4</ele>
        <time>2018-04-18T08:44:36Z</time>
      </trkpt>
      <trkpt lat="45.94023" lon="4.80635">
        <ele>217.9</ele>
        <time>2018-04-18T08:44:39Z</time>
      </trkpt>
      <trkpt lat="45.94023" lon="4.80638">
        <ele>218</ele>
        <time>2018-04-18T08:44:40Z</time>
      </trkpt>
      <trkpt lat="45.94024" lon="4.80649">
        <ele>218.5</ele>
        <time>2018-04-18T08:44:43Z</time>
      </trkpt>
      <trkpt lat="45.94024" lon="4.80653">
        <ele>218.6</ele>
        <time>2018-04-18T08:44:44Z</time>
      </trkpt>
      <trkpt lat="45.94024" lon="4.80663">
        <ele>218.9</ele>
        <time>2018-04-18T08:44:47Z</time>
      </trkpt>
      <trkpt lat="45.94024" lon="4.80666">
        <ele>219.1</ele>
        <time>2018-04-18T08:44:48Z</time>
      </trkpt>
      <trkpt lat="45.94025" lon="4.80678">
        <ele>219.7</ele>
        <time>2018-04-18T08:44:52Z</time>
      </trkpt>
      <trkpt lat="45.94025" lon="4.8068">
        <ele>219.9</ele>
        <time>2018-04-18T08:44:53Z</time>
      </trkpt>
      <trkpt lat="45.94027" lon="4.8069">
        <ele>220.6</ele>
        <time>2018-04-18T08:44:56Z</time>
      </trkpt>
      <trkpt lat="45.94027" lon="4.80694">
        <ele>220.9</ele>
        <time>2018-04-18T08:44:57Z</time>
      </trkpt>
      <trkpt lat="45.9403" lon="4.80705">
        <ele>221.4</ele>
        <time>2018-04-18T08:45:00Z</time>
      </trkpt>
      <trkpt lat="45.9403" lon="4.80709">
        <ele>221.6</ele>
        <time>2018-04-18T08:45:01Z</time>
      </trkpt>
      <trkpt lat="45.94033" lon="4.8072">
        <ele>222</ele>
        <time>2018-04-18T08:45:04Z</time>
      </trkpt>
      <trkpt lat="45.94033" lon="4.80724">
        <ele>222.2</ele>
        <time>2018-04-18T08:45:05Z</time>
      </trkpt>
      <trkpt lat="45.94034" lon="4.80734">
        <ele>222.6</ele>
        <time>2018-04-18T08:45:08Z</time>
      </trkpt>
      <trkpt lat="45.94034" lon="4.80738">
        <ele>222.8</ele>
        <time>2018-04-18T08:45:09Z</time>
      </trkpt>
      <trkpt lat="45.94035" lon="4.80749">
        <ele>223.2</ele>
        <time>2018-04-18T08:45:12Z</time>
      </trkpt>
      <trkpt lat="45.94035" lon="4.80752">
        <ele>223.4</ele>
        <time>2018-04-18T08:45:13Z</time>
      </trkpt>
      <trkpt lat="45.94037" lon="4.80763">
        <ele>224</ele>
        <time>2018-04-18T08:45:16Z</time>
      </trkpt>
      <trkpt lat="45.94038" lon="4.80767">
        <ele>224.1</ele>
        <time>2018-04-18T08:45:17Z</time>
      </trkpt>
      <trkpt lat="45.94039" lon="4.80777">
        <ele>224.7</ele>
        <time>2018-04-18T08:45:20Z</time>
      </trkpt>
      <trkpt lat="45.9404" lon="4.8078">
        <ele>224.8</ele>
        <time>2018-04-18T08:45:21Z</time>
      </trkpt>
      <trkpt lat="45.94043" lon="4.8079">
        <ele>225.1</ele>
        <time>2018-04-18T08:45:24Z</time>
      </trkpt>
      <trkpt lat="45.94044" lon="4.80794">
        <ele>225.3</ele>
        <time>2018-04-18T08:45:25Z</time>
      </trkpt>
      <trkpt lat="45.94046" lon="4.80804">
        <ele>225.6</ele>
        <time>2018-04-18T08:45:28Z</time>
      </trkpt>
      <trkpt lat="45.94046" lon="4.80808">
        <ele>225.6</ele>
        <time>2018-04-18T08:45:29Z</time>
      </trkpt>
      <trkpt lat="45.94048" lon="4.80819">
        <ele>225.5</ele>
        <time>2018-04-18T08:45:32Z</time>
      </trkpt>
      <trkpt lat="45.94048" lon="4.80822">
        <ele>225.5</ele>
        <time>2018-04-18T08:45:33Z</time>
      </trkpt>
      <trkpt lat="45.94049" lon="4.80833">
        <ele>225.3</ele>
        <time>2018-04-18T08:45:36Z</time>
      </trkpt>
      <trkpt lat="45.94049" lon="4.80836">
        <ele>225.3</ele>
        <time>2018-04-18T08:45:37Z</time>
      </trkpt>
      <trkpt lat="45.9405" lon="4.80846">
        <ele>225.6</ele>
        <time>2018-04-18T08:45:40Z</time>
      </trkpt>
      <trkpt lat="45.94051" lon="4.80849">
        <ele>225.7</ele>
        <time>2018-04-18T08:45:41Z</time>
      </trkpt>
      <trkpt lat="45.94053" lon="4.80859">
        <ele>226.4</ele>
        <time>2018-04-18T08:45:44Z</time>
      </trkpt>
      <trkpt lat="45.94053" lon="4.80862">
        <ele>226.6</ele>
        <time>2018-04-18T08:45:45Z</time>
      </trkpt>
      <trkpt lat="45.94055" lon="4.80874">
        <ele>227.9</ele>
        <time>2018-04-18T08:45:49Z</time>
      </trkpt>
      <trkpt lat="45.94056" lon="4.80878">
        <ele>228.2</ele>
        <time>2018-04-18T08:45:50Z</time>
      </trkpt>
      <trkpt lat="45.94056" lon="4.80887">
        <ele>228.9</ele>
        <time>2018-04-18T08:45:53Z</time>
      </trkpt>
      <trkpt lat="45.94056" lon="4.80891">
        <ele>229.1</ele>
        <time>2018-04-18T08:45:54Z</time>
      </trkpt>
      <trkpt lat="45.94056" lon="4.80903">
        <ele>229.6</ele>
        <time>2018-04-18T08:45:58Z</time>
      </trkpt>
      <trkpt lat="45.94056" lon="4.80906">
        <ele>229.8</ele>
        <time>2018-04-18T08:45:59Z</time>
      </trkpt>
      <trkpt lat="45.94058" lon="4.80918">
        <ele>230.4</ele>
        <time>2018-04-18T08:46:03Z</time>
      </trkpt>
      <trkpt lat="45.94058" lon="4.80921">
        <ele>230.4</ele>
        <time>2018-04-18T08:46:04Z</time>
      </trkpt>
      <trkpt lat="45.94059" lon="4.8093">
        <ele>230.7</ele>
        <time>2018-04-18T08:46:07Z</time>
      </trkpt>
      <trkpt lat="45.9406" lon="4.80934">
        <ele>230.7</ele>
        <time>2018-04-18T08:46:08Z</time>
      </trkpt>
      <trkpt lat="45.94061" lon="4.80944">
        <ele>231</ele>
        <time>2018-04-18T08:46:11Z</time>
      </trkpt>
      <trkpt lat="45.94062" lon="4.80947">
        <ele>231.2</ele>
        <time>2018-04-18T08:46:12Z</time>
      </trkpt>
      <trkpt lat="45.94063" lon="4.80958">
        <ele>231.7</ele>
        <time>2018-04-18T08:46:15Z</time>
      </trkpt>
      <trkpt lat="45.94064" lon="4.80961">
        <ele>231.9</ele>
        <time>2018-04-18T08:46:16Z</time>
      </trkpt>
      <trkpt lat="45.94065" lon="4.80972">
        <ele>232.4</ele>
        <time>2018-04-18T08:46:19Z</time>
      </trkpt>
      <trkpt lat="45.94066" lon="4.80975">
        <ele>232.6</ele>
        <time>2018-04-18T08:46:20Z</time>
      </trkpt>
      <trkpt lat="45.94068" lon="4.80987">
        <ele>233.2</ele>
        <time>2018-04-18T08:46:23Z</time>
      </trkpt>
      <trkpt lat="45.94069" lon="4.8099">
        <ele>233.5</ele>
        <time>2018-04-18T08:46:24Z</time>
      </trkpt>
      <trkpt lat="45.9407" lon="4.81001">
        <ele>234.2</ele>
        <time>2018-04-18T08:46:27Z</time>
      </trkpt>
      <trkpt lat="45.94071" lon="4.81004">
        <ele>234.5</ele>
        <time>2018-04-18T08:46:28Z</time>
      </trkpt>
      <trkpt lat="45.94073" lon="4.81017">
        <ele>235.6</ele>
        <time>2018-04-18T08:46:32Z</time>
      </trkpt>
      <trkpt lat="45.94074" lon="4.8102">
        <ele>235.9</ele>
        <time>2018-04-18T08:46:33Z</time>
      </trkpt>
      <trkpt lat="45.94076" lon="4.81029">
        <ele>236.7</ele>
        <time>2018-04-18T08:46:36Z</time>
      </trkpt>
      <trkpt lat="45.94077" lon="4.81032">
        <ele>236.7</ele>
        <time>2018-04-18T08:46:37Z</time>
      </trkpt>
      <trkpt lat="45.9408" lon="4.81041">
        <ele>236.6</ele>
        <time>2018-04-18T08:46:40Z</time>
      </trkpt>
      <trkpt lat="45.94082" lon="4.81044">
        <ele>236.6</ele>
        <time>2018-04-18T08:46:41Z</time>
      </trkpt>
      <trkpt lat="45.94085" lon="4.81053">
        <ele>236.5</ele>
        <time>2018-04-18T08:46:44Z</time>
      </trkpt>
      <trkpt lat="45.94086" lon="4.81056">
        <ele>236.6</ele>
        <time>2018-04-18T08:46:45Z</time>
      </trkpt>
      <trkpt lat="45.94089" lon="4.81065">
        <ele>237.4</ele>
        <time>2018-04-18T08:46:48Z</time>
      </trkpt>
      <trkpt lat="45.9409" lon="4.81067">
        <ele>237.6</ele>
        <time>2018-04-18T08:46:49Z</time>
      </trkpt>
      <trkpt lat="45.94094" lon="4.81075">
        <ele>238.5</ele>
        <time>2018-04-18T08:46:52Z</time>
      </trkpt>
      <trkpt lat="45.94096" lon="4.81078">
        <ele>238.7</ele>
        <time>2018-04-18T08:46:53Z</time>
      </trkpt>
      <trkpt lat="45.94101" lon="4.81086">
        <ele>239.5</ele>
        <time>2018-04-18T08:46:56Z</time>
      </trkpt>
      <trkpt lat="45.94102" lon="4.81088">
        <ele>239.6</ele>
        <time>2018-04-18T08:46:57Z</time>
      </trkpt>
      <trkpt lat="45.94107" lon="4.81096">
        <ele>239.7</ele>
        <time>2018-04-18T08:47:00Z</time>
      </trkpt>
      <trkpt lat="45.94109" lon="4.81098">
        <ele>239.6</ele>
        <time>2018-04-18T08:47:01Z</time>
      </trkpt>
      <trkpt lat="45.94113" lon="4.81107">
        <ele>239.2</ele>
        <time>2018-04-18T08:47:04Z</time>
      </trkpt>
      <trkpt lat="45.94115" lon="4.8111">
        <ele>239.2</ele>
        <time>2018-04-18T08:47:05Z</time>
      </trkpt>
      <trkpt lat="45.9412" lon="4.81118">
        <ele>239.8</ele>
        <time>2018-04-18T08:47:08Z</time>
      </trkpt>
      <trkpt lat="45.94121" lon="4.81121">
        <ele>240</ele>
        <time>2018-04-18T08:47:09Z</time>
      </trkpt>
      <trkpt lat="45.94125" lon="4.81129">
        <ele>240.2</ele>
        <time>2018-04-18T08:47:12Z</time>
      </trkpt>
      <trkpt lat="45.94126" lon="4.81132">
        <ele>240.2</ele>
        <time>2018-04-18T08:47:13Z</time>
      </trkpt>
      <trkpt lat="45.9413" lon="4.8114">
        <ele>240.1</ele>
        <time>2018-04-18T08:47:16Z</time>
      </trkpt>
      <trkpt lat="45.94132" lon="4.81142">
        <ele>240.1</ele>
        <time>2018-04-18T08:47:17Z</time>
      </trkpt>
      <trkpt lat="45.94136" lon="4.81153">
        <ele>240.2</ele>
        <time>2018-04-18T08:47:21Z</time>
      </trkpt>
      <trkpt lat="45.94137" lon="4.81156">
        <ele>240.2</ele>
        <time>2018-04-18T08:47:22Z</time>
      </trkpt>
      <trkpt lat="45.94141" lon="4.81167">
        <ele>240.5</ele>
        <time>2018-04-18T08:47:26Z</time>
      </trkpt>
      <trkpt lat="45.94143" lon="4.8117">
        <ele>240.6</ele>
        <time>2018-04-18T08:47:27Z</time>
      </trkpt>
      <trkpt lat="45.94145" lon="4.81179">
        <ele>241.1</ele>
        <time>2018-04-18T08:47:30Z</time>
      </trkpt>
      <trkpt lat="45.94146" lon="4.81182">
        <ele>241.1</ele>
        <time>2018-04-18T08:47:31Z</time>
      </trkpt>
      <trkpt lat="45.94148" lon="4.81191">
        <ele>241.3</ele>
        <time>2018-04-18T08:47:34Z</time>
      </trkpt>
      <trkpt lat="45.94149" lon="4.81194">
        <ele>241.4</ele>
        <time>2018-04-18T08:47:35Z</time>
      </trkpt>
      <trkpt lat="45.94152" lon="4.81203">
        <ele>241.9</ele>
        <time>2018-04-18T08:47:38Z</time>
      </trkpt>
      <trkpt lat="45.94153" lon="4.81207">
        <ele>242</ele>
        <time>2018-04-18T08:47:39Z</time>
      </trkpt>
      <trkpt lat="45.94156" lon="4.81216">
        <ele>242.5</ele>
        <time>2018-04-18T08:47:42Z</time>
      </trkpt>
      <trkpt lat="45.94157" lon="4.81219">
        <ele>242.6</ele>
        <time>2018-04-18T08:47:43Z</time>
      </trkpt>
      <trkpt lat="45.94159" lon="4.81228">
        <ele>243.1</ele>
        <time>2018-04-18T08:47:46Z</time>
      </trkpt>
      <trkpt lat="45.9416" lon="4.81231">
        <ele>243.3</ele>
        <time>2018-04-18T08:47:47Z</time>
      </trkpt>
      <trkpt lat="45.94161" lon="4.81241">
        <ele>243.8</ele>
        <time>2018-04-18T08:47:50Z</time>
      </trkpt>
      <trkpt lat="45.94162" lon="4.81244">
        <ele>243.9</ele>
        <time>2018-04-18T08:47:51Z</time>
      </trkpt>
      <trkpt lat="45.94164" lon="4.81255">
        <ele>244.6</ele>
        <time>2018-04-18T08:47:55Z</time>
      </trkpt>
      <trkpt lat="45.94164" lon="4.81258">
        <ele>244.8</ele>
        <time>2018-04-18T08:47:56Z</time>
      </trkpt>
      <trkpt lat="45.94166" lon="4.81268">
        <ele>245.4</ele>
        <time>2018-04-18T08:47:59Z</time>
      </trkpt>
      <trkpt lat="45.94166" lon="4.81272">
        <ele>245.7</ele>
        <time>2018-04-18T08:48:00Z</time>
      </trkpt>
      <trkpt lat="45.94168" lon="4.81282">
        <ele>246.3</ele>
        <time>2018-04-18T08:48:03Z</time>
      </trkpt>
      <trkpt lat="45.94168" lon="4.81285">
        <ele>246.3</ele>
        <time>2018-04-18T08:48:04Z</time>
      </trkpt>
      <trkpt lat="45.94168" lon="4.81295">
        <ele>246.3</ele>
        <time>2018-04-18T08:48:07Z</time>
      </trkpt>
      <trkpt lat="45.94168" lon="4.81298">
        <ele>246.2</ele>
        <time>2018-04-18T08:48:08Z</time>
      </trkpt>
      <trkpt lat="45.94167" lon="4.8131">
        <ele>246.3</ele>
        <time>2018-04-18T08:48:12Z</time>
      </trkpt>
      <trkpt lat="45.94168" lon="4.81313">
        <ele>246.4</ele>
        <time>2018-04-18T08:48:13Z</time>
      </trkpt>
      <trkpt lat="45.94169" lon="4.81325">
        <ele>247.1</ele>
        <time>2018-04-18T08:48:17Z</time>
      </trkpt>
      <trkpt lat="45.94169" lon="4.81328">
        <ele>247.2</ele>
        <time>2018-04-18T08:48:18Z</time>
      </trkpt>
      <trkpt lat="45.94168" lon="4.81339">
        <ele>247.5</ele>
        <time>2018-04-18T08:48:22Z</time>
      </trkpt>
      <trkpt lat="45.94168" lon="4.81343">
        <ele>247.6</ele>
        <time>2018-04-18T08:48:23Z</time>
      </trkpt>
      <trkpt lat="45.94167" lon="4.81354">
        <ele>247.8</ele>
        <time>2018-04-18T08:48:27Z</time>
      </trkpt>
      <trkpt lat="45.94167" lon="4.81357">
        <ele>247.9</ele>
        <time>2018-04-18T08:48:28Z</time>
      </trkpt>
      <trkpt lat="45.94166" lon="4.81366">
        <ele>248.2</ele>
        <time>2018-04-18T08:48:31Z</time>
      </trkpt>
      <trkpt lat="45.94166" lon="4.81369">
        <ele>248.3</ele>
        <time>2018-04-18T08:48:32Z</time>
      </trkpt>
      <trkpt lat="45.94165" lon="4.81381">
        <ele>248.8</ele>
        <time>2018-04-18T08:48:36Z</time>
      </trkpt>
      <trkpt lat="45.94165" lon="4.81383">
        <ele>249</ele>
        <time>2018-04-18T08:48:37Z</time>
      </trkpt>
      <trkpt lat="45.94164" lon="4.81394">
        <ele>249.5</ele>
        <time>2018-04-18T08:48:41Z</time>
      </trkpt>
      <trkpt lat="45.94163" lon="4.81396">
        <ele>249.4</ele>
        <time>2018-04-18T08:48:42Z</time>
      </trkpt>
      <trkpt lat="45.9416" lon="4.81408">
        <ele>249.2</ele>
        <time>2018-04-18T08:48:46Z</time>
      </trkpt>
      <trkpt lat="45.94159" lon="4.81412">
        <ele>249.3</ele>
        <time>2018-04-18T08:48:47Z</time>
      </trkpt>
      <trkpt lat="45.94158" lon="4.81422">
        <ele>249.5</ele>
        <time>2018-04-18T08:48:50Z</time>
      </trkpt>
      <trkpt lat="45.94157" lon="4.81425">
        <ele>249.5</ele>
        <time>2018-04-18T08:48:51Z</time>
      </trkpt>
      <trkpt lat="45.94156" lon="4.81435">
        <ele>249.9</ele>
        <time>2018-04-18T08:48:54Z</time>
      </trkpt>
      <trkpt lat="45.94156" lon="4.81438">
        <ele>250</ele>
        <time>2018-04-18T08:48:55Z</time>
      </trkpt>
      <trkpt lat="45.94155" lon="4.81448">
        <ele>250.5</ele>
        <time>2018-04-18T08:48:58Z</time>
      </trkpt>
      <trkpt lat="45.94155" lon="4.81452">
        <ele>250.7</ele>
        <time>2018-04-18T08:48:59Z</time>
      </trkpt>
      <trkpt lat="45.94154" lon="4.81462">
        <ele>251.2</ele>
        <time>2018-04-18T08:49:03Z</time>
      </trkpt>
      <trkpt lat="45.94154" lon="4.81465">
        <ele>251.4</ele>
        <time>2018-04-18T08:49:04Z</time>
      </trkpt>
      <trkpt lat="45.94153" lon="4.81477">
        <ele>251.9</ele>
        <time>2018-04-18T08:49:08Z</time>
      </trkpt>
      <trkpt lat="45.94153" lon="4.8148">
        <ele>252.1</ele>
        <time>2018-04-18T08:49:09Z</time>
      </trkpt>
      <trkpt lat="45.94151" lon="4.8149">
        <ele>252.5</ele>
        <time>2018-04-18T08:49:13Z</time>
      </trkpt>
      <trkpt lat="45.94151" lon="4.81494">
        <ele>252.7</ele>
        <time>2018-04-18T08:49:14Z</time>
      </trkpt>
      <trkpt lat="45.94152" lon="4.81506">
        <ele>253.7</ele>
        <time>2018-04-18T08:49:17Z</time>
      </trkpt>
      <trkpt lat="45.94152" lon="4.8151">
        <ele>254.1</ele>
        <time>2018-04-18T08:49:18Z</time>
      </trkpt>
      <trkpt lat="45.94152" lon="4.81521">
        <ele>255.2</ele>
        <time>2018-04-18T08:49:21Z</time>
      </trkpt>
      <trkpt lat="45.94152" lon="4.81525">
        <ele>255.5</ele>
        <time>2018-04-18T08:49:22Z</time>
      </trkpt>
      <trkpt lat="45.94152" lon="4.81536">
        <ele>256</ele>
        <time>2018-04-18T08:49:25Z</time>
      </trkpt>
      <trkpt lat="45.94151" lon="4.81539">
        <ele>256.1</ele>
        <time>2018-04-18T08:49:26Z</time>
      </trkpt>
      <trkpt lat="45.94152" lon="4.81551">
        <ele>256.6</ele>
        <time>2018-04-18T08:49:30Z</time>
      </trkpt>
      <trkpt lat="45.94152" lon="4.81555">
        <ele>256.7</ele>
        <time>2018-04-18T08:49:31Z</time>
      </trkpt>
      <trkpt lat="45.94152" lon="4.81566">
        <ele>257</ele>
        <time>2018-04-18T08:49:34Z</time>
      </trkpt>
      <trkpt lat="45.94152" lon="4.81569">
        <ele>257.1</ele>
        <time>2018-04-18T08:49:35Z</time>
      </trkpt>
      <trkpt lat="45.94153" lon="4.8158">
        <ele>257.4</ele>
        <time>2018-04-18T08:49:38Z</time>
      </trkpt>
      <trkpt lat="45.94153" lon="4.81584">
        <ele>257.6</ele>
        <time>2018-04-18T08:49:39Z</time>
      </trkpt>
      <trkpt lat="45.94156" lon="4.81595">
        <ele>258</ele>
        <time>2018-04-18T08:49:42Z</time>
      </trkpt>
      <trkpt lat="45.94157" lon="4.81598">
        <ele>258.1</ele>
        <time>2018-04-18T08:49:43Z</time>
      </trkpt>
      <trkpt lat="45.9416" lon="4.81609">
        <ele>258.3</ele>
        <time>2018-04-18T08:49:46Z</time>
      </trkpt>
      <trkpt lat="45.94161" lon="4.81613">
        <ele>258.5</ele>
        <time>2018-04-18T08:49:47Z</time>
      </trkpt>
      <trkpt lat="45.94165" lon="4.81625">
        <ele>258.9</ele>
        <time>2018-04-18T08:49:50Z</time>
      </trkpt>
      <trkpt lat="45.94165" lon="4.81629">
        <ele>259</ele>
        <time>2018-04-18T08:49:51Z</time>
      </trkpt>
      <trkpt lat="45.94167" lon="4.81641">
        <ele>259</ele>
        <time>2018-04-18T08:49:54Z</time>
      </trkpt>
      <trkpt lat="45.94167" lon="4.81645">
        <ele>259.1</ele>
        <time>2018-04-18T08:49:55Z</time>
      </trkpt>
      <trkpt lat="45.94169" lon="4.81656">
        <ele>259.3</ele>
        <time>2018-04-18T08:49:58Z</time>
      </trkpt>
      <trkpt lat="45.94169" lon="4.8166">
        <ele>259.4</ele>
        <time>2018-04-18T08:49:59Z</time>
      </trkpt>
      <trkpt lat="45.94171" lon="4.81671">
        <ele>259.7</ele>
        <time>2018-04-18T08:50:02Z</time>
      </trkpt>
      <trkpt lat="45.94172" lon="4.81675">
        <ele>259.9</ele>
        <time>2018-04-18T08:50:03Z</time>
      </trkpt>
      <trkpt lat="45.94173" lon="4.81683">
        <ele>260.3</ele>
        <time>2018-04-18T08:50:05Z</time>
      </trkpt>
      <trkpt lat="45.94175" lon="4.81687">
        <ele>260.5</ele>
        <time>2018-04-18T08:50:06Z</time>
      </trkpt>
      <trkpt lat="45.94177" lon="4.81695">
        <ele>260.8</ele>
        <time>2018-04-18T08:50:08Z</time>
      </trkpt>
      <trkpt lat="45.94178" lon="4.81699">
        <ele>261</ele>
        <time>2018-04-18T08:50:09Z</time>
      </trkpt>
      <trkpt lat="45.94181" lon="4.81707">
        <ele>261.2</ele>
        <time>2018-04-18T08:50:11Z</time>
      </trkpt>
      <trkpt lat="45.94182" lon="4.81721">
        <ele>261.4</ele>
        <time>2018-04-18T08:50:12Z</time>
      </trkpt>
      <trkpt lat="45.9418" lon="4.81733">
        <ele>261.5</ele>
        <time>2018-04-18T08:50:15Z</time>
      </trkpt>
      <trkpt lat="45.9418" lon="4.81736">
        <ele>261.5</ele>
        <time>2018-04-18T08:50:16Z</time>
      </trkpt>
      <trkpt lat="45.9418" lon="4.81746">
        <ele>261.5</ele>
        <time>2018-04-18T08:50:17Z</time>
      </trkpt>
      <trkpt lat="45.94182" lon="4.81751">
        <ele>261.5</ele>
        <time>2018-04-18T08:50:18Z</time>
      </trkpt>
      <trkpt lat="45.94187" lon="4.81759">
        <ele>261.3</ele>
        <time>2018-04-18T08:50:20Z</time>
      </trkpt>
      <trkpt lat="45.94189" lon="4.81761">
        <ele>261.2</ele>
        <time>2018-04-18T08:50:21Z</time>
      </trkpt>
      <trkpt lat="45.94192" lon="4.81767">
        <ele>261.1</ele>
        <time>2018-04-18T08:50:22Z</time>
      </trkpt>
      <trkpt lat="45.94194" lon="4.81772">
        <ele>261</ele>
        <time>2018-04-18T08:50:23Z</time>
      </trkpt>
      <trkpt lat="45.94195" lon="4.8178">
        <ele>261</ele>
        <time>2018-04-18T08:50:25Z</time>
      </trkpt>
      <trkpt lat="45.94195" lon="4.81788">
        <ele>261</ele>
        <time>2018-04-18T08:50:26Z</time>
      </trkpt>
      <trkpt lat="45.94195" lon="4.81797">
        <ele>261</ele>
        <time>2018-04-18T08:50:29Z</time>
      </trkpt>
      <trkpt lat="45.94195" lon="4.81801">
        <ele>261</ele>
        <time>2018-04-18T08:50:30Z</time>
      </trkpt>
      <trkpt lat="45.94196" lon="4.81811">
        <ele>261.2</ele>
        <time>2018-04-18T08:50:33Z</time>
      </trkpt>
      <trkpt lat="45.94196" lon="4.81815">
        <ele>261.4</ele>
        <time>2018-04-18T08:50:34Z</time>
      </trkpt>
      <trkpt lat="45.94197" lon="4.81827">
        <ele>261.8</ele>
        <time>2018-04-18T08:50:37Z</time>
      </trkpt>
      <trkpt lat="45.94198" lon="4.81832">
        <ele>262</ele>
        <time>2018-04-18T08:50:38Z</time>
      </trkpt>
      <trkpt lat="45.94201" lon="4.81841">
        <ele>262</ele>
        <time>2018-04-18T08:50:40Z</time>
      </trkpt>
      <trkpt lat="45.94202" lon="4.81846">
        <ele>262</ele>
        <time>2018-04-18T08:50:41Z</time>
      </trkpt>
      <trkpt lat="45.94205" lon="4.81855">
        <ele>262</ele>
        <time>2018-04-18T08:50:43Z</time>
      </trkpt>
      <trkpt lat="45.94206" lon="4.8186">
        <ele>262</ele>
        <time>2018-04-18T08:50:44Z</time>
      </trkpt>
      <trkpt lat="45.94207" lon="4.81865">
        <ele>261.9</ele>
        <time>2018-04-18T08:50:45Z</time>
      </trkpt>
      <trkpt lat="45.94211" lon="4.81879">
        <ele>261.6</ele>
        <time>2018-04-18T08:50:46Z</time>
      </trkpt>
      <trkpt lat="45.94213" lon="4.81885">
        <ele>261.4</ele>
        <time>2018-04-18T08:50:48Z</time>
      </trkpt>
      <trkpt lat="45.94214" lon="4.81895">
        <ele>261.4</ele>
        <time>2018-04-18T08:50:49Z</time>
      </trkpt>
      <trkpt lat="45.94216" lon="4.81906">
        <ele>261.7</ele>
        <time>2018-04-18T08:50:51Z</time>
      </trkpt>
      <trkpt lat="45.94216" lon="4.81911">
        <ele>261.8</ele>
        <time>2018-04-18T08:50:52Z</time>
      </trkpt>
      <trkpt lat="45.94218" lon="4.81922">
        <ele>261.8</ele>
        <time>2018-04-18T08:50:54Z</time>
      </trkpt>
      <trkpt lat="45.94219" lon="4.81927">
        <ele>261.7</ele>
        <time>2018-04-18T08:50:55Z</time>
      </trkpt>
      <trkpt lat="45.94222" lon="4.81938">
        <ele>261.2</ele>
        <time>2018-04-18T08:50:57Z</time>
      </trkpt>
      <trkpt lat="45.94223" lon="4.81944">
        <ele>261</ele>
        <time>2018-04-18T08:50:58Z</time>
      </trkpt>
      <trkpt lat="45.94225" lon="4.81955">
        <ele>261.4</ele>
        <time>2018-04-18T08:51:00Z</time>
      </trkpt>
      <trkpt lat="45.94226" lon="4.81961">
        <ele>261.5</ele>
        <time>2018-04-18T08:51:01Z</time>
      </trkpt>
      <trkpt lat="45.94228" lon="4.81972">
        <ele>261.8</ele>
        <time>2018-04-18T08:51:03Z</time>
      </trkpt>
      <trkpt lat="45.9423" lon="4.81978">
        <ele>261.7</ele>
        <time>2018-04-18T08:51:04Z</time>
      </trkpt>
      <trkpt lat="45.94233" lon="4.8199">
        <ele>261.6</ele>
        <time>2018-04-18T08:51:06Z</time>
      </trkpt>
      <trkpt lat="45.94234" lon="4.81995">
        <ele>261.6</ele>
        <time>2018-04-18T08:51:07Z</time>
      </trkpt>
      <trkpt lat="45.94236" lon="4.82007">
        <ele>261.5</ele>
        <time>2018-04-18T08:51:09Z</time>
      </trkpt>
      <trkpt lat="45.94237" lon="4.82013">
        <ele>261.5</ele>
        <time>2018-04-18T08:51:10Z</time>
      </trkpt>
      <trkpt lat="45.94238" lon="4.82019">
        <ele>261.4</ele>
        <time>2018-04-18T08:51:11Z</time>
      </trkpt>
      <trkpt lat="45.94239" lon="4.82025">
        <ele>261.4</ele>
        <time>2018-04-18T08:51:12Z</time>
      </trkpt>
      <trkpt lat="45.94241" lon="4.82036">
        <ele>261.3</ele>
        <time>2018-04-18T08:51:14Z</time>
      </trkpt>
      <trkpt lat="45.94242" lon="4.82042">
        <ele>261.3</ele>
        <time>2018-04-18T08:51:15Z</time>
      </trkpt>
      <trkpt lat="45.94244" lon="4.82054">
        <ele>261.2</ele>
        <time>2018-04-18T08:51:17Z</time>
      </trkpt>
      <trkpt lat="45.94245" lon="4.82061">
        <ele>261.2</ele>
        <time>2018-04-18T08:51:18Z</time>
      </trkpt>
      <trkpt lat="45.94247" lon="4.82071">
        <ele>261.1</ele>
        <time>2018-04-18T08:51:20Z</time>
      </trkpt>
      <trkpt lat="45.94249" lon="4.82077">
        <ele>261.1</ele>
        <time>2018-04-18T08:51:21Z</time>
      </trkpt>
      <trkpt lat="45.9425" lon="4.82088">
        <ele>261.2</ele>
        <time>2018-04-18T08:51:23Z</time>
      </trkpt>
      <trkpt lat="45.9425" lon="4.82094">
        <ele>261.4</ele>
        <time>2018-04-18T08:51:24Z</time>
      </trkpt>
      <trkpt lat="45.94249" lon="4.82106">
        <ele>261.8</ele>
        <time>2018-04-18T08:51:27Z</time>
      </trkpt>
      <trkpt lat="45.94248" lon="4.82114">
        <ele>262</ele>
        <time>2018-04-18T08:51:28Z</time>
      </trkpt>
      <trkpt lat="45.94247" lon="4.82119">
        <ele>262</ele>
        <time>2018-04-18T08:51:29Z</time>
      </trkpt>
      <trkpt lat="45.94254" lon="4.82127">
        <ele>261.9</ele>
        <time>2018-04-18T08:51:30Z</time>
      </trkpt>
      <trkpt lat="45.94256" lon="4.82133">
        <ele>261.8</ele>
        <time>2018-04-18T08:51:31Z</time>
      </trkpt>
      <trkpt lat="45.94257" lon="4.8214">
        <ele>261.7</ele>
        <time>2018-04-18T08:51:32Z</time>
      </trkpt>
      <trkpt lat="45.94262" lon="4.82147">
        <ele>261.6</ele>
        <time>2018-04-18T08:51:33Z</time>
      </trkpt>
      <trkpt lat="45.94263" lon="4.82153">
        <ele>261.5</ele>
        <time>2018-04-18T08:51:34Z</time>
      </trkpt>
      <trkpt lat="45.94265" lon="4.82159">
        <ele>261.5</ele>
        <time>2018-04-18T08:51:35Z</time>
      </trkpt>
      <trkpt lat="45.94267" lon="4.82165">
        <ele>261.4</ele>
        <time>2018-04-18T08:51:36Z</time>
      </trkpt>
      <trkpt lat="45.9427" lon="4.82176">
        <ele>261.3</ele>
        <time>2018-04-18T08:51:38Z</time>
      </trkpt>
      <trkpt lat="45.94271" lon="4.82179">
        <ele>261.3</ele>
        <time>2018-04-18T08:51:39Z</time>
      </trkpt>
      <trkpt lat="45.94273" lon="4.8219">
        <ele>261.2</ele>
        <time>2018-04-18T08:51:41Z</time>
      </trkpt>
      <trkpt lat="45.94274" lon="4.82197">
        <ele>261.2</ele>
        <time>2018-04-18T08:51:42Z</time>
      </trkpt>
      <trkpt lat="45.94276" lon="4.82209">
        <ele>261.5</ele>
        <time>2018-04-18T08:51:44Z</time>
      </trkpt>
      <trkpt lat="45.94277" lon="4.82215">
        <ele>261.7</ele>
        <time>2018-04-18T08:51:45Z</time>
      </trkpt>
      <trkpt lat="45.94278" lon="4.82227">
        <ele>262</ele>
        <time>2018-04-18T08:51:47Z</time>
      </trkpt>
      <trkpt lat="45.94278" lon="4.82233">
        <ele>262</ele>
        <time>2018-04-18T08:51:48Z</time>
      </trkpt>
      <trkpt lat="45.94279" lon="4.82246">
        <ele>262</ele>
        <time>2018-04-18T08:51:50Z</time>
      </trkpt>
      <trkpt lat="45.9428" lon="4.82252">
        <ele>262</ele>
        <time>2018-04-18T08:51:51Z</time>
      </trkpt>
      <trkpt lat="45.9428" lon="4.82264">
        <ele>262</ele>
        <time>2018-04-18T08:51:53Z</time>
      </trkpt>
      <trkpt lat="45.94281" lon="4.82271">
        <ele>262</ele>
        <time>2018-04-18T08:51:54Z</time>
      </trkpt>
      <trkpt lat="45.94281" lon="4.82277">
        <ele>262</ele>
        <time>2018-04-18T08:51:55Z</time>
      </trkpt>
      <trkpt lat="45.94282" lon="4.82284">
        <ele>262</ele>
        <time>2018-04-18T08:51:56Z</time>
      </trkpt>
      <trkpt lat="45.94283" lon="4.82295">
        <ele>262.1</ele>
        <time>2018-04-18T08:51:58Z</time>
      </trkpt>
      <trkpt lat="45.94283" lon="4.82298">
        <ele>262.1</ele>
        <time>2018-04-18T08:51:59Z</time>
      </trkpt>
      <trkpt lat="45.94284" lon="4.82306">
        <ele>262.2</ele>
        <time>2018-04-18T08:52:00Z</time>
      </trkpt>
      <trkpt lat="45.94285" lon="4.82311">
        <ele>262.4</ele>
        <time>2018-04-18T08:52:01Z</time>
      </trkpt>
      <trkpt lat="45.94286" lon="4.82322">
        <ele>262.7</ele>
        <time>2018-04-18T08:52:03Z</time>
      </trkpt>
      <trkpt lat="45.94286" lon="4.82325">
        <ele>262.8</ele>
        <time>2018-04-18T08:52:04Z</time>
      </trkpt>
      <trkpt lat="45.94286" lon="4.82333">
        <ele>263</ele>
        <time>2018-04-18T08:52:05Z</time>
      </trkpt>
      <trkpt lat="45.94287" lon="4.82339">
        <ele>263</ele>
        <time>2018-04-18T08:52:06Z</time>
      </trkpt>
      <trkpt lat="45.94287" lon="4.8235">
        <ele>263</ele>
        <time>2018-04-18T08:52:08Z</time>
      </trkpt>
      <trkpt lat="45.94287" lon="4.82355">
        <ele>263</ele>
        <time>2018-04-18T08:52:09Z</time>
      </trkpt>
      <trkpt lat="45.94287" lon="4.82366">
        <ele>263.2</ele>
        <time>2018-04-18T08:52:11Z</time>
      </trkpt>
      <trkpt lat="45.94287" lon="4.82372">
        <ele>263.4</ele>
        <time>2018-04-18T08:52:12Z</time>
      </trkpt>
      <trkpt lat="45.94288" lon="4.82383">
        <ele>263.8</ele>
        <time>2018-04-18T08:52:14Z</time>
      </trkpt>
      <trkpt lat="45.94289" lon="4.82388">
        <ele>264</ele>
        <time>2018-04-18T08:52:15Z</time>
      </trkpt>
      <trkpt lat="45.94291" lon="4.82399">
        <ele>264</ele>
        <time>2018-04-18T08:52:17Z</time>
      </trkpt>
      <trkpt lat="45.94292" lon="4.82404">
        <ele>264</ele>
        <time>2018-04-18T08:52:18Z</time>
      </trkpt>
      <trkpt lat="45.94293" lon="4.82415">
        <ele>264</ele>
        <time>2018-04-18T08:52:20Z</time>
      </trkpt>
      <trkpt lat="45.94293" lon="4.82421">
        <ele>264.1</ele>
        <time>2018-04-18T08:52:21Z</time>
      </trkpt>
      <trkpt lat="45.94295" lon="4.82432">
        <ele>264.3</ele>
        <time>2018-04-18T08:52:23Z</time>
      </trkpt>
      <trkpt lat="45.94295" lon="4.82437">
        <ele>264.5</ele>
        <time>2018-04-18T08:52:24Z</time>
      </trkpt>
      <trkpt lat="45.94295" lon="4.82449">
        <ele>264.7</ele>
        <time>2018-04-18T08:52:26Z</time>
      </trkpt>
      <trkpt lat="45.94295" lon="4.82455">
        <ele>264.8</ele>
        <time>2018-04-18T08:52:27Z</time>
      </trkpt>
      <trkpt lat="45.94295" lon="4.82467">
        <ele>264.9</ele>
        <time>2018-04-18T08:52:29Z</time>
      </trkpt>
      <trkpt lat="45.94295" lon="4.82473">
        <ele>265</ele>
        <time>2018-04-18T08:52:30Z</time>
      </trkpt>
      <trkpt lat="45.94294" lon="4.8248">
        <ele>265</ele>
        <time>2018-04-18T08:52:31Z</time>
      </trkpt>
      <trkpt lat="45.94294" lon="4.82486">
        <ele>265</ele>
        <time>2018-04-18T08:52:32Z</time>
      </trkpt>
      <trkpt lat="45.94294" lon="4.82498">
        <ele>265</ele>
        <time>2018-04-18T08:52:34Z</time>
      </trkpt>
      <trkpt lat="45.94294" lon="4.82503">
        <ele>265</ele>
        <time>2018-04-18T08:52:35Z</time>
      </trkpt>
      <trkpt lat="45.94295" lon="4.82514">
        <ele>265</ele>
        <time>2018-04-18T08:52:37Z</time>
      </trkpt>
      <trkpt lat="45.94294" lon="4.82519">
        <ele>265</ele>
        <time>2018-04-18T08:52:38Z</time>
      </trkpt>
      <trkpt lat="45.94295" lon="4.82531">
        <ele>265</ele>
        <time>2018-04-18T08:52:40Z</time>
      </trkpt>
      <trkpt lat="45.94294" lon="4.82536">
        <ele>265</ele>
        <time>2018-04-18T08:52:41Z</time>
      </trkpt>
      <trkpt lat="45.94294" lon="4.82547">
        <ele>265</ele>
        <time>2018-04-18T08:52:43Z</time>
      </trkpt>
      <trkpt lat="45.94294" lon="4.82553">
        <ele>265</ele>
        <time>2018-04-18T08:52:44Z</time>
      </trkpt>
      <trkpt lat="45.94294" lon="4.82564">
        <ele>265.1</ele>
        <time>2018-04-18T08:52:46Z</time>
      </trkpt>
      <trkpt lat="45.94293" lon="4.8257">
        <ele>265.2</ele>
        <time>2018-04-18T08:52:47Z</time>
      </trkpt>
      <trkpt lat="45.94293" lon="4.82581">
        <ele>265.4</ele>
        <time>2018-04-18T08:52:49Z</time>
      </trkpt>
      <trkpt lat="45.94293" lon="4.82587">
        <ele>265.5</ele>
        <time>2018-04-18T08:52:50Z</time>
      </trkpt>
      <trkpt lat="45.94293" lon="4.82597">
        <ele>265.7</ele>
        <time>2018-04-18T08:52:52Z</time>
      </trkpt>
      <trkpt lat="45.94293" lon="4.82602">
        <ele>265.8</ele>
        <time>2018-04-18T08:52:53Z</time>
      </trkpt>
      <trkpt lat="45.94294" lon="4.82614">
        <ele>265.9</ele>
        <time>2018-04-18T08:52:55Z</time>
      </trkpt>
      <trkpt lat="45.94294" lon="4.8262">
        <ele>265.8</ele>
        <time>2018-04-18T08:52:56Z</time>
      </trkpt>
      <trkpt lat="45.94294" lon="4.82632">
        <ele>265.6</ele>
        <time>2018-04-18T08:52:58Z</time>
      </trkpt>
      <trkpt lat="45.94295" lon="4.82639">
        <ele>265.4</ele>
        <time>2018-04-18T08:52:59Z</time>
      </trkpt>
      <trkpt lat="45.94294" lon="4.82646">
        <ele>265.6</ele>
        <time>2018-04-18T08:53:00Z</time>
      </trkpt>
      <trkpt lat="45.94294" lon="4.82653">
        <ele>265.7</ele>
        <time>2018-04-18T08:53:01Z</time>
      </trkpt>
      <trkpt lat="45.94293" lon="4.8266">
        <ele>265.9</ele>
        <time>2018-04-18T08:53:02Z</time>
      </trkpt>
      <trkpt lat="45.94293" lon="4.82666">
        <ele>266</ele>
        <time>2018-04-18T08:53:03Z</time>
      </trkpt>
      <trkpt lat="45.94292" lon="4.82672">
        <ele>265.9</ele>
        <time>2018-04-18T08:53:04Z</time>
      </trkpt>
      <trkpt lat="45.94292" lon="4.82679">
        <ele>265.8</ele>
        <time>2018-04-18T08:53:05Z</time>
      </trkpt>
      <trkpt lat="45.94292" lon="4.82685">
        <ele>265.7</ele>
        <time>2018-04-18T08:53:06Z</time>
      </trkpt>
      <trkpt lat="45.94292" lon="4.82692">
        <ele>265.6</ele>
        <time>2018-04-18T08:53:07Z</time>
      </trkpt>
      <trkpt lat="45.94292" lon="4.82699">
        <ele>265.5</ele>
        <time>2018-04-18T08:53:08Z</time>
      </trkpt>
      <trkpt lat="45.94292" lon="4.82706">
        <ele>265.5</ele>
        <time>2018-04-18T08:53:09Z</time>
      </trkpt>
      <trkpt lat="45.94292" lon="4.82712">
        <ele>265.5</ele>
        <time>2018-04-18T08:53:10Z</time>
      </trkpt>
      <trkpt lat="45.94292" lon="4.82719">
        <ele>265.5</ele>
        <time>2018-04-18T08:53:11Z</time>
      </trkpt>
      <trkpt lat="45.94291" lon="4.82726">
        <ele>265.6</ele>
        <time>2018-04-18T08:53:12Z</time>
      </trkpt>
      <trkpt lat="45.94291" lon="4.82733">
        <ele>265.7</ele>
        <time>2018-04-18T08:53:13Z</time>
      </trkpt>
      <trkpt lat="45.94291" lon="4.82745">
        <ele>265.9</ele>
        <time>2018-04-18T08:53:15Z</time>
      </trkpt>
      <trkpt lat="45.94293" lon="4.8275">
        <ele>266</ele>
        <time>2018-04-18T08:53:16Z</time>
      </trkpt>
      <trkpt lat="45.94292" lon="4.82762">
        <ele>266</ele>
        <time>2018-04-18T08:53:18Z</time>
      </trkpt>
      <trkpt lat="45.94292" lon="4.82769">
        <ele>266</ele>
        <time>2018-04-18T08:53:19Z</time>
      </trkpt>
      <trkpt lat="45.94293" lon="4.82781">
        <ele>266</ele>
        <time>2018-04-18T08:53:21Z</time>
      </trkpt>
      <trkpt lat="45.94292" lon="4.82787">
        <ele>266</ele>
        <time>2018-04-18T08:53:22Z</time>
      </trkpt>
      <trkpt lat="45.94292" lon="4.82799">
        <ele>266</ele>
        <time>2018-04-18T08:53:24Z</time>
      </trkpt>
      <trkpt lat="45.94291" lon="4.82804">
        <ele>266</ele>
        <time>2018-04-18T08:53:25Z</time>
      </trkpt>
      <trkpt lat="45.94292" lon="4.82811">
        <ele>266</ele>
        <time>2018-04-18T08:53:26Z</time>
      </trkpt>
      <trkpt lat="45.94292" lon="4.82818">
        <ele>266</ele>
        <time>2018-04-18T08:53:27Z</time>
      </trkpt>
      <trkpt lat="45.94291" lon="4.82824">
        <ele>266</ele>
        <time>2018-04-18T08:53:28Z</time>
      </trkpt>
      <trkpt lat="45.94291" lon="4.82832">
        <ele>266</ele>
        <time>2018-04-18T08:53:29Z</time>
      </trkpt>
      <trkpt lat="45.94291" lon="4.82838">
        <ele>266</ele>
        <time>2018-04-18T08:53:30Z</time>
      </trkpt>
      <trkpt lat="45.94291" lon="4.82845">
        <ele>266</ele>
        <time>2018-04-18T08:53:31Z</time>
      </trkpt>
      <trkpt lat="45.9429" lon="4.82852">
        <ele>266</ele>
        <time>2018-04-18T08:53:32Z</time>
      </trkpt>
      <trkpt lat="45.9429" lon="4.82859">
        <ele>266</ele>
        <time>2018-04-18T08:53:33Z</time>
      </trkpt>
      <trkpt lat="45.9429" lon="4.82866">
        <ele>266.1</ele>
        <time>2018-04-18T08:53:34Z</time>
      </trkpt>
      <trkpt lat="45.94289" lon="4.82872">
        <ele>266.2</ele>
        <time>2018-04-18T08:53:35Z</time>
      </trkpt>
      <trkpt lat="45.94289" lon="4.82879">
        <ele>266.3</ele>
        <time>2018-04-18T08:53:36Z</time>
      </trkpt>
      <trkpt lat="45.94289" lon="4.82886">
        <ele>266.4</ele>
        <time>2018-04-18T08:53:37Z</time>
      </trkpt>
      <trkpt lat="45.94289" lon="4.82898">
        <ele>266.4</ele>
        <time>2018-04-18T08:53:39Z</time>
      </trkpt>
      <trkpt lat="45.9429" lon="4.82904">
        <ele>266.4</ele>
        <time>2018-04-18T08:53:40Z</time>
      </trkpt>
      <trkpt lat="45.94289" lon="4.8291">
        <ele>266.4</ele>
        <time>2018-04-18T08:53:41Z</time>
      </trkpt>
      <trkpt lat="45.94289" lon="4.82917">
        <ele>266.4</ele>
        <time>2018-04-18T08:53:42Z</time>
      </trkpt>
      <trkpt lat="45.94287" lon="4.8293">
        <ele>266.3</ele>
        <time>2018-04-18T08:53:44Z</time>
      </trkpt>
      <trkpt lat="45.94286" lon="4.82935">
        <ele>266.3</ele>
        <time>2018-04-18T08:53:45Z</time>
      </trkpt>
      <trkpt lat="45.94285" lon="4.82942">
        <ele>266.3</ele>
        <time>2018-04-18T08:53:46Z</time>
      </trkpt>
      <trkpt lat="45.94285" lon="4.82949">
        <ele>266.3</ele>
        <time>2018-04-18T08:53:47Z</time>
      </trkpt>
      <trkpt lat="45.94285" lon="4.82955">
        <ele>266.3</ele>
        <time>2018-04-18T08:53:48Z</time>
      </trkpt>
      <trkpt lat="45.94286" lon="4.82962">
        <ele>266.3</ele>
        <time>2018-04-18T08:53:49Z</time>
      </trkpt>
      <trkpt lat="45.94288" lon="4.82969">
        <ele>266.4</ele>
        <time>2018-04-18T08:53:50Z</time>
      </trkpt>
      <trkpt lat="45.94291" lon="4.82975">
        <ele>266.5</ele>
        <time>2018-04-18T08:53:51Z</time>
      </trkpt>
      <trkpt lat="45.94292" lon="4.82981">
        <ele>266.5</ele>
        <time>2018-04-18T08:53:52Z</time>
      </trkpt>
      <trkpt lat="45.94294" lon="4.82988">
        <ele>266.6</ele>
        <time>2018-04-18T08:53:53Z</time>
      </trkpt>
      <trkpt lat="45.94296" lon="4.82994">
        <ele>266.6</ele>
        <time>2018-04-18T08:53:54Z</time>
      </trkpt>
      <trkpt lat="45.94297" lon="4.83">
        <ele>266.7</ele>
        <time>2018-04-18T08:53:55Z</time>
      </trkpt>
      <trkpt lat="45.94299" lon="4.83013">
        <ele>266.9</ele>
        <time>2018-04-18T08:53:57Z</time>
      </trkpt>
      <trkpt lat="45.943" lon="4.83018">
        <ele>266.9</ele>
        <time>2018-04-18T08:53:58Z</time>
      </trkpt>
      <trkpt lat="45.94302" lon="4.8303">
        <ele>267</ele>
        <time>2018-04-18T08:54:00Z</time>
      </trkpt>
      <trkpt lat="45.94306" lon="4.83035">
        <ele>267</ele>
        <time>2018-04-18T08:54:01Z</time>
      </trkpt>
      <trkpt lat="45.94306" lon="4.83042">
        <ele>267</ele>
        <time>2018-04-18T08:54:02Z</time>
      </trkpt>
      <trkpt lat="45.94309" lon="4.83049">
        <ele>267</ele>
        <time>2018-04-18T08:54:03Z</time>
      </trkpt>
      <trkpt lat="45.9431" lon="4.83055">
        <ele>267</ele>
        <time>2018-04-18T08:54:04Z</time>
      </trkpt>
      <trkpt lat="45.94311" lon="4.83063">
        <ele>266.8</ele>
        <time>2018-04-18T08:54:05Z</time>
      </trkpt>
      <trkpt lat="45.94312" lon="4.83069">
        <ele>266.6</ele>
        <time>2018-04-18T08:54:06Z</time>
      </trkpt>
      <trkpt lat="45.94314" lon="4.83077">
        <ele>266.5</ele>
        <time>2018-04-18T08:54:07Z</time>
      </trkpt>
      <trkpt lat="45.94525" lon="4.83578">
        <ele>262.1</ele>
      </trkpt>
      <trkpt lat="45.94733" lon="4.8376">
        <ele>263.5</ele>
      </trkpt>
      <trkpt lat="45.94856" lon="4.83993">
        <ele>266.2</ele>
      </trkpt>
      <trkpt lat="45.94981" lon="4.8423">
        <ele>268.3</ele>
      </trkpt>
      <trkpt lat="45.95141" lon="4.84466">
        <ele>266.2</ele>
      </trkpt>
      <trkpt lat="45.95545" lon="4.84837">
        <ele>268.1</ele>
      </trkpt>
      <trkpt lat="45.95943" lon="4.85328">
        <ele>266.1</ele>
      </trkpt>
      <trkpt lat="45.96454" lon="4.85475">
        <ele>270.3</ele>
      </trkpt>
      <trkpt lat="45.96913" lon="4.85315">
        <ele>286.1</ele>
      </trkpt>
      <trkpt lat="45.97229" lon="4.85241">
        <ele>278.5</ele>
      </trkpt>
      <trkpt lat="45.98438" lon="4.85178">
        <ele>273.7</ele>
        <time>2018-04-18T09:15:28.113Z</time>
      </trkpt>
      <trkpt lat="45.98443" lon="4.85175">
        <ele>273.7</ele>
        <time>2018-04-18T09:15:41Z</time>
      </trkpt>
      <trkpt lat="45.98443" lon="4.85174">
        <ele>273.7</ele>
        <time>2018-04-18T09:15:42Z</time>
      </trkpt>
      <trkpt lat="45.98443" lon="4.85173">
        <ele>273.8</ele>
        <time>2018-04-18T09:15:48.919Z</time>
      </trkpt>
      <trkpt lat="45.99561" lon="4.84633">
        <ele>248.8</ele>
      </trkpt>
      <trkpt lat="45.99875" lon="4.84629">
        <ele>254.8</ele>
      </trkpt>
      <trkpt lat="46.00213" lon="4.84677">
        <ele>258.4</ele>
      </trkpt>
      <trkpt lat="46.0017" lon="4.8485">
        <ele>262</ele>
        <time>2018-04-18T09:36:16.51Z</time>
      </trkpt>
      <trkpt lat="46.00168" lon="4.84857">
        <ele>262</ele>
        <time>2018-04-18T09:36:22.062Z</time>
      </trkpt>
      <trkpt lat="46.00168" lon="4.84857">
        <ele>262</ele>
        <time>2018-04-18T09:36:23.063Z</time>
      </trkpt>
      <trkpt lat="46.00164" lon="4.84856">
        <ele>262</ele>
        <time>2018-04-18T09:37:28Z</time>
      </trkpt>
      <trkpt lat="46.00164" lon="4.84856">
        <ele>262</ele>
        <time>2018-04-18T09:37:29Z</time>
      </trkpt>
      <trkpt lat="46.00164" lon="4.84856">
        <ele>262</ele>
        <time>2018-04-18T09:37:39Z</time>
      </trkpt>
      <trkpt lat="46.00164" lon="4.84856">
        <ele>262</ele>
        <time>2018-04-18T09:37:40Z</time>
      </trkpt>
      <trkpt lat="46.00164" lon="4.84856">
        <ele>262</ele>
        <time>2018-04-18T09:38:34Z</time>
      </trkpt>
      <trkpt lat="46.00164" lon="4.84857">
        <ele>262</ele>
        <time>2018-04-18T09:38:35Z</time>
      </trkpt>
      <trkpt lat="46.00164" lon="4.84859">
        <ele>262</ele>
        <time>2018-04-18T09:38:59Z</time>
      </trkpt>
      <trkpt lat="46.00164" lon="4.84859">
        <ele>262</ele>
        <time>2018-04-18T09:39:00Z</time>
      </trkpt>
      <trkpt lat="46.00164" lon="4.8486">
        <ele>262</ele>
        <time>2018-04-18T09:39:07Z</time>
      </trkpt>
      <trkpt lat="46.00165" lon="4.8486">
        <ele>262</ele>
        <time>2018-04-18T09:39:08Z</time>
      </trkpt>
      <trkpt lat="46.00171" lon="4.84854">
        <ele>262</ele>
        <time>2018-04-18T09:39:14Z</time>
      </trkpt>
      <trkpt lat="46.00171" lon="4.84851">
        <ele>261.9</ele>
        <time>2018-04-18T09:39:15Z</time>
      </trkpt>
      <trkpt lat="46.00171" lon="4.8484">
        <ele>261.9</ele>
        <time>2018-04-18T09:39:21Z</time>
      </trkpt>
      <trkpt lat="46.00171" lon="4.84838">
        <ele>261.9</ele>
        <time>2018-04-18T09:39:22Z</time>
      </trkpt>
      <trkpt lat="46.00169" lon="4.84822">
        <ele>261.1</ele>
        <time>2018-04-18T09:39:23Z</time>
      </trkpt>
      <trkpt lat="46.00167" lon="4.8481">
        <ele>260.3</ele>
        <time>2018-04-18T09:39:25Z</time>
      </trkpt>
      <trkpt lat="46.00167" lon="4.84804">
        <ele>259.9</ele>
        <time>2018-04-18T09:39:26Z</time>
      </trkpt>
      <trkpt lat="46.00167" lon="4.84796">
        <ele>259.7</ele>
        <time>2018-04-18T09:39:27Z</time>
      </trkpt>
      <trkpt lat="46.00167" lon="4.84787">
        <ele>259.3</ele>
        <time>2018-04-18T09:39:28Z</time>
      </trkpt>
      <trkpt lat="46.00167" lon="4.8478">
        <ele>259</ele>
        <time>2018-04-18T09:39:29Z</time>
      </trkpt>
      <trkpt lat="46.00167" lon="4.84772">
        <ele>258.8</ele>
        <time>2018-04-18T09:39:30Z</time>
      </trkpt>
      <trkpt lat="46.00166" lon="4.84763">
        <ele>258.5</ele>
        <time>2018-04-18T09:39:31Z</time>
      </trkpt>
      <trkpt lat="46.00164" lon="4.84756">
        <ele>258.2</ele>
        <time>2018-04-18T09:39:32Z</time>
      </trkpt>
      <trkpt lat="46.00162" lon="4.84749">
        <ele>258</ele>
        <time>2018-04-18T09:39:33Z</time>
      </trkpt>
      <trkpt lat="46.00163" lon="4.84743">
        <ele>257.7</ele>
        <time>2018-04-18T09:39:34Z</time>
      </trkpt>
      <trkpt lat="46.00165" lon="4.84732">
        <ele>257.3</ele>
        <time>2018-04-18T09:39:36Z</time>
      </trkpt>
      <trkpt lat="46.00171" lon="4.84731">
        <ele>257.4</ele>
        <time>2018-04-18T09:39:37Z</time>
      </trkpt>
      <trkpt lat="46.00172" lon="4.84727">
        <ele>257.3</ele>
        <time>2018-04-18T09:39:39Z</time>
      </trkpt>
      <trkpt lat="46.00179" lon="4.84724">
        <ele>257.5</ele>
        <time>2018-04-18T09:39:40Z</time>
      </trkpt>
      <trkpt lat="46.00184" lon="4.84715">
        <ele>257.6</ele>
        <time>2018-04-18T09:39:42Z</time>
      </trkpt>
      <trkpt lat="46.00186" lon="4.84712">
        <ele>257.7</ele>
        <time>2018-04-18T09:39:43Z</time>
      </trkpt>
      <trkpt lat="46.00186" lon="4.84712">
        <ele>257.7</ele>
        <time>2018-04-18T09:39:44Z</time>
      </trkpt>
      <trkpt lat="46.00178" lon="4.84705">
        <ele>257.4</ele>
        <time>2018-04-18T09:39:45Z</time>
      </trkpt>
      <trkpt lat="46.00173" lon="4.84706">
        <ele>257.2</ele>
        <time>2018-04-18T09:39:46Z</time>
      </trkpt>
      <trkpt lat="46.00167" lon="4.84707">
        <ele>257</ele>
        <time>2018-04-18T09:39:47Z</time>
      </trkpt>
      <trkpt lat="46.00162" lon="4.84708">
        <ele>257</ele>
        <time>2018-04-18T09:39:48Z</time>
      </trkpt>
      <trkpt lat="46.00158" lon="4.8471">
        <ele>257</ele>
        <time>2018-04-18T09:39:49Z</time>
      </trkpt>
      <trkpt lat="46.00153" lon="4.84712">
        <ele>257</ele>
        <time>2018-04-18T09:39:50Z</time>
      </trkpt>
      <trkpt lat="46.00147" lon="4.84712">
        <ele>257</ele>
        <time>2018-04-18T09:39:51Z</time>
      </trkpt>
      <trkpt lat="46.00141" lon="4.84713">
        <ele>257</ele>
        <time>2018-04-18T09:39:52Z</time>
      </trkpt>
      <trkpt lat="46.00136" lon="4.84713">
        <ele>257</ele>
        <time>2018-04-18T09:39:53Z</time>
      </trkpt>
      <trkpt lat="46.00131" lon="4.84711">
        <ele>256.9</ele>
        <time>2018-04-18T09:39:54Z</time>
      </trkpt>
      <trkpt lat="46.00126" lon="4.8471">
        <ele>256.8</ele>
        <time>2018-04-18T09:39:55Z</time>
      </trkpt>
      <trkpt lat="46.00122" lon="4.8471">
        <ele>256.7</ele>
        <time>2018-04-18T09:39:56Z</time>
      </trkpt>
      <trkpt lat="46.00117" lon="4.8471">
        <ele>256.6</ele>
        <time>2018-04-18T09:39:57Z</time>
      </trkpt>
      <trkpt lat="46.00112" lon="4.84709">
        <ele>256.5</ele>
        <time>2018-04-18T09:39:58Z</time>
      </trkpt>
      <trkpt lat="46.00107" lon="4.84708">
        <ele>256.6</ele>
        <time>2018-04-18T09:39:59Z</time>
      </trkpt>
      <trkpt lat="46.00099" lon="4.8471">
        <ele>256.8</ele>
        <time>2018-04-18T09:40:01Z</time>
      </trkpt>
      <trkpt lat="46.00094" lon="4.84708">
        <ele>256.8</ele>
        <time>2018-04-18T09:40:02Z</time>
      </trkpt>
      <trkpt lat="46.00088" lon="4.847">
        <ele>256.9</ele>
        <time>2018-04-18T09:40:08Z</time>
      </trkpt>
      <trkpt lat="46.00087" lon="4.84698">
        <ele>256.9</ele>
        <time>2018-04-18T09:40:09Z</time>
      </trkpt>
      <trkpt lat="46.00087" lon="4.84688">
        <ele>256.9</ele>
        <time>2018-04-18T09:40:12Z</time>
      </trkpt>
      <trkpt lat="46.00087" lon="4.84675">
        <ele>256.9</ele>
        <time>2018-04-18T09:40:13Z</time>
      </trkpt>
      <trkpt lat="46.0009" lon="4.84662">
        <ele>256.8</ele>
        <time>2018-04-18T09:40:15Z</time>
      </trkpt>
      <trkpt lat="46.00088" lon="4.84657">
        <ele>256.8</ele>
        <time>2018-04-18T09:40:16Z</time>
      </trkpt>
      <trkpt lat="46.00091" lon="4.84646">
        <ele>256.7</ele>
        <time>2018-04-18T09:40:18Z</time>
      </trkpt>
      <trkpt lat="46.00089" lon="4.84638">
        <ele>256.8</ele>
        <time>2018-04-18T09:40:19Z</time>
      </trkpt>
      <trkpt lat="46.00089" lon="4.84631">
        <ele>256.8</ele>
        <time>2018-04-18T09:40:20Z</time>
      </trkpt>
      <trkpt lat="46.00087" lon="4.84624">
        <ele>256.9</ele>
        <time>2018-04-18T09:40:21Z</time>
      </trkpt>
      <trkpt lat="46.00086" lon="4.84619">
        <ele>257</ele>
        <time>2018-04-18T09:40:22Z</time>
      </trkpt>
      <trkpt lat="46.00084" lon="4.84609">
        <ele>257</ele>
        <time>2018-04-18T09:40:23Z</time>
      </trkpt>
      <trkpt lat="46.00082" lon="4.84599">
        <ele>257</ele>
        <time>2018-04-18T09:40:25Z</time>
      </trkpt>
      <trkpt lat="46.00085" lon="4.84592">
        <ele>257</ele>
        <time>2018-04-18T09:40:26Z</time>
      </trkpt>
      <trkpt lat="46.00085" lon="4.84584">
        <ele>257</ele>
        <time>2018-04-18T09:40:27Z</time>
      </trkpt>
      <trkpt lat="46.00084" lon="4.84579">
        <ele>257</ele>
        <time>2018-04-18T09:40:28Z</time>
      </trkpt>
      <trkpt lat="46.00083" lon="4.84571">
        <ele>257</ele>
        <time>2018-04-18T09:40:29Z</time>
      </trkpt>
      <trkpt lat="46.00082" lon="4.84563">
        <ele>257</ele>
        <time>2018-04-18T09:40:30Z</time>
      </trkpt>
      <trkpt lat="46.00081" lon="4.84554">
        <ele>257</ele>
        <time>2018-04-18T09:40:31Z</time>
      </trkpt>
      <trkpt lat="46.00081" lon="4.84549">
        <ele>257.2</ele>
        <time>2018-04-18T09:40:32Z</time>
      </trkpt>
      <trkpt lat="46.00079" lon="4.84541">
        <ele>257.5</ele>
        <time>2018-04-18T09:40:33Z</time>
      </trkpt>
      <trkpt lat="46.0008" lon="4.84535">
        <ele>257.7</ele>
        <time>2018-04-18T09:40:34Z</time>
      </trkpt>
      <trkpt lat="46.00079" lon="4.8453">
        <ele>257.9</ele>
        <time>2018-04-18T09:40:35Z</time>
      </trkpt>
      <trkpt lat="46.00078" lon="4.84522">
        <ele>258</ele>
        <time>2018-04-18T09:40:36Z</time>
      </trkpt>
      <trkpt lat="46.00078" lon="4.84517">
        <ele>258</ele>
        <time>2018-04-18T09:40:37Z</time>
      </trkpt>
      <trkpt lat="46.00077" lon="4.84509">
        <ele>258</ele>
        <time>2018-04-18T09:40:38Z</time>
      </trkpt>
      <trkpt lat="46.00074" lon="4.84497">
        <ele>258</ele>
        <time>2018-04-18T09:40:40Z</time>
      </trkpt>
      <trkpt lat="46.00073" lon="4.8449">
        <ele>258.1</ele>
        <time>2018-04-18T09:40:41Z</time>
      </trkpt>
      <trkpt lat="46.00072" lon="4.84484">
        <ele>258.3</ele>
        <time>2018-04-18T09:40:42Z</time>
      </trkpt>
      <trkpt lat="46.0007" lon="4.84477">
        <ele>258.4</ele>
        <time>2018-04-18T09:40:43Z</time>
      </trkpt>
      <trkpt lat="46.00069" lon="4.84465">
        <ele>258.6</ele>
        <time>2018-04-18T09:40:45Z</time>
      </trkpt>
      <trkpt lat="46.00067" lon="4.84458">
        <ele>258.8</ele>
        <time>2018-04-18T09:40:46Z</time>
      </trkpt>
      <trkpt lat="46.00066" lon="4.84452">
        <ele>258.9</ele>
        <time>2018-04-18T09:40:47Z</time>
      </trkpt>
      <trkpt lat="46.00065" lon="4.84445">
        <ele>259</ele>
        <time>2018-04-18T09:40:48Z</time>
      </trkpt>
      <trkpt lat="46.00065" lon="4.84438">
        <ele>259.2</ele>
        <time>2018-04-18T09:40:49Z</time>
      </trkpt>
      <trkpt lat="46.00066" lon="4.84432">
        <ele>259.4</ele>
        <time>2018-04-18T09:40:50Z</time>
      </trkpt>
      <trkpt lat="46.00065" lon="4.84421">
        <ele>259.8</ele>
        <time>2018-04-18T09:40:52Z</time>
      </trkpt>
      <trkpt lat="46.00064" lon="4.84415">
        <ele>260</ele>
        <time>2018-04-18T09:40:53Z</time>
      </trkpt>
      <trkpt lat="46.00062" lon="4.84407">
        <ele>260.1</ele>
        <time>2018-04-18T09:40:54Z</time>
      </trkpt>
      <trkpt lat="46.0006" lon="4.844">
        <ele>260.1</ele>
        <time>2018-04-18T09:40:55Z</time>
      </trkpt>
      <trkpt lat="46.00058" lon="4.84392">
        <ele>260.1</ele>
        <time>2018-04-18T09:40:56Z</time>
      </trkpt>
      <trkpt lat="46.00057" lon="4.84385">
        <ele>260.2</ele>
        <time>2018-04-18T09:40:57Z</time>
      </trkpt>
      <trkpt lat="46.00057" lon="4.84379">
        <ele>260.4</ele>
        <time>2018-04-18T09:40:58Z</time>
      </trkpt>
      <trkpt lat="46.00054" lon="4.84372">
        <ele>260.6</ele>
        <time>2018-04-18T09:40:59Z</time>
      </trkpt>
      <trkpt lat="46.00053" lon="4.84362">
        <ele>261</ele>
        <time>2018-04-18T09:41:01Z</time>
      </trkpt>
      <trkpt lat="46.0005" lon="4.84357">
        <ele>261</ele>
        <time>2018-04-18T09:41:02Z</time>
      </trkpt>
      <trkpt lat="46.00051" lon="4.84348">
        <ele>261</ele>
        <time>2018-04-18T09:41:04Z</time>
      </trkpt>
      <trkpt lat="46.00049" lon="4.84341">
        <ele>261</ele>
        <time>2018-04-18T09:41:05Z</time>
      </trkpt>
      <trkpt lat="46.00047" lon="4.84335">
        <ele>261</ele>
        <time>2018-04-18T09:41:06Z</time>
      </trkpt>
      <trkpt lat="46.00045" lon="4.84329">
        <ele>261</ele>
        <time>2018-04-18T09:41:07Z</time>
      </trkpt>
      <trkpt lat="46.00041" lon="4.84318">
        <ele>261</ele>
        <time>2018-04-18T09:41:09Z</time>
      </trkpt>
      <trkpt lat="46.00039" lon="4.84312">
        <ele>261</ele>
        <time>2018-04-18T09:41:10Z</time>
      </trkpt>
      <trkpt lat="46.00037" lon="4.84306">
        <ele>261</ele>
        <time>2018-04-18T09:41:11Z</time>
      </trkpt>
      <trkpt lat="46.00035" lon="4.84299">
        <ele>261</ele>
        <time>2018-04-18T09:41:12Z</time>
      </trkpt>
      <trkpt lat="46.00033" lon="4.84287">
        <ele>261</ele>
        <time>2018-04-18T09:41:14Z</time>
      </trkpt>
      <trkpt lat="46.0003" lon="4.84281">
        <ele>261</ele>
        <time>2018-04-18T09:41:15Z</time>
      </trkpt>
      <trkpt lat="46.00028" lon="4.84274">
        <ele>261</ele>
        <time>2018-04-18T09:41:16Z</time>
      </trkpt>
      <trkpt lat="46.00027" lon="4.84267">
        <ele>261</ele>
        <time>2018-04-18T09:41:17Z</time>
      </trkpt>
      <trkpt lat="46.00025" lon="4.84259">
        <ele>260.9</ele>
        <time>2018-04-18T09:41:18Z</time>
      </trkpt>
      <trkpt lat="46.00023" lon="4.84253">
        <ele>260.8</ele>
        <time>2018-04-18T09:41:19Z</time>
      </trkpt>
      <trkpt lat="46.00021" lon="4.84246">
        <ele>260.7</ele>
        <time>2018-04-18T09:41:20Z</time>
      </trkpt>
      <trkpt lat="46.0002" lon="4.84238">
        <ele>260.7</ele>
        <time>2018-04-18T09:41:21Z</time>
      </trkpt>
      <trkpt lat="46.00017" lon="4.84231">
        <ele>260.6</ele>
        <time>2018-04-18T09:41:22Z</time>
      </trkpt>
      <trkpt lat="46.00015" lon="4.84223">
        <ele>260.5</ele>
        <time>2018-04-18T09:41:23Z</time>
      </trkpt>
      <trkpt lat="46.00013" lon="4.84216">
        <ele>260.5</ele>
        <time>2018-04-18T09:41:24Z</time>
      </trkpt>
      <trkpt lat="46.00011" lon="4.8421">
        <ele>260.4</ele>
        <time>2018-04-18T09:41:25Z</time>
      </trkpt>
      <trkpt lat="46.00007" lon="4.84202">
        <ele>260.3</ele>
        <time>2018-04-18T09:41:26Z</time>
      </trkpt>
      <trkpt lat="46.00006" lon="4.84195">
        <ele>260.2</ele>
        <time>2018-04-18T09:41:27Z</time>
      </trkpt>
      <trkpt lat="46.00004" lon="4.84188">
        <ele>260.1</ele>
        <time>2018-04-18T09:41:28Z</time>
      </trkpt>
      <trkpt lat="46.00002" lon="4.84179">
        <ele>260.1</ele>
        <time>2018-04-18T09:41:29Z</time>
      </trkpt>
      <trkpt lat="46" lon="4.84171">
        <ele>260</ele>
        <time>2018-04-18T09:41:30Z</time>
      </trkpt>
      <trkpt lat="45.99998" lon="4.84163">
        <ele>259.9</ele>
        <time>2018-04-18T09:41:31Z</time>
      </trkpt>
      <trkpt lat="45.99996" lon="4.84155">
        <ele>259.8</ele>
        <time>2018-04-18T09:41:32Z</time>
      </trkpt>
      <trkpt lat="45.99993" lon="4.84147">
        <ele>259.7</ele>
        <time>2018-04-18T09:41:33Z</time>
      </trkpt>
      <trkpt lat="45.99991" lon="4.84139">
        <ele>259.7</ele>
        <time>2018-04-18T09:41:34Z</time>
      </trkpt>
      <trkpt lat="45.99989" lon="4.84133">
        <ele>259.6</ele>
        <time>2018-04-18T09:41:35Z</time>
      </trkpt>
      <trkpt lat="45.99986" lon="4.84125">
        <ele>259.5</ele>
        <time>2018-04-18T09:41:36Z</time>
      </trkpt>
      <trkpt lat="45.99986" lon="4.84117">
        <ele>259.5</ele>
        <time>2018-04-18T09:41:37Z</time>
      </trkpt>
      <trkpt lat="45.99984" lon="4.8411">
        <ele>259.4</ele>
        <time>2018-04-18T09:41:38Z</time>
      </trkpt>
      <trkpt lat="45.99981" lon="4.84103">
        <ele>259.3</ele>
        <time>2018-04-18T09:41:39Z</time>
      </trkpt>
      <trkpt lat="45.99978" lon="4.84095">
        <ele>259.2</ele>
        <time>2018-04-18T09:41:40Z</time>
      </trkpt>
      <trkpt lat="45.99976" lon="4.84087">
        <ele>259.1</ele>
        <time>2018-04-18T09:41:41Z</time>
      </trkpt>
      <trkpt lat="45.99974" lon="4.8408">
        <ele>259.1</ele>
        <time>2018-04-18T09:41:42Z</time>
      </trkpt>
      <trkpt lat="45.99972" lon="4.84073">
        <ele>259</ele>
        <time>2018-04-18T09:41:43Z</time>
      </trkpt>
      <trkpt lat="45.99971" lon="4.84062">
        <ele>259</ele>
        <time>2018-04-18T09:41:45Z</time>
      </trkpt>
      <trkpt lat="45.9997" lon="4.84055">
        <ele>259</ele>
        <time>2018-04-18T09:41:46Z</time>
      </trkpt>
      <trkpt lat="45.99968" lon="4.84047">
        <ele>259.3</ele>
        <time>2018-04-18T09:41:47Z</time>
      </trkpt>
      <trkpt lat="45.99966" lon="4.84039">
        <ele>259.5</ele>
        <time>2018-04-18T09:41:48Z</time>
      </trkpt>
      <trkpt lat="45.99963" lon="4.84032">
        <ele>259.6</ele>
        <time>2018-04-18T09:41:49Z</time>
      </trkpt>
      <trkpt lat="45.99961" lon="4.84024">
        <ele>259.6</ele>
        <time>2018-04-18T09:41:50Z</time>
      </trkpt>
      <trkpt lat="45.99958" lon="4.84016">
        <ele>259.5</ele>
        <time>2018-04-18T09:41:51Z</time>
      </trkpt>
      <trkpt lat="45.99956" lon="4.8401">
        <ele>259.4</ele>
        <time>2018-04-18T09:41:52Z</time>
      </trkpt>
      <trkpt lat="45.99954" lon="4.84003">
        <ele>259.4</ele>
        <time>2018-04-18T09:41:53Z</time>
      </trkpt>
      <trkpt lat="45.99952" lon="4.83996">
        <ele>259.4</ele>
        <time>2018-04-18T09:41:54Z</time>
      </trkpt>
      <trkpt lat="45.9995" lon="4.83989">
        <ele>259.5</ele>
        <time>2018-04-18T09:41:55Z</time>
      </trkpt>
      <trkpt lat="45.99949" lon="4.83982">
        <ele>259.7</ele>
        <time>2018-04-18T09:41:56Z</time>
      </trkpt>
      <trkpt lat="45.99947" lon="4.83975">
        <ele>259.9</ele>
        <time>2018-04-18T09:41:57Z</time>
      </trkpt>
      <trkpt lat="45.99945" lon="4.83968">
        <ele>260</ele>
        <time>2018-04-18T09:41:58Z</time>
      </trkpt>
      <trkpt lat="45.99942" lon="4.83961">
        <ele>259.9</ele>
        <time>2018-04-18T09:41:59Z</time>
      </trkpt>
      <trkpt lat="45.99941" lon="4.83955">
        <ele>259.9</ele>
        <time>2018-04-18T09:42:00Z</time>
      </trkpt>
      <trkpt lat="45.99939" lon="4.83948">
        <ele>259.8</ele>
        <time>2018-04-18T09:42:01Z</time>
      </trkpt>
      <trkpt lat="45.99937" lon="4.83941">
        <ele>259.7</ele>
        <time>2018-04-18T09:42:02Z</time>
      </trkpt>
      <trkpt lat="45.99935" lon="4.83933">
        <ele>259.7</ele>
        <time>2018-04-18T09:42:03Z</time>
      </trkpt>
      <trkpt lat="45.99932" lon="4.83926">
        <ele>259.5</ele>
        <time>2018-04-18T09:42:04Z</time>
      </trkpt>
      <trkpt lat="45.99929" lon="4.83918">
        <ele>259.5</ele>
        <time>2018-04-18T09:42:05Z</time>
      </trkpt>
      <trkpt lat="45.99927" lon="4.83911">
        <ele>259.5</ele>
        <time>2018-04-18T09:42:06Z</time>
      </trkpt>
      <trkpt lat="45.99925" lon="4.83903">
        <ele>259.6</ele>
        <time>2018-04-18T09:42:07Z</time>
      </trkpt>
      <trkpt lat="45.99922" lon="4.83895">
        <ele>259.8</ele>
        <time>2018-04-18T09:42:08Z</time>
      </trkpt>
      <trkpt lat="45.99919" lon="4.83887">
        <ele>260</ele>
        <time>2018-04-18T09:42:09Z</time>
      </trkpt>
      <trkpt lat="45.99917" lon="4.83879">
        <ele>260</ele>
        <time>2018-04-18T09:42:10Z</time>
      </trkpt>
      <trkpt lat="45.99914" lon="4.83871">
        <ele>259.9</ele>
        <time>2018-04-18T09:42:11Z</time>
      </trkpt>
      <trkpt lat="45.99911" lon="4.83864">
        <ele>259.8</ele>
        <time>2018-04-18T09:42:12Z</time>
      </trkpt>
      <trkpt lat="45.9991" lon="4.83858">
        <ele>259.7</ele>
        <time>2018-04-18T09:42:13Z</time>
      </trkpt>
      <trkpt lat="45.99907" lon="4.83849">
        <ele>259.6</ele>
        <time>2018-04-18T09:42:14Z</time>
      </trkpt>
      <trkpt lat="45.99904" lon="4.83841">
        <ele>259.5</ele>
        <time>2018-04-18T09:42:15Z</time>
      </trkpt>
      <trkpt lat="45.99902" lon="4.83832">
        <ele>259.4</ele>
        <time>2018-04-18T09:42:16Z</time>
      </trkpt>
      <trkpt lat="45.99899" lon="4.83825">
        <ele>259.3</ele>
        <time>2018-04-18T09:42:17Z</time>
      </trkpt>
      <trkpt lat="45.99898" lon="4.83817">
        <ele>259.1</ele>
        <time>2018-04-18T09:42:18Z</time>
      </trkpt>
      <trkpt lat="45.99896" lon="4.83809">
        <ele>259</ele>
        <time>2018-04-18T09:42:19Z</time>
      </trkpt>
      <trkpt lat="45.99894" lon="4.83801">
        <ele>259</ele>
        <time>2018-04-18T09:42:20Z</time>
      </trkpt>
      <trkpt lat="45.99892" lon="4.83793">
        <ele>259</ele>
        <time>2018-04-18T09:42:21Z</time>
      </trkpt>
      <trkpt lat="45.9989" lon="4.83785">
        <ele>259</ele>
        <time>2018-04-18T09:42:22Z</time>
      </trkpt>
      <trkpt lat="45.99888" lon="4.83777">
        <ele>259</ele>
        <time>2018-04-18T09:42:23Z</time>
      </trkpt>
      <trkpt lat="45.99886" lon="4.83769">
        <ele>258.9</ele>
        <time>2018-04-18T09:42:24Z</time>
      </trkpt>
      <trkpt lat="45.99884" lon="4.83761">
        <ele>258.8</ele>
        <time>2018-04-18T09:42:25Z</time>
      </trkpt>
      <trkpt lat="45.99881" lon="4.83753">
        <ele>258.7</ele>
        <time>2018-04-18T09:42:26Z</time>
      </trkpt>
      <trkpt lat="45.99877" lon="4.83744">
        <ele>258.5</ele>
        <time>2018-04-18T09:42:27Z</time>
      </trkpt>
      <trkpt lat="45.99876" lon="4.83736">
        <ele>258.3</ele>
        <time>2018-04-18T09:42:28Z</time>
      </trkpt>
      <trkpt lat="45.99874" lon="4.83729">
        <ele>258.1</ele>
        <time>2018-04-18T09:42:29Z</time>
      </trkpt>
      <trkpt lat="45.99872" lon="4.83721">
        <ele>258</ele>
        <time>2018-04-18T09:42:30Z</time>
      </trkpt>
      <trkpt lat="45.9987" lon="4.83712">
        <ele>258.4</ele>
        <time>2018-04-18T09:42:31Z</time>
      </trkpt>
      <trkpt lat="45.99868" lon="4.83704">
        <ele>258.6</ele>
        <time>2018-04-18T09:42:32Z</time>
      </trkpt>
      <trkpt lat="45.99866" lon="4.83697">
        <ele>258.9</ele>
        <time>2018-04-18T09:42:33Z</time>
      </trkpt>
      <trkpt lat="45.99864" lon="4.83689">
        <ele>259</ele>
        <time>2018-04-18T09:42:34Z</time>
      </trkpt>
      <trkpt lat="45.99862" lon="4.83682">
        <ele>259</ele>
        <time>2018-04-18T09:42:35Z</time>
      </trkpt>
      <trkpt lat="45.99861" lon="4.83675">
        <ele>259</ele>
        <time>2018-04-18T09:42:36Z</time>
      </trkpt>
      <trkpt lat="45.99859" lon="4.83667">
        <ele>259</ele>
        <time>2018-04-18T09:42:37Z</time>
      </trkpt>
      <trkpt lat="45.99857" lon="4.83659">
        <ele>259</ele>
        <time>2018-04-18T09:42:38Z</time>
      </trkpt>
      <trkpt lat="45.99855" lon="4.83651">
        <ele>259</ele>
        <time>2018-04-18T09:42:39Z</time>
      </trkpt>
      <trkpt lat="45.99854" lon="4.83644">
        <ele>259</ele>
        <time>2018-04-18T09:42:40Z</time>
      </trkpt>
      <trkpt lat="45.99852" lon="4.83637">
        <ele>259</ele>
        <time>2018-04-18T09:42:41Z</time>
      </trkpt>
      <trkpt lat="45.9985" lon="4.83629">
        <ele>259</ele>
        <time>2018-04-18T09:42:42Z</time>
      </trkpt>
      <trkpt lat="45.99848" lon="4.83623">
        <ele>259</ele>
        <time>2018-04-18T09:42:43Z</time>
      </trkpt>
      <trkpt lat="45.99847" lon="4.83615">
        <ele>259</ele>
        <time>2018-04-18T09:42:44Z</time>
      </trkpt>
      <trkpt lat="45.99844" lon="4.83607">
        <ele>259</ele>
        <time>2018-04-18T09:42:45Z</time>
      </trkpt>
      <trkpt lat="45.99842" lon="4.83599">
        <ele>259</ele>
        <time>2018-04-18T09:42:46Z</time>
      </trkpt>
      <trkpt lat="45.9984" lon="4.83591">
        <ele>259</ele>
        <time>2018-04-18T09:42:47Z</time>
      </trkpt>
      <trkpt lat="45.99839" lon="4.83584">
        <ele>259</ele>
        <time>2018-04-18T09:42:48Z</time>
      </trkpt>
      <trkpt lat="45.99837" lon="4.83576">
        <ele>259.3</ele>
        <time>2018-04-18T09:42:49Z</time>
      </trkpt>
      <trkpt lat="45.99836" lon="4.83568">
        <ele>259.6</ele>
        <time>2018-04-18T09:42:50Z</time>
      </trkpt>
      <trkpt lat="45.99835" lon="4.83562">
        <ele>259.8</ele>
        <time>2018-04-18T09:42:51Z</time>
      </trkpt>
      <trkpt lat="45.99833" lon="4.83554">
        <ele>260</ele>
        <time>2018-04-18T09:42:52Z</time>
      </trkpt>
      <trkpt lat="45.99831" lon="4.83547">
        <ele>260</ele>
        <time>2018-04-18T09:42:53Z</time>
      </trkpt>
      <trkpt lat="45.99829" lon="4.83539">
        <ele>260</ele>
        <time>2018-04-18T09:42:54Z</time>
      </trkpt>
      <trkpt lat="45.99826" lon="4.8353">
        <ele>260</ele>
        <time>2018-04-18T09:42:55Z</time>
      </trkpt>
      <trkpt lat="45.99825" lon="4.83524">
        <ele>260</ele>
        <time>2018-04-18T09:42:56Z</time>
      </trkpt>
      <trkpt lat="45.99824" lon="4.83517">
        <ele>260.1</ele>
        <time>2018-04-18T09:42:57Z</time>
      </trkpt>
      <trkpt lat="45.99822" lon="4.8351">
        <ele>260.3</ele>
        <time>2018-04-18T09:42:58Z</time>
      </trkpt>
      <trkpt lat="45.99822" lon="4.83505">
        <ele>260.3</ele>
        <time>2018-04-18T09:42:59Z</time>
      </trkpt>
      <trkpt lat="45.9982" lon="4.83497">
        <ele>260.6</ele>
        <time>2018-04-18T09:43:00Z</time>
      </trkpt>
      <trkpt lat="45.99819" lon="4.8349">
        <ele>260.7</ele>
        <time>2018-04-18T09:43:01Z</time>
      </trkpt>
      <trkpt lat="45.99817" lon="4.83484">
        <ele>260.8</ele>
        <time>2018-04-18T09:43:02Z</time>
      </trkpt>
      <trkpt lat="45.99815" lon="4.83476">
        <ele>261</ele>
        <time>2018-04-18T09:43:03Z</time>
      </trkpt>
      <trkpt lat="45.99813" lon="4.83469">
        <ele>261.1</ele>
        <time>2018-04-18T09:43:04Z</time>
      </trkpt>
      <trkpt lat="45.99815" lon="4.83459">
        <ele>261.5</ele>
        <time>2018-04-18T09:43:06Z</time>
      </trkpt>
      <trkpt lat="45.99813" lon="4.83454">
        <ele>261.6</ele>
        <time>2018-04-18T09:43:07Z</time>
      </trkpt>
      <trkpt lat="45.99811" lon="4.83442">
        <ele>262</ele>
        <time>2018-04-18T09:43:09Z</time>
      </trkpt>
      <trkpt lat="45.9981" lon="4.83436">
        <ele>262</ele>
        <time>2018-04-18T09:43:10Z</time>
      </trkpt>
      <trkpt lat="45.99809" lon="4.83429">
        <ele>262</ele>
        <time>2018-04-18T09:43:11Z</time>
      </trkpt>
      <trkpt lat="45.99806" lon="4.83422">
        <ele>262</ele>
        <time>2018-04-18T09:43:12Z</time>
      </trkpt>
      <trkpt lat="45.99805" lon="4.83416">
        <ele>262.1</ele>
        <time>2018-04-18T09:43:13Z</time>
      </trkpt>
      <trkpt lat="45.99802" lon="4.8341">
        <ele>262.5</ele>
        <time>2018-04-18T09:43:14Z</time>
      </trkpt>
      <trkpt lat="45.99801" lon="4.83403">
        <ele>262.8</ele>
        <time>2018-04-18T09:43:15Z</time>
      </trkpt>
      <trkpt lat="45.99799" lon="4.83397">
        <ele>263</ele>
        <time>2018-04-18T09:43:16Z</time>
      </trkpt>
      <trkpt lat="45.99798" lon="4.83386">
        <ele>263.4</ele>
        <time>2018-04-18T09:43:18Z</time>
      </trkpt>
      <trkpt lat="45.99796" lon="4.83379">
        <ele>263.6</ele>
        <time>2018-04-18T09:43:19Z</time>
      </trkpt>
      <trkpt lat="45.99793" lon="4.83368">
        <ele>263.9</ele>
        <time>2018-04-18T09:43:21Z</time>
      </trkpt>
      <trkpt lat="45.99792" lon="4.83363">
        <ele>264</ele>
        <time>2018-04-18T09:43:22Z</time>
      </trkpt>
      <trkpt lat="45.9979" lon="4.83352">
        <ele>264.1</ele>
        <time>2018-04-18T09:43:24Z</time>
      </trkpt>
      <trkpt lat="45.99789" lon="4.83346">
        <ele>264.2</ele>
        <time>2018-04-18T09:43:25Z</time>
      </trkpt>
      <trkpt lat="45.99787" lon="4.83335">
        <ele>264.3</ele>
        <time>2018-04-18T09:43:27Z</time>
      </trkpt>
      <trkpt lat="45.99785" lon="4.83329">
        <ele>264.4</ele>
        <time>2018-04-18T09:43:28Z</time>
      </trkpt>
      <trkpt lat="45.99783" lon="4.83318">
        <ele>264.6</ele>
        <time>2018-04-18T09:43:30Z</time>
      </trkpt>
      <trkpt lat="45.99782" lon="4.83315">
        <ele>264.7</ele>
        <time>2018-04-18T09:43:31Z</time>
      </trkpt>
      <trkpt lat="45.99781" lon="4.83308">
        <ele>264.9</ele>
        <time>2018-04-18T09:43:32Z</time>
      </trkpt>
      <trkpt lat="45.9978" lon="4.83302">
        <ele>265</ele>
        <time>2018-04-18T09:43:33Z</time>
      </trkpt>
      <trkpt lat="45.99778" lon="4.83291">
        <ele>265</ele>
        <time>2018-04-18T09:43:35Z</time>
      </trkpt>
      <trkpt lat="45.99777" lon="4.83286">
        <ele>265</ele>
        <time>2018-04-18T09:43:36Z</time>
      </trkpt>
      <trkpt lat="45.99775" lon="4.83274">
        <ele>265.2</ele>
        <time>2018-04-18T09:43:38Z</time>
      </trkpt>
      <trkpt lat="45.99775" lon="4.83268">
        <ele>265.4</ele>
        <time>2018-04-18T09:43:39Z</time>
      </trkpt>
      <trkpt lat="45.99773" lon="4.83256">
        <ele>265.8</ele>
        <time>2018-04-18T09:43:41Z</time>
      </trkpt>
      <trkpt lat="45.99772" lon="4.8325">
        <ele>266</ele>
        <time>2018-04-18T09:43:42Z</time>
      </trkpt>
      <trkpt lat="45.9977" lon="4.83238">
        <ele>266.4</ele>
        <time>2018-04-18T09:43:44Z</time>
      </trkpt>
      <trkpt lat="45.99769" lon="4.83232">
        <ele>266.7</ele>
        <time>2018-04-18T09:43:45Z</time>
      </trkpt>
      <trkpt lat="45.99768" lon="4.83224">
        <ele>266.9</ele>
        <time>2018-04-18T09:43:46Z</time>
      </trkpt>
      <trkpt lat="45.99767" lon="4.83218">
        <ele>267</ele>
        <time>2018-04-18T09:43:47Z</time>
      </trkpt>
      <trkpt lat="45.99767" lon="4.83207">
        <ele>266.9</ele>
        <time>2018-04-18T09:43:49Z</time>
      </trkpt>
      <trkpt lat="45.99767" lon="4.832">
        <ele>266.9</ele>
        <time>2018-04-18T09:43:50Z</time>
      </trkpt>
      <trkpt lat="45.99767" lon="4.8319">
        <ele>266.9</ele>
        <time>2018-04-18T09:43:52Z</time>
      </trkpt>
      <trkpt lat="45.99767" lon="4.83185">
        <ele>267.1</ele>
        <time>2018-04-18T09:43:53Z</time>
      </trkpt>
      <trkpt lat="45.99765" lon="4.83174">
        <ele>267.7</ele>
        <time>2018-04-18T09:43:55Z</time>
      </trkpt>
      <trkpt lat="45.99764" lon="4.83168">
        <ele>267.9</ele>
        <time>2018-04-18T09:43:56Z</time>
      </trkpt>
      <trkpt lat="45.99766" lon="4.83159">
        <ele>268.1</ele>
        <time>2018-04-18T09:43:58Z</time>
      </trkpt>
      <trkpt lat="45.99766" lon="4.83154">
        <ele>268.3</ele>
        <time>2018-04-18T09:43:59Z</time>
      </trkpt>
      <trkpt lat="45.99765" lon="4.83143">
        <ele>268.8</ele>
        <time>2018-04-18T09:44:01Z</time>
      </trkpt>
      <trkpt lat="45.99764" lon="4.83137">
        <ele>269.1</ele>
        <time>2018-04-18T09:44:02Z</time>
      </trkpt>
      <trkpt lat="45.99763" lon="4.83126">
        <ele>269.8</ele>
        <time>2018-04-18T09:44:04Z</time>
      </trkpt>
      <trkpt lat="45.99763" lon="4.83123">
        <ele>269.9</ele>
        <time>2018-04-18T09:44:05Z</time>
      </trkpt>
      <trkpt lat="45.99762" lon="4.83115">
        <ele>270.4</ele>
        <time>2018-04-18T09:44:06Z</time>
      </trkpt>
      <trkpt lat="45.99761" lon="4.83109">
        <ele>270.7</ele>
        <time>2018-04-18T09:44:07Z</time>
      </trkpt>
      <trkpt lat="45.9976" lon="4.83101">
        <ele>271</ele>
        <time>2018-04-18T09:44:09Z</time>
      </trkpt>
      <trkpt lat="45.99759" lon="4.83093">
        <ele>271.3</ele>
        <time>2018-04-18T09:44:10Z</time>
      </trkpt>
      <trkpt lat="45.99757" lon="4.83081">
        <ele>271.6</ele>
        <time>2018-04-18T09:44:13Z</time>
      </trkpt>
      <trkpt lat="45.99756" lon="4.83078">
        <ele>271.7</ele>
        <time>2018-04-18T09:44:14Z</time>
      </trkpt>
      <trkpt lat="45.99755" lon="4.83069">
        <ele>271.9</ele>
        <time>2018-04-18T09:44:15Z</time>
      </trkpt>
      <trkpt lat="45.99754" lon="4.83063">
        <ele>272</ele>
        <time>2018-04-18T09:44:16Z</time>
      </trkpt>
      <trkpt lat="45.99752" lon="4.83053">
        <ele>272.2</ele>
        <time>2018-04-18T09:44:18Z</time>
      </trkpt>
      <trkpt lat="45.99751" lon="4.83048">
        <ele>272.3</ele>
        <time>2018-04-18T09:44:19Z</time>
      </trkpt>
      <trkpt lat="45.99749" lon="4.83037">
        <ele>272.7</ele>
        <time>2018-04-18T09:44:21Z</time>
      </trkpt>
      <trkpt lat="45.99748" lon="4.83032">
        <ele>273</ele>
        <time>2018-04-18T09:44:22Z</time>
      </trkpt>
      <trkpt lat="45.99746" lon="4.83022">
        <ele>273.2</ele>
        <time>2018-04-18T09:44:24Z</time>
      </trkpt>
      <trkpt lat="45.99746" lon="4.83017">
        <ele>273.3</ele>
        <time>2018-04-18T09:44:25Z</time>
      </trkpt>
      <trkpt lat="45.99745" lon="4.83007">
        <ele>273.2</ele>
        <time>2018-04-18T09:44:27Z</time>
      </trkpt>
      <trkpt lat="45.9974" lon="4.82998">
        <ele>273.4</ele>
        <time>2018-04-18T09:44:28Z</time>
      </trkpt>
      <trkpt lat="45.99737" lon="4.82988">
        <ele>273.5</ele>
        <time>2018-04-18T09:44:30Z</time>
      </trkpt>
      <trkpt lat="45.99735" lon="4.82982">
        <ele>273.5</ele>
        <time>2018-04-18T09:44:31Z</time>
      </trkpt>
      <trkpt lat="45.99732" lon="4.82971">
        <ele>273.3</ele>
        <time>2018-04-18T09:44:33Z</time>
      </trkpt>
      <trkpt lat="45.99733" lon="4.82965">
        <ele>273.1</ele>
        <time>2018-04-18T09:44:34Z</time>
      </trkpt>
      <trkpt lat="45.9973" lon="4.82959">
        <ele>272.8</ele>
        <time>2018-04-18T09:44:35Z</time>
      </trkpt>
      <trkpt lat="45.99728" lon="4.82952">
        <ele>272.5</ele>
        <time>2018-04-18T09:44:36Z</time>
      </trkpt>
      <trkpt lat="45.99725" lon="4.82946">
        <ele>272.2</ele>
        <time>2018-04-18T09:44:37Z</time>
      </trkpt>
      <trkpt lat="45.99723" lon="4.82939">
        <ele>272</ele>
        <time>2018-04-18T09:44:38Z</time>
      </trkpt>
      <trkpt lat="45.99722" lon="4.82934">
        <ele>272</ele>
        <time>2018-04-18T09:44:39Z</time>
      </trkpt>
      <trkpt lat="45.99718" lon="4.82926">
        <ele>272</ele>
        <time>2018-04-18T09:44:40Z</time>
      </trkpt>
      <trkpt lat="45.99715" lon="4.82919">
        <ele>272</ele>
        <time>2018-04-18T09:44:41Z</time>
      </trkpt>
      <trkpt lat="45.99713" lon="4.82912">
        <ele>272.1</ele>
        <time>2018-04-18T09:44:42Z</time>
      </trkpt>
      <trkpt lat="45.99712" lon="4.82905">
        <ele>272.1</ele>
        <time>2018-04-18T09:44:43Z</time>
      </trkpt>
      <trkpt lat="45.9971" lon="4.82898">
        <ele>272.1</ele>
        <time>2018-04-18T09:44:44Z</time>
      </trkpt>
      <trkpt lat="45.99708" lon="4.8289">
        <ele>272</ele>
        <time>2018-04-18T09:44:45Z</time>
      </trkpt>
      <trkpt lat="45.99704" lon="4.82883">
        <ele>271.6</ele>
        <time>2018-04-18T09:44:46Z</time>
      </trkpt>
      <trkpt lat="45.99703" lon="4.82876">
        <ele>271.4</ele>
        <time>2018-04-18T09:44:47Z</time>
      </trkpt>
      <trkpt lat="45.99701" lon="4.82868">
        <ele>271.3</ele>
        <time>2018-04-18T09:44:48Z</time>
      </trkpt>
      <trkpt lat="45.99697" lon="4.82861">
        <ele>271.1</ele>
        <time>2018-04-18T09:44:49Z</time>
      </trkpt>
      <trkpt lat="45.99695" lon="4.82854">
        <ele>271</ele>
        <time>2018-04-18T09:44:50Z</time>
      </trkpt>
      <trkpt lat="45.99692" lon="4.82847">
        <ele>271.1</ele>
        <time>2018-04-18T09:44:51Z</time>
      </trkpt>
      <trkpt lat="45.99691" lon="4.82842">
        <ele>271.2</ele>
        <time>2018-04-18T09:44:52Z</time>
      </trkpt>
      <trkpt lat="45.99688" lon="4.82833">
        <ele>271.2</ele>
        <time>2018-04-18T09:44:53Z</time>
      </trkpt>
      <trkpt lat="45.99685" lon="4.82825">
        <ele>271.1</ele>
        <time>2018-04-18T09:44:54Z</time>
      </trkpt>
      <trkpt lat="45.99683" lon="4.82817">
        <ele>270.9</ele>
        <time>2018-04-18T09:44:55Z</time>
      </trkpt>
      <trkpt lat="45.99681" lon="4.82809">
        <ele>270.6</ele>
        <time>2018-04-18T09:44:56Z</time>
      </trkpt>
      <trkpt lat="45.99679" lon="4.828">
        <ele>270.5</ele>
        <time>2018-04-18T09:44:57Z</time>
      </trkpt>
      <trkpt lat="45.99678" lon="4.82791">
        <ele>270.4</ele>
        <time>2018-04-18T09:44:58Z</time>
      </trkpt>
      <trkpt lat="45.99676" lon="4.82781">
        <ele>270.3</ele>
        <time>2018-04-18T09:44:59Z</time>
      </trkpt>
      <trkpt lat="45.99673" lon="4.8277">
        <ele>270</ele>
        <time>2018-04-18T09:45:00Z</time>
      </trkpt>
      <trkpt lat="45.99671" lon="4.82761">
        <ele>269.6</ele>
        <time>2018-04-18T09:45:01Z</time>
      </trkpt>
      <trkpt lat="45.99672" lon="4.82753">
        <ele>269.3</ele>
        <time>2018-04-18T09:45:02Z</time>
      </trkpt>
      <trkpt lat="45.99671" lon="4.82744">
        <ele>269.2</ele>
        <time>2018-04-18T09:45:03Z</time>
      </trkpt>
      <trkpt lat="45.99672" lon="4.82735">
        <ele>269.2</ele>
        <time>2018-04-18T09:45:04Z</time>
      </trkpt>
      <trkpt lat="45.9967" lon="4.82724">
        <ele>269.1</ele>
        <time>2018-04-18T09:45:05Z</time>
      </trkpt>
      <trkpt lat="45.99669" lon="4.82714">
        <ele>269.1</ele>
        <time>2018-04-18T09:45:06Z</time>
      </trkpt>
      <trkpt lat="45.99668" lon="4.82706">
        <ele>269</ele>
        <time>2018-04-18T09:45:07Z</time>
      </trkpt>
      <trkpt lat="45.99667" lon="4.82697">
        <ele>269</ele>
        <time>2018-04-18T09:45:08Z</time>
      </trkpt>
      <trkpt lat="45.99664" lon="4.82687">
        <ele>268.9</ele>
        <time>2018-04-18T09:45:09Z</time>
      </trkpt>
      <trkpt lat="45.99665" lon="4.82678">
        <ele>268.9</ele>
        <time>2018-04-18T09:45:10Z</time>
      </trkpt>
      <trkpt lat="45.99663" lon="4.82669">
        <ele>268.8</ele>
        <time>2018-04-18T09:45:11Z</time>
      </trkpt>
      <trkpt lat="45.99663" lon="4.82661">
        <ele>268.5</ele>
        <time>2018-04-18T09:45:12Z</time>
      </trkpt>
      <trkpt lat="45.9966" lon="4.82652">
        <ele>268.1</ele>
        <time>2018-04-18T09:45:13Z</time>
      </trkpt>
      <trkpt lat="45.99659" lon="4.82643">
        <ele>267.8</ele>
        <time>2018-04-18T09:45:14Z</time>
      </trkpt>
      <trkpt lat="45.99658" lon="4.82634">
        <ele>267.8</ele>
        <time>2018-04-18T09:45:15Z</time>
      </trkpt>
      <trkpt lat="45.99656" lon="4.82626">
        <ele>267.9</ele>
        <time>2018-04-18T09:45:16Z</time>
      </trkpt>
      <trkpt lat="45.99654" lon="4.82618">
        <ele>267.9</ele>
        <time>2018-04-18T09:45:17Z</time>
      </trkpt>
      <trkpt lat="45.99652" lon="4.82608">
        <ele>267.9</ele>
        <time>2018-04-18T09:45:18Z</time>
      </trkpt>
      <trkpt lat="45.99651" lon="4.82601">
        <ele>267.9</ele>
        <time>2018-04-18T09:45:19Z</time>
      </trkpt>
      <trkpt lat="45.99649" lon="4.82593">
        <ele>267.7</ele>
        <time>2018-04-18T09:45:20Z</time>
      </trkpt>
      <trkpt lat="45.99648" lon="4.82584">
        <ele>267.6</ele>
        <time>2018-04-18T09:45:21Z</time>
      </trkpt>
      <trkpt lat="45.99646" lon="4.82576">
        <ele>267.5</ele>
        <time>2018-04-18T09:45:22Z</time>
      </trkpt>
      <trkpt lat="45.99644" lon="4.82566">
        <ele>267.4</ele>
        <time>2018-04-18T09:45:23Z</time>
      </trkpt>
      <trkpt lat="45.99642" lon="4.82556">
        <ele>267.2</ele>
        <time>2018-04-18T09:45:24Z</time>
      </trkpt>
      <trkpt lat="45.9964" lon="4.82547">
        <ele>267.4</ele>
        <time>2018-04-18T09:45:25Z</time>
      </trkpt>
      <trkpt lat="45.99638" lon="4.82538">
        <ele>267.6</ele>
        <time>2018-04-18T09:45:26Z</time>
      </trkpt>
      <trkpt lat="45.99635" lon="4.82529">
        <ele>267.7</ele>
        <time>2018-04-18T09:45:27Z</time>
      </trkpt>
      <trkpt lat="45.99633" lon="4.82519">
        <ele>267.6</ele>
        <time>2018-04-18T09:45:28Z</time>
      </trkpt>
      <trkpt lat="45.99631" lon="4.82511">
        <ele>267.4</ele>
        <time>2018-04-18T09:45:29Z</time>
      </trkpt>
      <trkpt lat="45.99628" lon="4.82502">
        <ele>267.2</ele>
        <time>2018-04-18T09:45:30Z</time>
      </trkpt>
      <trkpt lat="45.99626" lon="4.82493">
        <ele>267.1</ele>
        <time>2018-04-18T09:45:31Z</time>
      </trkpt>
      <trkpt lat="45.99623" lon="4.82484">
        <ele>266.9</ele>
        <time>2018-04-18T09:45:32Z</time>
      </trkpt>
      <trkpt lat="45.99621" lon="4.82476">
        <ele>266.7</ele>
        <time>2018-04-18T09:45:33Z</time>
      </trkpt>
      <trkpt lat="45.99617" lon="4.82467">
        <ele>266.5</ele>
        <time>2018-04-18T09:45:34Z</time>
      </trkpt>
      <trkpt lat="45.99615" lon="4.82457">
        <ele>266.3</ele>
        <time>2018-04-18T09:45:35Z</time>
      </trkpt>
      <trkpt lat="45.99611" lon="4.82447">
        <ele>266</ele>
        <time>2018-04-18T09:45:36Z</time>
      </trkpt>
      <trkpt lat="45.99606" lon="4.82438">
        <ele>265.6</ele>
        <time>2018-04-18T09:45:37Z</time>
      </trkpt>
      <trkpt lat="45.99602" lon="4.82429">
        <ele>265.1</ele>
        <time>2018-04-18T09:45:38Z</time>
      </trkpt>
      <trkpt lat="45.99598" lon="4.82418">
        <ele>264.6</ele>
        <time>2018-04-18T09:45:39Z</time>
      </trkpt>
      <trkpt lat="45.99596" lon="4.82407">
        <ele>264.2</ele>
        <time>2018-04-18T09:45:40Z</time>
      </trkpt>
      <trkpt lat="45.99593" lon="4.82396">
        <ele>263.8</ele>
        <time>2018-04-18T09:45:41Z</time>
      </trkpt>
      <trkpt lat="45.99593" lon="4.82385">
        <ele>263.6</ele>
        <time>2018-04-18T09:45:42Z</time>
      </trkpt>
      <trkpt lat="45.99592" lon="4.82373">
        <ele>263.2</ele>
        <time>2018-04-18T09:45:43Z</time>
      </trkpt>
      <trkpt lat="45.99589" lon="4.8236">
        <ele>262.6</ele>
        <time>2018-04-18T09:45:44Z</time>
      </trkpt>
      <trkpt lat="45.99586" lon="4.82347">
        <ele>262.3</ele>
        <time>2018-04-18T09:45:45Z</time>
      </trkpt>
      <trkpt lat="45.99585" lon="4.82335">
        <ele>262.1</ele>
        <time>2018-04-18T09:45:46Z</time>
      </trkpt>
      <trkpt lat="45.9958" lon="4.82319">
        <ele>261.8</ele>
        <time>2018-04-18T09:45:47Z</time>
      </trkpt>
      <trkpt lat="45.9958" lon="4.8231">
        <ele>261.7</ele>
        <time>2018-04-18T09:45:48Z</time>
      </trkpt>
      <trkpt lat="45.99574" lon="4.82297">
        <ele>261.4</ele>
        <time>2018-04-18T09:45:49Z</time>
      </trkpt>
      <trkpt lat="45.99571" lon="4.82284">
        <ele>261.5</ele>
        <time>2018-04-18T09:45:50Z</time>
      </trkpt>
      <trkpt lat="45.99568" lon="4.82276">
        <ele>261.5</ele>
        <time>2018-04-18T09:45:51Z</time>
      </trkpt>
      <trkpt lat="45.99566" lon="4.82265">
        <ele>261.5</ele>
        <time>2018-04-18T09:45:52Z</time>
      </trkpt>
      <trkpt lat="45.99565" lon="4.82255">
        <ele>261.6</ele>
        <time>2018-04-18T09:45:53Z</time>
      </trkpt>
      <trkpt lat="45.99561" lon="4.82245">
        <ele>261.4</ele>
        <time>2018-04-18T09:45:54Z</time>
      </trkpt>
      <trkpt lat="45.99558" lon="4.82236">
        <ele>261.2</ele>
        <time>2018-04-18T09:45:55Z</time>
      </trkpt>
      <trkpt lat="45.99555" lon="4.82227">
        <ele>261</ele>
        <time>2018-04-18T09:45:56Z</time>
      </trkpt>
      <trkpt lat="45.99552" lon="4.82218">
        <ele>261.1</ele>
        <time>2018-04-18T09:45:57Z</time>
      </trkpt>
      <trkpt lat="45.9955" lon="4.8221">
        <ele>261.3</ele>
        <time>2018-04-18T09:45:58Z</time>
      </trkpt>
      <trkpt lat="45.99549" lon="4.82202">
        <ele>261.5</ele>
        <time>2018-04-18T09:45:59Z</time>
      </trkpt>
      <trkpt lat="45.99547" lon="4.82195">
        <ele>261.7</ele>
        <time>2018-04-18T09:46:00Z</time>
      </trkpt>
      <trkpt lat="45.99545" lon="4.82187">
        <ele>261.6</ele>
        <time>2018-04-18T09:46:01Z</time>
      </trkpt>
      <trkpt lat="45.99543" lon="4.82177">
        <ele>261.5</ele>
        <time>2018-04-18T09:46:02Z</time>
      </trkpt>
      <trkpt lat="45.99541" lon="4.8217">
        <ele>261.5</ele>
        <time>2018-04-18T09:46:03Z</time>
      </trkpt>
      <trkpt lat="45.9954" lon="4.82163">
        <ele>261.4</ele>
        <time>2018-04-18T09:46:04Z</time>
      </trkpt>
      <trkpt lat="45.99539" lon="4.82155">
        <ele>261.4</ele>
        <time>2018-04-18T09:46:05Z</time>
      </trkpt>
      <trkpt lat="45.99537" lon="4.82147">
        <ele>261.3</ele>
        <time>2018-04-18T09:46:06Z</time>
      </trkpt>
      <trkpt lat="45.99536" lon="4.82139">
        <ele>261.3</ele>
        <time>2018-04-18T09:46:07Z</time>
      </trkpt>
      <trkpt lat="45.99535" lon="4.82131">
        <ele>261.3</ele>
        <time>2018-04-18T09:46:08Z</time>
      </trkpt>
      <trkpt lat="45.99535" lon="4.82124">
        <ele>261.3</ele>
        <time>2018-04-18T09:46:09Z</time>
      </trkpt>
      <trkpt lat="45.99534" lon="4.82116">
        <ele>261.2</ele>
        <time>2018-04-18T09:46:10Z</time>
      </trkpt>
      <trkpt lat="45.99533" lon="4.82107">
        <ele>261.3</ele>
        <time>2018-04-18T09:46:11Z</time>
      </trkpt>
      <trkpt lat="45.99533" lon="4.82099">
        <ele>261.6</ele>
        <time>2018-04-18T09:46:12Z</time>
      </trkpt>
      <trkpt lat="45.99532" lon="4.8209">
        <ele>261.9</ele>
        <time>2018-04-18T09:46:13Z</time>
      </trkpt>
      <trkpt lat="45.99531" lon="4.8208">
        <ele>262</ele>
        <time>2018-04-18T09:46:14Z</time>
      </trkpt>
      <trkpt lat="45.99529" lon="4.82073">
        <ele>261.7</ele>
        <time>2018-04-18T09:46:15Z</time>
      </trkpt>
      <trkpt lat="45.99529" lon="4.82066">
        <ele>261.4</ele>
        <time>2018-04-18T09:46:16Z</time>
      </trkpt>
      <trkpt lat="45.99529" lon="4.82057">
        <ele>261.1</ele>
        <time>2018-04-18T09:46:17Z</time>
      </trkpt>
      <trkpt lat="45.99525" lon="4.82047">
        <ele>260.9</ele>
        <time>2018-04-18T09:46:18Z</time>
      </trkpt>
      <trkpt lat="45.99525" lon="4.82038">
        <ele>260.8</ele>
        <time>2018-04-18T09:46:19Z</time>
      </trkpt>
      <trkpt lat="45.99523" lon="4.82029">
        <ele>260.7</ele>
        <time>2018-04-18T09:46:20Z</time>
      </trkpt>
      <trkpt lat="45.99522" lon="4.8202">
        <ele>260.6</ele>
        <time>2018-04-18T09:46:21Z</time>
      </trkpt>
      <trkpt lat="45.99523" lon="4.8201">
        <ele>260.7</ele>
        <time>2018-04-18T09:46:22Z</time>
      </trkpt>
      <trkpt lat="45.99523" lon="4.82001">
        <ele>260.7</ele>
        <time>2018-04-18T09:46:23Z</time>
      </trkpt>
      <trkpt lat="45.99518" lon="4.81993">
        <ele>260.4</ele>
        <time>2018-04-18T09:46:24Z</time>
      </trkpt>
      <trkpt lat="45.99517" lon="4.81986">
        <ele>260.4</ele>
        <time>2018-04-18T09:46:25Z</time>
      </trkpt>
      <trkpt lat="45.99516" lon="4.81978">
        <ele>260.5</ele>
        <time>2018-04-18T09:46:26Z</time>
      </trkpt>
      <trkpt lat="45.99514" lon="4.81969">
        <ele>260.6</ele>
        <time>2018-04-18T09:46:27Z</time>
      </trkpt>
      <trkpt lat="45.99514" lon="4.81961">
        <ele>260.7</ele>
        <time>2018-04-18T09:46:28Z</time>
      </trkpt>
      <trkpt lat="45.99512" lon="4.81953">
        <ele>260.7</ele>
        <time>2018-04-18T09:46:29Z</time>
      </trkpt>
      <trkpt lat="45.99511" lon="4.81944">
        <ele>260.8</ele>
        <time>2018-04-18T09:46:30Z</time>
      </trkpt>
      <trkpt lat="45.9951" lon="4.81936">
        <ele>260.6</ele>
        <time>2018-04-18T09:46:31Z</time>
      </trkpt>
      <trkpt lat="45.9951" lon="4.81927">
        <ele>260.5</ele>
        <time>2018-04-18T09:46:32Z</time>
      </trkpt>
      <trkpt lat="45.99509" lon="4.81918">
        <ele>260.3</ele>
        <time>2018-04-18T09:46:33Z</time>
      </trkpt>
      <trkpt lat="45.99507" lon="4.81908">
        <ele>260.3</ele>
        <time>2018-04-18T09:46:34Z</time>
      </trkpt>
      <trkpt lat="45.99506" lon="4.819">
        <ele>260.2</ele>
        <time>2018-04-18T09:46:35Z</time>
      </trkpt>
      <trkpt lat="45.99505" lon="4.81891">
        <ele>260.2</ele>
        <time>2018-04-18T09:46:36Z</time>
      </trkpt>
      <trkpt lat="45.99504" lon="4.81881">
        <ele>260.2</ele>
        <time>2018-04-18T09:46:37Z</time>
      </trkpt>
      <trkpt lat="45.99502" lon="4.81874">
        <ele>260.2</ele>
        <time>2018-04-18T09:46:38Z</time>
      </trkpt>
      <trkpt lat="45.99502" lon="4.81865">
        <ele>260.2</ele>
        <time>2018-04-18T09:46:39Z</time>
      </trkpt>
      <trkpt lat="45.995" lon="4.81855">
        <ele>260</ele>
        <time>2018-04-18T09:46:40Z</time>
      </trkpt>
      <trkpt lat="45.995" lon="4.81847">
        <ele>260</ele>
        <time>2018-04-18T09:46:41Z</time>
      </trkpt>
      <trkpt lat="45.995" lon="4.81839">
        <ele>260</ele>
        <time>2018-04-18T09:46:42Z</time>
      </trkpt>
      <trkpt lat="45.99497" lon="4.81829">
        <ele>259.8</ele>
        <time>2018-04-18T09:46:43Z</time>
      </trkpt>
      <trkpt lat="45.99496" lon="4.81823">
        <ele>259.8</ele>
        <time>2018-04-18T09:46:44Z</time>
      </trkpt>
      <trkpt lat="45.99496" lon="4.81818">
        <ele>259.8</ele>
        <time>2018-04-18T09:46:46Z</time>
      </trkpt>
      <trkpt lat="45.99495" lon="4.81809">
        <ele>259.8</ele>
        <time>2018-04-18T09:46:47Z</time>
      </trkpt>
      <trkpt lat="45.99494" lon="4.81804">
        <ele>259.7</ele>
        <time>2018-04-18T09:46:49Z</time>
      </trkpt>
      <trkpt lat="45.9949" lon="4.8179">
        <ele>259.3</ele>
        <time>2018-04-18T09:46:50Z</time>
      </trkpt>
      <trkpt lat="45.99491" lon="4.81783">
        <ele>259.1</ele>
        <time>2018-04-18T09:46:51Z</time>
      </trkpt>
      <trkpt lat="45.9949" lon="4.81776">
        <ele>259</ele>
        <time>2018-04-18T09:46:52Z</time>
      </trkpt>
      <trkpt lat="45.99491" lon="4.81768">
        <ele>259.1</ele>
        <time>2018-04-18T09:46:53Z</time>
      </trkpt>
      <trkpt lat="45.99488" lon="4.81758">
        <ele>259.3</ele>
        <time>2018-04-18T09:46:54Z</time>
      </trkpt>
      <trkpt lat="45.99488" lon="4.81751">
        <ele>259.4</ele>
        <time>2018-04-18T09:46:55Z</time>
      </trkpt>
      <trkpt lat="45.99488" lon="4.81743">
        <ele>259.3</ele>
        <time>2018-04-18T09:46:56Z</time>
      </trkpt>
      <trkpt lat="45.99485" lon="4.81733">
        <ele>259.2</ele>
        <time>2018-04-18T09:46:57Z</time>
      </trkpt>
      <trkpt lat="45.99483" lon="4.81724">
        <ele>259</ele>
        <time>2018-04-18T09:46:58Z</time>
      </trkpt>
      <trkpt lat="45.99485" lon="4.81715">
        <ele>258.9</ele>
        <time>2018-04-18T09:46:59Z</time>
      </trkpt>
      <trkpt lat="45.99484" lon="4.81706">
        <ele>258.7</ele>
        <time>2018-04-18T09:47:00Z</time>
      </trkpt>
      <trkpt lat="45.99482" lon="4.81696">
        <ele>258.4</ele>
        <time>2018-04-18T09:47:01Z</time>
      </trkpt>
      <trkpt lat="45.99481" lon="4.81686">
        <ele>258.2</ele>
        <time>2018-04-18T09:47:02Z</time>
      </trkpt>
      <trkpt lat="45.9948" lon="4.81677">
        <ele>258.1</ele>
        <time>2018-04-18T09:47:03Z</time>
      </trkpt>
      <trkpt lat="45.99478" lon="4.81667">
        <ele>258</ele>
        <time>2018-04-18T09:47:04Z</time>
      </trkpt>
      <trkpt lat="45.99477" lon="4.81657">
        <ele>257.7</ele>
        <time>2018-04-18T09:47:05Z</time>
      </trkpt>
      <trkpt lat="45.99474" lon="4.81647">
        <ele>257.3</ele>
        <time>2018-04-18T09:47:06Z</time>
      </trkpt>
      <trkpt lat="45.99473" lon="4.81638">
        <ele>257</ele>
        <time>2018-04-18T09:47:07Z</time>
      </trkpt>
      <trkpt lat="45.99473" lon="4.8163">
        <ele>257</ele>
        <time>2018-04-18T09:47:08Z</time>
      </trkpt>
      <trkpt lat="45.99473" lon="4.8162">
        <ele>257</ele>
        <time>2018-04-18T09:47:09Z</time>
      </trkpt>
      <trkpt lat="45.99472" lon="4.81612">
        <ele>257</ele>
        <time>2018-04-18T09:47:10Z</time>
      </trkpt>
      <trkpt lat="45.9947" lon="4.81603">
        <ele>256.8</ele>
        <time>2018-04-18T09:47:11Z</time>
      </trkpt>
      <trkpt lat="45.99468" lon="4.81593">
        <ele>256.5</ele>
        <time>2018-04-18T09:47:12Z</time>
      </trkpt>
      <trkpt lat="45.99466" lon="4.81585">
        <ele>256.3</ele>
        <time>2018-04-18T09:47:13Z</time>
      </trkpt>
      <trkpt lat="45.99466" lon="4.81578">
        <ele>256.2</ele>
        <time>2018-04-18T09:47:14Z</time>
      </trkpt>
      <trkpt lat="45.99465" lon="4.81568">
        <ele>256.3</ele>
        <time>2018-04-18T09:47:15Z</time>
      </trkpt>
      <trkpt lat="45.99463" lon="4.8156">
        <ele>256.3</ele>
        <time>2018-04-18T09:47:16Z</time>
      </trkpt>
      <trkpt lat="45.99462" lon="4.81551">
        <ele>256.2</ele>
        <time>2018-04-18T09:47:17Z</time>
      </trkpt>
      <trkpt lat="45.99461" lon="4.81542">
        <ele>255.9</ele>
        <time>2018-04-18T09:47:18Z</time>
      </trkpt>
      <trkpt lat="45.99459" lon="4.81535">
        <ele>255.7</ele>
        <time>2018-04-18T09:47:19Z</time>
      </trkpt>
      <trkpt lat="45.99458" lon="4.81524">
        <ele>255.5</ele>
        <time>2018-04-18T09:47:20Z</time>
      </trkpt>
      <trkpt lat="45.99455" lon="4.81515">
        <ele>255.3</ele>
        <time>2018-04-18T09:47:21Z</time>
      </trkpt>
      <trkpt lat="45.99454" lon="4.81507">
        <ele>255.2</ele>
        <time>2018-04-18T09:47:22Z</time>
      </trkpt>
      <trkpt lat="45.99453" lon="4.81498">
        <ele>255</ele>
        <time>2018-04-18T09:47:23Z</time>
      </trkpt>
      <trkpt lat="45.99451" lon="4.81489">
        <ele>255</ele>
        <time>2018-04-18T09:47:24Z</time>
      </trkpt>
      <trkpt lat="45.99448" lon="4.81477">
        <ele>255</ele>
        <time>2018-04-18T09:47:25Z</time>
      </trkpt>
      <trkpt lat="45.99447" lon="4.81466">
        <ele>254.8</ele>
        <time>2018-04-18T09:47:26Z</time>
      </trkpt>
      <trkpt lat="45.99446" lon="4.81457">
        <ele>254.4</ele>
        <time>2018-04-18T09:47:27Z</time>
      </trkpt>
      <trkpt lat="45.99444" lon="4.81447">
        <ele>254.1</ele>
        <time>2018-04-18T09:47:28Z</time>
      </trkpt>
      <trkpt lat="45.99444" lon="4.81439">
        <ele>254</ele>
        <time>2018-04-18T09:47:29Z</time>
      </trkpt>
      <trkpt lat="45.99442" lon="4.81428">
        <ele>254.1</ele>
        <time>2018-04-18T09:47:30Z</time>
      </trkpt>
      <trkpt lat="45.99441" lon="4.81419">
        <ele>254.1</ele>
        <time>2018-04-18T09:47:31Z</time>
      </trkpt>
      <trkpt lat="45.99439" lon="4.8141">
        <ele>254.1</ele>
        <time>2018-04-18T09:47:32Z</time>
      </trkpt>
      <trkpt lat="45.99439" lon="4.814">
        <ele>254.1</ele>
        <time>2018-04-18T09:47:33Z</time>
      </trkpt>
      <trkpt lat="45.99437" lon="4.81392">
        <ele>254</ele>
        <time>2018-04-18T09:47:34Z</time>
      </trkpt>
      <trkpt lat="45.99437" lon="4.81382">
        <ele>254</ele>
        <time>2018-04-18T09:47:35Z</time>
      </trkpt>
      <trkpt lat="45.99435" lon="4.81373">
        <ele>254</ele>
        <time>2018-04-18T09:47:36Z</time>
      </trkpt>
      <trkpt lat="45.99433" lon="4.81364">
        <ele>254</ele>
        <time>2018-04-18T09:47:37Z</time>
      </trkpt>
      <trkpt lat="45.99434" lon="4.81353">
        <ele>253.7</ele>
        <time>2018-04-18T09:47:38Z</time>
      </trkpt>
      <trkpt lat="45.99433" lon="4.81344">
        <ele>253.4</ele>
        <time>2018-04-18T09:47:39Z</time>
      </trkpt>
      <trkpt lat="45.99432" lon="4.81334">
        <ele>253</ele>
        <time>2018-04-18T09:47:40Z</time>
      </trkpt>
      <trkpt lat="45.9943" lon="4.81323">
        <ele>253</ele>
        <time>2018-04-18T09:47:41Z</time>
      </trkpt>
      <trkpt lat="45.9943" lon="4.81312">
        <ele>253</ele>
        <time>2018-04-18T09:47:42Z</time>
      </trkpt>
      <trkpt lat="45.99429" lon="4.81303">
        <ele>253</ele>
        <time>2018-04-18T09:47:43Z</time>
      </trkpt>
      <trkpt lat="45.99428" lon="4.81292">
        <ele>253</ele>
        <time>2018-04-18T09:47:44Z</time>
      </trkpt>
      <trkpt lat="45.99427" lon="4.81282">
        <ele>253</ele>
        <time>2018-04-18T09:47:45Z</time>
      </trkpt>
      <trkpt lat="45.99425" lon="4.81272">
        <ele>253</ele>
        <time>2018-04-18T09:47:46Z</time>
      </trkpt>
      <trkpt lat="45.99423" lon="4.81263">
        <ele>253</ele>
        <time>2018-04-18T09:47:47Z</time>
      </trkpt>
      <trkpt lat="45.99421" lon="4.81253">
        <ele>253</ele>
        <time>2018-04-18T09:47:48Z</time>
      </trkpt>
      <trkpt lat="45.9942" lon="4.81245">
        <ele>252.8</ele>
        <time>2018-04-18T09:47:49Z</time>
      </trkpt>
      <trkpt lat="45.99418" lon="4.81235">
        <ele>252.5</ele>
        <time>2018-04-18T09:47:50Z</time>
      </trkpt>
      <trkpt lat="45.99416" lon="4.81225">
        <ele>252.1</ele>
        <time>2018-04-18T09:47:51Z</time>
      </trkpt>
      <trkpt lat="45.99414" lon="4.81216">
        <ele>252</ele>
        <time>2018-04-18T09:47:52Z</time>
      </trkpt>
      <trkpt lat="45.99412" lon="4.81206">
        <ele>252</ele>
        <time>2018-04-18T09:47:53Z</time>
      </trkpt>
      <trkpt lat="45.99411" lon="4.81197">
        <ele>252</ele>
        <time>2018-04-18T09:47:54Z</time>
      </trkpt>
      <trkpt lat="45.99411" lon="4.81189">
        <ele>251.8</ele>
        <time>2018-04-18T09:47:55Z</time>
      </trkpt>
      <trkpt lat="45.99411" lon="4.8118">
        <ele>251.6</ele>
        <time>2018-04-18T09:47:56Z</time>
      </trkpt>
      <trkpt lat="45.9941" lon="4.81173">
        <ele>251.4</ele>
        <time>2018-04-18T09:47:57Z</time>
      </trkpt>
      <trkpt lat="45.99409" lon="4.81165">
        <ele>251.3</ele>
        <time>2018-04-18T09:47:58Z</time>
      </trkpt>
      <trkpt lat="45.99408" lon="4.81157">
        <ele>251.3</ele>
        <time>2018-04-18T09:47:59Z</time>
      </trkpt>
      <trkpt lat="45.99407" lon="4.81147">
        <ele>251.4</ele>
        <time>2018-04-18T09:48:00Z</time>
      </trkpt>
      <trkpt lat="45.99405" lon="4.81139">
        <ele>251.4</ele>
        <time>2018-04-18T09:48:01Z</time>
      </trkpt>
      <trkpt lat="45.99404" lon="4.8113">
        <ele>251.5</ele>
        <time>2018-04-18T09:48:02Z</time>
      </trkpt>
      <trkpt lat="45.99404" lon="4.81121">
        <ele>251.5</ele>
        <time>2018-04-18T09:48:03Z</time>
      </trkpt>
      <trkpt lat="45.99402" lon="4.81111">
        <ele>251.5</ele>
        <time>2018-04-18T09:48:04Z</time>
      </trkpt>
      <trkpt lat="45.99402" lon="4.81104">
        <ele>251.4</ele>
        <time>2018-04-18T09:48:05Z</time>
      </trkpt>
      <trkpt lat="45.994" lon="4.81094">
        <ele>251.2</ele>
        <time>2018-04-18T09:48:06Z</time>
      </trkpt>
      <trkpt lat="45.99399" lon="4.81086">
        <ele>251.1</ele>
        <time>2018-04-18T09:48:07Z</time>
      </trkpt>
      <trkpt lat="45.99398" lon="4.81077">
        <ele>251.2</ele>
        <time>2018-04-18T09:48:08Z</time>
      </trkpt>
      <trkpt lat="45.99396" lon="4.81069">
        <ele>251.4</ele>
        <time>2018-04-18T09:48:09Z</time>
      </trkpt>
      <trkpt lat="45.99395" lon="4.81061">
        <ele>251.6</ele>
        <time>2018-04-18T09:48:10Z</time>
      </trkpt>
      <trkpt lat="45.99393" lon="4.81053">
        <ele>251.8</ele>
        <time>2018-04-18T09:48:11Z</time>
      </trkpt>
      <trkpt lat="45.99392" lon="4.81044">
        <ele>251.9</ele>
        <time>2018-04-18T09:48:12Z</time>
      </trkpt>
      <trkpt lat="45.9939" lon="4.81035">
        <ele>251.9</ele>
        <time>2018-04-18T09:48:13Z</time>
      </trkpt>
      <trkpt lat="45.99389" lon="4.81027">
        <ele>252</ele>
        <time>2018-04-18T09:48:14Z</time>
      </trkpt>
      <trkpt lat="45.99387" lon="4.81019">
        <ele>251.7</ele>
        <time>2018-04-18T09:48:15Z</time>
      </trkpt>
      <trkpt lat="45.99385" lon="4.81009">
        <ele>251.4</ele>
        <time>2018-04-18T09:48:16Z</time>
      </trkpt>
      <trkpt lat="45.99384" lon="4.81">
        <ele>251.2</ele>
        <time>2018-04-18T09:48:17Z</time>
      </trkpt>
      <trkpt lat="45.99383" lon="4.80991">
        <ele>251.2</ele>
        <time>2018-04-18T09:48:18Z</time>
      </trkpt>
      <trkpt lat="45.99382" lon="4.80984">
        <ele>251.2</ele>
        <time>2018-04-18T09:48:19Z</time>
      </trkpt>
      <trkpt lat="45.99382" lon="4.80975">
        <ele>251.2</ele>
        <time>2018-04-18T09:48:20Z</time>
      </trkpt>
      <trkpt lat="45.9938" lon="4.80967">
        <ele>251.2</ele>
        <time>2018-04-18T09:48:21Z</time>
      </trkpt>
      <trkpt lat="45.99379" lon="4.80958">
        <ele>251</ele>
        <time>2018-04-18T09:48:22Z</time>
      </trkpt>
      <trkpt lat="45.99377" lon="4.80948">
        <ele>250.9</ele>
        <time>2018-04-18T09:48:23Z</time>
      </trkpt>
      <trkpt lat="45.99375" lon="4.8094">
        <ele>251</ele>
        <time>2018-04-18T09:48:24Z</time>
      </trkpt>
      <trkpt lat="45.99374" lon="4.8093">
        <ele>251.1</ele>
        <time>2018-04-18T09:48:25Z</time>
      </trkpt>
      <trkpt lat="45.99373" lon="4.80922">
        <ele>251.2</ele>
        <time>2018-04-18T09:48:26Z</time>
      </trkpt>
      <trkpt lat="45.99373" lon="4.80914">
        <ele>251.1</ele>
        <time>2018-04-18T09:48:27Z</time>
      </trkpt>
      <trkpt lat="45.99372" lon="4.80906">
        <ele>250.8</ele>
        <time>2018-04-18T09:48:28Z</time>
      </trkpt>
      <trkpt lat="45.99371" lon="4.80895">
        <ele>250.3</ele>
        <time>2018-04-18T09:48:29Z</time>
      </trkpt>
      <trkpt lat="45.9937" lon="4.80886">
        <ele>249.9</ele>
        <time>2018-04-18T09:48:30Z</time>
      </trkpt>
      <trkpt lat="45.99368" lon="4.80876">
        <ele>249.4</ele>
        <time>2018-04-18T09:48:31Z</time>
      </trkpt>
      <trkpt lat="45.99366" lon="4.80864">
        <ele>249</ele>
        <time>2018-04-18T09:48:32Z</time>
      </trkpt>
      <trkpt lat="45.99365" lon="4.80853">
        <ele>248.6</ele>
        <time>2018-04-18T09:48:33Z</time>
      </trkpt>
      <trkpt lat="45.99364" lon="4.80841">
        <ele>248.2</ele>
        <time>2018-04-18T09:48:34Z</time>
      </trkpt>
      <trkpt lat="45.99364" lon="4.80831">
        <ele>247.8</ele>
        <time>2018-04-18T09:48:35Z</time>
      </trkpt>
      <trkpt lat="45.99362" lon="4.80819">
        <ele>247.5</ele>
        <time>2018-04-18T09:48:36Z</time>
      </trkpt>
      <trkpt lat="45.99361" lon="4.80808">
        <ele>247.1</ele>
        <time>2018-04-18T09:48:37Z</time>
      </trkpt>
      <trkpt lat="45.99359" lon="4.80796">
        <ele>246.7</ele>
        <time>2018-04-18T09:48:38Z</time>
      </trkpt>
      <trkpt lat="45.99357" lon="4.80784">
        <ele>246.4</ele>
        <time>2018-04-18T09:48:39Z</time>
      </trkpt>
      <trkpt lat="45.99356" lon="4.80773">
        <ele>246</ele>
        <time>2018-04-18T09:48:40Z</time>
      </trkpt>
      <trkpt lat="45.99355" lon="4.80763">
        <ele>245.6</ele>
        <time>2018-04-18T09:48:41Z</time>
      </trkpt>
      <trkpt lat="45.99353" lon="4.80751">
        <ele>245.1</ele>
        <time>2018-04-18T09:48:42Z</time>
      </trkpt>
      <trkpt lat="45.99353" lon="4.8074">
        <ele>244.8</ele>
        <time>2018-04-18T09:48:43Z</time>
      </trkpt>
      <trkpt lat="45.99351" lon="4.80729">
        <ele>244.5</ele>
        <time>2018-04-18T09:48:44Z</time>
      </trkpt>
      <trkpt lat="45.99347" lon="4.80716">
        <ele>244.5</ele>
        <time>2018-04-18T09:48:45Z</time>
      </trkpt>
      <trkpt lat="45.99346" lon="4.80705">
        <ele>244.6</ele>
        <time>2018-04-18T09:48:46Z</time>
      </trkpt>
      <trkpt lat="45.99343" lon="4.80693">
        <ele>244.6</ele>
        <time>2018-04-18T09:48:47Z</time>
      </trkpt>
      <trkpt lat="45.99342" lon="4.80683">
        <ele>244.4</ele>
        <time>2018-04-18T09:48:48Z</time>
      </trkpt>
      <trkpt lat="45.9934" lon="4.80672">
        <ele>244.1</ele>
        <time>2018-04-18T09:48:49Z</time>
      </trkpt>
      <trkpt lat="45.99338" lon="4.8066">
        <ele>244</ele>
        <time>2018-04-18T09:48:50Z</time>
      </trkpt>
      <trkpt lat="45.99337" lon="4.8065">
        <ele>244</ele>
        <time>2018-04-18T09:48:51Z</time>
      </trkpt>
      <trkpt lat="45.99337" lon="4.80639">
        <ele>244</ele>
        <time>2018-04-18T09:48:52Z</time>
      </trkpt>
      <trkpt lat="45.99335" lon="4.80628">
        <ele>244</ele>
        <time>2018-04-18T09:48:53Z</time>
      </trkpt>
      <trkpt lat="45.99334" lon="4.80618">
        <ele>244</ele>
        <time>2018-04-18T09:48:54Z</time>
      </trkpt>
      <trkpt lat="45.99334" lon="4.80607">
        <ele>243.9</ele>
        <time>2018-04-18T09:48:55Z</time>
      </trkpt>
      <trkpt lat="45.99333" lon="4.80596">
        <ele>243.5</ele>
        <time>2018-04-18T09:48:56Z</time>
      </trkpt>
      <trkpt lat="45.9933" lon="4.80588">
        <ele>243.2</ele>
        <time>2018-04-18T09:48:57Z</time>
      </trkpt>
      <trkpt lat="45.99329" lon="4.80578">
        <ele>243</ele>
        <time>2018-04-18T09:48:58Z</time>
      </trkpt>
      <trkpt lat="45.99328" lon="4.80568">
        <ele>243</ele>
        <time>2018-04-18T09:48:59Z</time>
      </trkpt>
      <trkpt lat="45.99327" lon="4.80557">
        <ele>243</ele>
        <time>2018-04-18T09:49:00Z</time>
      </trkpt>
      <trkpt lat="45.99327" lon="4.80547">
        <ele>243</ele>
        <time>2018-04-18T09:49:01Z</time>
      </trkpt>
      <trkpt lat="45.99325" lon="4.80537">
        <ele>243</ele>
        <time>2018-04-18T09:49:02Z</time>
      </trkpt>
      <trkpt lat="45.99323" lon="4.80527">
        <ele>243</ele>
        <time>2018-04-18T09:49:03Z</time>
      </trkpt>
      <trkpt lat="45.99322" lon="4.80517">
        <ele>243</ele>
        <time>2018-04-18T09:49:04Z</time>
      </trkpt>
      <trkpt lat="45.9932" lon="4.80507">
        <ele>243</ele>
        <time>2018-04-18T09:49:05Z</time>
      </trkpt>
      <trkpt lat="45.99319" lon="4.80497">
        <ele>243</ele>
        <time>2018-04-18T09:49:06Z</time>
      </trkpt>
      <trkpt lat="45.99317" lon="4.80489">
        <ele>243</ele>
        <time>2018-04-18T09:49:07Z</time>
      </trkpt>
      <trkpt lat="45.99317" lon="4.80481">
        <ele>243</ele>
        <time>2018-04-18T09:49:08Z</time>
      </trkpt>
      <trkpt lat="45.99316" lon="4.80472">
        <ele>243</ele>
        <time>2018-04-18T09:49:09Z</time>
      </trkpt>
      <trkpt lat="45.99316" lon="4.80464">
        <ele>243</ele>
        <time>2018-04-18T09:49:10Z</time>
      </trkpt>
      <trkpt lat="45.99316" lon="4.80455">
        <ele>243</ele>
        <time>2018-04-18T09:49:11Z</time>
      </trkpt>
      <trkpt lat="45.99316" lon="4.80448">
        <ele>243</ele>
        <time>2018-04-18T09:49:12Z</time>
      </trkpt>
      <trkpt lat="45.99316" lon="4.80439">
        <ele>243.2</ele>
        <time>2018-04-18T09:49:13Z</time>
      </trkpt>
      <trkpt lat="45.99318" lon="4.80432">
        <ele>243.5</ele>
        <time>2018-04-18T09:49:14Z</time>
      </trkpt>
      <trkpt lat="45.99318" lon="4.80425">
        <ele>243.7</ele>
        <time>2018-04-18T09:49:15Z</time>
      </trkpt>
      <trkpt lat="45.9932" lon="4.80417">
        <ele>244</ele>
        <time>2018-04-18T09:49:16Z</time>
      </trkpt>
      <trkpt lat="45.9932" lon="4.8041">
        <ele>244</ele>
        <time>2018-04-18T09:49:17Z</time>
      </trkpt>
      <trkpt lat="45.9932" lon="4.80403">
        <ele>244</ele>
        <time>2018-04-18T09:49:18Z</time>
      </trkpt>
      <trkpt lat="45.99318" lon="4.80396">
        <ele>244</ele>
        <time>2018-04-18T09:49:19Z</time>
      </trkpt>
      <trkpt lat="45.99315" lon="4.8039">
        <ele>244</ele>
        <time>2018-04-18T09:49:20Z</time>
      </trkpt>
      <trkpt lat="45.99311" lon="4.80387">
        <ele>244</ele>
        <time>2018-04-18T09:49:21Z</time>
      </trkpt>
      <trkpt lat="45.99306" lon="4.80384">
        <ele>244</ele>
        <time>2018-04-18T09:49:22Z</time>
      </trkpt>
      <trkpt lat="45.993" lon="4.80384">
        <ele>243.8</ele>
        <time>2018-04-18T09:49:23Z</time>
      </trkpt>
      <trkpt lat="45.99295" lon="4.80386">
        <ele>243.6</ele>
        <time>2018-04-18T09:49:24Z</time>
      </trkpt>
      <trkpt lat="45.9929" lon="4.80386">
        <ele>243.4</ele>
        <time>2018-04-18T09:49:25Z</time>
      </trkpt>
      <trkpt lat="45.99282" lon="4.80386">
        <ele>243.2</ele>
        <time>2018-04-18T09:49:26Z</time>
      </trkpt>
      <trkpt lat="45.99277" lon="4.80383">
        <ele>243</ele>
        <time>2018-04-18T09:49:27Z</time>
      </trkpt>
      <trkpt lat="45.9927" lon="4.80379">
        <ele>242.8</ele>
        <time>2018-04-18T09:49:28Z</time>
      </trkpt>
      <trkpt lat="45.99265" lon="4.80375">
        <ele>242.8</ele>
        <time>2018-04-18T09:49:29Z</time>
      </trkpt>
      <trkpt lat="45.99259" lon="4.8037">
        <ele>242.8</ele>
        <time>2018-04-18T09:49:30Z</time>
      </trkpt>
      <trkpt lat="45.99255" lon="4.80364">
        <ele>242.9</ele>
        <time>2018-04-18T09:49:31Z</time>
      </trkpt>
      <trkpt lat="45.99251" lon="4.80359">
        <ele>243</ele>
        <time>2018-04-18T09:49:32Z</time>
      </trkpt>
      <trkpt lat="45.99247" lon="4.80352">
        <ele>242.9</ele>
        <time>2018-04-18T09:49:33Z</time>
      </trkpt>
      <trkpt lat="45.99244" lon="4.80347">
        <ele>242.8</ele>
        <time>2018-04-18T09:49:34Z</time>
      </trkpt>
      <trkpt lat="45.9924" lon="4.80339">
        <ele>242.6</ele>
        <time>2018-04-18T09:49:35Z</time>
      </trkpt>
      <trkpt lat="45.99236" lon="4.80332">
        <ele>242.5</ele>
        <time>2018-04-18T09:49:36Z</time>
      </trkpt>
      <trkpt lat="45.99232" lon="4.80324">
        <ele>242.6</ele>
        <time>2018-04-18T09:49:37Z</time>
      </trkpt>
      <trkpt lat="45.99229" lon="4.80316">
        <ele>242.7</ele>
        <time>2018-04-18T09:49:38Z</time>
      </trkpt>
      <trkpt lat="45.99226" lon="4.80309">
        <ele>242.9</ele>
        <time>2018-04-18T09:49:39Z</time>
      </trkpt>
      <trkpt lat="45.99222" lon="4.80303">
        <ele>243</ele>
        <time>2018-04-18T09:49:40Z</time>
      </trkpt>
      <trkpt lat="45.99218" lon="4.80296">
        <ele>242.9</ele>
        <time>2018-04-18T09:49:41Z</time>
      </trkpt>
      <trkpt lat="45.99213" lon="4.80291">
        <ele>242.8</ele>
        <time>2018-04-18T09:49:42Z</time>
      </trkpt>
      <trkpt lat="45.99209" lon="4.80285">
        <ele>242.9</ele>
        <time>2018-04-18T09:49:43Z</time>
      </trkpt>
      <trkpt lat="45.99206" lon="4.80278">
        <ele>243</ele>
        <time>2018-04-18T09:49:44Z</time>
      </trkpt>
      <trkpt lat="45.99202" lon="4.80273">
        <ele>243</ele>
        <time>2018-04-18T09:49:45Z</time>
      </trkpt>
      <trkpt lat="45.99198" lon="4.80268">
        <ele>243</ele>
        <time>2018-04-18T09:49:46Z</time>
      </trkpt>
      <trkpt lat="45.99193" lon="4.80262">
        <ele>243</ele>
        <time>2018-04-18T09:49:47Z</time>
      </trkpt>
      <trkpt lat="45.99189" lon="4.80256">
        <ele>242.8</ele>
        <time>2018-04-18T09:49:48Z</time>
      </trkpt>
      <trkpt lat="45.99183" lon="4.8025">
        <ele>242.6</ele>
        <time>2018-04-18T09:49:49Z</time>
      </trkpt>
      <trkpt lat="45.99179" lon="4.80248">
        <ele>242.5</ele>
        <time>2018-04-18T09:49:50Z</time>
      </trkpt>
      <trkpt lat="45.99174" lon="4.80242">
        <ele>242.5</ele>
        <time>2018-04-18T09:49:51Z</time>
      </trkpt>
      <trkpt lat="45.9917" lon="4.80239">
        <ele>242.5</ele>
        <time>2018-04-18T09:49:52Z</time>
      </trkpt>
      <trkpt lat="45.99165" lon="4.80233">
        <ele>242.6</ele>
        <time>2018-04-18T09:49:53Z</time>
      </trkpt>
      <trkpt lat="45.9916" lon="4.80228">
        <ele>242.6</ele>
        <time>2018-04-18T09:49:54Z</time>
      </trkpt>
      <trkpt lat="45.99155" lon="4.80222">
        <ele>242.6</ele>
        <time>2018-04-18T09:49:55Z</time>
      </trkpt>
      <trkpt lat="45.9915" lon="4.80216">
        <ele>242.5</ele>
        <time>2018-04-18T09:49:56Z</time>
      </trkpt>
      <trkpt lat="45.99146" lon="4.80212">
        <ele>242.5</ele>
        <time>2018-04-18T09:49:57Z</time>
      </trkpt>
      <trkpt lat="45.99142" lon="4.80206">
        <ele>242.6</ele>
        <time>2018-04-18T09:49:58Z</time>
      </trkpt>
      <trkpt lat="45.99137" lon="4.80201">
        <ele>242.7</ele>
        <time>2018-04-18T09:49:59Z</time>
      </trkpt>
      <trkpt lat="45.99131" lon="4.80194">
        <ele>242.7</ele>
        <time>2018-04-18T09:50:00Z</time>
      </trkpt>
      <trkpt lat="45.99126" lon="4.80189">
        <ele>242.6</ele>
        <time>2018-04-18T09:50:01Z</time>
      </trkpt>
      <trkpt lat="45.99122" lon="4.80183">
        <ele>242.6</ele>
        <time>2018-04-18T09:50:02Z</time>
      </trkpt>
      <trkpt lat="45.99118" lon="4.80178">
        <ele>242.7</ele>
        <time>2018-04-18T09:50:03Z</time>
      </trkpt>
      <trkpt lat="45.99114" lon="4.80173">
        <ele>242.8</ele>
        <time>2018-04-18T09:50:04Z</time>
      </trkpt>
      <trkpt lat="45.99109" lon="4.80167">
        <ele>242.9</ele>
        <time>2018-04-18T09:50:05Z</time>
      </trkpt>
      <trkpt lat="45.99105" lon="4.80163">
        <ele>242.8</ele>
        <time>2018-04-18T09:50:06Z</time>
      </trkpt>
      <trkpt lat="45.991" lon="4.80157">
        <ele>242.7</ele>
        <time>2018-04-18T09:50:07Z</time>
      </trkpt>
      <trkpt lat="45.99095" lon="4.80151">
        <ele>242.8</ele>
        <time>2018-04-18T09:50:08Z</time>
      </trkpt>
      <trkpt lat="45.9909" lon="4.80149">
        <ele>242.7</ele>
        <time>2018-04-18T09:50:09Z</time>
      </trkpt>
      <trkpt lat="45.99086" lon="4.80143">
        <ele>242.9</ele>
        <time>2018-04-18T09:50:10Z</time>
      </trkpt>
      <trkpt lat="45.99082" lon="4.80138">
        <ele>243</ele>
        <time>2018-04-18T09:50:11Z</time>
      </trkpt>
      <trkpt lat="45.99077" lon="4.80132">
        <ele>242.9</ele>
        <time>2018-04-18T09:50:12Z</time>
      </trkpt>
      <trkpt lat="45.99074" lon="4.80127">
        <ele>243</ele>
        <time>2018-04-18T09:50:13Z</time>
      </trkpt>
      <trkpt lat="45.99068" lon="4.80121">
        <ele>243.2</ele>
        <time>2018-04-18T09:50:14Z</time>
      </trkpt>
      <trkpt lat="45.99063" lon="4.80116">
        <ele>243.5</ele>
        <time>2018-04-18T09:50:15Z</time>
      </trkpt>
      <trkpt lat="45.99059" lon="4.80111">
        <ele>243.9</ele>
        <time>2018-04-18T09:50:16Z</time>
      </trkpt>
      <trkpt lat="45.99054" lon="4.80105">
        <ele>243.9</ele>
        <time>2018-04-18T09:50:17Z</time>
      </trkpt>
      <trkpt lat="45.99049" lon="4.80099">
        <ele>243.7</ele>
        <time>2018-04-18T09:50:18Z</time>
      </trkpt>
      <trkpt lat="45.99045" lon="4.80094">
        <ele>243.7</ele>
        <time>2018-04-18T09:50:19Z</time>
      </trkpt>
      <trkpt lat="45.9904" lon="4.80088">
        <ele>243.8</ele>
        <time>2018-04-18T09:50:20Z</time>
      </trkpt>
      <trkpt lat="45.99035" lon="4.80081">
        <ele>244</ele>
        <time>2018-04-18T09:50:21Z</time>
      </trkpt>
      <trkpt lat="45.9903" lon="4.80076">
        <ele>244</ele>
        <time>2018-04-18T09:50:22Z</time>
      </trkpt>
      <trkpt lat="45.99025" lon="4.80069">
        <ele>243.9</ele>
        <time>2018-04-18T09:50:23Z</time>
      </trkpt>
      <trkpt lat="45.9902" lon="4.80066">
        <ele>243.6</ele>
        <time>2018-04-18T09:50:24Z</time>
      </trkpt>
      <trkpt lat="45.99014" lon="4.80063">
        <ele>243.4</ele>
        <time>2018-04-18T09:50:25Z</time>
      </trkpt>
      <trkpt lat="45.99009" lon="4.80058">
        <ele>243.3</ele>
        <time>2018-04-18T09:50:26Z</time>
      </trkpt>
      <trkpt lat="45.99004" lon="4.80052">
        <ele>243.4</ele>
        <time>2018-04-18T09:50:27Z</time>
      </trkpt>
      <trkpt lat="45.99" lon="4.80046">
        <ele>243.6</ele>
        <time>2018-04-18T09:50:28Z</time>
      </trkpt>
      <trkpt lat="45.98995" lon="4.80043">
        <ele>243.6</ele>
        <time>2018-04-18T09:50:29Z</time>
      </trkpt>
      <trkpt lat="45.9899" lon="4.80038">
        <ele>243.7</ele>
        <time>2018-04-18T09:50:30Z</time>
      </trkpt>
      <trkpt lat="45.98986" lon="4.80032">
        <ele>243.7</ele>
        <time>2018-04-18T09:50:31Z</time>
      </trkpt>
      <trkpt lat="45.98982" lon="4.80027">
        <ele>243.7</ele>
        <time>2018-04-18T09:50:32Z</time>
      </trkpt>
      <trkpt lat="45.98977" lon="4.8002">
        <ele>243.9</ele>
        <time>2018-04-18T09:50:33Z</time>
      </trkpt>
      <trkpt lat="45.98974" lon="4.80015">
        <ele>244</ele>
        <time>2018-04-18T09:50:34Z</time>
      </trkpt>
      <trkpt lat="45.98969" lon="4.80009">
        <ele>244.3</ele>
        <time>2018-04-18T09:50:35Z</time>
      </trkpt>
      <trkpt lat="45.98965" lon="4.80003">
        <ele>244.5</ele>
        <time>2018-04-18T09:50:36Z</time>
      </trkpt>
      <trkpt lat="45.9896" lon="4.8">
        <ele>244.6</ele>
        <time>2018-04-18T09:50:37Z</time>
      </trkpt>
      <trkpt lat="45.98956" lon="4.79995">
        <ele>244.6</ele>
        <time>2018-04-18T09:50:38Z</time>
      </trkpt>
      <trkpt lat="45.98951" lon="4.79987">
        <ele>244.7</ele>
        <time>2018-04-18T09:50:39Z</time>
      </trkpt>
      <trkpt lat="45.98947" lon="4.79982">
        <ele>244.7</ele>
        <time>2018-04-18T09:50:40Z</time>
      </trkpt>
      <trkpt lat="45.98943" lon="4.79978">
        <ele>244.8</ele>
        <time>2018-04-18T09:50:41Z</time>
      </trkpt>
      <trkpt lat="45.9894" lon="4.79973">
        <ele>245</ele>
        <time>2018-04-18T09:50:42Z</time>
      </trkpt>
      <trkpt lat="45.98935" lon="4.79968">
        <ele>245.1</ele>
        <time>2018-04-18T09:50:43Z</time>
      </trkpt>
      <trkpt lat="45.98931" lon="4.79963">
        <ele>245.2</ele>
        <time>2018-04-18T09:50:44Z</time>
      </trkpt>
      <trkpt lat="45.98927" lon="4.79957">
        <ele>245.2</ele>
        <time>2018-04-18T09:50:45Z</time>
      </trkpt>
      <trkpt lat="45.98922" lon="4.79953">
        <ele>245.1</ele>
        <time>2018-04-18T09:50:46Z</time>
      </trkpt>
      <trkpt lat="45.98919" lon="4.79945">
        <ele>245.1</ele>
        <time>2018-04-18T09:50:47Z</time>
      </trkpt>
      <trkpt lat="45.98914" lon="4.79939">
        <ele>245.2</ele>
        <time>2018-04-18T09:50:48Z</time>
      </trkpt>
      <trkpt lat="45.9891" lon="4.79935">
        <ele>245.4</ele>
        <time>2018-04-18T09:50:49Z</time>
      </trkpt>
      <trkpt lat="45.98906" lon="4.79929">
        <ele>245.5</ele>
        <time>2018-04-18T09:50:50Z</time>
      </trkpt>
      <trkpt lat="45.989" lon="4.79928">
        <ele>245.6</ele>
        <time>2018-04-18T09:50:51Z</time>
      </trkpt>
      <trkpt lat="45.98895" lon="4.79923">
        <ele>245.8</ele>
        <time>2018-04-18T09:50:52Z</time>
      </trkpt>
      <trkpt lat="45.9889" lon="4.79918">
        <ele>246</ele>
        <time>2018-04-18T09:50:53Z</time>
      </trkpt>
      <trkpt lat="45.98886" lon="4.79911">
        <ele>245.9</ele>
        <time>2018-04-18T09:50:54Z</time>
      </trkpt>
      <trkpt lat="45.98881" lon="4.79905">
        <ele>245.7</ele>
        <time>2018-04-18T09:50:55Z</time>
      </trkpt>
      <trkpt lat="45.98877" lon="4.799">
        <ele>245.6</ele>
        <time>2018-04-18T09:50:56Z</time>
      </trkpt>
      <trkpt lat="45.98872" lon="4.79896">
        <ele>245.4</ele>
        <time>2018-04-18T09:50:57Z</time>
      </trkpt>
      <trkpt lat="45.98868" lon="4.79891">
        <ele>245.2</ele>
        <time>2018-04-18T09:50:58Z</time>
      </trkpt>
      <trkpt lat="45.98864" lon="4.79886">
        <ele>245.2</ele>
        <time>2018-04-18T09:50:59Z</time>
      </trkpt>
      <trkpt lat="45.98859" lon="4.79879">
        <ele>245.3</ele>
        <time>2018-04-18T09:51:00Z</time>
      </trkpt>
      <trkpt lat="45.98855" lon="4.79874">
        <ele>245.3</ele>
        <time>2018-04-18T09:51:01Z</time>
      </trkpt>
      <trkpt lat="45.98851" lon="4.79868">
        <ele>245.4</ele>
        <time>2018-04-18T09:51:02Z</time>
      </trkpt>
      <trkpt lat="45.98846" lon="4.79863">
        <ele>245.4</ele>
        <time>2018-04-18T09:51:03Z</time>
      </trkpt>
      <trkpt lat="45.98841" lon="4.79857">
        <ele>245.2</ele>
        <time>2018-04-18T09:51:04Z</time>
      </trkpt>
      <trkpt lat="45.98837" lon="4.79851">
        <ele>245.1</ele>
        <time>2018-04-18T09:51:05Z</time>
      </trkpt>
      <trkpt lat="45.98833" lon="4.79846">
        <ele>245</ele>
        <time>2018-04-18T09:51:06Z</time>
      </trkpt>
      <trkpt lat="45.98829" lon="4.79842">
        <ele>245</ele>
        <time>2018-04-18T09:51:07Z</time>
      </trkpt>
      <trkpt lat="45.98825" lon="4.79837">
        <ele>245</ele>
        <time>2018-04-18T09:51:08Z</time>
      </trkpt>
      <trkpt lat="45.98819" lon="4.79832">
        <ele>245</ele>
        <time>2018-04-18T09:51:09Z</time>
      </trkpt>
      <trkpt lat="45.98815" lon="4.79827">
        <ele>245.2</ele>
        <time>2018-04-18T09:51:10Z</time>
      </trkpt>
      <trkpt lat="45.9881" lon="4.79822">
        <ele>245.4</ele>
        <time>2018-04-18T09:51:11Z</time>
      </trkpt>
      <trkpt lat="45.98803" lon="4.79814">
        <ele>245.7</ele>
        <time>2018-04-18T09:51:13Z</time>
      </trkpt>
      <trkpt lat="45.98799" lon="4.79809">
        <ele>245.9</ele>
        <time>2018-04-18T09:51:14Z</time>
      </trkpt>
      <trkpt lat="45.98793" lon="4.79801">
        <ele>246.1</ele>
        <time>2018-04-18T09:51:16Z</time>
      </trkpt>
      <trkpt lat="45.98789" lon="4.79796">
        <ele>246.2</ele>
        <time>2018-04-18T09:51:17Z</time>
      </trkpt>
      <trkpt lat="45.98785" lon="4.79791">
        <ele>246.4</ele>
        <time>2018-04-18T09:51:18Z</time>
      </trkpt>
      <trkpt lat="45.98781" lon="4.79786">
        <ele>246.6</ele>
        <time>2018-04-18T09:51:19Z</time>
      </trkpt>
      <trkpt lat="45.98778" lon="4.79781">
        <ele>246.9</ele>
        <time>2018-04-18T09:51:20Z</time>
      </trkpt>
      <trkpt lat="45.98776" lon="4.79775">
        <ele>246.9</ele>
        <time>2018-04-18T09:51:21Z</time>
      </trkpt>
      <trkpt lat="45.98772" lon="4.79771">
        <ele>246.6</ele>
        <time>2018-04-18T09:51:22Z</time>
      </trkpt>
      <trkpt lat="45.98768" lon="4.79767">
        <ele>246.5</ele>
        <time>2018-04-18T09:51:23Z</time>
      </trkpt>
      <trkpt lat="45.98764" lon="4.79762">
        <ele>246.5</ele>
        <time>2018-04-18T09:51:24Z</time>
      </trkpt>
      <trkpt lat="45.9876" lon="4.79758">
        <ele>246.6</ele>
        <time>2018-04-18T09:51:25Z</time>
      </trkpt>
      <trkpt lat="45.98756" lon="4.79753">
        <ele>246.7</ele>
        <time>2018-04-18T09:51:26Z</time>
      </trkpt>
      <trkpt lat="45.9875" lon="4.79749">
        <ele>247</ele>
        <time>2018-04-18T09:51:27Z</time>
      </trkpt>
      <trkpt lat="45.98745" lon="4.79747">
        <ele>247</ele>
        <time>2018-04-18T09:51:28Z</time>
      </trkpt>
      <trkpt lat="45.98741" lon="4.79743">
        <ele>247</ele>
        <time>2018-04-18T09:51:29Z</time>
      </trkpt>
      <trkpt lat="45.98734" lon="4.79741">
        <ele>247</ele>
        <time>2018-04-18T09:51:31Z</time>
      </trkpt>
      <trkpt lat="45.98729" lon="4.79738">
        <ele>247</ele>
        <time>2018-04-18T09:51:32Z</time>
      </trkpt>
      <trkpt lat="45.98722" lon="4.79733">
        <ele>247</ele>
        <time>2018-04-18T09:51:33Z</time>
      </trkpt>
      <trkpt lat="45.98717" lon="4.79731">
        <ele>246.9</ele>
        <time>2018-04-18T09:51:34Z</time>
      </trkpt>
      <trkpt lat="45.98712" lon="4.79728">
        <ele>246.9</ele>
        <time>2018-04-18T09:51:35Z</time>
      </trkpt>
      <trkpt lat="45.98707" lon="4.79724">
        <ele>247</ele>
        <time>2018-04-18T09:51:36Z</time>
      </trkpt>
      <trkpt lat="45.98702" lon="4.79722">
        <ele>247</ele>
        <time>2018-04-18T09:51:37Z</time>
      </trkpt>
      <trkpt lat="45.98697" lon="4.79719">
        <ele>247</ele>
        <time>2018-04-18T09:51:38Z</time>
      </trkpt>
      <trkpt lat="45.98691" lon="4.79716">
        <ele>246.9</ele>
        <time>2018-04-18T09:51:39Z</time>
      </trkpt>
      <trkpt lat="45.98685" lon="4.79713">
        <ele>246.8</ele>
        <time>2018-04-18T09:51:40Z</time>
      </trkpt>
      <trkpt lat="45.98677" lon="4.7971">
        <ele>246.7</ele>
        <time>2018-04-18T09:51:42Z</time>
      </trkpt>
      <trkpt lat="45.98673" lon="4.79706">
        <ele>246.7</ele>
        <time>2018-04-18T09:51:43Z</time>
      </trkpt>
      <trkpt lat="45.98668" lon="4.79701">
        <ele>246.8</ele>
        <time>2018-04-18T09:51:44Z</time>
      </trkpt>
      <trkpt lat="45.98663" lon="4.79697">
        <ele>246.8</ele>
        <time>2018-04-18T09:51:45Z</time>
      </trkpt>
      <trkpt lat="45.98656" lon="4.79693">
        <ele>246.6</ele>
        <time>2018-04-18T09:51:46Z</time>
      </trkpt>
      <trkpt lat="45.98652" lon="4.79687">
        <ele>246.5</ele>
        <time>2018-04-18T09:51:47Z</time>
      </trkpt>
      <trkpt lat="45.98649" lon="4.7968">
        <ele>246.3</ele>
        <time>2018-04-18T09:51:48Z</time>
      </trkpt>
      <trkpt lat="45.98644" lon="4.79673">
        <ele>246.2</ele>
        <time>2018-04-18T09:51:49Z</time>
      </trkpt>
      <trkpt lat="45.9864" lon="4.79667">
        <ele>246</ele>
        <time>2018-04-18T09:51:50Z</time>
      </trkpt>
      <trkpt lat="45.98637" lon="4.79661">
        <ele>246.2</ele>
        <time>2018-04-18T09:51:51Z</time>
      </trkpt>
      <trkpt lat="45.98635" lon="4.79655">
        <ele>246.4</ele>
        <time>2018-04-18T09:51:52Z</time>
      </trkpt>
      <trkpt lat="45.98632" lon="4.79649">
        <ele>246.5</ele>
        <time>2018-04-18T09:51:53Z</time>
      </trkpt>
      <trkpt lat="45.98629" lon="4.79644">
        <ele>246.5</ele>
        <time>2018-04-18T09:51:54Z</time>
      </trkpt>
      <trkpt lat="45.98627" lon="4.79637">
        <ele>246.6</ele>
        <time>2018-04-18T09:51:55Z</time>
      </trkpt>
      <trkpt lat="45.98628" lon="4.79628">
        <ele>246.5</ele>
        <time>2018-04-18T09:51:57Z</time>
      </trkpt>
      <trkpt lat="45.98629" lon="4.79622">
        <ele>246.5</ele>
        <time>2018-04-18T09:51:58Z</time>
      </trkpt>
      <trkpt lat="45.98629" lon="4.79616">
        <ele>246.4</ele>
        <time>2018-04-18T09:51:59Z</time>
      </trkpt>
      <trkpt lat="45.98629" lon="4.79608">
        <ele>246.3</ele>
        <time>2018-04-18T09:52:00Z</time>
      </trkpt>
      <trkpt lat="45.98627" lon="4.79602">
        <ele>246.3</ele>
        <time>2018-04-18T09:52:01Z</time>
      </trkpt>
      <trkpt lat="45.98624" lon="4.79595">
        <ele>246.2</ele>
        <time>2018-04-18T09:52:02Z</time>
      </trkpt>
      <trkpt lat="45.98618" lon="4.79586">
        <ele>246.1</ele>
        <time>2018-04-18T09:52:04Z</time>
      </trkpt>
      <trkpt lat="45.98613" lon="4.79584">
        <ele>246</ele>
        <time>2018-04-18T09:52:05Z</time>
      </trkpt>
      <trkpt lat="45.98607" lon="4.79584">
        <ele>246</ele>
        <time>2018-04-18T09:52:06Z</time>
      </trkpt>
      <trkpt lat="45.98601" lon="4.79585">
        <ele>246</ele>
        <time>2018-04-18T09:52:07Z</time>
      </trkpt>
      <trkpt lat="45.98595" lon="4.79587">
        <ele>246</ele>
        <time>2018-04-18T09:52:08Z</time>
      </trkpt>
      <trkpt lat="45.98589" lon="4.79588">
        <ele>245.9</ele>
        <time>2018-04-18T09:52:09Z</time>
      </trkpt>
      <trkpt lat="45.98583" lon="4.79586">
        <ele>245.9</ele>
        <time>2018-04-18T09:52:10Z</time>
      </trkpt>
      <trkpt lat="45.98576" lon="4.79582">
        <ele>245.7</ele>
        <time>2018-04-18T09:52:11Z</time>
      </trkpt>
      <trkpt lat="45.98571" lon="4.79581">
        <ele>245.6</ele>
        <time>2018-04-18T09:52:12Z</time>
      </trkpt>
      <trkpt lat="45.98565" lon="4.79577">
        <ele>245.3</ele>
        <time>2018-04-18T09:52:13Z</time>
      </trkpt>
      <trkpt lat="45.9856" lon="4.79573">
        <ele>245.1</ele>
        <time>2018-04-18T09:52:14Z</time>
      </trkpt>
      <trkpt lat="45.98555" lon="4.79567">
        <ele>245</ele>
        <time>2018-04-18T09:52:15Z</time>
      </trkpt>
      <trkpt lat="45.98551" lon="4.79562">
        <ele>245</ele>
        <time>2018-04-18T09:52:16Z</time>
      </trkpt>
      <trkpt lat="45.98547" lon="4.79556">
        <ele>245</ele>
        <time>2018-04-18T09:52:17Z</time>
      </trkpt>
      <trkpt lat="45.98544" lon="4.79549">
        <ele>245</ele>
        <time>2018-04-18T09:52:18Z</time>
      </trkpt>
      <trkpt lat="45.9854" lon="4.79543">
        <ele>245</ele>
        <time>2018-04-18T09:52:19Z</time>
      </trkpt>
      <trkpt lat="45.98538" lon="4.79536">
        <ele>245</ele>
        <time>2018-04-18T09:52:20Z</time>
      </trkpt>
      <trkpt lat="45.98534" lon="4.79531">
        <ele>245</ele>
        <time>2018-04-18T09:52:21Z</time>
      </trkpt>
      <trkpt lat="45.98532" lon="4.79524">
        <ele>245</ele>
        <time>2018-04-18T09:52:22Z</time>
      </trkpt>
      <trkpt lat="45.9853" lon="4.79515">
        <ele>245</ele>
        <time>2018-04-18T09:52:23Z</time>
      </trkpt>
      <trkpt lat="45.98528" lon="4.79506">
        <ele>245</ele>
        <time>2018-04-18T09:52:24Z</time>
      </trkpt>
      <trkpt lat="45.98528" lon="4.79498">
        <ele>244.9</ele>
        <time>2018-04-18T09:52:25Z</time>
      </trkpt>
      <trkpt lat="45.98527" lon="4.7949">
        <ele>244.6</ele>
        <time>2018-04-18T09:52:26Z</time>
      </trkpt>
      <trkpt lat="45.98526" lon="4.79482">
        <ele>244.3</ele>
        <time>2018-04-18T09:52:27Z</time>
      </trkpt>
      <trkpt lat="45.98526" lon="4.79472">
        <ele>244</ele>
        <time>2018-04-18T09:52:28Z</time>
      </trkpt>
      <trkpt lat="45.98527" lon="4.79463">
        <ele>244</ele>
        <time>2018-04-18T09:52:29Z</time>
      </trkpt>
      <trkpt lat="45.98527" lon="4.79453">
        <ele>244</ele>
        <time>2018-04-18T09:52:30Z</time>
      </trkpt>
      <trkpt lat="45.98527" lon="4.79444">
        <ele>244</ele>
        <time>2018-04-18T09:52:31Z</time>
      </trkpt>
      <trkpt lat="45.98527" lon="4.79435">
        <ele>244</ele>
        <time>2018-04-18T09:52:32Z</time>
      </trkpt>
      <trkpt lat="45.98526" lon="4.79425">
        <ele>244</ele>
        <time>2018-04-18T09:52:33Z</time>
      </trkpt>
      <trkpt lat="45.98527" lon="4.79416">
        <ele>244</ele>
        <time>2018-04-18T09:52:34Z</time>
      </trkpt>
      <trkpt lat="45.98526" lon="4.79409">
        <ele>244.3</ele>
        <time>2018-04-18T09:52:35Z</time>
      </trkpt>
      <trkpt lat="45.98527" lon="4.79401">
        <ele>244.5</ele>
        <time>2018-04-18T09:52:36Z</time>
      </trkpt>
      <trkpt lat="45.98526" lon="4.79393">
        <ele>244.8</ele>
        <time>2018-04-18T09:52:37Z</time>
      </trkpt>
      <trkpt lat="45.98525" lon="4.79385">
        <ele>244.9</ele>
        <time>2018-04-18T09:52:38Z</time>
      </trkpt>
      <trkpt lat="45.98523" lon="4.79377">
        <ele>244.8</ele>
        <time>2018-04-18T09:52:39Z</time>
      </trkpt>
      <trkpt lat="45.98522" lon="4.79368">
        <ele>244.8</ele>
        <time>2018-04-18T09:52:40Z</time>
      </trkpt>
      <trkpt lat="45.98521" lon="4.7936">
        <ele>244.7</ele>
        <time>2018-04-18T09:52:41Z</time>
      </trkpt>
      <trkpt lat="45.98517" lon="4.79352">
        <ele>244.6</ele>
        <time>2018-04-18T09:52:42Z</time>
      </trkpt>
      <trkpt lat="45.98516" lon="4.79343">
        <ele>244.6</ele>
        <time>2018-04-18T09:52:43Z</time>
      </trkpt>
      <trkpt lat="45.98514" lon="4.79337">
        <ele>244.5</ele>
        <time>2018-04-18T09:52:44Z</time>
      </trkpt>
      <trkpt lat="45.98513" lon="4.79329">
        <ele>244.4</ele>
        <time>2018-04-18T09:52:45Z</time>
      </trkpt>
      <trkpt lat="45.98511" lon="4.79322">
        <ele>244.2</ele>
        <time>2018-04-18T09:52:46Z</time>
      </trkpt>
      <trkpt lat="45.98508" lon="4.79313">
        <ele>244.1</ele>
        <time>2018-04-18T09:52:47Z</time>
      </trkpt>
      <trkpt lat="45.98504" lon="4.79306">
        <ele>244</ele>
        <time>2018-04-18T09:52:48Z</time>
      </trkpt>
      <trkpt lat="45.98499" lon="4.793">
        <ele>243.8</ele>
        <time>2018-04-18T09:52:49Z</time>
      </trkpt>
      <trkpt lat="45.98496" lon="4.79293">
        <ele>243.5</ele>
        <time>2018-04-18T09:52:50Z</time>
      </trkpt>
      <trkpt lat="45.98494" lon="4.79286">
        <ele>243.2</ele>
        <time>2018-04-18T09:52:51Z</time>
      </trkpt>
      <trkpt lat="45.9849" lon="4.79277">
        <ele>243</ele>
        <time>2018-04-18T09:52:52Z</time>
      </trkpt>
      <trkpt lat="45.98487" lon="4.79273">
        <ele>243.2</ele>
        <time>2018-04-18T09:52:53Z</time>
      </trkpt>
      <trkpt lat="45.98484" lon="4.79265">
        <ele>243.4</ele>
        <time>2018-04-18T09:52:54Z</time>
      </trkpt>
      <trkpt lat="45.98479" lon="4.79258">
        <ele>243.7</ele>
        <time>2018-04-18T09:52:55Z</time>
      </trkpt>
      <trkpt lat="45.98476" lon="4.7925">
        <ele>244</ele>
        <time>2018-04-18T09:52:56Z</time>
      </trkpt>
      <trkpt lat="45.98472" lon="4.79242">
        <ele>243.7</ele>
        <time>2018-04-18T09:52:57Z</time>
      </trkpt>
      <trkpt lat="45.98469" lon="4.79234">
        <ele>243.4</ele>
        <time>2018-04-18T09:52:58Z</time>
      </trkpt>
      <trkpt lat="45.98461" lon="4.79224">
        <ele>243</ele>
        <time>2018-04-18T09:52:59Z</time>
      </trkpt>
      <trkpt lat="45.98457" lon="4.79215">
        <ele>243</ele>
        <time>2018-04-18T09:53:00Z</time>
      </trkpt>
      <trkpt lat="45.98454" lon="4.79208">
        <ele>243</ele>
        <time>2018-04-18T09:53:01Z</time>
      </trkpt>
      <trkpt lat="45.9845" lon="4.79201">
        <ele>243</ele>
        <time>2018-04-18T09:53:02Z</time>
      </trkpt>
      <trkpt lat="45.98445" lon="4.79193">
        <ele>243</ele>
        <time>2018-04-18T09:53:03Z</time>
      </trkpt>
      <trkpt lat="45.9844" lon="4.79187">
        <ele>243</ele>
        <time>2018-04-18T09:53:04Z</time>
      </trkpt>
      <trkpt lat="45.98437" lon="4.79179">
        <ele>243</ele>
        <time>2018-04-18T09:53:05Z</time>
      </trkpt>
      <trkpt lat="45.98433" lon="4.79172">
        <ele>243</ele>
        <time>2018-04-18T09:53:06Z</time>
      </trkpt>
      <trkpt lat="45.98429" lon="4.79165">
        <ele>243</ele>
        <time>2018-04-18T09:53:07Z</time>
      </trkpt>
      <trkpt lat="45.98424" lon="4.79157">
        <ele>243</ele>
        <time>2018-04-18T09:53:08Z</time>
      </trkpt>
      <trkpt lat="45.98421" lon="4.7915">
        <ele>243</ele>
        <time>2018-04-18T09:53:09Z</time>
      </trkpt>
      <trkpt lat="45.98415" lon="4.79141">
        <ele>242.9</ele>
        <time>2018-04-18T09:53:10Z</time>
      </trkpt>
      <trkpt lat="45.98412" lon="4.79133">
        <ele>242.8</ele>
        <time>2018-04-18T09:53:11Z</time>
      </trkpt>
      <trkpt lat="45.98408" lon="4.79126">
        <ele>242.7</ele>
        <time>2018-04-18T09:53:12Z</time>
      </trkpt>
      <trkpt lat="45.98406" lon="4.7912">
        <ele>242.6</ele>
        <time>2018-04-18T09:53:13Z</time>
      </trkpt>
      <trkpt lat="45.98401" lon="4.79113">
        <ele>242.4</ele>
        <time>2018-04-18T09:53:14Z</time>
      </trkpt>
      <trkpt lat="45.98397" lon="4.79106">
        <ele>242.4</ele>
        <time>2018-04-18T09:53:15Z</time>
      </trkpt>
      <trkpt lat="45.98394" lon="4.79099">
        <ele>242.5</ele>
        <time>2018-04-18T09:53:16Z</time>
      </trkpt>
      <trkpt lat="45.9839" lon="4.79092">
        <ele>242.7</ele>
        <time>2018-04-18T09:53:17Z</time>
      </trkpt>
      <trkpt lat="45.98387" lon="4.79087">
        <ele>242.8</ele>
        <time>2018-04-18T09:53:18Z</time>
      </trkpt>
      <trkpt lat="45.98382" lon="4.7908">
        <ele>242.7</ele>
        <time>2018-04-18T09:53:19Z</time>
      </trkpt>
      <trkpt lat="45.98378" lon="4.79075">
        <ele>242.4</ele>
        <time>2018-04-18T09:53:20Z</time>
      </trkpt>
      <trkpt lat="45.98374" lon="4.79067">
        <ele>242.2</ele>
        <time>2018-04-18T09:53:21Z</time>
      </trkpt>
      <trkpt lat="45.98372" lon="4.79061">
        <ele>242.1</ele>
        <time>2018-04-18T09:53:22Z</time>
      </trkpt>
      <trkpt lat="45.98368" lon="4.79053">
        <ele>242</ele>
        <time>2018-04-18T09:53:23Z</time>
      </trkpt>
      <trkpt lat="45.98363" lon="4.79046">
        <ele>242</ele>
        <time>2018-04-18T09:53:24Z</time>
      </trkpt>
      <trkpt lat="45.9836" lon="4.7904">
        <ele>242</ele>
        <time>2018-04-18T09:53:25Z</time>
      </trkpt>
      <trkpt lat="45.98355" lon="4.79034">
        <ele>242</ele>
        <time>2018-04-18T09:53:26Z</time>
      </trkpt>
      <trkpt lat="45.9835" lon="4.79028">
        <ele>242</ele>
        <time>2018-04-18T09:53:27Z</time>
      </trkpt>
      <trkpt lat="45.98344" lon="4.79022">
        <ele>242</ele>
        <time>2018-04-18T09:53:28Z</time>
      </trkpt>
      <trkpt lat="45.98337" lon="4.79016">
        <ele>242</ele>
        <time>2018-04-18T09:53:29Z</time>
      </trkpt>
      <trkpt lat="45.98332" lon="4.79014">
        <ele>242</ele>
        <time>2018-04-18T09:53:30Z</time>
      </trkpt>
      <trkpt lat="45.98327" lon="4.79008">
        <ele>241.8</ele>
        <time>2018-04-18T09:53:31Z</time>
      </trkpt>
      <trkpt lat="45.98321" lon="4.79004">
        <ele>241.6</ele>
        <time>2018-04-18T09:53:32Z</time>
      </trkpt>
      <trkpt lat="45.98314" lon="4.79001">
        <ele>241.3</ele>
        <time>2018-04-18T09:53:33Z</time>
      </trkpt>
      <trkpt lat="45.98308" lon="4.78997">
        <ele>241.1</ele>
        <time>2018-04-18T09:53:34Z</time>
      </trkpt>
      <trkpt lat="45.98302" lon="4.78994">
        <ele>241</ele>
        <time>2018-04-18T09:53:35Z</time>
      </trkpt>
      <trkpt lat="45.98297" lon="4.7899">
        <ele>241</ele>
        <time>2018-04-18T09:53:36Z</time>
      </trkpt>
      <trkpt lat="45.98292" lon="4.78987">
        <ele>241</ele>
        <time>2018-04-18T09:53:37Z</time>
      </trkpt>
      <trkpt lat="45.98286" lon="4.78983">
        <ele>241</ele>
        <time>2018-04-18T09:53:38Z</time>
      </trkpt>
      <trkpt lat="45.98279" lon="4.78979">
        <ele>241</ele>
        <time>2018-04-18T09:53:39Z</time>
      </trkpt>
      <trkpt lat="45.98273" lon="4.78975">
        <ele>241</ele>
        <time>2018-04-18T09:53:40Z</time>
      </trkpt>
      <trkpt lat="45.98267" lon="4.78972">
        <ele>241</ele>
        <time>2018-04-18T09:53:41Z</time>
      </trkpt>
      <trkpt lat="45.98263" lon="4.78972">
        <ele>241</ele>
        <time>2018-04-18T09:53:42Z</time>
      </trkpt>
      <trkpt lat="45.98255" lon="4.78968">
        <ele>241</ele>
        <time>2018-04-18T09:53:43Z</time>
      </trkpt>
      <trkpt lat="45.9825" lon="4.78965">
        <ele>241</ele>
        <time>2018-04-18T09:53:44Z</time>
      </trkpt>
      <trkpt lat="45.98245" lon="4.78961">
        <ele>240.9</ele>
        <time>2018-04-18T09:53:45Z</time>
      </trkpt>
      <trkpt lat="45.98238" lon="4.78957">
        <ele>240.8</ele>
        <time>2018-04-18T09:53:46Z</time>
      </trkpt>
      <trkpt lat="45.98232" lon="4.78951">
        <ele>240.5</ele>
        <time>2018-04-18T09:53:47Z</time>
      </trkpt>
      <trkpt lat="45.98227" lon="4.78948">
        <ele>240.3</ele>
        <time>2018-04-18T09:53:48Z</time>
      </trkpt>
      <trkpt lat="45.98221" lon="4.78945">
        <ele>240</ele>
        <time>2018-04-18T09:53:49Z</time>
      </trkpt>
      <trkpt lat="45.98215" lon="4.78942">
        <ele>240.1</ele>
        <time>2018-04-18T09:53:50Z</time>
      </trkpt>
      <trkpt lat="45.9821" lon="4.78938">
        <ele>240.1</ele>
        <time>2018-04-18T09:53:51Z</time>
      </trkpt>
      <trkpt lat="45.98205" lon="4.78935">
        <ele>240.1</ele>
        <time>2018-04-18T09:53:52Z</time>
      </trkpt>
      <trkpt lat="45.982" lon="4.78931">
        <ele>240.1</ele>
        <time>2018-04-18T09:53:53Z</time>
      </trkpt>
      <trkpt lat="45.98193" lon="4.78927">
        <ele>240</ele>
        <time>2018-04-18T09:53:54Z</time>
      </trkpt>
      <trkpt lat="45.98188" lon="4.78923">
        <ele>240</ele>
        <time>2018-04-18T09:53:55Z</time>
      </trkpt>
      <trkpt lat="45.98183" lon="4.78919">
        <ele>240</ele>
        <time>2018-04-18T09:53:56Z</time>
      </trkpt>
      <trkpt lat="45.98177" lon="4.78916">
        <ele>240</ele>
        <time>2018-04-18T09:53:57Z</time>
      </trkpt>
      <trkpt lat="45.98172" lon="4.78912">
        <ele>240</ele>
        <time>2018-04-18T09:53:58Z</time>
      </trkpt>
      <trkpt lat="45.98166" lon="4.78908">
        <ele>240</ele>
        <time>2018-04-18T09:53:59Z</time>
      </trkpt>
      <trkpt lat="45.98161" lon="4.78907">
        <ele>240</ele>
        <time>2018-04-18T09:54:00Z</time>
      </trkpt>
      <trkpt lat="45.98155" lon="4.78904">
        <ele>240</ele>
        <time>2018-04-18T09:54:01Z</time>
      </trkpt>
      <trkpt lat="45.98147" lon="4.78901">
        <ele>240</ele>
        <time>2018-04-18T09:54:02Z</time>
      </trkpt>
      <trkpt lat="45.98141" lon="4.78898">
        <ele>240</ele>
        <time>2018-04-18T09:54:03Z</time>
      </trkpt>
      <trkpt lat="45.98136" lon="4.78896">
        <ele>239.9</ele>
        <time>2018-04-18T09:54:04Z</time>
      </trkpt>
      <trkpt lat="45.9813" lon="4.78893">
        <ele>239.7</ele>
        <time>2018-04-18T09:54:05Z</time>
      </trkpt>
      <trkpt lat="45.98123" lon="4.78888">
        <ele>239.4</ele>
        <time>2018-04-18T09:54:06Z</time>
      </trkpt>
      <trkpt lat="45.98118" lon="4.78884">
        <ele>239.2</ele>
        <time>2018-04-18T09:54:07Z</time>
      </trkpt>
      <trkpt lat="45.98112" lon="4.78881">
        <ele>239</ele>
        <time>2018-04-18T09:54:08Z</time>
      </trkpt>
      <trkpt lat="45.98107" lon="4.78877">
        <ele>239</ele>
        <time>2018-04-18T09:54:09Z</time>
      </trkpt>
      <trkpt lat="45.98102" lon="4.78874">
        <ele>239</ele>
        <time>2018-04-18T09:54:10Z</time>
      </trkpt>
      <trkpt lat="45.98097" lon="4.78875">
        <ele>239</ele>
        <time>2018-04-18T09:54:11Z</time>
      </trkpt>
      <trkpt lat="45.98091" lon="4.78871">
        <ele>239</ele>
        <time>2018-04-18T09:54:12Z</time>
      </trkpt>
      <trkpt lat="45.98085" lon="4.78867">
        <ele>239</ele>
        <time>2018-04-18T09:54:13Z</time>
      </trkpt>
      <trkpt lat="45.98079" lon="4.78863">
        <ele>239</ele>
        <time>2018-04-18T09:54:14Z</time>
      </trkpt>
      <trkpt lat="45.98075" lon="4.78865">
        <ele>239</ele>
        <time>2018-04-18T09:54:15Z</time>
      </trkpt>
      <trkpt lat="45.98069" lon="4.78859">
        <ele>239</ele>
        <time>2018-04-18T09:54:16Z</time>
      </trkpt>
      <trkpt lat="45.98063" lon="4.78853">
        <ele>239</ele>
        <time>2018-04-18T09:54:17Z</time>
      </trkpt>
      <trkpt lat="45.98058" lon="4.7885">
        <ele>239</ele>
        <time>2018-04-18T09:54:18Z</time>
      </trkpt>
      <trkpt lat="45.98052" lon="4.78848">
        <ele>238.9</ele>
        <time>2018-04-18T09:54:19Z</time>
      </trkpt>
      <trkpt lat="45.98046" lon="4.78844">
        <ele>238.8</ele>
        <time>2018-04-18T09:54:20Z</time>
      </trkpt>
      <trkpt lat="45.9804" lon="4.78841">
        <ele>238.6</ele>
        <time>2018-04-18T09:54:21Z</time>
      </trkpt>
      <trkpt lat="45.98034" lon="4.78837">
        <ele>238.3</ele>
        <time>2018-04-18T09:54:22Z</time>
      </trkpt>
      <trkpt lat="45.98029" lon="4.78833">
        <ele>238</ele>
        <time>2018-04-18T09:54:23Z</time>
      </trkpt>
      <trkpt lat="45.98023" lon="4.7883">
        <ele>238.1</ele>
        <time>2018-04-18T09:54:24Z</time>
      </trkpt>
      <trkpt lat="45.98017" lon="4.78824">
        <ele>238.3</ele>
        <time>2018-04-18T09:54:25Z</time>
      </trkpt>
      <trkpt lat="45.98012" lon="4.78818">
        <ele>238.3</ele>
        <time>2018-04-18T09:54:26Z</time>
      </trkpt>
      <trkpt lat="45.98007" lon="4.78814">
        <ele>238.2</ele>
        <time>2018-04-18T09:54:27Z</time>
      </trkpt>
      <trkpt lat="45.98002" lon="4.7881">
        <ele>238.1</ele>
        <time>2018-04-18T09:54:28Z</time>
      </trkpt>
      <trkpt lat="45.97997" lon="4.78806">
        <ele>238</ele>
        <time>2018-04-18T09:54:29Z</time>
      </trkpt>
      <trkpt lat="45.97992" lon="4.78803">
        <ele>238</ele>
        <time>2018-04-18T09:54:30Z</time>
      </trkpt>
      <trkpt lat="45.97987" lon="4.78798">
        <ele>238</ele>
        <time>2018-04-18T09:54:31Z</time>
      </trkpt>
      <trkpt lat="45.97982" lon="4.78794">
        <ele>238</ele>
        <time>2018-04-18T09:54:32Z</time>
      </trkpt>
      <trkpt lat="45.97978" lon="4.78791">
        <ele>238</ele>
        <time>2018-04-18T09:54:33Z</time>
      </trkpt>
      <trkpt lat="45.97973" lon="4.78786">
        <ele>238</ele>
        <time>2018-04-18T09:54:34Z</time>
      </trkpt>
      <trkpt lat="45.97968" lon="4.78781">
        <ele>238</ele>
        <time>2018-04-18T09:54:35Z</time>
      </trkpt>
      <trkpt lat="45.97962" lon="4.78778">
        <ele>238</ele>
        <time>2018-04-18T09:54:36Z</time>
      </trkpt>
      <trkpt lat="45.97957" lon="4.78774">
        <ele>238</ele>
        <time>2018-04-18T09:54:37Z</time>
      </trkpt>
      <trkpt lat="45.97953" lon="4.78772">
        <ele>238</ele>
        <time>2018-04-18T09:54:38Z</time>
      </trkpt>
      <trkpt lat="45.97948" lon="4.78768">
        <ele>238</ele>
        <time>2018-04-18T09:54:39Z</time>
      </trkpt>
      <trkpt lat="45.97941" lon="4.78765">
        <ele>237.9</ele>
        <time>2018-04-18T09:54:40Z</time>
      </trkpt>
      <trkpt lat="45.97936" lon="4.78762">
        <ele>237.8</ele>
        <time>2018-04-18T09:54:41Z</time>
      </trkpt>
      <trkpt lat="45.97929" lon="4.78759">
        <ele>237.6</ele>
        <time>2018-04-18T09:54:42Z</time>
      </trkpt>
      <trkpt lat="45.97923" lon="4.78754">
        <ele>237.3</ele>
        <time>2018-04-18T09:54:43Z</time>
      </trkpt>
      <trkpt lat="45.97917" lon="4.7875">
        <ele>237</ele>
        <time>2018-04-18T09:54:44Z</time>
      </trkpt>
      <trkpt lat="45.97911" lon="4.78745">
        <ele>237.3</ele>
        <time>2018-04-18T09:54:45Z</time>
      </trkpt>
      <trkpt lat="45.97906" lon="4.78741">
        <ele>237.5</ele>
        <time>2018-04-18T09:54:46Z</time>
      </trkpt>
      <trkpt lat="45.979" lon="4.78736">
        <ele>237.5</ele>
        <time>2018-04-18T09:54:47Z</time>
      </trkpt>
      <trkpt lat="45.97895" lon="4.78732">
        <ele>237.4</ele>
        <time>2018-04-18T09:54:48Z</time>
      </trkpt>
      <trkpt lat="45.97889" lon="4.78728">
        <ele>237.2</ele>
        <time>2018-04-18T09:54:49Z</time>
      </trkpt>
      <trkpt lat="45.97884" lon="4.78724">
        <ele>237.1</ele>
        <time>2018-04-18T09:54:50Z</time>
      </trkpt>
      <trkpt lat="45.97879" lon="4.7872">
        <ele>237.1</ele>
        <time>2018-04-18T09:54:51Z</time>
      </trkpt>
      <trkpt lat="45.97873" lon="4.78716">
        <ele>237.1</ele>
        <time>2018-04-18T09:54:52Z</time>
      </trkpt>
      <trkpt lat="45.97867" lon="4.78712">
        <ele>237.1</ele>
        <time>2018-04-18T09:54:53Z</time>
      </trkpt>
      <trkpt lat="45.97862" lon="4.78709">
        <ele>237</ele>
        <time>2018-04-18T09:54:54Z</time>
      </trkpt>
      <trkpt lat="45.97857" lon="4.78704">
        <ele>236.9</ele>
        <time>2018-04-18T09:54:55Z</time>
      </trkpt>
      <trkpt lat="45.97851" lon="4.78699">
        <ele>236.8</ele>
        <time>2018-04-18T09:54:56Z</time>
      </trkpt>
      <trkpt lat="45.97846" lon="4.78697">
        <ele>236.6</ele>
        <time>2018-04-18T09:54:57Z</time>
      </trkpt>
      <trkpt lat="45.97841" lon="4.78693">
        <ele>236.3</ele>
        <time>2018-04-18T09:54:58Z</time>
      </trkpt>
      <trkpt lat="45.97836" lon="4.78689">
        <ele>236.3</ele>
        <time>2018-04-18T09:54:59Z</time>
      </trkpt>
      <trkpt lat="45.97831" lon="4.78686">
        <ele>236.4</ele>
        <time>2018-04-18T09:55:00Z</time>
      </trkpt>
      <trkpt lat="45.97826" lon="4.78684">
        <ele>236.5</ele>
        <time>2018-04-18T09:55:01Z</time>
      </trkpt>
      <trkpt lat="45.97819" lon="4.78682">
        <ele>236.7</ele>
        <time>2018-04-18T09:55:02Z</time>
      </trkpt>
      <trkpt lat="45.97815" lon="4.78678">
        <ele>236.9</ele>
        <time>2018-04-18T09:55:03Z</time>
      </trkpt>
      <trkpt lat="45.97809" lon="4.78677">
        <ele>237</ele>
        <time>2018-04-18T09:55:04Z</time>
      </trkpt>
      <trkpt lat="45.97803" lon="4.78674">
        <ele>236.9</ele>
        <time>2018-04-18T09:55:05Z</time>
      </trkpt>
      <trkpt lat="45.97797" lon="4.78672">
        <ele>236.7</ele>
        <time>2018-04-18T09:55:06Z</time>
      </trkpt>
      <trkpt lat="45.97792" lon="4.78669">
        <ele>236.5</ele>
        <time>2018-04-18T09:55:07Z</time>
      </trkpt>
      <trkpt lat="45.97785" lon="4.78666">
        <ele>236.3</ele>
        <time>2018-04-18T09:55:08Z</time>
      </trkpt>
      <trkpt lat="45.9778" lon="4.78663">
        <ele>236.1</ele>
        <time>2018-04-18T09:55:09Z</time>
      </trkpt>
      <trkpt lat="45.97774" lon="4.7866">
        <ele>236</ele>
        <time>2018-04-18T09:55:10Z</time>
      </trkpt>
      <trkpt lat="45.97768" lon="4.78658">
        <ele>236</ele>
        <time>2018-04-18T09:55:11Z</time>
      </trkpt>
      <trkpt lat="45.97762" lon="4.78655">
        <ele>236</ele>
        <time>2018-04-18T09:55:12Z</time>
      </trkpt>
      <trkpt lat="45.97757" lon="4.78651">
        <ele>236</ele>
        <time>2018-04-18T09:55:13Z</time>
      </trkpt>
      <trkpt lat="45.97751" lon="4.78648">
        <ele>236</ele>
        <time>2018-04-18T09:55:14Z</time>
      </trkpt>
      <trkpt lat="45.97747" lon="4.78646">
        <ele>236</ele>
        <time>2018-04-18T09:55:15Z</time>
      </trkpt>
      <trkpt lat="45.97741" lon="4.78643">
        <ele>236</ele>
        <time>2018-04-18T09:55:16Z</time>
      </trkpt>
      <trkpt lat="45.97735" lon="4.78641">
        <ele>236</ele>
        <time>2018-04-18T09:55:17Z</time>
      </trkpt>
      <trkpt lat="45.9773" lon="4.78638">
        <ele>236</ele>
        <time>2018-04-18T09:55:18Z</time>
      </trkpt>
      <trkpt lat="45.97725" lon="4.78636">
        <ele>236</ele>
        <time>2018-04-18T09:55:19Z</time>
      </trkpt>
      <trkpt lat="45.9772" lon="4.78634">
        <ele>235.9</ele>
        <time>2018-04-18T09:55:20Z</time>
      </trkpt>
      <trkpt lat="45.97714" lon="4.78633">
        <ele>235.8</ele>
        <time>2018-04-18T09:55:21Z</time>
      </trkpt>
      <trkpt lat="45.97708" lon="4.7863">
        <ele>235.6</ele>
        <time>2018-04-18T09:55:22Z</time>
      </trkpt>
      <trkpt lat="45.97702" lon="4.78628">
        <ele>235.6</ele>
        <time>2018-04-18T09:55:23Z</time>
      </trkpt>
      <trkpt lat="45.97697" lon="4.78626">
        <ele>235.5</ele>
        <time>2018-04-18T09:55:24Z</time>
      </trkpt>
      <trkpt lat="45.97691" lon="4.78623">
        <ele>235.4</ele>
        <time>2018-04-18T09:55:25Z</time>
      </trkpt>
      <trkpt lat="45.97684" lon="4.7862">
        <ele>235.2</ele>
        <time>2018-04-18T09:55:26Z</time>
      </trkpt>
      <trkpt lat="45.97678" lon="4.78618">
        <ele>235</ele>
        <time>2018-04-18T09:55:27Z</time>
      </trkpt>
      <trkpt lat="45.97672" lon="4.78616">
        <ele>234.9</ele>
        <time>2018-04-18T09:55:28Z</time>
      </trkpt>
      <trkpt lat="45.97665" lon="4.78613">
        <ele>234.8</ele>
        <time>2018-04-18T09:55:29Z</time>
      </trkpt>
      <trkpt lat="45.9766" lon="4.78611">
        <ele>235</ele>
        <time>2018-04-18T09:55:30Z</time>
      </trkpt>
      <trkpt lat="45.97654" lon="4.78609">
        <ele>235</ele>
        <time>2018-04-18T09:55:31Z</time>
      </trkpt>
      <trkpt lat="45.97648" lon="4.78607">
        <ele>235.1</ele>
        <time>2018-04-18T09:55:32Z</time>
      </trkpt>
      <trkpt lat="45.97642" lon="4.78604">
        <ele>235</ele>
        <time>2018-04-18T09:55:33Z</time>
      </trkpt>
      <trkpt lat="45.97637" lon="4.786">
        <ele>234.9</ele>
        <time>2018-04-18T09:55:34Z</time>
      </trkpt>
      <trkpt lat="45.97631" lon="4.78598">
        <ele>234.8</ele>
        <time>2018-04-18T09:55:35Z</time>
      </trkpt>
      <trkpt lat="45.97625" lon="4.78594">
        <ele>234.9</ele>
        <time>2018-04-18T09:55:36Z</time>
      </trkpt>
      <trkpt lat="45.97619" lon="4.78592">
        <ele>235</ele>
        <time>2018-04-18T09:55:37Z</time>
      </trkpt>
      <trkpt lat="45.97613" lon="4.78589">
        <ele>235.3</ele>
        <time>2018-04-18T09:55:38Z</time>
      </trkpt>
      <trkpt lat="45.97608" lon="4.78586">
        <ele>235.6</ele>
        <time>2018-04-18T09:55:39Z</time>
      </trkpt>
      <trkpt lat="45.97602" lon="4.78584">
        <ele>235.6</ele>
        <time>2018-04-18T09:55:40Z</time>
      </trkpt>
      <trkpt lat="45.97597" lon="4.7858">
        <ele>235.5</ele>
        <time>2018-04-18T09:55:41Z</time>
      </trkpt>
      <trkpt lat="45.97592" lon="4.78578">
        <ele>235.4</ele>
        <time>2018-04-18T09:55:42Z</time>
      </trkpt>
      <trkpt lat="45.97586" lon="4.78578">
        <ele>235.3</ele>
        <time>2018-04-18T09:55:43Z</time>
      </trkpt>
      <trkpt lat="45.9758" lon="4.78577">
        <ele>235.2</ele>
        <time>2018-04-18T09:55:44Z</time>
      </trkpt>
      <trkpt lat="45.97575" lon="4.78574">
        <ele>235.3</ele>
        <time>2018-04-18T09:55:45Z</time>
      </trkpt>
      <trkpt lat="45.9757" lon="4.78574">
        <ele>235.3</ele>
        <time>2018-04-18T09:55:46Z</time>
      </trkpt>
      <trkpt lat="45.97565" lon="4.78572">
        <ele>235.4</ele>
        <time>2018-04-18T09:55:47Z</time>
      </trkpt>
      <trkpt lat="45.97559" lon="4.7857">
        <ele>235.5</ele>
        <time>2018-04-18T09:55:48Z</time>
      </trkpt>
      <trkpt lat="45.97555" lon="4.78567">
        <ele>235.6</ele>
        <time>2018-04-18T09:55:49Z</time>
      </trkpt>
      <trkpt lat="45.97548" lon="4.78565">
        <ele>235.5</ele>
        <time>2018-04-18T09:55:50Z</time>
      </trkpt>
      <trkpt lat="45.97545" lon="4.78561">
        <ele>235.5</ele>
        <time>2018-04-18T09:55:51Z</time>
      </trkpt>
      <trkpt lat="45.97539" lon="4.78558">
        <ele>235.4</ele>
        <time>2018-04-18T09:55:52Z</time>
      </trkpt>
      <trkpt lat="45.97532" lon="4.78557">
        <ele>235.2</ele>
        <time>2018-04-18T09:55:53Z</time>
      </trkpt>
      <trkpt lat="45.97524" lon="4.78554">
        <ele>235</ele>
        <time>2018-04-18T09:55:54Z</time>
      </trkpt>
      <trkpt lat="45.97518" lon="4.78552">
        <ele>235.1</ele>
        <time>2018-04-18T09:55:55Z</time>
      </trkpt>
      <trkpt lat="45.97511" lon="4.7855">
        <ele>235.1</ele>
        <time>2018-04-18T09:55:56Z</time>
      </trkpt>
      <trkpt lat="45.97505" lon="4.78547">
        <ele>235.1</ele>
        <time>2018-04-18T09:55:57Z</time>
      </trkpt>
      <trkpt lat="45.975" lon="4.78544">
        <ele>235</ele>
        <time>2018-04-18T09:55:58Z</time>
      </trkpt>
      <trkpt lat="45.97496" lon="4.7854">
        <ele>235</ele>
        <time>2018-04-18T09:55:59Z</time>
      </trkpt>
      <trkpt lat="45.97491" lon="4.78537">
        <ele>235</ele>
        <time>2018-04-18T09:56:00Z</time>
      </trkpt>
      <trkpt lat="45.97486" lon="4.78533">
        <ele>235</ele>
        <time>2018-04-18T09:56:01Z</time>
      </trkpt>
      <trkpt lat="45.97481" lon="4.7853">
        <ele>235</ele>
        <time>2018-04-18T09:56:02Z</time>
      </trkpt>
      <trkpt lat="45.97477" lon="4.78525">
        <ele>235</ele>
        <time>2018-04-18T09:56:03Z</time>
      </trkpt>
      <trkpt lat="45.97472" lon="4.78521">
        <ele>235</ele>
        <time>2018-04-18T09:56:04Z</time>
      </trkpt>
      <trkpt lat="45.97467" lon="4.78517">
        <ele>235</ele>
        <time>2018-04-18T09:56:05Z</time>
      </trkpt>
      <trkpt lat="45.97463" lon="4.78513">
        <ele>235</ele>
        <time>2018-04-18T09:56:06Z</time>
      </trkpt>
      <trkpt lat="45.97457" lon="4.78509">
        <ele>235</ele>
        <time>2018-04-18T09:56:07Z</time>
      </trkpt>
      <trkpt lat="45.97453" lon="4.78504">
        <ele>235</ele>
        <time>2018-04-18T09:56:08Z</time>
      </trkpt>
      <trkpt lat="45.97449" lon="4.78501">
        <ele>235</ele>
        <time>2018-04-18T09:56:09Z</time>
      </trkpt>
      <trkpt lat="45.97444" lon="4.78498">
        <ele>235</ele>
        <time>2018-04-18T09:56:10Z</time>
      </trkpt>
      <trkpt lat="45.9744" lon="4.78493">
        <ele>235</ele>
        <time>2018-04-18T09:56:11Z</time>
      </trkpt>
      <trkpt lat="45.97435" lon="4.78489">
        <ele>234.9</ele>
        <time>2018-04-18T09:56:12Z</time>
      </trkpt>
      <trkpt lat="45.9743" lon="4.78485">
        <ele>234.7</ele>
        <time>2018-04-18T09:56:13Z</time>
      </trkpt>
      <trkpt lat="45.97424" lon="4.7848">
        <ele>234.5</ele>
        <time>2018-04-18T09:56:14Z</time>
      </trkpt>
      <trkpt lat="45.97419" lon="4.78475">
        <ele>234.2</ele>
        <time>2018-04-18T09:56:15Z</time>
      </trkpt>
      <trkpt lat="45.97414" lon="4.78471">
        <ele>234.1</ele>
        <time>2018-04-18T09:56:16Z</time>
      </trkpt>
      <trkpt lat="45.97409" lon="4.78466">
        <ele>234.2</ele>
        <time>2018-04-18T09:56:17Z</time>
      </trkpt>
      <trkpt lat="45.97404" lon="4.78461">
        <ele>234.2</ele>
        <time>2018-04-18T09:56:18Z</time>
      </trkpt>
      <trkpt lat="45.97399" lon="4.78456">
        <ele>234.2</ele>
        <time>2018-04-18T09:56:19Z</time>
      </trkpt>
      <trkpt lat="45.97397" lon="4.78451">
        <ele>234.2</ele>
        <time>2018-04-18T09:56:20Z</time>
      </trkpt>
      <trkpt lat="45.97391" lon="4.78446">
        <ele>234.1</ele>
        <time>2018-04-18T09:56:21Z</time>
      </trkpt>
      <trkpt lat="45.97387" lon="4.78443">
        <ele>234</ele>
        <time>2018-04-18T09:56:22Z</time>
      </trkpt>
      <trkpt lat="45.97383" lon="4.78438">
        <ele>234</ele>
        <time>2018-04-18T09:56:23Z</time>
      </trkpt>
      <trkpt lat="45.97378" lon="4.78433">
        <ele>234</ele>
        <time>2018-04-18T09:56:24Z</time>
      </trkpt>
      <trkpt lat="45.97374" lon="4.78428">
        <ele>234</ele>
        <time>2018-04-18T09:56:25Z</time>
      </trkpt>
      <trkpt lat="45.97368" lon="4.78422">
        <ele>234</ele>
        <time>2018-04-18T09:56:26Z</time>
      </trkpt>
      <trkpt lat="45.97363" lon="4.78417">
        <ele>234</ele>
        <time>2018-04-18T09:56:27Z</time>
      </trkpt>
      <trkpt lat="45.9736" lon="4.78414">
        <ele>234</ele>
        <time>2018-04-18T09:56:28Z</time>
      </trkpt>
      <trkpt lat="45.97355" lon="4.78411">
        <ele>234</ele>
        <time>2018-04-18T09:56:29Z</time>
      </trkpt>
      <trkpt lat="45.97351" lon="4.78406">
        <ele>233.9</ele>
        <time>2018-04-18T09:56:30Z</time>
      </trkpt>
      <trkpt lat="45.97344" lon="4.78402">
        <ele>233.7</ele>
        <time>2018-04-18T09:56:31Z</time>
      </trkpt>
      <trkpt lat="45.97336" lon="4.78395">
        <ele>233.3</ele>
        <time>2018-04-18T09:56:32Z</time>
      </trkpt>
      <trkpt lat="45.97333" lon="4.7839">
        <ele>233.1</ele>
        <time>2018-04-18T09:56:33Z</time>
      </trkpt>
      <trkpt lat="45.97329" lon="4.78384">
        <ele>233.3</ele>
        <time>2018-04-18T09:56:34Z</time>
      </trkpt>
      <trkpt lat="45.97324" lon="4.78378">
        <ele>233.5</ele>
        <time>2018-04-18T09:56:35Z</time>
      </trkpt>
      <trkpt lat="45.9732" lon="4.78373">
        <ele>233.5</ele>
        <time>2018-04-18T09:56:36Z</time>
      </trkpt>
      <trkpt lat="45.97318" lon="4.78368">
        <ele>233.5</ele>
        <time>2018-04-18T09:56:37Z</time>
      </trkpt>
      <trkpt lat="45.97314" lon="4.78362">
        <ele>233.3</ele>
        <time>2018-04-18T09:56:38Z</time>
      </trkpt>
      <trkpt lat="45.97309" lon="4.78358">
        <ele>233.1</ele>
        <time>2018-04-18T09:56:39Z</time>
      </trkpt>
      <trkpt lat="45.97305" lon="4.78353">
        <ele>233</ele>
        <time>2018-04-18T09:56:40Z</time>
      </trkpt>
      <trkpt lat="45.973" lon="4.78348">
        <ele>233</ele>
        <time>2018-04-18T09:56:41Z</time>
      </trkpt>
      <trkpt lat="45.97296" lon="4.78343">
        <ele>233</ele>
        <time>2018-04-18T09:56:42Z</time>
      </trkpt>
      <trkpt lat="45.97293" lon="4.78338">
        <ele>233</ele>
        <time>2018-04-18T09:56:43Z</time>
      </trkpt>
      <trkpt lat="45.97291" lon="4.78331">
        <ele>233</ele>
        <time>2018-04-18T09:56:44Z</time>
      </trkpt>
      <trkpt lat="45.97287" lon="4.78326">
        <ele>233.1</ele>
        <time>2018-04-18T09:56:45Z</time>
      </trkpt>
      <trkpt lat="45.97283" lon="4.78319">
        <ele>233.1</ele>
        <time>2018-04-18T09:56:46Z</time>
      </trkpt>
      <trkpt lat="45.97279" lon="4.78313">
        <ele>233</ele>
        <time>2018-04-18T09:56:47Z</time>
      </trkpt>
      <trkpt lat="45.97274" lon="4.78308">
        <ele>233</ele>
        <time>2018-04-18T09:56:48Z</time>
      </trkpt>
      <trkpt lat="45.9727" lon="4.78302">
        <ele>233</ele>
        <time>2018-04-18T09:56:49Z</time>
      </trkpt>
      <trkpt lat="45.97265" lon="4.78296">
        <ele>233</ele>
        <time>2018-04-18T09:56:50Z</time>
      </trkpt>
      <trkpt lat="45.97261" lon="4.7829">
        <ele>233</ele>
        <time>2018-04-18T09:56:51Z</time>
      </trkpt>
      <trkpt lat="45.97256" lon="4.78282">
        <ele>233</ele>
        <time>2018-04-18T09:56:52Z</time>
      </trkpt>
      <trkpt lat="45.97251" lon="4.78274">
        <ele>233</ele>
        <time>2018-04-18T09:56:53Z</time>
      </trkpt>
      <trkpt lat="45.97248" lon="4.78266">
        <ele>233</ele>
        <time>2018-04-18T09:56:54Z</time>
      </trkpt>
      <trkpt lat="45.97244" lon="4.78259">
        <ele>233</ele>
        <time>2018-04-18T09:56:55Z</time>
      </trkpt>
      <trkpt lat="45.9724" lon="4.78251">
        <ele>233</ele>
        <time>2018-04-18T09:56:56Z</time>
      </trkpt>
      <trkpt lat="45.97235" lon="4.78243">
        <ele>232.9</ele>
        <time>2018-04-18T09:56:57Z</time>
      </trkpt>
      <trkpt lat="45.97231" lon="4.78236">
        <ele>232.7</ele>
        <time>2018-04-18T09:56:58Z</time>
      </trkpt>
      <trkpt lat="45.97229" lon="4.78233">
        <ele>232.5</ele>
        <time>2018-04-18T09:56:59Z</time>
      </trkpt>
      <trkpt lat="45.97225" lon="4.78225">
        <ele>232.2</ele>
        <time>2018-04-18T09:57:00Z</time>
      </trkpt>
      <trkpt lat="45.97221" lon="4.78217">
        <ele>232.2</ele>
        <time>2018-04-18T09:57:01Z</time>
      </trkpt>
      <trkpt lat="45.97216" lon="4.7821">
        <ele>232.4</ele>
        <time>2018-04-18T09:57:02Z</time>
      </trkpt>
      <trkpt lat="45.97211" lon="4.78202">
        <ele>232.4</ele>
        <time>2018-04-18T09:57:03Z</time>
      </trkpt>
      <trkpt lat="45.97207" lon="4.78194">
        <ele>232.5</ele>
        <time>2018-04-18T09:57:04Z</time>
      </trkpt>
      <trkpt lat="45.97204" lon="4.78187">
        <ele>232.3</ele>
        <time>2018-04-18T09:57:05Z</time>
      </trkpt>
      <trkpt lat="45.97199" lon="4.78178">
        <ele>232.2</ele>
        <time>2018-04-18T09:57:06Z</time>
      </trkpt>
      <trkpt lat="45.97196" lon="4.78171">
        <ele>232</ele>
        <time>2018-04-18T09:57:07Z</time>
      </trkpt>
      <trkpt lat="45.97192" lon="4.78163">
        <ele>232</ele>
        <time>2018-04-18T09:57:08Z</time>
      </trkpt>
      <trkpt lat="45.9719" lon="4.78158">
        <ele>232</ele>
        <time>2018-04-18T09:57:09Z</time>
      </trkpt>
      <trkpt lat="45.97187" lon="4.78151">
        <ele>232</ele>
        <time>2018-04-18T09:57:10Z</time>
      </trkpt>
      <trkpt lat="45.97183" lon="4.78145">
        <ele>232</ele>
        <time>2018-04-18T09:57:11Z</time>
      </trkpt>
      <trkpt lat="45.97179" lon="4.78138">
        <ele>232</ele>
        <time>2018-04-18T09:57:12Z</time>
      </trkpt>
      <trkpt lat="45.97175" lon="4.78131">
        <ele>232</ele>
        <time>2018-04-18T09:57:13Z</time>
      </trkpt>
      <trkpt lat="45.9717" lon="4.78125">
        <ele>232</ele>
        <time>2018-04-18T09:57:14Z</time>
      </trkpt>
      <trkpt lat="45.97167" lon="4.78118">
        <ele>232</ele>
        <time>2018-04-18T09:57:15Z</time>
      </trkpt>
      <trkpt lat="45.97163" lon="4.78114">
        <ele>232</ele>
        <time>2018-04-18T09:57:16Z</time>
      </trkpt>
      <trkpt lat="45.9716" lon="4.78109">
        <ele>232</ele>
        <time>2018-04-18T09:57:17Z</time>
      </trkpt>
      <trkpt lat="45.97154" lon="4.78103">
        <ele>232</ele>
        <time>2018-04-18T09:57:18Z</time>
      </trkpt>
      <trkpt lat="45.97149" lon="4.78096">
        <ele>232</ele>
        <time>2018-04-18T09:57:19Z</time>
      </trkpt>
      <trkpt lat="45.97143" lon="4.78088">
        <ele>232</ele>
        <time>2018-04-18T09:57:20Z</time>
      </trkpt>
      <trkpt lat="45.9714" lon="4.78082">
        <ele>232</ele>
        <time>2018-04-18T09:57:21Z</time>
      </trkpt>
      <trkpt lat="45.97137" lon="4.78076">
        <ele>232</ele>
        <time>2018-04-18T09:57:22Z</time>
      </trkpt>
      <trkpt lat="45.97132" lon="4.7807">
        <ele>231.9</ele>
        <time>2018-04-18T09:57:23Z</time>
      </trkpt>
      <trkpt lat="45.97127" lon="4.78065">
        <ele>231.7</ele>
        <time>2018-04-18T09:57:24Z</time>
      </trkpt>
      <trkpt lat="45.97121" lon="4.78059">
        <ele>231.4</ele>
        <time>2018-04-18T09:57:25Z</time>
      </trkpt>
      <trkpt lat="45.97117" lon="4.78054">
        <ele>231.3</ele>
        <time>2018-04-18T09:57:26Z</time>
      </trkpt>
      <trkpt lat="45.97113" lon="4.78049">
        <ele>231.3</ele>
        <time>2018-04-18T09:57:27Z</time>
      </trkpt>
      <trkpt lat="45.97108" lon="4.78043">
        <ele>231.4</ele>
        <time>2018-04-18T09:57:28Z</time>
      </trkpt>
      <trkpt lat="45.97104" lon="4.78039">
        <ele>231.5</ele>
        <time>2018-04-18T09:57:29Z</time>
      </trkpt>
      <trkpt lat="45.971" lon="4.78034">
        <ele>231.5</ele>
        <time>2018-04-18T09:57:30Z</time>
      </trkpt>
      <trkpt lat="45.97095" lon="4.78028">
        <ele>231.4</ele>
        <time>2018-04-18T09:57:31Z</time>
      </trkpt>
      <trkpt lat="45.97089" lon="4.78022">
        <ele>231.2</ele>
        <time>2018-04-18T09:57:32Z</time>
      </trkpt>
      <trkpt lat="45.97084" lon="4.78018">
        <ele>231</ele>
        <time>2018-04-18T09:57:33Z</time>
      </trkpt>
      <trkpt lat="45.97078" lon="4.78013">
        <ele>231</ele>
        <time>2018-04-18T09:57:34Z</time>
      </trkpt>
      <trkpt lat="45.97074" lon="4.78009">
        <ele>231</ele>
        <time>2018-04-18T09:57:35Z</time>
      </trkpt>
      <trkpt lat="45.97069" lon="4.78004">
        <ele>231</ele>
        <time>2018-04-18T09:57:36Z</time>
      </trkpt>
      <trkpt lat="45.97065" lon="4.77999">
        <ele>231</ele>
        <time>2018-04-18T09:57:37Z</time>
      </trkpt>
      <trkpt lat="45.97061" lon="4.77996">
        <ele>231</ele>
        <time>2018-04-18T09:57:38Z</time>
      </trkpt>
      <trkpt lat="45.97056" lon="4.77991">
        <ele>231</ele>
        <time>2018-04-18T09:57:39Z</time>
      </trkpt>
      <trkpt lat="45.97051" lon="4.77986">
        <ele>230.9</ele>
        <time>2018-04-18T09:57:40Z</time>
      </trkpt>
      <trkpt lat="45.97047" lon="4.7798">
        <ele>230.8</ele>
        <time>2018-04-18T09:57:41Z</time>
      </trkpt>
      <trkpt lat="45.97041" lon="4.77974">
        <ele>230.5</ele>
        <time>2018-04-18T09:57:42Z</time>
      </trkpt>
      <trkpt lat="45.97036" lon="4.77968">
        <ele>230.4</ele>
        <time>2018-04-18T09:57:43Z</time>
      </trkpt>
      <trkpt lat="45.97031" lon="4.77962">
        <ele>230.5</ele>
        <time>2018-04-18T09:57:44Z</time>
      </trkpt>
      <trkpt lat="45.97027" lon="4.77956">
        <ele>230.6</ele>
        <time>2018-04-18T09:57:45Z</time>
      </trkpt>
      <trkpt lat="45.9702" lon="4.77949">
        <ele>230.6</ele>
        <time>2018-04-18T09:57:46Z</time>
      </trkpt>
      <trkpt lat="45.97016" lon="4.77945">
        <ele>230.6</ele>
        <time>2018-04-18T09:57:47Z</time>
      </trkpt>
      <trkpt lat="45.97012" lon="4.77939">
        <ele>230.4</ele>
        <time>2018-04-18T09:57:48Z</time>
      </trkpt>
      <trkpt lat="45.97008" lon="4.77932">
        <ele>230.3</ele>
        <time>2018-04-18T09:57:49Z</time>
      </trkpt>
      <trkpt lat="45.97004" lon="4.77925">
        <ele>230.1</ele>
        <time>2018-04-18T09:57:50Z</time>
      </trkpt>
      <trkpt lat="45.96999" lon="4.77918">
        <ele>230</ele>
        <time>2018-04-18T09:57:51Z</time>
      </trkpt>
      <trkpt lat="45.96995" lon="4.77913">
        <ele>230.1</ele>
        <time>2018-04-18T09:57:52Z</time>
      </trkpt>
      <trkpt lat="45.9699" lon="4.77908">
        <ele>230.2</ele>
        <time>2018-04-18T09:57:53Z</time>
      </trkpt>
      <trkpt lat="45.96986" lon="4.77901">
        <ele>230.3</ele>
        <time>2018-04-18T09:57:54Z</time>
      </trkpt>
      <trkpt lat="45.96981" lon="4.77897">
        <ele>230.2</ele>
        <time>2018-04-18T09:57:55Z</time>
      </trkpt>
      <trkpt lat="45.96976" lon="4.77893">
        <ele>230.1</ele>
        <time>2018-04-18T09:57:56Z</time>
      </trkpt>
      <trkpt lat="45.96972" lon="4.77888">
        <ele>230</ele>
        <time>2018-04-18T09:57:57Z</time>
      </trkpt>
      <trkpt lat="45.96968" lon="4.77883">
        <ele>230</ele>
        <time>2018-04-18T09:57:58Z</time>
      </trkpt>
      <trkpt lat="45.96963" lon="4.77877">
        <ele>230</ele>
        <time>2018-04-18T09:57:59Z</time>
      </trkpt>
      <trkpt lat="45.96959" lon="4.77872">
        <ele>230</ele>
        <time>2018-04-18T09:58:00Z</time>
      </trkpt>
      <trkpt lat="45.96954" lon="4.77867">
        <ele>230</ele>
        <time>2018-04-18T09:58:01Z</time>
      </trkpt>
      <trkpt lat="45.96947" lon="4.77861">
        <ele>230</ele>
        <time>2018-04-18T09:58:02Z</time>
      </trkpt>
      <trkpt lat="45.96941" lon="4.77857">
        <ele>230</ele>
        <time>2018-04-18T09:58:03Z</time>
      </trkpt>
      <trkpt lat="45.96936" lon="4.77852">
        <ele>229.9</ele>
        <time>2018-04-18T09:58:04Z</time>
      </trkpt>
      <trkpt lat="45.96934" lon="4.7785">
        <ele>229.8</ele>
        <time>2018-04-18T09:58:05Z</time>
      </trkpt>
      <trkpt lat="45.96927" lon="4.77841">
        <ele>229.6</ele>
        <time>2018-04-18T09:58:06Z</time>
      </trkpt>
      <trkpt lat="45.96921" lon="4.77835">
        <ele>229.2</ele>
        <time>2018-04-18T09:58:07Z</time>
      </trkpt>
      <trkpt lat="45.96917" lon="4.77831">
        <ele>229.1</ele>
        <time>2018-04-18T09:58:08Z</time>
      </trkpt>
      <trkpt lat="45.96911" lon="4.77824">
        <ele>229.3</ele>
        <time>2018-04-18T09:58:09Z</time>
      </trkpt>
      <trkpt lat="45.96906" lon="4.77819">
        <ele>229.3</ele>
        <time>2018-04-18T09:58:10Z</time>
      </trkpt>
      <trkpt lat="45.96901" lon="4.77813">
        <ele>229.3</ele>
        <time>2018-04-18T09:58:11Z</time>
      </trkpt>
      <trkpt lat="45.96895" lon="4.77808">
        <ele>229.2</ele>
        <time>2018-04-18T09:58:12Z</time>
      </trkpt>
      <trkpt lat="45.9689" lon="4.77803">
        <ele>229</ele>
        <time>2018-04-18T09:58:13Z</time>
      </trkpt>
      <trkpt lat="45.96884" lon="4.77797">
        <ele>229</ele>
        <time>2018-04-18T09:58:14Z</time>
      </trkpt>
      <trkpt lat="45.96877" lon="4.77792">
        <ele>229</ele>
        <time>2018-04-18T09:58:16Z</time>
      </trkpt>
      <trkpt lat="45.96874" lon="4.77788">
        <ele>229</ele>
        <time>2018-04-18T09:58:17Z</time>
      </trkpt>
      <trkpt lat="45.96869" lon="4.77783">
        <ele>229</ele>
        <time>2018-04-18T09:58:18Z</time>
      </trkpt>
      <trkpt lat="45.96865" lon="4.77778">
        <ele>229</ele>
        <time>2018-04-18T09:58:19Z</time>
      </trkpt>
      <trkpt lat="45.9686" lon="4.77773">
        <ele>229</ele>
        <time>2018-04-18T09:58:20Z</time>
      </trkpt>
      <trkpt lat="45.96856" lon="4.7777">
        <ele>228.9</ele>
        <time>2018-04-18T09:58:21Z</time>
      </trkpt>
      <trkpt lat="45.96852" lon="4.77763">
        <ele>228.8</ele>
        <time>2018-04-18T09:58:22Z</time>
      </trkpt>
      <trkpt lat="45.96846" lon="4.77758">
        <ele>228.6</ele>
        <time>2018-04-18T09:58:23Z</time>
      </trkpt>
      <trkpt lat="45.96841" lon="4.77751">
        <ele>228.3</ele>
        <time>2018-04-18T09:58:24Z</time>
      </trkpt>
      <trkpt lat="45.96836" lon="4.77747">
        <ele>228.2</ele>
        <time>2018-04-18T09:58:25Z</time>
      </trkpt>
      <trkpt lat="45.96832" lon="4.77742">
        <ele>228.3</ele>
        <time>2018-04-18T09:58:26Z</time>
      </trkpt>
      <trkpt lat="45.96826" lon="4.77737">
        <ele>228.5</ele>
        <time>2018-04-18T09:58:27Z</time>
      </trkpt>
      <trkpt lat="45.96821" lon="4.77733">
        <ele>228.5</ele>
        <time>2018-04-18T09:58:28Z</time>
      </trkpt>
      <trkpt lat="45.96819" lon="4.77729">
        <ele>228.5</ele>
        <time>2018-04-18T09:58:29Z</time>
      </trkpt>
      <trkpt lat="45.96814" lon="4.77724">
        <ele>228.3</ele>
        <time>2018-04-18T09:58:30Z</time>
      </trkpt>
      <trkpt lat="45.9681" lon="4.77719">
        <ele>228.3</ele>
        <time>2018-04-18T09:58:31Z</time>
      </trkpt>
      <trkpt lat="45.96804" lon="4.77713">
        <ele>228.3</ele>
        <time>2018-04-18T09:58:32Z</time>
      </trkpt>
      <trkpt lat="45.96798" lon="4.77707">
        <ele>228.4</ele>
        <time>2018-04-18T09:58:33Z</time>
      </trkpt>
      <trkpt lat="45.96791" lon="4.77699">
        <ele>228.4</ele>
        <time>2018-04-18T09:58:35Z</time>
      </trkpt>
      <trkpt lat="45.96784" lon="4.77691">
        <ele>228.2</ele>
        <time>2018-04-18T09:58:36Z</time>
      </trkpt>
      <trkpt lat="45.96778" lon="4.77682">
        <ele>228</ele>
        <time>2018-04-18T09:58:37Z</time>
      </trkpt>
      <trkpt lat="45.96777" lon="4.77681">
        <ele>228</ele>
        <time>2018-04-18T09:58:38Z</time>
      </trkpt>
      <trkpt lat="45.96769" lon="4.77672">
        <ele>228</ele>
        <time>2018-04-18T09:58:39Z</time>
      </trkpt>
      <trkpt lat="45.96764" lon="4.77664">
        <ele>228</ele>
        <time>2018-04-18T09:58:40Z</time>
      </trkpt>
      <trkpt lat="45.96758" lon="4.77655">
        <ele>227.7</ele>
        <time>2018-04-18T09:58:41Z</time>
      </trkpt>
      <trkpt lat="45.96751" lon="4.77645">
        <ele>227.3</ele>
        <time>2018-04-18T09:58:42Z</time>
      </trkpt>
      <trkpt lat="45.96745" lon="4.77638">
        <ele>227.2</ele>
        <time>2018-04-18T09:58:44Z</time>
      </trkpt>
      <trkpt lat="45.9674" lon="4.77632">
        <ele>227.4</ele>
        <time>2018-04-18T09:58:45Z</time>
      </trkpt>
      <trkpt lat="45.96736" lon="4.77627">
        <ele>227.5</ele>
        <time>2018-04-18T09:58:46Z</time>
      </trkpt>
      <trkpt lat="45.9673" lon="4.7762">
        <ele>227.4</ele>
        <time>2018-04-18T09:58:47Z</time>
      </trkpt>
      <trkpt lat="45.96725" lon="4.77614">
        <ele>227.2</ele>
        <time>2018-04-18T09:58:48Z</time>
      </trkpt>
      <trkpt lat="45.9672" lon="4.77609">
        <ele>227</ele>
        <time>2018-04-18T09:58:49Z</time>
      </trkpt>
      <trkpt lat="45.96716" lon="4.77605">
        <ele>227</ele>
        <time>2018-04-18T09:58:50Z</time>
      </trkpt>
      <trkpt lat="45.96711" lon="4.77599">
        <ele>227</ele>
        <time>2018-04-18T09:58:51Z</time>
      </trkpt>
      <trkpt lat="45.96707" lon="4.77592">
        <ele>227</ele>
        <time>2018-04-18T09:58:52Z</time>
      </trkpt>
      <trkpt lat="45.96702" lon="4.77589">
        <ele>227</ele>
        <time>2018-04-18T09:58:53Z</time>
      </trkpt>
      <trkpt lat="45.96694" lon="4.77582">
        <ele>227</ele>
        <time>2018-04-18T09:58:54Z</time>
      </trkpt>
      <trkpt lat="45.96691" lon="4.77577">
        <ele>226.9</ele>
        <time>2018-04-18T09:58:55Z</time>
      </trkpt>
      <trkpt lat="45.96686" lon="4.77574">
        <ele>226.7</ele>
        <time>2018-04-18T09:58:56Z</time>
      </trkpt>
      <trkpt lat="45.96681" lon="4.77569">
        <ele>226.5</ele>
        <time>2018-04-18T09:58:57Z</time>
      </trkpt>
      <trkpt lat="45.96674" lon="4.77565">
        <ele>226.3</ele>
        <time>2018-04-18T09:58:58Z</time>
      </trkpt>
      <trkpt lat="45.96668" lon="4.7756">
        <ele>226.1</ele>
        <time>2018-04-18T09:58:59Z</time>
      </trkpt>
      <trkpt lat="45.96663" lon="4.77557">
        <ele>225.9</ele>
        <time>2018-04-18T09:59:00Z</time>
      </trkpt>
      <trkpt lat="45.96657" lon="4.77553">
        <ele>225.7</ele>
        <time>2018-04-18T09:59:01Z</time>
      </trkpt>
      <trkpt lat="45.96652" lon="4.77548">
        <ele>225.6</ele>
        <time>2018-04-18T09:59:02Z</time>
      </trkpt>
      <trkpt lat="45.96644" lon="4.77547">
        <ele>225.4</ele>
        <time>2018-04-18T09:59:03Z</time>
      </trkpt>
      <trkpt lat="45.96639" lon="4.77544">
        <ele>225.4</ele>
        <time>2018-04-18T09:59:04Z</time>
      </trkpt>
      <trkpt lat="45.96633" lon="4.77543">
        <ele>225.4</ele>
        <time>2018-04-18T09:59:05Z</time>
      </trkpt>
      <trkpt lat="45.96627" lon="4.77538">
        <ele>225.4</ele>
        <time>2018-04-18T09:59:06Z</time>
      </trkpt>
      <trkpt lat="45.96623" lon="4.77533">
        <ele>225.3</ele>
        <time>2018-04-18T09:59:07Z</time>
      </trkpt>
      <trkpt lat="45.96617" lon="4.77529">
        <ele>225.2</ele>
        <time>2018-04-18T09:59:08Z</time>
      </trkpt>
      <trkpt lat="45.9661" lon="4.77525">
        <ele>225</ele>
        <time>2018-04-18T09:59:09Z</time>
      </trkpt>
      <trkpt lat="45.96606" lon="4.7752">
        <ele>224.8</ele>
        <time>2018-04-18T09:59:10Z</time>
      </trkpt>
      <trkpt lat="45.96601" lon="4.77516">
        <ele>224.6</ele>
        <time>2018-04-18T09:59:11Z</time>
      </trkpt>
      <trkpt lat="45.96595" lon="4.77514">
        <ele>224.4</ele>
        <time>2018-04-18T09:59:12Z</time>
      </trkpt>
      <trkpt lat="45.96589" lon="4.77511">
        <ele>224.2</ele>
        <time>2018-04-18T09:59:13Z</time>
      </trkpt>
      <trkpt lat="45.96583" lon="4.77508">
        <ele>224</ele>
        <time>2018-04-18T09:59:14Z</time>
      </trkpt>
      <trkpt lat="45.96576" lon="4.77503">
        <ele>223.8</ele>
        <time>2018-04-18T09:59:15Z</time>
      </trkpt>
      <trkpt lat="45.96571" lon="4.77502">
        <ele>223.5</ele>
        <time>2018-04-18T09:59:16Z</time>
      </trkpt>
      <trkpt lat="45.96566" lon="4.77498">
        <ele>223.4</ele>
        <time>2018-04-18T09:59:17Z</time>
      </trkpt>
      <trkpt lat="45.9656" lon="4.77493">
        <ele>223.4</ele>
        <time>2018-04-18T09:59:18Z</time>
      </trkpt>
      <trkpt lat="45.96554" lon="4.77488">
        <ele>223.3</ele>
        <time>2018-04-18T09:59:19Z</time>
      </trkpt>
      <trkpt lat="45.96548" lon="4.77484">
        <ele>223.3</ele>
        <time>2018-04-18T09:59:20Z</time>
      </trkpt>
      <trkpt lat="45.96542" lon="4.7748">
        <ele>223.2</ele>
        <time>2018-04-18T09:59:21Z</time>
      </trkpt>
      <trkpt lat="45.96536" lon="4.77476">
        <ele>223.1</ele>
        <time>2018-04-18T09:59:22Z</time>
      </trkpt>
      <trkpt lat="45.9653" lon="4.77473">
        <ele>223.1</ele>
        <time>2018-04-18T09:59:23Z</time>
      </trkpt>
      <trkpt lat="45.96523" lon="4.77468">
        <ele>222.8</ele>
        <time>2018-04-18T09:59:24Z</time>
      </trkpt>
      <trkpt lat="45.96516" lon="4.77463">
        <ele>222.6</ele>
        <time>2018-04-18T09:59:25Z</time>
      </trkpt>
      <trkpt lat="45.9651" lon="4.77459">
        <ele>222.4</ele>
        <time>2018-04-18T09:59:26Z</time>
      </trkpt>
      <trkpt lat="45.96504" lon="4.77455">
        <ele>222.1</ele>
        <time>2018-04-18T09:59:27Z</time>
      </trkpt>
      <trkpt lat="45.96498" lon="4.77451">
        <ele>222</ele>
        <time>2018-04-18T09:59:28Z</time>
      </trkpt>
      <trkpt lat="45.96491" lon="4.77446">
        <ele>222</ele>
        <time>2018-04-18T09:59:29Z</time>
      </trkpt>
      <trkpt lat="45.96484" lon="4.77442">
        <ele>222.1</ele>
        <time>2018-04-18T09:59:30Z</time>
      </trkpt>
      <trkpt lat="45.96478" lon="4.77437">
        <ele>222.3</ele>
        <time>2018-04-18T09:59:31Z</time>
      </trkpt>
      <trkpt lat="45.96472" lon="4.77435">
        <ele>222.3</ele>
        <time>2018-04-18T09:59:32Z</time>
      </trkpt>
      <trkpt lat="45.96466" lon="4.77431">
        <ele>222.2</ele>
        <time>2018-04-18T09:59:33Z</time>
      </trkpt>
      <trkpt lat="45.9646" lon="4.77427">
        <ele>221.9</ele>
        <time>2018-04-18T09:59:34Z</time>
      </trkpt>
      <trkpt lat="45.96453" lon="4.77423">
        <ele>221.6</ele>
        <time>2018-04-18T09:59:35Z</time>
      </trkpt>
      <trkpt lat="45.96446" lon="4.77419">
        <ele>221.1</ele>
        <time>2018-04-18T09:59:36Z</time>
      </trkpt>
      <trkpt lat="45.96439" lon="4.77414">
        <ele>220.6</ele>
        <time>2018-04-18T09:59:37Z</time>
      </trkpt>
      <trkpt lat="45.96433" lon="4.7741">
        <ele>220.3</ele>
        <time>2018-04-18T09:59:38Z</time>
      </trkpt>
      <trkpt lat="45.96426" lon="4.77406">
        <ele>219.9</ele>
        <time>2018-04-18T09:59:39Z</time>
      </trkpt>
      <trkpt lat="45.96421" lon="4.77403">
        <ele>219.7</ele>
        <time>2018-04-18T09:59:40Z</time>
      </trkpt>
      <trkpt lat="45.96415" lon="4.77399">
        <ele>219.5</ele>
        <time>2018-04-18T09:59:41Z</time>
      </trkpt>
      <trkpt lat="45.96409" lon="4.77396">
        <ele>219.5</ele>
        <time>2018-04-18T09:59:42Z</time>
      </trkpt>
      <trkpt lat="45.96403" lon="4.77394">
        <ele>219.3</ele>
        <time>2018-04-18T09:59:43Z</time>
      </trkpt>
      <trkpt lat="45.96397" lon="4.77387">
        <ele>219.4</ele>
        <time>2018-04-18T09:59:44Z</time>
      </trkpt>
      <trkpt lat="45.96391" lon="4.77383">
        <ele>219.3</ele>
        <time>2018-04-18T09:59:45Z</time>
      </trkpt>
      <trkpt lat="45.96384" lon="4.7738">
        <ele>219.1</ele>
        <time>2018-04-18T09:59:46Z</time>
      </trkpt>
      <trkpt lat="45.96377" lon="4.77375">
        <ele>218.9</ele>
        <time>2018-04-18T09:59:47Z</time>
      </trkpt>
      <trkpt lat="45.9637" lon="4.77371">
        <ele>218.7</ele>
        <time>2018-04-18T09:59:48Z</time>
      </trkpt>
      <trkpt lat="45.96364" lon="4.77368">
        <ele>218.6</ele>
        <time>2018-04-18T09:59:49Z</time>
      </trkpt>
      <trkpt lat="45.96357" lon="4.77364">
        <ele>218.5</ele>
        <time>2018-04-18T09:59:50Z</time>
      </trkpt>
      <trkpt lat="45.96351" lon="4.77361">
        <ele>218.3</ele>
        <time>2018-04-18T09:59:51Z</time>
      </trkpt>
      <trkpt lat="45.96345" lon="4.77357">
        <ele>218</ele>
        <time>2018-04-18T09:59:52Z</time>
      </trkpt>
      <trkpt lat="45.96338" lon="4.77351">
        <ele>217.7</ele>
        <time>2018-04-18T09:59:53Z</time>
      </trkpt>
      <trkpt lat="45.96331" lon="4.77347">
        <ele>217.4</ele>
        <time>2018-04-18T09:59:54Z</time>
      </trkpt>
      <trkpt lat="45.96325" lon="4.77344">
        <ele>217.2</ele>
        <time>2018-04-18T09:59:55Z</time>
      </trkpt>
      <trkpt lat="45.96321" lon="4.77342">
        <ele>217.1</ele>
        <time>2018-04-18T09:59:56Z</time>
      </trkpt>
      <trkpt lat="45.96314" lon="4.77338">
        <ele>217</ele>
        <time>2018-04-18T09:59:57Z</time>
      </trkpt>
      <trkpt lat="45.96308" lon="4.77335">
        <ele>217</ele>
        <time>2018-04-18T09:59:58Z</time>
      </trkpt>
      <trkpt lat="45.96302" lon="4.7733">
        <ele>217</ele>
        <time>2018-04-18T09:59:59Z</time>
      </trkpt>
      <trkpt lat="45.96295" lon="4.77327">
        <ele>216.9</ele>
        <time>2018-04-18T10:00:00Z</time>
      </trkpt>
      <trkpt lat="45.96288" lon="4.77321">
        <ele>217</ele>
        <time>2018-04-18T10:00:01Z</time>
      </trkpt>
      <trkpt lat="45.96281" lon="4.7732">
        <ele>216.7</ele>
        <time>2018-04-18T10:00:02Z</time>
      </trkpt>
      <trkpt lat="45.96274" lon="4.77315">
        <ele>216.6</ele>
        <time>2018-04-18T10:00:03Z</time>
      </trkpt>
      <trkpt lat="45.96267" lon="4.7731">
        <ele>216.5</ele>
        <time>2018-04-18T10:00:04Z</time>
      </trkpt>
      <trkpt lat="45.9626" lon="4.77307">
        <ele>216.1</ele>
        <time>2018-04-18T10:00:05Z</time>
      </trkpt>
      <trkpt lat="45.96255" lon="4.77306">
        <ele>215.5</ele>
        <time>2018-04-18T10:00:06Z</time>
      </trkpt>
      <trkpt lat="45.96248" lon="4.77301">
        <ele>215.7</ele>
        <time>2018-04-18T10:00:07Z</time>
      </trkpt>
      <trkpt lat="45.96242" lon="4.77297">
        <ele>216.2</ele>
        <time>2018-04-18T10:00:08Z</time>
      </trkpt>
      <trkpt lat="45.96237" lon="4.77294">
        <ele>216.4</ele>
        <time>2018-04-18T10:00:09Z</time>
      </trkpt>
      <trkpt lat="45.9623" lon="4.77291">
        <ele>216.5</ele>
        <time>2018-04-18T10:00:10Z</time>
      </trkpt>
      <trkpt lat="45.96223" lon="4.77289">
        <ele>216.5</ele>
        <time>2018-04-18T10:00:11Z</time>
      </trkpt>
      <trkpt lat="45.96218" lon="4.77288">
        <ele>216</ele>
        <time>2018-04-18T10:00:12Z</time>
      </trkpt>
      <trkpt lat="45.96212" lon="4.77284">
        <ele>215.7</ele>
        <time>2018-04-18T10:00:13Z</time>
      </trkpt>
      <trkpt lat="45.96206" lon="4.7728">
        <ele>215.3</ele>
        <time>2018-04-18T10:00:14Z</time>
      </trkpt>
      <trkpt lat="45.962" lon="4.77276">
        <ele>215</ele>
        <time>2018-04-18T10:00:15Z</time>
      </trkpt>
      <trkpt lat="45.96193" lon="4.77275">
        <ele>214.3</ele>
        <time>2018-04-18T10:00:16Z</time>
      </trkpt>
      <trkpt lat="45.96186" lon="4.77271">
        <ele>214.4</ele>
        <time>2018-04-18T10:00:17Z</time>
      </trkpt>
      <trkpt lat="45.9618" lon="4.77266">
        <ele>214.5</ele>
        <time>2018-04-18T10:00:18Z</time>
      </trkpt>
      <trkpt lat="45.96174" lon="4.77261">
        <ele>214.5</ele>
        <time>2018-04-18T10:00:19Z</time>
      </trkpt>
      <trkpt lat="45.96168" lon="4.77256">
        <ele>214.4</ele>
        <time>2018-04-18T10:00:20Z</time>
      </trkpt>
      <trkpt lat="45.96161" lon="4.77253">
        <ele>214.3</ele>
        <time>2018-04-18T10:00:21Z</time>
      </trkpt>
      <trkpt lat="45.96155" lon="4.7725">
        <ele>214.2</ele>
        <time>2018-04-18T10:00:22Z</time>
      </trkpt>
      <trkpt lat="45.96149" lon="4.77247">
        <ele>213.8</ele>
        <time>2018-04-18T10:00:23Z</time>
      </trkpt>
      <trkpt lat="45.96143" lon="4.77247">
        <ele>213.3</ele>
        <time>2018-04-18T10:00:24Z</time>
      </trkpt>
      <trkpt lat="45.96137" lon="4.77244">
        <ele>212.9</ele>
        <time>2018-04-18T10:00:25Z</time>
      </trkpt>
      <trkpt lat="45.96129" lon="4.77246">
        <ele>212.5</ele>
        <time>2018-04-18T10:00:26Z</time>
      </trkpt>
      <trkpt lat="45.96123" lon="4.77245">
        <ele>212.1</ele>
        <time>2018-04-18T10:00:27Z</time>
      </trkpt>
      <trkpt lat="45.96118" lon="4.77245">
        <ele>211.9</ele>
        <time>2018-04-18T10:00:28Z</time>
      </trkpt>
      <trkpt lat="45.96111" lon="4.77245">
        <ele>211.5</ele>
        <time>2018-04-18T10:00:29Z</time>
      </trkpt>
      <trkpt lat="45.96103" lon="4.77244">
        <ele>211.3</ele>
        <time>2018-04-18T10:00:30Z</time>
      </trkpt>
      <trkpt lat="45.96096" lon="4.77245">
        <ele>211</ele>
        <time>2018-04-18T10:00:31Z</time>
      </trkpt>
      <trkpt lat="45.96089" lon="4.77244">
        <ele>210.8</ele>
        <time>2018-04-18T10:00:32Z</time>
      </trkpt>
      <trkpt lat="45.96081" lon="4.77244">
        <ele>210.5</ele>
        <time>2018-04-18T10:00:33Z</time>
      </trkpt>
      <trkpt lat="45.96074" lon="4.77245">
        <ele>210</ele>
        <time>2018-04-18T10:00:34Z</time>
      </trkpt>
      <trkpt lat="45.96067" lon="4.77245">
        <ele>209.6</ele>
        <time>2018-04-18T10:00:35Z</time>
      </trkpt>
      <trkpt lat="45.96059" lon="4.77246">
        <ele>209</ele>
        <time>2018-04-18T10:00:36Z</time>
      </trkpt>
      <trkpt lat="45.96051" lon="4.77246">
        <ele>208.5</ele>
        <time>2018-04-18T10:00:37Z</time>
      </trkpt>
      <trkpt lat="45.96043" lon="4.77246">
        <ele>208.2</ele>
        <time>2018-04-18T10:00:38Z</time>
      </trkpt>
      <trkpt lat="45.96034" lon="4.77248">
        <ele>207.5</ele>
        <time>2018-04-18T10:00:39Z</time>
      </trkpt>
      <trkpt lat="45.96026" lon="4.77248">
        <ele>207.1</ele>
        <time>2018-04-18T10:00:40Z</time>
      </trkpt>
      <trkpt lat="45.96018" lon="4.77249">
        <ele>206.5</ele>
        <time>2018-04-18T10:00:41Z</time>
      </trkpt>
      <trkpt lat="45.9601" lon="4.77248">
        <ele>206.1</ele>
        <time>2018-04-18T10:00:42Z</time>
      </trkpt>
      <trkpt lat="45.96001" lon="4.77242">
        <ele>206.2</ele>
        <time>2018-04-18T10:00:43Z</time>
      </trkpt>
      <trkpt lat="45.95993" lon="4.7724">
        <ele>205.8</ele>
        <time>2018-04-18T10:00:44Z</time>
      </trkpt>
      <trkpt lat="45.95985" lon="4.77235">
        <ele>205.8</ele>
        <time>2018-04-18T10:00:45Z</time>
      </trkpt>
      <trkpt lat="45.95977" lon="4.77232">
        <ele>205.4</ele>
        <time>2018-04-18T10:00:46Z</time>
      </trkpt>
      <trkpt lat="45.9597" lon="4.77225">
        <ele>205.2</ele>
        <time>2018-04-18T10:00:47Z</time>
      </trkpt>
      <trkpt lat="45.95963" lon="4.77217">
        <ele>204.5</ele>
        <time>2018-04-18T10:00:48Z</time>
      </trkpt>
      <trkpt lat="45.95956" lon="4.77207">
        <ele>203.6</ele>
        <time>2018-04-18T10:00:49Z</time>
      </trkpt>
      <trkpt lat="45.95951" lon="4.77195">
        <ele>203.2</ele>
        <time>2018-04-18T10:00:50Z</time>
      </trkpt>
      <trkpt lat="45.95948" lon="4.77183">
        <ele>203</ele>
        <time>2018-04-18T10:00:51Z</time>
      </trkpt>
      <trkpt lat="45.95946" lon="4.7717">
        <ele>203.1</ele>
        <time>2018-04-18T10:00:52Z</time>
      </trkpt>
      <trkpt lat="45.95945" lon="4.77157">
        <ele>203</ele>
        <time>2018-04-18T10:00:53Z</time>
      </trkpt>
      <trkpt lat="45.95944" lon="4.77145">
        <ele>202.9</ele>
        <time>2018-04-18T10:00:54Z</time>
      </trkpt>
      <trkpt lat="45.95943" lon="4.77132">
        <ele>202.6</ele>
        <time>2018-04-18T10:00:55Z</time>
      </trkpt>
      <trkpt lat="45.95944" lon="4.77119">
        <ele>202.2</ele>
        <time>2018-04-18T10:00:56Z</time>
      </trkpt>
      <trkpt lat="45.95945" lon="4.77106">
        <ele>201.9</ele>
        <time>2018-04-18T10:00:57Z</time>
      </trkpt>
      <trkpt lat="45.95947" lon="4.77094">
        <ele>201.6</ele>
        <time>2018-04-18T10:00:58Z</time>
      </trkpt>
      <trkpt lat="45.95949" lon="4.77082">
        <ele>201.2</ele>
        <time>2018-04-18T10:00:59Z</time>
      </trkpt>
      <trkpt lat="45.95952" lon="4.7707">
        <ele>200.7</ele>
        <time>2018-04-18T10:01:00Z</time>
      </trkpt>
      <trkpt lat="45.95959" lon="4.77062">
        <ele>200.9</ele>
        <time>2018-04-18T10:01:01Z</time>
      </trkpt>
      <trkpt lat="45.95961" lon="4.77048">
        <ele>200.2</ele>
        <time>2018-04-18T10:01:02Z</time>
      </trkpt>
      <trkpt lat="45.95965" lon="4.77037">
        <ele>199.9</ele>
        <time>2018-04-18T10:01:03Z</time>
      </trkpt>
      <trkpt lat="45.95969" lon="4.77026">
        <ele>199.5</ele>
        <time>2018-04-18T10:01:04Z</time>
      </trkpt>
      <trkpt lat="45.95973" lon="4.77015">
        <ele>199.1</ele>
        <time>2018-04-18T10:01:05Z</time>
      </trkpt>
      <trkpt lat="45.95978" lon="4.77004">
        <ele>198.7</ele>
        <time>2018-04-18T10:01:06Z</time>
      </trkpt>
      <trkpt lat="45.95982" lon="4.76994">
        <ele>198.3</ele>
        <time>2018-04-18T10:01:07Z</time>
      </trkpt>
      <trkpt lat="45.95983" lon="4.76981">
        <ele>197.4</ele>
        <time>2018-04-18T10:01:08Z</time>
      </trkpt>
      <trkpt lat="45.95984" lon="4.76968">
        <ele>196.8</ele>
        <time>2018-04-18T10:01:09Z</time>
      </trkpt>
      <trkpt lat="45.95981" lon="4.76955">
        <ele>196.4</ele>
        <time>2018-04-18T10:01:10Z</time>
      </trkpt>
      <trkpt lat="45.95977" lon="4.76942">
        <ele>196.1</ele>
        <time>2018-04-18T10:01:11Z</time>
      </trkpt>
      <trkpt lat="45.95972" lon="4.76931">
        <ele>195.5</ele>
        <time>2018-04-18T10:01:12Z</time>
      </trkpt>
      <trkpt lat="45.95965" lon="4.76923">
        <ele>194.9</ele>
        <time>2018-04-18T10:01:13Z</time>
      </trkpt>
      <trkpt lat="45.95958" lon="4.76915">
        <ele>194.4</ele>
        <time>2018-04-18T10:01:14Z</time>
      </trkpt>
      <trkpt lat="45.95952" lon="4.76908">
        <ele>194</ele>
        <time>2018-04-18T10:01:15Z</time>
      </trkpt>
      <trkpt lat="45.95944" lon="4.76899">
        <ele>193.3</ele>
        <time>2018-04-18T10:01:16Z</time>
      </trkpt>
      <trkpt lat="45.95937" lon="4.76893">
        <ele>192.9</ele>
        <time>2018-04-18T10:01:17Z</time>
      </trkpt>
      <trkpt lat="45.95929" lon="4.76885">
        <ele>192.4</ele>
        <time>2018-04-18T10:01:18Z</time>
      </trkpt>
      <trkpt lat="45.95922" lon="4.76876">
        <ele>192.1</ele>
        <time>2018-04-18T10:01:19Z</time>
      </trkpt>
      <trkpt lat="45.95915" lon="4.76868">
        <ele>191.9</ele>
        <time>2018-04-18T10:01:20Z</time>
      </trkpt>
      <trkpt lat="45.95907" lon="4.7686">
        <ele>191.7</ele>
        <time>2018-04-18T10:01:21Z</time>
      </trkpt>
      <trkpt lat="45.95899" lon="4.76851">
        <ele>191.4</ele>
        <time>2018-04-18T10:01:22Z</time>
      </trkpt>
      <trkpt lat="45.9589" lon="4.76842">
        <ele>191.1</ele>
        <time>2018-04-18T10:01:23Z</time>
      </trkpt>
      <trkpt lat="45.95883" lon="4.76834">
        <ele>190.8</ele>
        <time>2018-04-18T10:01:24Z</time>
      </trkpt>
      <trkpt lat="45.95877" lon="4.76827">
        <ele>190.6</ele>
        <time>2018-04-18T10:01:25Z</time>
      </trkpt>
      <trkpt lat="45.95873" lon="4.76828">
        <ele>190.4</ele>
        <time>2018-04-18T10:01:26Z</time>
      </trkpt>
      <trkpt lat="45.95865" lon="4.76821">
        <ele>190.2</ele>
        <time>2018-04-18T10:01:27Z</time>
      </trkpt>
      <trkpt lat="45.9586" lon="4.76815">
        <ele>190</ele>
        <time>2018-04-18T10:01:28Z</time>
      </trkpt>
      <trkpt lat="45.95854" lon="4.76807">
        <ele>190</ele>
        <time>2018-04-18T10:01:29Z</time>
      </trkpt>
      <trkpt lat="45.95848" lon="4.768">
        <ele>190</ele>
        <time>2018-04-18T10:01:30Z</time>
      </trkpt>
      <trkpt lat="45.95842" lon="4.76793">
        <ele>190</ele>
        <time>2018-04-18T10:01:31Z</time>
      </trkpt>
      <trkpt lat="45.95837" lon="4.76781">
        <ele>190</ele>
        <time>2018-04-18T10:01:32Z</time>
      </trkpt>
      <trkpt lat="45.95835" lon="4.76771">
        <ele>190</ele>
        <time>2018-04-18T10:01:33Z</time>
      </trkpt>
      <trkpt lat="45.95832" lon="4.76761">
        <ele>190</ele>
        <time>2018-04-18T10:01:34Z</time>
      </trkpt>
      <trkpt lat="45.95829" lon="4.76752">
        <ele>189.8</ele>
        <time>2018-04-18T10:01:35Z</time>
      </trkpt>
      <trkpt lat="45.95827" lon="4.7674">
        <ele>189.5</ele>
        <time>2018-04-18T10:01:36Z</time>
      </trkpt>
      <trkpt lat="45.95825" lon="4.76731">
        <ele>189.2</ele>
        <time>2018-04-18T10:01:37Z</time>
      </trkpt>
      <trkpt lat="45.95823" lon="4.76719">
        <ele>189</ele>
        <time>2018-04-18T10:01:38Z</time>
      </trkpt>
      <trkpt lat="45.95821" lon="4.76709">
        <ele>189</ele>
        <time>2018-04-18T10:01:39Z</time>
      </trkpt>
      <trkpt lat="45.9582" lon="4.767">
        <ele>189</ele>
        <time>2018-04-18T10:01:40Z</time>
      </trkpt>
      <trkpt lat="45.95819" lon="4.76691">
        <ele>189</ele>
        <time>2018-04-18T10:01:41Z</time>
      </trkpt>
      <trkpt lat="45.95819" lon="4.76684">
        <ele>189</ele>
        <time>2018-04-18T10:01:42Z</time>
      </trkpt>
      <trkpt lat="45.95817" lon="4.76676">
        <ele>189</ele>
        <time>2018-04-18T10:01:43Z</time>
      </trkpt>
      <trkpt lat="45.95816" lon="4.76669">
        <ele>189</ele>
        <time>2018-04-18T10:01:44Z</time>
      </trkpt>
      <trkpt lat="45.95813" lon="4.76655">
        <ele>189.1</ele>
        <time>2018-04-18T10:01:45Z</time>
      </trkpt>
      <trkpt lat="45.95812" lon="4.76647">
        <ele>189.2</ele>
        <time>2018-04-18T10:01:46Z</time>
      </trkpt>
      <trkpt lat="45.95811" lon="4.76639">
        <ele>189.2</ele>
        <time>2018-04-18T10:01:47Z</time>
      </trkpt>
      <trkpt lat="45.95809" lon="4.76631">
        <ele>189.1</ele>
        <time>2018-04-18T10:01:48Z</time>
      </trkpt>
      <trkpt lat="45.95807" lon="4.76623">
        <ele>189.1</ele>
        <time>2018-04-18T10:01:49Z</time>
      </trkpt>
      <trkpt lat="45.95805" lon="4.76617">
        <ele>189</ele>
        <time>2018-04-18T10:01:50Z</time>
      </trkpt>
      <trkpt lat="45.95803" lon="4.76609">
        <ele>189</ele>
        <time>2018-04-18T10:01:51Z</time>
      </trkpt>
      <trkpt lat="45.95803" lon="4.766">
        <ele>189</ele>
        <time>2018-04-18T10:01:52Z</time>
      </trkpt>
      <trkpt lat="45.95801" lon="4.76593">
        <ele>189</ele>
        <time>2018-04-18T10:01:53Z</time>
      </trkpt>
      <trkpt lat="45.958" lon="4.76587">
        <ele>189</ele>
        <time>2018-04-18T10:01:54Z</time>
      </trkpt>
      <trkpt lat="45.95798" lon="4.76578">
        <ele>189</ele>
        <time>2018-04-18T10:01:55Z</time>
      </trkpt>
      <trkpt lat="45.95796" lon="4.76569">
        <ele>189</ele>
        <time>2018-04-18T10:01:56Z</time>
      </trkpt>
      <trkpt lat="45.958" lon="4.76566">
        <ele>189</ele>
        <time>2018-04-18T10:01:57Z</time>
      </trkpt>
      <trkpt lat="45.95797" lon="4.76555">
        <ele>189</ele>
        <time>2018-04-18T10:01:58Z</time>
      </trkpt>
      <trkpt lat="45.95796" lon="4.76545">
        <ele>188.9</ele>
        <time>2018-04-18T10:01:59Z</time>
      </trkpt>
      <trkpt lat="45.95794" lon="4.76537">
        <ele>188.7</ele>
        <time>2018-04-18T10:02:00Z</time>
      </trkpt>
      <trkpt lat="45.95793" lon="4.76529">
        <ele>188.6</ele>
        <time>2018-04-18T10:02:01Z</time>
      </trkpt>
      <trkpt lat="45.95793" lon="4.76521">
        <ele>188.5</ele>
        <time>2018-04-18T10:02:02Z</time>
      </trkpt>
      <trkpt lat="45.9579" lon="4.76511">
        <ele>188.4</ele>
        <time>2018-04-18T10:02:03Z</time>
      </trkpt>
      <trkpt lat="45.95791" lon="4.76503">
        <ele>188.5</ele>
        <time>2018-04-18T10:02:04Z</time>
      </trkpt>
      <trkpt lat="45.95789" lon="4.76495">
        <ele>188.4</ele>
        <time>2018-04-18T10:02:05Z</time>
      </trkpt>
      <trkpt lat="45.9579" lon="4.76489">
        <ele>188.4</ele>
        <time>2018-04-18T10:02:06Z</time>
      </trkpt>
      <trkpt lat="45.95788" lon="4.76481">
        <ele>188.4</ele>
        <time>2018-04-18T10:02:07Z</time>
      </trkpt>
      <trkpt lat="45.95787" lon="4.76473">
        <ele>188.3</ele>
        <time>2018-04-18T10:02:08Z</time>
      </trkpt>
      <trkpt lat="45.95786" lon="4.76464">
        <ele>188.3</ele>
        <time>2018-04-18T10:02:09Z</time>
      </trkpt>
      <trkpt lat="45.95785" lon="4.76456">
        <ele>188.2</ele>
        <time>2018-04-18T10:02:10Z</time>
      </trkpt>
      <trkpt lat="45.95784" lon="4.76448">
        <ele>188.2</ele>
        <time>2018-04-18T10:02:11Z</time>
      </trkpt>
      <trkpt lat="45.95784" lon="4.76437">
        <ele>188.4</ele>
        <time>2018-04-18T10:02:12Z</time>
      </trkpt>
      <trkpt lat="45.95784" lon="4.76429">
        <ele>188.7</ele>
        <time>2018-04-18T10:02:13Z</time>
      </trkpt>
      <trkpt lat="45.95783" lon="4.76421">
        <ele>188.9</ele>
        <time>2018-04-18T10:02:14Z</time>
      </trkpt>
      <trkpt lat="45.9578" lon="4.76411">
        <ele>188.8</ele>
        <time>2018-04-18T10:02:15Z</time>
      </trkpt>
      <trkpt lat="45.95776" lon="4.764">
        <ele>188.4</ele>
        <time>2018-04-18T10:02:16Z</time>
      </trkpt>
      <trkpt lat="45.95775" lon="4.76393">
        <ele>188.1</ele>
        <time>2018-04-18T10:02:17Z</time>
      </trkpt>
      <trkpt lat="45.95779" lon="4.76381">
        <ele>188</ele>
        <time>2018-04-18T10:02:19Z</time>
      </trkpt>
      <trkpt lat="45.95778" lon="4.76373">
        <ele>188</ele>
        <time>2018-04-18T10:02:20Z</time>
      </trkpt>
      <trkpt lat="45.95777" lon="4.76365">
        <ele>188</ele>
        <time>2018-04-18T10:02:21Z</time>
      </trkpt>
      <trkpt lat="45.95778" lon="4.76359">
        <ele>188</ele>
        <time>2018-04-18T10:02:22Z</time>
      </trkpt>
      <trkpt lat="45.95777" lon="4.76351">
        <ele>188</ele>
        <time>2018-04-18T10:02:23Z</time>
      </trkpt>
      <trkpt lat="45.95776" lon="4.76345">
        <ele>188</ele>
        <time>2018-04-18T10:02:24Z</time>
      </trkpt>
      <trkpt lat="45.95776" lon="4.76338">
        <ele>188</ele>
        <time>2018-04-18T10:02:25Z</time>
      </trkpt>
      <trkpt lat="45.95775" lon="4.7633">
        <ele>188</ele>
        <time>2018-04-18T10:02:26Z</time>
      </trkpt>
      <trkpt lat="45.95774" lon="4.76321">
        <ele>187.9</ele>
        <time>2018-04-18T10:02:27Z</time>
      </trkpt>
      <trkpt lat="45.95774" lon="4.76313">
        <ele>187.9</ele>
        <time>2018-04-18T10:02:28Z</time>
      </trkpt>
      <trkpt lat="45.95773" lon="4.76305">
        <ele>187.9</ele>
        <time>2018-04-18T10:02:29Z</time>
      </trkpt>
      <trkpt lat="45.95773" lon="4.76296">
        <ele>188.1</ele>
        <time>2018-04-18T10:02:30Z</time>
      </trkpt>
      <trkpt lat="45.95773" lon="4.76288">
        <ele>188.3</ele>
        <time>2018-04-18T10:02:31Z</time>
      </trkpt>
      <trkpt lat="45.95773" lon="4.76281">
        <ele>188.6</ele>
        <time>2018-04-18T10:02:32Z</time>
      </trkpt>
      <trkpt lat="45.95773" lon="4.76273">
        <ele>188.5</ele>
        <time>2018-04-18T10:02:33Z</time>
      </trkpt>
      <trkpt lat="45.95773" lon="4.76263">
        <ele>188.2</ele>
        <time>2018-04-18T10:02:34Z</time>
      </trkpt>
      <trkpt lat="45.95772" lon="4.76254">
        <ele>187.9</ele>
        <time>2018-04-18T10:02:35Z</time>
      </trkpt>
      <trkpt lat="45.95771" lon="4.76246">
        <ele>187.7</ele>
        <time>2018-04-18T10:02:36Z</time>
      </trkpt>
      <trkpt lat="45.95771" lon="4.76238">
        <ele>187.7</ele>
        <time>2018-04-18T10:02:37Z</time>
      </trkpt>
      <trkpt lat="45.9577" lon="4.7623">
        <ele>187.7</ele>
        <time>2018-04-18T10:02:38Z</time>
      </trkpt>
      <trkpt lat="45.95772" lon="4.76221">
        <ele>187.8</ele>
        <time>2018-04-18T10:02:40Z</time>
      </trkpt>
      <trkpt lat="45.95772" lon="4.76213">
        <ele>187.8</ele>
        <time>2018-04-18T10:02:41Z</time>
      </trkpt>
      <trkpt lat="45.95771" lon="4.76204">
        <ele>187.8</ele>
        <time>2018-04-18T10:02:42Z</time>
      </trkpt>
      <trkpt lat="45.95771" lon="4.76196">
        <ele>187.8</ele>
        <time>2018-04-18T10:02:43Z</time>
      </trkpt>
      <trkpt lat="45.9577" lon="4.76186">
        <ele>187.7</ele>
        <time>2018-04-18T10:02:44Z</time>
      </trkpt>
      <trkpt lat="45.9577" lon="4.76178">
        <ele>187.7</ele>
        <time>2018-04-18T10:02:45Z</time>
      </trkpt>
      <trkpt lat="45.95769" lon="4.76168">
        <ele>187.7</ele>
        <time>2018-04-18T10:02:46Z</time>
      </trkpt>
      <trkpt lat="45.95769" lon="4.76162">
        <ele>187.7</ele>
        <time>2018-04-18T10:02:47Z</time>
      </trkpt>
      <trkpt lat="45.95769" lon="4.76154">
        <ele>187.7</ele>
        <time>2018-04-18T10:02:48Z</time>
      </trkpt>
      <trkpt lat="45.95768" lon="4.76145">
        <ele>187.6</ele>
        <time>2018-04-18T10:02:49Z</time>
      </trkpt>
      <trkpt lat="45.95766" lon="4.76137">
        <ele>187.6</ele>
        <time>2018-04-18T10:02:50Z</time>
      </trkpt>
      <trkpt lat="45.95765" lon="4.76128">
        <ele>187.5</ele>
        <time>2018-04-18T10:02:51Z</time>
      </trkpt>
      <trkpt lat="45.95764" lon="4.7612">
        <ele>187.5</ele>
        <time>2018-04-18T10:02:52Z</time>
      </trkpt>
      <trkpt lat="45.95762" lon="4.76113">
        <ele>187.4</ele>
        <time>2018-04-18T10:02:53Z</time>
      </trkpt>
      <trkpt lat="45.95761" lon="4.76106">
        <ele>187.4</ele>
        <time>2018-04-18T10:02:54Z</time>
      </trkpt>
      <trkpt lat="45.95758" lon="4.76097">
        <ele>187.3</ele>
        <time>2018-04-18T10:02:55Z</time>
      </trkpt>
      <trkpt lat="45.95754" lon="4.76088">
        <ele>187.2</ele>
        <time>2018-04-18T10:02:56Z</time>
      </trkpt>
      <trkpt lat="45.95751" lon="4.7608">
        <ele>187.2</ele>
        <time>2018-04-18T10:02:57Z</time>
      </trkpt>
      <trkpt lat="45.95748" lon="4.76071">
        <ele>187.3</ele>
        <time>2018-04-18T10:02:58Z</time>
      </trkpt>
      <trkpt lat="45.95744" lon="4.76063">
        <ele>187.4</ele>
        <time>2018-04-18T10:02:59Z</time>
      </trkpt>
      <trkpt lat="45.95741" lon="4.76056">
        <ele>187.4</ele>
        <time>2018-04-18T10:03:00Z</time>
      </trkpt>
      <trkpt lat="45.95738" lon="4.76048">
        <ele>187.2</ele>
        <time>2018-04-18T10:03:01Z</time>
      </trkpt>
      <trkpt lat="45.95734" lon="4.7604">
        <ele>187.2</ele>
        <time>2018-04-18T10:03:02Z</time>
      </trkpt>
      <trkpt lat="45.95731" lon="4.76032">
        <ele>187.2</ele>
        <time>2018-04-18T10:03:03Z</time>
      </trkpt>
      <trkpt lat="45.95726" lon="4.76023">
        <ele>187.2</ele>
        <time>2018-04-18T10:03:04Z</time>
      </trkpt>
      <trkpt lat="45.95721" lon="4.76012">
        <ele>186.9</ele>
        <time>2018-04-18T10:03:05Z</time>
      </trkpt>
      <trkpt lat="45.95718" lon="4.76003">
        <ele>186.8</ele>
        <time>2018-04-18T10:03:06Z</time>
      </trkpt>
      <trkpt lat="45.95712" lon="4.75992">
        <ele>186.7</ele>
        <time>2018-04-18T10:03:07Z</time>
      </trkpt>
      <trkpt lat="45.95709" lon="4.75985">
        <ele>186.8</ele>
        <time>2018-04-18T10:03:08Z</time>
      </trkpt>
      <trkpt lat="45.95706" lon="4.75977">
        <ele>186.9</ele>
        <time>2018-04-18T10:03:09Z</time>
      </trkpt>
      <trkpt lat="45.957" lon="4.75967">
        <ele>187</ele>
        <time>2018-04-18T10:03:10Z</time>
      </trkpt>
      <trkpt lat="45.95695" lon="4.75958">
        <ele>187</ele>
        <time>2018-04-18T10:03:11Z</time>
      </trkpt>
      <trkpt lat="45.95692" lon="4.7595">
        <ele>186.9</ele>
        <time>2018-04-18T10:03:12Z</time>
      </trkpt>
      <trkpt lat="45.95687" lon="4.75942">
        <ele>186.8</ele>
        <time>2018-04-18T10:03:13Z</time>
      </trkpt>
      <trkpt lat="45.95684" lon="4.75935">
        <ele>187</ele>
        <time>2018-04-18T10:03:14Z</time>
      </trkpt>
      <trkpt lat="45.9568" lon="4.75926">
        <ele>187.1</ele>
        <time>2018-04-18T10:03:15Z</time>
      </trkpt>
      <trkpt lat="45.95678" lon="4.7592">
        <ele>187.3</ele>
        <time>2018-04-18T10:03:16Z</time>
      </trkpt>
      <trkpt lat="45.95676" lon="4.75912">
        <ele>187.3</ele>
        <time>2018-04-18T10:03:17Z</time>
      </trkpt>
      <trkpt lat="45.95673" lon="4.75899">
        <ele>187.2</ele>
        <time>2018-04-18T10:03:18Z</time>
      </trkpt>
      <trkpt lat="45.95673" lon="4.75893">
        <ele>187.2</ele>
        <time>2018-04-18T10:03:19Z</time>
      </trkpt>
      <trkpt lat="45.9567" lon="4.75885">
        <ele>187.3</ele>
        <time>2018-04-18T10:03:20Z</time>
      </trkpt>
      <trkpt lat="45.95667" lon="4.75877">
        <ele>187.4</ele>
        <time>2018-04-18T10:03:21Z</time>
      </trkpt>
      <trkpt lat="45.95665" lon="4.75871">
        <ele>187.5</ele>
        <time>2018-04-18T10:03:22Z</time>
      </trkpt>
      <trkpt lat="45.95662" lon="4.75862">
        <ele>187.6</ele>
        <time>2018-04-18T10:03:23Z</time>
      </trkpt>
      <trkpt lat="45.95659" lon="4.75853">
        <ele>187.7</ele>
        <time>2018-04-18T10:03:24Z</time>
      </trkpt>
      <trkpt lat="45.95655" lon="4.75844">
        <ele>187.8</ele>
        <time>2018-04-18T10:03:25Z</time>
      </trkpt>
      <trkpt lat="45.95653" lon="4.75836">
        <ele>187.9</ele>
        <time>2018-04-18T10:03:26Z</time>
      </trkpt>
      <trkpt lat="45.95652" lon="4.75828">
        <ele>188.1</ele>
        <time>2018-04-18T10:03:27Z</time>
      </trkpt>
      <trkpt lat="45.95651" lon="4.75819">
        <ele>188.1</ele>
        <time>2018-04-18T10:03:28Z</time>
      </trkpt>
      <trkpt lat="45.9565" lon="4.75812">
        <ele>188.3</ele>
        <time>2018-04-18T10:03:29Z</time>
      </trkpt>
      <trkpt lat="45.95649" lon="4.75805">
        <ele>188.4</ele>
        <time>2018-04-18T10:03:30Z</time>
      </trkpt>
      <trkpt lat="45.95646" lon="4.75796">
        <ele>188.3</ele>
        <time>2018-04-18T10:03:31Z</time>
      </trkpt>
      <trkpt lat="45.95644" lon="4.75789">
        <ele>188.2</ele>
        <time>2018-04-18T10:03:32Z</time>
      </trkpt>
      <trkpt lat="45.95643" lon="4.75781">
        <ele>188.1</ele>
        <time>2018-04-18T10:03:33Z</time>
      </trkpt>
      <trkpt lat="45.95641" lon="4.75773">
        <ele>188.3</ele>
        <time>2018-04-18T10:03:34Z</time>
      </trkpt>
      <trkpt lat="45.9564" lon="4.75766">
        <ele>188.5</ele>
        <time>2018-04-18T10:03:35Z</time>
      </trkpt>
      <trkpt lat="45.95641" lon="4.7576">
        <ele>188.7</ele>
        <time>2018-04-18T10:03:36Z</time>
      </trkpt>
      <trkpt lat="45.95641" lon="4.75753">
        <ele>189</ele>
        <time>2018-04-18T10:03:37Z</time>
      </trkpt>
      <trkpt lat="45.9564" lon="4.75745">
        <ele>189.2</ele>
        <time>2018-04-18T10:03:38Z</time>
      </trkpt>
      <trkpt lat="45.9564" lon="4.75739">
        <ele>189.5</ele>
        <time>2018-04-18T10:03:39Z</time>
      </trkpt>
      <trkpt lat="45.95638" lon="4.75731">
        <ele>189.6</ele>
        <time>2018-04-18T10:03:40Z</time>
      </trkpt>
      <trkpt lat="45.95637" lon="4.75722">
        <ele>189.9</ele>
        <time>2018-04-18T10:03:41Z</time>
      </trkpt>
      <trkpt lat="45.95636" lon="4.75714">
        <ele>189.5</ele>
        <time>2018-04-18T10:03:42Z</time>
      </trkpt>
      <trkpt lat="45.95635" lon="4.75707">
        <ele>189.2</ele>
        <time>2018-04-18T10:03:43Z</time>
      </trkpt>
      <trkpt lat="45.95633" lon="4.75699">
        <ele>188.9</ele>
        <time>2018-04-18T10:03:44Z</time>
      </trkpt>
      <trkpt lat="45.95633" lon="4.75693">
        <ele>188.8</ele>
        <time>2018-04-18T10:03:45Z</time>
      </trkpt>
      <trkpt lat="45.95631" lon="4.75685">
        <ele>188.7</ele>
        <time>2018-04-18T10:03:46Z</time>
      </trkpt>
      <trkpt lat="45.95629" lon="4.75676">
        <ele>188.7</ele>
        <time>2018-04-18T10:03:47Z</time>
      </trkpt>
      <trkpt lat="45.95626" lon="4.75668">
        <ele>188.5</ele>
        <time>2018-04-18T10:03:48Z</time>
      </trkpt>
      <trkpt lat="45.95625" lon="4.75661">
        <ele>188.7</ele>
        <time>2018-04-18T10:03:49Z</time>
      </trkpt>
      <trkpt lat="45.95624" lon="4.75653">
        <ele>188.9</ele>
        <time>2018-04-18T10:03:50Z</time>
      </trkpt>
      <trkpt lat="45.95622" lon="4.75645">
        <ele>189.1</ele>
        <time>2018-04-18T10:03:51Z</time>
      </trkpt>
      <trkpt lat="45.9562" lon="4.75639">
        <ele>189.3</ele>
        <time>2018-04-18T10:03:52Z</time>
      </trkpt>
      <trkpt lat="45.95618" lon="4.75632">
        <ele>189.2</ele>
        <time>2018-04-18T10:03:53Z</time>
      </trkpt>
      <trkpt lat="45.95616" lon="4.75625">
        <ele>189.2</ele>
        <time>2018-04-18T10:03:54Z</time>
      </trkpt>
      <trkpt lat="45.95612" lon="4.75617">
        <ele>189</ele>
        <time>2018-04-18T10:03:55Z</time>
      </trkpt>
      <trkpt lat="45.9561" lon="4.7561">
        <ele>189</ele>
        <time>2018-04-18T10:03:56Z</time>
      </trkpt>
      <trkpt lat="45.95607" lon="4.75603">
        <ele>189</ele>
        <time>2018-04-18T10:03:57Z</time>
      </trkpt>
      <trkpt lat="45.95605" lon="4.75597">
        <ele>189.1</ele>
        <time>2018-04-18T10:03:58Z</time>
      </trkpt>
      <trkpt lat="45.95603" lon="4.75591">
        <ele>189.2</ele>
        <time>2018-04-18T10:03:59Z</time>
      </trkpt>
      <trkpt lat="45.95601" lon="4.75585">
        <ele>189.2</ele>
        <time>2018-04-18T10:04:00Z</time>
      </trkpt>
      <trkpt lat="45.95599" lon="4.75579">
        <ele>189.1</ele>
        <time>2018-04-18T10:04:01Z</time>
      </trkpt>
      <trkpt lat="45.95596" lon="4.75573">
        <ele>188.9</ele>
        <time>2018-04-18T10:04:02Z</time>
      </trkpt>
      <trkpt lat="45.95593" lon="4.75567">
        <ele>188.7</ele>
        <time>2018-04-18T10:04:03Z</time>
      </trkpt>
      <trkpt lat="45.95589" lon="4.7556">
        <ele>188.4</ele>
        <time>2018-04-18T10:04:04Z</time>
      </trkpt>
      <trkpt lat="45.95584" lon="4.75554">
        <ele>188.1</ele>
        <time>2018-04-18T10:04:05Z</time>
      </trkpt>
      <trkpt lat="45.95579" lon="4.75549">
        <ele>187.9</ele>
        <time>2018-04-18T10:04:06Z</time>
      </trkpt>
      <trkpt lat="45.95574" lon="4.75543">
        <ele>187.8</ele>
        <time>2018-04-18T10:04:07Z</time>
      </trkpt>
      <trkpt lat="45.95569" lon="4.75536">
        <ele>187.6</ele>
        <time>2018-04-18T10:04:08Z</time>
      </trkpt>
      <trkpt lat="45.95565" lon="4.75532">
        <ele>187.5</ele>
        <time>2018-04-18T10:04:09Z</time>
      </trkpt>
      <trkpt lat="45.95561" lon="4.75529">
        <ele>187.3</ele>
        <time>2018-04-18T10:04:10Z</time>
      </trkpt>
      <trkpt lat="45.95556" lon="4.75523">
        <ele>187.2</ele>
        <time>2018-04-18T10:04:11Z</time>
      </trkpt>
      <trkpt lat="45.95552" lon="4.75517">
        <ele>187.2</ele>
        <time>2018-04-18T10:04:12Z</time>
      </trkpt>
      <trkpt lat="45.95548" lon="4.75509">
        <ele>187.3</ele>
        <time>2018-04-18T10:04:13Z</time>
      </trkpt>
      <trkpt lat="45.95546" lon="4.75504">
        <ele>187.4</ele>
        <time>2018-04-18T10:04:14Z</time>
      </trkpt>
      <trkpt lat="45.95543" lon="4.75498">
        <ele>187.5</ele>
        <time>2018-04-18T10:04:15Z</time>
      </trkpt>
      <trkpt lat="45.95542" lon="4.75489">
        <ele>187.5</ele>
        <time>2018-04-18T10:04:16Z</time>
      </trkpt>
      <trkpt lat="45.95542" lon="4.75482">
        <ele>187.5</ele>
        <time>2018-04-18T10:04:17Z</time>
      </trkpt>
      <trkpt lat="45.95541" lon="4.75473">
        <ele>187.5</ele>
        <time>2018-04-18T10:04:18Z</time>
      </trkpt>
      <trkpt lat="45.95541" lon="4.75466">
        <ele>187.5</ele>
        <time>2018-04-18T10:04:19Z</time>
      </trkpt>
      <trkpt lat="45.95538" lon="4.75458">
        <ele>187.4</ele>
        <time>2018-04-18T10:04:20Z</time>
      </trkpt>
      <trkpt lat="45.95535" lon="4.75452">
        <ele>187.3</ele>
        <time>2018-04-18T10:04:21Z</time>
      </trkpt>
      <trkpt lat="45.9553" lon="4.75446">
        <ele>187.1</ele>
        <time>2018-04-18T10:04:22Z</time>
      </trkpt>
      <trkpt lat="45.95525" lon="4.7544">
        <ele>187.2</ele>
        <time>2018-04-18T10:04:23Z</time>
      </trkpt>
      <trkpt lat="45.95519" lon="4.75437">
        <ele>187.2</ele>
        <time>2018-04-18T10:04:24Z</time>
      </trkpt>
      <trkpt lat="45.95516" lon="4.75432">
        <ele>187.3</ele>
        <time>2018-04-18T10:04:25Z</time>
      </trkpt>
      <trkpt lat="45.95514" lon="4.75424">
        <ele>187.6</ele>
        <time>2018-04-18T10:04:26Z</time>
      </trkpt>
      <trkpt lat="45.95513" lon="4.75417">
        <ele>187.9</ele>
        <time>2018-04-18T10:04:27Z</time>
      </trkpt>
      <trkpt lat="45.9551" lon="4.7541">
        <ele>188</ele>
        <time>2018-04-18T10:04:28Z</time>
      </trkpt>
      <trkpt lat="45.95507" lon="4.75404">
        <ele>188</ele>
        <time>2018-04-18T10:04:29Z</time>
      </trkpt>
      <trkpt lat="45.95505" lon="4.75399">
        <ele>188</ele>
        <time>2018-04-18T10:04:30Z</time>
      </trkpt>
      <trkpt lat="45.95503" lon="4.75394">
        <ele>188</ele>
        <time>2018-04-18T10:04:31Z</time>
      </trkpt>
      <trkpt lat="45.95499" lon="4.75388">
        <ele>188</ele>
        <time>2018-04-18T10:04:32Z</time>
      </trkpt>
      <trkpt lat="45.95497" lon="4.7538">
        <ele>188.4</ele>
        <time>2018-04-18T10:04:34Z</time>
      </trkpt>
      <trkpt lat="45.95496" lon="4.75376">
        <ele>188.6</ele>
        <time>2018-04-18T10:04:35Z</time>
      </trkpt>
      <trkpt lat="45.95491" lon="4.75365">
        <ele>189.1</ele>
        <time>2018-04-18T10:04:37Z</time>
      </trkpt>
      <trkpt lat="45.95488" lon="4.75359">
        <ele>189.2</ele>
        <time>2018-04-18T10:04:38Z</time>
      </trkpt>
      <trkpt lat="45.95486" lon="4.75354">
        <ele>189.2</ele>
        <time>2018-04-18T10:04:39Z</time>
      </trkpt>
      <trkpt lat="45.95482" lon="4.75347">
        <ele>189.2</ele>
        <time>2018-04-18T10:04:40Z</time>
      </trkpt>
      <trkpt lat="45.95479" lon="4.7534">
        <ele>189.2</ele>
        <time>2018-04-18T10:04:41Z</time>
      </trkpt>
      <trkpt lat="45.95475" lon="4.75336">
        <ele>189.1</ele>
        <time>2018-04-18T10:04:42Z</time>
      </trkpt>
      <trkpt lat="45.95473" lon="4.7533">
        <ele>189.3</ele>
        <time>2018-04-18T10:04:43Z</time>
      </trkpt>
      <trkpt lat="45.9547" lon="4.75324">
        <ele>189.6</ele>
        <time>2018-04-18T10:04:44Z</time>
      </trkpt>
      <trkpt lat="45.95465" lon="4.75314">
        <ele>189.9</ele>
        <time>2018-04-18T10:04:46Z</time>
      </trkpt>
      <trkpt lat="45.95464" lon="4.75309">
        <ele>190.2</ele>
        <time>2018-04-18T10:04:47Z</time>
      </trkpt>
      <trkpt lat="45.95462" lon="4.75303">
        <ele>190.4</ele>
        <time>2018-04-18T10:04:48Z</time>
      </trkpt>
      <trkpt lat="45.95458" lon="4.75296">
        <ele>190.7</ele>
        <time>2018-04-18T10:04:49Z</time>
      </trkpt>
      <trkpt lat="45.95455" lon="4.75291">
        <ele>190.8</ele>
        <time>2018-04-18T10:04:50Z</time>
      </trkpt>
      <trkpt lat="45.95451" lon="4.75286">
        <ele>190.9</ele>
        <time>2018-04-18T10:04:51Z</time>
      </trkpt>
      <trkpt lat="45.95445" lon="4.7528">
        <ele>190.9</ele>
        <time>2018-04-18T10:04:53Z</time>
      </trkpt>
      <trkpt lat="45.95442" lon="4.75274">
        <ele>191</ele>
        <time>2018-04-18T10:04:54Z</time>
      </trkpt>
      <trkpt lat="45.95439" lon="4.75269">
        <ele>191</ele>
        <time>2018-04-18T10:04:55Z</time>
      </trkpt>
      <trkpt lat="45.95436" lon="4.75263">
        <ele>191.1</ele>
        <time>2018-04-18T10:04:56Z</time>
      </trkpt>
      <trkpt lat="45.95431" lon="4.75253">
        <ele>191.4</ele>
        <time>2018-04-18T10:04:58Z</time>
      </trkpt>
      <trkpt lat="45.95427" lon="4.75248">
        <ele>191.5</ele>
        <time>2018-04-18T10:04:59Z</time>
      </trkpt>
      <trkpt lat="45.95424" lon="4.75242">
        <ele>191.5</ele>
        <time>2018-04-18T10:05:00Z</time>
      </trkpt>
      <trkpt lat="45.95419" lon="4.75235">
        <ele>191.6</ele>
        <time>2018-04-18T10:05:01Z</time>
      </trkpt>
      <trkpt lat="45.95416" lon="4.75226">
        <ele>191.8</ele>
        <time>2018-04-18T10:05:03Z</time>
      </trkpt>
      <trkpt lat="45.95413" lon="4.75222">
        <ele>191.9</ele>
        <time>2018-04-18T10:05:04Z</time>
      </trkpt>
      <trkpt lat="45.9541" lon="4.75216">
        <ele>191.8</ele>
        <time>2018-04-18T10:05:05Z</time>
      </trkpt>
      <trkpt lat="45.95405" lon="4.75209">
        <ele>191.8</ele>
        <time>2018-04-18T10:05:06Z</time>
      </trkpt>
      <trkpt lat="45.95401" lon="4.75204">
        <ele>191.8</ele>
        <time>2018-04-18T10:05:07Z</time>
      </trkpt>
      <trkpt lat="45.95397" lon="4.75199">
        <ele>191.9</ele>
        <time>2018-04-18T10:05:08Z</time>
      </trkpt>
      <trkpt lat="45.95392" lon="4.7519">
        <ele>192</ele>
        <time>2018-04-18T10:05:10Z</time>
      </trkpt>
      <trkpt lat="45.95389" lon="4.75185">
        <ele>192</ele>
        <time>2018-04-18T10:05:11Z</time>
      </trkpt>
      <trkpt lat="45.95385" lon="4.75179">
        <ele>191.9</ele>
        <time>2018-04-18T10:05:12Z</time>
      </trkpt>
      <trkpt lat="45.95381" lon="4.75174">
        <ele>191.9</ele>
        <time>2018-04-18T10:05:13Z</time>
      </trkpt>
      <trkpt lat="45.95378" lon="4.75168">
        <ele>192</ele>
        <time>2018-04-18T10:05:14Z</time>
      </trkpt>
      <trkpt lat="45.95374" lon="4.75162">
        <ele>192.2</ele>
        <time>2018-04-18T10:05:15Z</time>
      </trkpt>
      <trkpt lat="45.9537" lon="4.75152">
        <ele>192.5</ele>
        <time>2018-04-18T10:05:17Z</time>
      </trkpt>
      <trkpt lat="45.95367" lon="4.75146">
        <ele>192.7</ele>
        <time>2018-04-18T10:05:18Z</time>
      </trkpt>
      <trkpt lat="45.95362" lon="4.7514">
        <ele>193</ele>
        <time>2018-04-18T10:05:19Z</time>
      </trkpt>
      <trkpt lat="45.95358" lon="4.75134">
        <ele>192.9</ele>
        <time>2018-04-18T10:05:20Z</time>
      </trkpt>
      <trkpt lat="45.95355" lon="4.75129">
        <ele>192.9</ele>
        <time>2018-04-18T10:05:21Z</time>
      </trkpt>
      <trkpt lat="45.95352" lon="4.75124">
        <ele>192.9</ele>
        <time>2018-04-18T10:05:22Z</time>
      </trkpt>
      <trkpt lat="45.95349" lon="4.75118">
        <ele>192.9</ele>
        <time>2018-04-18T10:05:23Z</time>
      </trkpt>
      <trkpt lat="45.95346" lon="4.75113">
        <ele>193</ele>
        <time>2018-04-18T10:05:24Z</time>
      </trkpt>
      <trkpt lat="45.95343" lon="4.75108">
        <ele>193</ele>
        <time>2018-04-18T10:05:25Z</time>
      </trkpt>
      <trkpt lat="45.95339" lon="4.75103">
        <ele>193.1</ele>
        <time>2018-04-18T10:05:26Z</time>
      </trkpt>
      <trkpt lat="45.95335" lon="4.75098">
        <ele>193</ele>
        <time>2018-04-18T10:05:27Z</time>
      </trkpt>
      <trkpt lat="45.95333" lon="4.75093">
        <ele>193</ele>
        <time>2018-04-18T10:05:28Z</time>
      </trkpt>
      <trkpt lat="45.95326" lon="4.75086">
        <ele>192.7</ele>
        <time>2018-04-18T10:05:30Z</time>
      </trkpt>
      <trkpt lat="45.95323" lon="4.75082">
        <ele>192.7</ele>
        <time>2018-04-18T10:05:31Z</time>
      </trkpt>
      <trkpt lat="45.95318" lon="4.75075">
        <ele>192.7</ele>
        <time>2018-04-18T10:05:32Z</time>
      </trkpt>
      <trkpt lat="45.95315" lon="4.75069">
        <ele>192.8</ele>
        <time>2018-04-18T10:05:33Z</time>
      </trkpt>
      <trkpt lat="45.95312" lon="4.75064">
        <ele>193</ele>
        <time>2018-04-18T10:05:34Z</time>
      </trkpt>
      <trkpt lat="45.95309" lon="4.75058">
        <ele>193</ele>
        <time>2018-04-18T10:05:35Z</time>
      </trkpt>
      <trkpt lat="45.95305" lon="4.75052">
        <ele>193.1</ele>
        <time>2018-04-18T10:05:36Z</time>
      </trkpt>
      <trkpt lat="45.95303" lon="4.75046">
        <ele>193.3</ele>
        <time>2018-04-18T10:05:37Z</time>
      </trkpt>
      <trkpt lat="45.95298" lon="4.7504">
        <ele>193.4</ele>
        <time>2018-04-18T10:05:38Z</time>
      </trkpt>
      <trkpt lat="45.95295" lon="4.75035">
        <ele>193.5</ele>
        <time>2018-04-18T10:05:39Z</time>
      </trkpt>
      <trkpt lat="45.95292" lon="4.7503">
        <ele>193.5</ele>
        <time>2018-04-18T10:05:40Z</time>
      </trkpt>
      <trkpt lat="45.95289" lon="4.75024">
        <ele>193.5</ele>
        <time>2018-04-18T10:05:41Z</time>
      </trkpt>
      <trkpt lat="45.95286" lon="4.75017">
        <ele>193.6</ele>
        <time>2018-04-18T10:05:42Z</time>
      </trkpt>
      <trkpt lat="45.95283" lon="4.75012">
        <ele>193.7</ele>
        <time>2018-04-18T10:05:43Z</time>
      </trkpt>
      <trkpt lat="45.95279" lon="4.75005">
        <ele>193.8</ele>
        <time>2018-04-18T10:05:44Z</time>
      </trkpt>
      <trkpt lat="45.95276" lon="4.74999">
        <ele>193.9</ele>
        <time>2018-04-18T10:05:45Z</time>
      </trkpt>
      <trkpt lat="45.95273" lon="4.74994">
        <ele>193.9</ele>
        <time>2018-04-18T10:05:46Z</time>
      </trkpt>
      <trkpt lat="45.9527" lon="4.7499">
        <ele>193.8</ele>
        <time>2018-04-18T10:05:47Z</time>
      </trkpt>
      <trkpt lat="45.95267" lon="4.74985">
        <ele>193.8</ele>
        <time>2018-04-18T10:05:48Z</time>
      </trkpt>
      <trkpt lat="45.95262" lon="4.74979">
        <ele>193.9</ele>
        <time>2018-04-18T10:05:49Z</time>
      </trkpt>
      <trkpt lat="45.95258" lon="4.74973">
        <ele>194</ele>
        <time>2018-04-18T10:05:50Z</time>
      </trkpt>
      <trkpt lat="45.95254" lon="4.74967">
        <ele>194</ele>
        <time>2018-04-18T10:05:51Z</time>
      </trkpt>
      <trkpt lat="45.95251" lon="4.74962">
        <ele>194</ele>
        <time>2018-04-18T10:05:52Z</time>
      </trkpt>
      <trkpt lat="45.95247" lon="4.74957">
        <ele>194</ele>
        <time>2018-04-18T10:05:53Z</time>
      </trkpt>
      <trkpt lat="45.95242" lon="4.74949">
        <ele>193.9</ele>
        <time>2018-04-18T10:05:55Z</time>
      </trkpt>
      <trkpt lat="45.95239" lon="4.74944">
        <ele>194</ele>
        <time>2018-04-18T10:05:56Z</time>
      </trkpt>
      <trkpt lat="45.95234" lon="4.74936">
        <ele>194.1</ele>
        <time>2018-04-18T10:05:57Z</time>
      </trkpt>
      <trkpt lat="45.95231" lon="4.7493">
        <ele>194.2</ele>
        <time>2018-04-18T10:05:58Z</time>
      </trkpt>
      <trkpt lat="45.95228" lon="4.74925">
        <ele>194.1</ele>
        <time>2018-04-18T10:05:59Z</time>
      </trkpt>
      <trkpt lat="45.95224" lon="4.74919">
        <ele>194.1</ele>
        <time>2018-04-18T10:06:00Z</time>
      </trkpt>
      <trkpt lat="45.95219" lon="4.74912">
        <ele>194.1</ele>
        <time>2018-04-18T10:06:02Z</time>
      </trkpt>
      <trkpt lat="45.95215" lon="4.74905">
        <ele>194.3</ele>
        <time>2018-04-18T10:06:03Z</time>
      </trkpt>
      <trkpt lat="45.95211" lon="4.749">
        <ele>194.4</ele>
        <time>2018-04-18T10:06:05Z</time>
      </trkpt>
      <trkpt lat="45.95207" lon="4.74896">
        <ele>194.3</ele>
        <time>2018-04-18T10:06:06Z</time>
      </trkpt>
      <trkpt lat="45.95203" lon="4.74888">
        <ele>194.3</ele>
        <time>2018-04-18T10:06:07Z</time>
      </trkpt>
      <trkpt lat="45.952" lon="4.74883">
        <ele>194.1</ele>
        <time>2018-04-18T10:06:08Z</time>
      </trkpt>
      <trkpt lat="45.95195" lon="4.74876">
        <ele>194</ele>
        <time>2018-04-18T10:06:09Z</time>
      </trkpt>
      <trkpt lat="45.95191" lon="4.74871">
        <ele>194</ele>
        <time>2018-04-18T10:06:10Z</time>
      </trkpt>
      <trkpt lat="45.95188" lon="4.74865">
        <ele>194</ele>
        <time>2018-04-18T10:06:11Z</time>
      </trkpt>
      <trkpt lat="45.95184" lon="4.7486">
        <ele>194</ele>
        <time>2018-04-18T10:06:12Z</time>
      </trkpt>
      <trkpt lat="45.95179" lon="4.7485">
        <ele>194</ele>
        <time>2018-04-18T10:06:14Z</time>
      </trkpt>
      <trkpt lat="45.95177" lon="4.74845">
        <ele>194</ele>
        <time>2018-04-18T10:06:15Z</time>
      </trkpt>
      <trkpt lat="45.95172" lon="4.74837">
        <ele>194</ele>
        <time>2018-04-18T10:06:16Z</time>
      </trkpt>
      <trkpt lat="45.95169" lon="4.74833">
        <ele>194</ele>
        <time>2018-04-18T10:06:17Z</time>
      </trkpt>
      <trkpt lat="45.95165" lon="4.74827">
        <ele>194</ele>
        <time>2018-04-18T10:06:18Z</time>
      </trkpt>
      <trkpt lat="45.95161" lon="4.74822">
        <ele>193.9</ele>
        <time>2018-04-18T10:06:19Z</time>
      </trkpt>
      <trkpt lat="45.95158" lon="4.74817">
        <ele>193.9</ele>
        <time>2018-04-18T10:06:20Z</time>
      </trkpt>
      <trkpt lat="45.95153" lon="4.74814">
        <ele>193.9</ele>
        <time>2018-04-18T10:06:21Z</time>
      </trkpt>
      <trkpt lat="45.9515" lon="4.74808">
        <ele>193.9</ele>
        <time>2018-04-18T10:06:22Z</time>
      </trkpt>
      <trkpt lat="45.95146" lon="4.74802">
        <ele>193.9</ele>
        <time>2018-04-18T10:06:23Z</time>
      </trkpt>
      <trkpt lat="45.95144" lon="4.74796">
        <ele>193.7</ele>
        <time>2018-04-18T10:06:24Z</time>
      </trkpt>
      <trkpt lat="45.9514" lon="4.7479">
        <ele>193.5</ele>
        <time>2018-04-18T10:06:25Z</time>
      </trkpt>
      <trkpt lat="45.95138" lon="4.74784">
        <ele>193.2</ele>
        <time>2018-04-18T10:06:26Z</time>
      </trkpt>
      <trkpt lat="45.95133" lon="4.74778">
        <ele>193</ele>
        <time>2018-04-18T10:06:27Z</time>
      </trkpt>
      <trkpt lat="45.95129" lon="4.74773">
        <ele>193</ele>
        <time>2018-04-18T10:06:28Z</time>
      </trkpt>
      <trkpt lat="45.95125" lon="4.74767">
        <ele>193</ele>
        <time>2018-04-18T10:06:29Z</time>
      </trkpt>
      <trkpt lat="45.95122" lon="4.74762">
        <ele>193</ele>
        <time>2018-04-18T10:06:30Z</time>
      </trkpt>
      <trkpt lat="45.95118" lon="4.74754">
        <ele>193</ele>
        <time>2018-04-18T10:06:31Z</time>
      </trkpt>
      <trkpt lat="45.95115" lon="4.74748">
        <ele>193.1</ele>
        <time>2018-04-18T10:06:32Z</time>
      </trkpt>
      <trkpt lat="45.95112" lon="4.74742">
        <ele>193.3</ele>
        <time>2018-04-18T10:06:33Z</time>
      </trkpt>
      <trkpt lat="45.9511" lon="4.74733">
        <ele>193.6</ele>
        <time>2018-04-18T10:06:34Z</time>
      </trkpt>
      <trkpt lat="45.95107" lon="4.74727">
        <ele>193.7</ele>
        <time>2018-04-18T10:06:35Z</time>
      </trkpt>
      <trkpt lat="45.95104" lon="4.7472">
        <ele>193.7</ele>
        <time>2018-04-18T10:06:36Z</time>
      </trkpt>
      <trkpt lat="45.951" lon="4.74714">
        <ele>193.4</ele>
        <time>2018-04-18T10:06:37Z</time>
      </trkpt>
      <trkpt lat="45.95096" lon="4.74707">
        <ele>193.2</ele>
        <time>2018-04-18T10:06:38Z</time>
      </trkpt>
      <trkpt lat="45.95092" lon="4.74701">
        <ele>193.1</ele>
        <time>2018-04-18T10:06:39Z</time>
      </trkpt>
      <trkpt lat="45.95089" lon="4.74699">
        <ele>193</ele>
        <time>2018-04-18T10:06:40Z</time>
      </trkpt>
      <trkpt lat="45.95086" lon="4.74692">
        <ele>193.1</ele>
        <time>2018-04-18T10:06:41Z</time>
      </trkpt>
      <trkpt lat="45.95082" lon="4.74685">
        <ele>193.3</ele>
        <time>2018-04-18T10:06:42Z</time>
      </trkpt>
      <trkpt lat="45.9508" lon="4.74681">
        <ele>193.4</ele>
        <time>2018-04-18T10:06:43Z</time>
      </trkpt>
      <trkpt lat="45.95075" lon="4.74675">
        <ele>193.5</ele>
        <time>2018-04-18T10:06:44Z</time>
      </trkpt>
      <trkpt lat="45.95073" lon="4.7467">
        <ele>193.5</ele>
        <time>2018-04-18T10:06:45Z</time>
      </trkpt>
      <trkpt lat="45.95069" lon="4.74665">
        <ele>193.5</ele>
        <time>2018-04-18T10:06:46Z</time>
      </trkpt>
      <trkpt lat="45.95067" lon="4.74659">
        <ele>193.6</ele>
        <time>2018-04-18T10:06:47Z</time>
      </trkpt>
      <trkpt lat="45.95064" lon="4.74653">
        <ele>193.6</ele>
        <time>2018-04-18T10:06:48Z</time>
      </trkpt>
      <trkpt lat="45.95061" lon="4.74648">
        <ele>193.7</ele>
        <time>2018-04-18T10:06:49Z</time>
      </trkpt>
      <trkpt lat="45.95058" lon="4.74642">
        <ele>193.9</ele>
        <time>2018-04-18T10:06:50Z</time>
      </trkpt>
      <trkpt lat="45.95054" lon="4.74636">
        <ele>193.9</ele>
        <time>2018-04-18T10:06:51Z</time>
      </trkpt>
      <trkpt lat="45.9505" lon="4.7463">
        <ele>193.9</ele>
        <time>2018-04-18T10:06:52Z</time>
      </trkpt>
      <trkpt lat="45.95046" lon="4.74624">
        <ele>193.8</ele>
        <time>2018-04-18T10:06:53Z</time>
      </trkpt>
      <trkpt lat="45.95043" lon="4.74617">
        <ele>193.9</ele>
        <time>2018-04-18T10:06:54Z</time>
      </trkpt>
      <trkpt lat="45.95041" lon="4.74611">
        <ele>194</ele>
        <time>2018-04-18T10:06:55Z</time>
      </trkpt>
      <trkpt lat="45.95038" lon="4.74605">
        <ele>193.8</ele>
        <time>2018-04-18T10:06:56Z</time>
      </trkpt>
      <trkpt lat="45.95035" lon="4.74598">
        <ele>193.5</ele>
        <time>2018-04-18T10:06:57Z</time>
      </trkpt>
      <trkpt lat="45.95032" lon="4.74591">
        <ele>193.3</ele>
        <time>2018-04-18T10:06:58Z</time>
      </trkpt>
      <trkpt lat="45.95028" lon="4.74584">
        <ele>193</ele>
        <time>2018-04-18T10:06:59Z</time>
      </trkpt>
      <trkpt lat="45.95022" lon="4.74579">
        <ele>193</ele>
        <time>2018-04-18T10:07:00Z</time>
      </trkpt>
      <trkpt lat="45.95018" lon="4.74572">
        <ele>193</ele>
        <time>2018-04-18T10:07:01Z</time>
      </trkpt>
      <trkpt lat="45.95012" lon="4.74565">
        <ele>193</ele>
        <time>2018-04-18T10:07:02Z</time>
      </trkpt>
      <trkpt lat="45.95009" lon="4.74559">
        <ele>193</ele>
        <time>2018-04-18T10:07:03Z</time>
      </trkpt>
      <trkpt lat="45.95006" lon="4.74553">
        <ele>193</ele>
        <time>2018-04-18T10:07:04Z</time>
      </trkpt>
      <trkpt lat="45.95003" lon="4.74546">
        <ele>193</ele>
        <time>2018-04-18T10:07:05Z</time>
      </trkpt>
      <trkpt lat="45.94999" lon="4.74539">
        <ele>193</ele>
        <time>2018-04-18T10:07:06Z</time>
      </trkpt>
      <trkpt lat="45.94995" lon="4.74531">
        <ele>193</ele>
        <time>2018-04-18T10:07:07Z</time>
      </trkpt>
      <trkpt lat="45.94991" lon="4.74524">
        <ele>193</ele>
        <time>2018-04-18T10:07:08Z</time>
      </trkpt>
      <trkpt lat="45.94987" lon="4.74516">
        <ele>193</ele>
        <time>2018-04-18T10:07:09Z</time>
      </trkpt>
      <trkpt lat="45.94985" lon="4.7451">
        <ele>193</ele>
        <time>2018-04-18T10:07:10Z</time>
      </trkpt>
      <trkpt lat="45.94981" lon="4.74502">
        <ele>193</ele>
        <time>2018-04-18T10:07:11Z</time>
      </trkpt>
      <trkpt lat="45.94978" lon="4.74495">
        <ele>192.8</ele>
        <time>2018-04-18T10:07:12Z</time>
      </trkpt>
      <trkpt lat="45.94975" lon="4.74487">
        <ele>192.5</ele>
        <time>2018-04-18T10:07:13Z</time>
      </trkpt>
      <trkpt lat="45.94971" lon="4.74479">
        <ele>192.3</ele>
        <time>2018-04-18T10:07:14Z</time>
      </trkpt>
      <trkpt lat="45.9497" lon="4.74472">
        <ele>192</ele>
        <time>2018-04-18T10:07:15Z</time>
      </trkpt>
      <trkpt lat="45.94967" lon="4.74464">
        <ele>192</ele>
        <time>2018-04-18T10:07:16Z</time>
      </trkpt>
      <trkpt lat="45.94963" lon="4.74456">
        <ele>192</ele>
        <time>2018-04-18T10:07:17Z</time>
      </trkpt>
      <trkpt lat="45.9496" lon="4.74448">
        <ele>192</ele>
        <time>2018-04-18T10:07:18Z</time>
      </trkpt>
      <trkpt lat="45.94957" lon="4.74442">
        <ele>192</ele>
        <time>2018-04-18T10:07:19Z</time>
      </trkpt>
      <trkpt lat="45.94952" lon="4.74434">
        <ele>192</ele>
        <time>2018-04-18T10:07:20Z</time>
      </trkpt>
      <trkpt lat="45.94947" lon="4.74426">
        <ele>192</ele>
        <time>2018-04-18T10:07:21Z</time>
      </trkpt>
      <trkpt lat="45.94941" lon="4.74417">
        <ele>192</ele>
        <time>2018-04-18T10:07:22Z</time>
      </trkpt>
      <trkpt lat="45.94937" lon="4.74409">
        <ele>191.9</ele>
        <time>2018-04-18T10:07:23Z</time>
      </trkpt>
      <trkpt lat="45.94934" lon="4.74401">
        <ele>191.8</ele>
        <time>2018-04-18T10:07:24Z</time>
      </trkpt>
      <trkpt lat="45.94928" lon="4.74393">
        <ele>191.5</ele>
        <time>2018-04-18T10:07:25Z</time>
      </trkpt>
      <trkpt lat="45.94926" lon="4.74384">
        <ele>191.3</ele>
        <time>2018-04-18T10:07:26Z</time>
      </trkpt>
      <trkpt lat="45.94922" lon="4.74378">
        <ele>191.1</ele>
        <time>2018-04-18T10:07:27Z</time>
      </trkpt>
      <trkpt lat="45.94918" lon="4.7437">
        <ele>191</ele>
        <time>2018-04-18T10:07:28Z</time>
      </trkpt>
      <trkpt lat="45.94915" lon="4.74363">
        <ele>191</ele>
        <time>2018-04-18T10:07:29Z</time>
      </trkpt>
      <trkpt lat="45.94911" lon="4.74355">
        <ele>191</ele>
        <time>2018-04-18T10:07:30Z</time>
      </trkpt>
      <trkpt lat="45.94907" lon="4.74347">
        <ele>191</ele>
        <time>2018-04-18T10:07:31Z</time>
      </trkpt>
      <trkpt lat="45.94903" lon="4.74339">
        <ele>191</ele>
        <time>2018-04-18T10:07:32Z</time>
      </trkpt>
      <trkpt lat="45.94899" lon="4.74331">
        <ele>191</ele>
        <time>2018-04-18T10:07:33Z</time>
      </trkpt>
      <trkpt lat="45.94894" lon="4.74325">
        <ele>191</ele>
        <time>2018-04-18T10:07:34Z</time>
      </trkpt>
      <trkpt lat="45.94891" lon="4.74318">
        <ele>191</ele>
        <time>2018-04-18T10:07:35Z</time>
      </trkpt>
      <trkpt lat="45.94887" lon="4.74311">
        <ele>191</ele>
        <time>2018-04-18T10:07:36Z</time>
      </trkpt>
      <trkpt lat="45.94881" lon="4.74303">
        <ele>190.9</ele>
        <time>2018-04-18T10:07:37Z</time>
      </trkpt>
      <trkpt lat="45.94878" lon="4.74296">
        <ele>190.6</ele>
        <time>2018-04-18T10:07:38Z</time>
      </trkpt>
      <trkpt lat="45.94873" lon="4.74288">
        <ele>190.4</ele>
        <time>2018-04-18T10:07:39Z</time>
      </trkpt>
      <trkpt lat="45.94871" lon="4.74283">
        <ele>190.2</ele>
        <time>2018-04-18T10:07:40Z</time>
      </trkpt>
      <trkpt lat="45.94866" lon="4.74276">
        <ele>190</ele>
        <time>2018-04-18T10:07:41Z</time>
      </trkpt>
      <trkpt lat="45.94863" lon="4.74269">
        <ele>190</ele>
        <time>2018-04-18T10:07:42Z</time>
      </trkpt>
      <trkpt lat="45.94857" lon="4.74262">
        <ele>190</ele>
        <time>2018-04-18T10:07:43Z</time>
      </trkpt>
      <trkpt lat="45.94854" lon="4.74256">
        <ele>190</ele>
        <time>2018-04-18T10:07:44Z</time>
      </trkpt>
      <trkpt lat="45.94851" lon="4.74249">
        <ele>190</ele>
        <time>2018-04-18T10:07:45Z</time>
      </trkpt>
      <trkpt lat="45.94847" lon="4.74242">
        <ele>189.9</ele>
        <time>2018-04-18T10:07:46Z</time>
      </trkpt>
      <trkpt lat="45.94846" lon="4.74236">
        <ele>189.8</ele>
        <time>2018-04-18T10:07:47Z</time>
      </trkpt>
      <trkpt lat="45.94843" lon="4.7423">
        <ele>189.7</ele>
        <time>2018-04-18T10:07:48Z</time>
      </trkpt>
      <trkpt lat="45.9484" lon="4.74221">
        <ele>189.8</ele>
        <time>2018-04-18T10:07:49Z</time>
      </trkpt>
      <trkpt lat="45.94834" lon="4.74214">
        <ele>190</ele>
        <time>2018-04-18T10:07:50Z</time>
      </trkpt>
      <trkpt lat="45.94832" lon="4.74209">
        <ele>190</ele>
        <time>2018-04-18T10:07:51Z</time>
      </trkpt>
      <trkpt lat="45.9483" lon="4.74204">
        <ele>190</ele>
        <time>2018-04-18T10:07:52Z</time>
      </trkpt>
      <trkpt lat="45.94825" lon="4.74198">
        <ele>190</ele>
        <time>2018-04-18T10:07:53Z</time>
      </trkpt>
      <trkpt lat="45.94821" lon="4.74192">
        <ele>190</ele>
        <time>2018-04-18T10:07:54Z</time>
      </trkpt>
      <trkpt lat="45.94818" lon="4.74186">
        <ele>190</ele>
        <time>2018-04-18T10:07:55Z</time>
      </trkpt>
      <trkpt lat="45.94815" lon="4.7418">
        <ele>190</ele>
        <time>2018-04-18T10:07:56Z</time>
      </trkpt>
      <trkpt lat="45.9481" lon="4.74172">
        <ele>190</ele>
        <time>2018-04-18T10:07:57Z</time>
      </trkpt>
      <trkpt lat="45.94805" lon="4.74164">
        <ele>189.9</ele>
        <time>2018-04-18T10:07:59Z</time>
      </trkpt>
      <trkpt lat="45.94802" lon="4.74158">
        <ele>189.7</ele>
        <time>2018-04-18T10:08:00Z</time>
      </trkpt>
      <trkpt lat="45.94797" lon="4.74153">
        <ele>189.7</ele>
        <time>2018-04-18T10:08:01Z</time>
      </trkpt>
      <trkpt lat="45.94793" lon="4.74146">
        <ele>189.6</ele>
        <time>2018-04-18T10:08:02Z</time>
      </trkpt>
      <trkpt lat="45.9479" lon="4.74139">
        <ele>189.6</ele>
        <time>2018-04-18T10:08:03Z</time>
      </trkpt>
      <trkpt lat="45.94786" lon="4.74133">
        <ele>189.7</ele>
        <time>2018-04-18T10:08:04Z</time>
      </trkpt>
      <trkpt lat="45.94782" lon="4.74126">
        <ele>189.8</ele>
        <time>2018-04-18T10:08:05Z</time>
      </trkpt>
      <trkpt lat="45.94778" lon="4.74121">
        <ele>190</ele>
        <time>2018-04-18T10:08:06Z</time>
      </trkpt>
      <trkpt lat="45.94773" lon="4.74113">
        <ele>189.8</ele>
        <time>2018-04-18T10:08:07Z</time>
      </trkpt>
      <trkpt lat="45.94769" lon="4.74107">
        <ele>189.6</ele>
        <time>2018-04-18T10:08:08Z</time>
      </trkpt>
      <trkpt lat="45.94765" lon="4.74102">
        <ele>189.4</ele>
        <time>2018-04-18T10:08:09Z</time>
      </trkpt>
      <trkpt lat="45.9476" lon="4.74095">
        <ele>189.2</ele>
        <time>2018-04-18T10:08:10Z</time>
      </trkpt>
      <trkpt lat="45.94758" lon="4.74085">
        <ele>189</ele>
        <time>2018-04-18T10:08:11Z</time>
      </trkpt>
      <trkpt lat="45.94753" lon="4.74079">
        <ele>189</ele>
        <time>2018-04-18T10:08:12Z</time>
      </trkpt>
      <trkpt lat="45.94747" lon="4.74073">
        <ele>189</ele>
        <time>2018-04-18T10:08:13Z</time>
      </trkpt>
      <trkpt lat="45.94742" lon="4.74066">
        <ele>189</ele>
        <time>2018-04-18T10:08:14Z</time>
      </trkpt>
      <trkpt lat="45.94737" lon="4.74061">
        <ele>189</ele>
        <time>2018-04-18T10:08:15Z</time>
      </trkpt>
      <trkpt lat="45.94733" lon="4.74057">
        <ele>189</ele>
        <time>2018-04-18T10:08:16Z</time>
      </trkpt>
      <trkpt lat="45.94729" lon="4.74053">
        <ele>189</ele>
        <time>2018-04-18T10:08:17Z</time>
      </trkpt>
      <trkpt lat="45.94724" lon="4.74047">
        <ele>189</ele>
        <time>2018-04-18T10:08:18Z</time>
      </trkpt>
      <trkpt lat="45.9472" lon="4.74043">
        <ele>189</ele>
        <time>2018-04-18T10:08:19Z</time>
      </trkpt>
      <trkpt lat="45.94715" lon="4.74038">
        <ele>188.9</ele>
        <time>2018-04-18T10:08:20Z</time>
      </trkpt>
      <trkpt lat="45.94712" lon="4.74032">
        <ele>188.9</ele>
        <time>2018-04-18T10:08:21Z</time>
      </trkpt>
      <trkpt lat="45.94708" lon="4.74027">
        <ele>189</ele>
        <time>2018-04-18T10:08:22Z</time>
      </trkpt>
      <trkpt lat="45.94703" lon="4.74023">
        <ele>189</ele>
        <time>2018-04-18T10:08:23Z</time>
      </trkpt>
      <trkpt lat="45.947" lon="4.74018">
        <ele>189</ele>
        <time>2018-04-18T10:08:24Z</time>
      </trkpt>
      <trkpt lat="45.94695" lon="4.74011">
        <ele>189</ele>
        <time>2018-04-18T10:08:25Z</time>
      </trkpt>
      <trkpt lat="45.94691" lon="4.74006">
        <ele>189</ele>
        <time>2018-04-18T10:08:26Z</time>
      </trkpt>
      <trkpt lat="45.94686" lon="4.73999">
        <ele>189</ele>
        <time>2018-04-18T10:08:27Z</time>
      </trkpt>
      <trkpt lat="45.94684" lon="4.73993">
        <ele>188.9</ele>
        <time>2018-04-18T10:08:28Z</time>
      </trkpt>
      <trkpt lat="45.94679" lon="4.73988">
        <ele>188.8</ele>
        <time>2018-04-18T10:08:29Z</time>
      </trkpt>
      <trkpt lat="45.94676" lon="4.73981">
        <ele>188.5</ele>
        <time>2018-04-18T10:08:30Z</time>
      </trkpt>
      <trkpt lat="45.94672" lon="4.73973">
        <ele>188.2</ele>
        <time>2018-04-18T10:08:31Z</time>
      </trkpt>
      <trkpt lat="45.94668" lon="4.73968">
        <ele>188</ele>
        <time>2018-04-18T10:08:32Z</time>
      </trkpt>
      <trkpt lat="45.94663" lon="4.73962">
        <ele>188</ele>
        <time>2018-04-18T10:08:33Z</time>
      </trkpt>
      <trkpt lat="45.94659" lon="4.73958">
        <ele>188</ele>
        <time>2018-04-18T10:08:34Z</time>
      </trkpt>
      <trkpt lat="45.94653" lon="4.73951">
        <ele>188</ele>
        <time>2018-04-18T10:08:35Z</time>
      </trkpt>
      <trkpt lat="45.94649" lon="4.73945">
        <ele>188</ele>
        <time>2018-04-18T10:08:36Z</time>
      </trkpt>
      <trkpt lat="45.94645" lon="4.7394">
        <ele>188</ele>
        <time>2018-04-18T10:08:37Z</time>
      </trkpt>
      <trkpt lat="45.9464" lon="4.73934">
        <ele>188</ele>
        <time>2018-04-18T10:08:38Z</time>
      </trkpt>
      <trkpt lat="45.94635" lon="4.73929">
        <ele>187.9</ele>
        <time>2018-04-18T10:08:39Z</time>
      </trkpt>
      <trkpt lat="45.9463" lon="4.73924">
        <ele>187.9</ele>
        <time>2018-04-18T10:08:40Z</time>
      </trkpt>
      <trkpt lat="45.94626" lon="4.73919">
        <ele>188</ele>
        <time>2018-04-18T10:08:41Z</time>
      </trkpt>
      <trkpt lat="45.94623" lon="4.73913">
        <ele>187.9</ele>
        <time>2018-04-18T10:08:42Z</time>
      </trkpt>
      <trkpt lat="45.94619" lon="4.73907">
        <ele>187.7</ele>
        <time>2018-04-18T10:08:43Z</time>
      </trkpt>
      <trkpt lat="45.94614" lon="4.73901">
        <ele>187.5</ele>
        <time>2018-04-18T10:08:44Z</time>
      </trkpt>
      <trkpt lat="45.94611" lon="4.73894">
        <ele>187.2</ele>
        <time>2018-04-18T10:08:45Z</time>
      </trkpt>
      <trkpt lat="45.94606" lon="4.73888">
        <ele>187</ele>
        <time>2018-04-18T10:08:46Z</time>
      </trkpt>
      <trkpt lat="45.94602" lon="4.73882">
        <ele>187</ele>
        <time>2018-04-18T10:08:47Z</time>
      </trkpt>
      <trkpt lat="45.94597" lon="4.73876">
        <ele>187</ele>
        <time>2018-04-18T10:08:48Z</time>
      </trkpt>
      <trkpt lat="45.94593" lon="4.73871">
        <ele>187</ele>
        <time>2018-04-18T10:08:49Z</time>
      </trkpt>
      <trkpt lat="45.94588" lon="4.73867">
        <ele>187</ele>
        <time>2018-04-18T10:08:50Z</time>
      </trkpt>
      <trkpt lat="45.94583" lon="4.73862">
        <ele>187</ele>
        <time>2018-04-18T10:08:51Z</time>
      </trkpt>
      <trkpt lat="45.94577" lon="4.73856">
        <ele>186.8</ele>
        <time>2018-04-18T10:08:52Z</time>
      </trkpt>
      <trkpt lat="45.94572" lon="4.73851">
        <ele>186.6</ele>
        <time>2018-04-18T10:08:53Z</time>
      </trkpt>
      <trkpt lat="45.94566" lon="4.73845">
        <ele>186.4</ele>
        <time>2018-04-18T10:08:54Z</time>
      </trkpt>
      <trkpt lat="45.94561" lon="4.73841">
        <ele>186.2</ele>
        <time>2018-04-18T10:08:55Z</time>
      </trkpt>
      <trkpt lat="45.94556" lon="4.73837">
        <ele>186</ele>
        <time>2018-04-18T10:08:56Z</time>
      </trkpt>
      <trkpt lat="45.94551" lon="4.73831">
        <ele>186</ele>
        <time>2018-04-18T10:08:57Z</time>
      </trkpt>
      <trkpt lat="45.94546" lon="4.73828">
        <ele>186</ele>
        <time>2018-04-18T10:08:58Z</time>
      </trkpt>
      <trkpt lat="45.94541" lon="4.73823">
        <ele>186</ele>
        <time>2018-04-18T10:08:59Z</time>
      </trkpt>
      <trkpt lat="45.94537" lon="4.73818">
        <ele>186</ele>
        <time>2018-04-18T10:09:00Z</time>
      </trkpt>
      <trkpt lat="45.94532" lon="4.73813">
        <ele>186</ele>
        <time>2018-04-18T10:09:01Z</time>
      </trkpt>
      <trkpt lat="45.94525" lon="4.73806">
        <ele>186</ele>
        <time>2018-04-18T10:09:02Z</time>
      </trkpt>
      <trkpt lat="45.94521" lon="4.73801">
        <ele>186</ele>
        <time>2018-04-18T10:09:03Z</time>
      </trkpt>
      <trkpt lat="45.94516" lon="4.73799">
        <ele>186</ele>
        <time>2018-04-18T10:09:04Z</time>
      </trkpt>
      <trkpt lat="45.94512" lon="4.73794">
        <ele>186</ele>
        <time>2018-04-18T10:09:05Z</time>
      </trkpt>
      <trkpt lat="45.94507" lon="4.7379">
        <ele>186</ele>
        <time>2018-04-18T10:09:06Z</time>
      </trkpt>
      <trkpt lat="45.94503" lon="4.73785">
        <ele>186</ele>
        <time>2018-04-18T10:09:07Z</time>
      </trkpt>
      <trkpt lat="45.94499" lon="4.7378">
        <ele>186</ele>
        <time>2018-04-18T10:09:08Z</time>
      </trkpt>
      <trkpt lat="45.94495" lon="4.73776">
        <ele>186</ele>
        <time>2018-04-18T10:09:09Z</time>
      </trkpt>
      <trkpt lat="45.94493" lon="4.73768">
        <ele>186</ele>
        <time>2018-04-18T10:09:10Z</time>
      </trkpt>
      <trkpt lat="45.94489" lon="4.73763">
        <ele>186</ele>
        <time>2018-04-18T10:09:11Z</time>
      </trkpt>
      <trkpt lat="45.94487" lon="4.73756">
        <ele>186</ele>
        <time>2018-04-18T10:09:12Z</time>
      </trkpt>
      <trkpt lat="45.94484" lon="4.73749">
        <ele>186</ele>
        <time>2018-04-18T10:09:13Z</time>
      </trkpt>
      <trkpt lat="45.94485" lon="4.73743">
        <ele>185.9</ele>
        <time>2018-04-18T10:09:14Z</time>
      </trkpt>
      <trkpt lat="45.94486" lon="4.73734">
        <ele>185.7</ele>
        <time>2018-04-18T10:09:15Z</time>
      </trkpt>
      <trkpt lat="45.94487" lon="4.73726">
        <ele>185.6</ele>
        <time>2018-04-18T10:09:16Z</time>
      </trkpt>
      <trkpt lat="45.94488" lon="4.73718">
        <ele>185.5</ele>
        <time>2018-04-18T10:09:17Z</time>
      </trkpt>
      <trkpt lat="45.94489" lon="4.73709">
        <ele>185.3</ele>
        <time>2018-04-18T10:09:18Z</time>
      </trkpt>
      <trkpt lat="45.94489" lon="4.737">
        <ele>185.1</ele>
        <time>2018-04-18T10:09:19Z</time>
      </trkpt>
      <trkpt lat="45.9449" lon="4.73691">
        <ele>185</ele>
        <time>2018-04-18T10:09:20Z</time>
      </trkpt>
      <trkpt lat="45.94491" lon="4.73683">
        <ele>185</ele>
        <time>2018-04-18T10:09:21Z</time>
      </trkpt>
      <trkpt lat="45.94493" lon="4.73675">
        <ele>185</ele>
        <time>2018-04-18T10:09:22Z</time>
      </trkpt>
      <trkpt lat="45.94494" lon="4.73668">
        <ele>185</ele>
        <time>2018-04-18T10:09:23Z</time>
      </trkpt>
      <trkpt lat="45.94496" lon="4.7366">
        <ele>184.8</ele>
        <time>2018-04-18T10:09:24Z</time>
      </trkpt>
      <trkpt lat="45.94501" lon="4.73655">
        <ele>184.6</ele>
        <time>2018-04-18T10:09:25Z</time>
      </trkpt>
      <trkpt lat="45.94501" lon="4.73646">
        <ele>184.2</ele>
        <time>2018-04-18T10:09:26Z</time>
      </trkpt>
      <trkpt lat="45.94502" lon="4.73639">
        <ele>183.9</ele>
        <time>2018-04-18T10:09:27Z</time>
      </trkpt>
      <trkpt lat="45.94502" lon="4.73631">
        <ele>183.9</ele>
        <time>2018-04-18T10:09:28Z</time>
      </trkpt>
      <trkpt lat="45.94503" lon="4.73621">
        <ele>183.9</ele>
        <time>2018-04-18T10:09:29Z</time>
      </trkpt>
      <trkpt lat="45.94504" lon="4.73612">
        <ele>183.9</ele>
        <time>2018-04-18T10:09:30Z</time>
      </trkpt>
      <trkpt lat="45.94505" lon="4.73604">
        <ele>183.8</ele>
        <time>2018-04-18T10:09:31Z</time>
      </trkpt>
      <trkpt lat="45.94506" lon="4.73596">
        <ele>183.8</ele>
        <time>2018-04-18T10:09:32Z</time>
      </trkpt>
      <trkpt lat="45.94506" lon="4.73588">
        <ele>183.8</ele>
        <time>2018-04-18T10:09:33Z</time>
      </trkpt>
      <trkpt lat="45.94506" lon="4.73581">
        <ele>183.7</ele>
        <time>2018-04-18T10:09:34Z</time>
      </trkpt>
      <trkpt lat="45.94507" lon="4.73573">
        <ele>183.4</ele>
        <time>2018-04-18T10:09:35Z</time>
      </trkpt>
      <trkpt lat="45.94508" lon="4.73564">
        <ele>183</ele>
        <time>2018-04-18T10:09:36Z</time>
      </trkpt>
      <trkpt lat="45.94508" lon="4.73558">
        <ele>182.8</ele>
        <time>2018-04-18T10:09:37Z</time>
      </trkpt>
      <trkpt lat="45.94508" lon="4.73551">
        <ele>182.7</ele>
        <time>2018-04-18T10:09:38Z</time>
      </trkpt>
      <trkpt lat="45.9451" lon="4.73543">
        <ele>182.6</ele>
        <time>2018-04-18T10:09:39Z</time>
      </trkpt>
      <trkpt lat="45.9451" lon="4.73535">
        <ele>182.6</ele>
        <time>2018-04-18T10:09:40Z</time>
      </trkpt>
      <trkpt lat="45.94514" lon="4.73529">
        <ele>182.5</ele>
        <time>2018-04-18T10:09:41Z</time>
      </trkpt>
      <trkpt lat="45.94514" lon="4.73521">
        <ele>182.4</ele>
        <time>2018-04-18T10:09:42Z</time>
      </trkpt>
      <trkpt lat="45.94514" lon="4.73512">
        <ele>182.2</ele>
        <time>2018-04-18T10:09:43Z</time>
      </trkpt>
      <trkpt lat="45.94514" lon="4.73503">
        <ele>182.1</ele>
        <time>2018-04-18T10:09:44Z</time>
      </trkpt>
      <trkpt lat="45.94514" lon="4.73494">
        <ele>181.8</ele>
        <time>2018-04-18T10:09:45Z</time>
      </trkpt>
      <trkpt lat="45.94514" lon="4.73485">
        <ele>181.4</ele>
        <time>2018-04-18T10:09:46Z</time>
      </trkpt>
      <trkpt lat="45.94513" lon="4.73475">
        <ele>181.1</ele>
        <time>2018-04-18T10:09:47Z</time>
      </trkpt>
      <trkpt lat="45.94508" lon="4.73459">
        <ele>180.5</ele>
        <time>2018-04-18T10:09:48Z</time>
      </trkpt>
      <trkpt lat="45.94507" lon="4.73448">
        <ele>180.1</ele>
        <time>2018-04-18T10:09:49Z</time>
      </trkpt>
      <trkpt lat="45.94506" lon="4.73437">
        <ele>180</ele>
        <time>2018-04-18T10:09:50Z</time>
      </trkpt>
      <trkpt lat="45.94504" lon="4.73426">
        <ele>180</ele>
        <time>2018-04-18T10:09:51Z</time>
      </trkpt>
      <trkpt lat="45.94503" lon="4.73417">
        <ele>180</ele>
        <time>2018-04-18T10:09:52Z</time>
      </trkpt>
      <trkpt lat="45.94503" lon="4.73407">
        <ele>179.7</ele>
        <time>2018-04-18T10:09:53Z</time>
      </trkpt>
      <trkpt lat="45.94503" lon="4.73397">
        <ele>179.4</ele>
        <time>2018-04-18T10:09:54Z</time>
      </trkpt>
      <trkpt lat="45.94502" lon="4.73386">
        <ele>179.1</ele>
        <time>2018-04-18T10:09:55Z</time>
      </trkpt>
      <trkpt lat="45.94501" lon="4.73374">
        <ele>179</ele>
        <time>2018-04-18T10:09:56Z</time>
      </trkpt>
      <trkpt lat="45.945" lon="4.73364">
        <ele>179</ele>
        <time>2018-04-18T10:09:57Z</time>
      </trkpt>
      <trkpt lat="45.94499" lon="4.73353">
        <ele>178.7</ele>
        <time>2018-04-18T10:09:58Z</time>
      </trkpt>
      <trkpt lat="45.94499" lon="4.73343">
        <ele>178.3</ele>
        <time>2018-04-18T10:09:59Z</time>
      </trkpt>
      <trkpt lat="45.94498" lon="4.73331">
        <ele>177.9</ele>
        <time>2018-04-18T10:10:00Z</time>
      </trkpt>
      <trkpt lat="45.94496" lon="4.73319">
        <ele>177.5</ele>
        <time>2018-04-18T10:10:01Z</time>
      </trkpt>
      <trkpt lat="45.94495" lon="4.73308">
        <ele>177.1</ele>
        <time>2018-04-18T10:10:02Z</time>
      </trkpt>
      <trkpt lat="45.94494" lon="4.73297">
        <ele>176.9</ele>
        <time>2018-04-18T10:10:03Z</time>
      </trkpt>
      <trkpt lat="45.94491" lon="4.73285">
        <ele>176.8</ele>
        <time>2018-04-18T10:10:04Z</time>
      </trkpt>
      <trkpt lat="45.94487" lon="4.73271">
        <ele>176.4</ele>
        <time>2018-04-18T10:10:05Z</time>
      </trkpt>
      <trkpt lat="45.94486" lon="4.7326">
        <ele>176.2</ele>
        <time>2018-04-18T10:10:06Z</time>
      </trkpt>
      <trkpt lat="45.94484" lon="4.73249">
        <ele>176</ele>
        <time>2018-04-18T10:10:07Z</time>
      </trkpt>
      <trkpt lat="45.94483" lon="4.73238">
        <ele>175.6</ele>
        <time>2018-04-18T10:10:08Z</time>
      </trkpt>
      <trkpt lat="45.94482" lon="4.73227">
        <ele>175.2</ele>
        <time>2018-04-18T10:10:09Z</time>
      </trkpt>
      <trkpt lat="45.94481" lon="4.73216">
        <ele>174.7</ele>
        <time>2018-04-18T10:10:10Z</time>
      </trkpt>
      <trkpt lat="45.94479" lon="4.73203">
        <ele>174.2</ele>
        <time>2018-04-18T10:10:11Z</time>
      </trkpt>
      <trkpt lat="45.94476" lon="4.7319">
        <ele>173.8</ele>
        <time>2018-04-18T10:10:12Z</time>
      </trkpt>
      <trkpt lat="45.94477" lon="4.73182">
        <ele>173.8</ele>
        <time>2018-04-18T10:10:13Z</time>
      </trkpt>
      <trkpt lat="45.94476" lon="4.73171">
        <ele>173.8</ele>
        <time>2018-04-18T10:10:14Z</time>
      </trkpt>
      <trkpt lat="45.94475" lon="4.7316">
        <ele>173.4</ele>
        <time>2018-04-18T10:10:15Z</time>
      </trkpt>
      <trkpt lat="45.94475" lon="4.73149">
        <ele>172.7</ele>
        <time>2018-04-18T10:10:16Z</time>
      </trkpt>
      <trkpt lat="45.94475" lon="4.73141">
        <ele>172.2</ele>
        <time>2018-04-18T10:10:17Z</time>
      </trkpt>
      <trkpt lat="45.94474" lon="4.73131">
        <ele>172</ele>
        <time>2018-04-18T10:10:18Z</time>
      </trkpt>
      <trkpt lat="45.94474" lon="4.73122">
        <ele>172</ele>
        <time>2018-04-18T10:10:19Z</time>
      </trkpt>
      <trkpt lat="45.94473" lon="4.73113">
        <ele>172</ele>
        <time>2018-04-18T10:10:20Z</time>
      </trkpt>
      <trkpt lat="45.94472" lon="4.73105">
        <ele>172</ele>
        <time>2018-04-18T10:10:21Z</time>
      </trkpt>
      <trkpt lat="45.94471" lon="4.73096">
        <ele>171.9</ele>
        <time>2018-04-18T10:10:22Z</time>
      </trkpt>
      <trkpt lat="45.9447" lon="4.73088">
        <ele>171.9</ele>
        <time>2018-04-18T10:10:23Z</time>
      </trkpt>
      <trkpt lat="45.94466" lon="4.73078">
        <ele>171.5</ele>
        <time>2018-04-18T10:10:24Z</time>
      </trkpt>
      <trkpt lat="45.94464" lon="4.73068">
        <ele>171.1</ele>
        <time>2018-04-18T10:10:25Z</time>
      </trkpt>
      <trkpt lat="45.94462" lon="4.7306">
        <ele>170.9</ele>
        <time>2018-04-18T10:10:26Z</time>
      </trkpt>
      <trkpt lat="45.94466" lon="4.7305">
        <ele>170.4</ele>
        <time>2018-04-18T10:10:28Z</time>
      </trkpt>
      <trkpt lat="45.94464" lon="4.73044">
        <ele>170.3</ele>
        <time>2018-04-18T10:10:29Z</time>
      </trkpt>
      <trkpt lat="45.94463" lon="4.73032">
        <ele>170.1</ele>
        <time>2018-04-18T10:10:31Z</time>
      </trkpt>
      <trkpt lat="45.94462" lon="4.73026">
        <ele>169.8</ele>
        <time>2018-04-18T10:10:32Z</time>
      </trkpt>
      <trkpt lat="45.94458" lon="4.73018">
        <ele>168.9</ele>
        <time>2018-04-18T10:10:33Z</time>
      </trkpt>
      <trkpt lat="45.94458" lon="4.73011">
        <ele>168.2</ele>
        <time>2018-04-18T10:10:34Z</time>
      </trkpt>
      <trkpt lat="45.94457" lon="4.73001">
        <ele>167.1</ele>
        <time>2018-04-18T10:10:36Z</time>
      </trkpt>
      <trkpt lat="45.94457" lon="4.72995">
        <ele>167</ele>
        <time>2018-04-18T10:10:37Z</time>
      </trkpt>
      <trkpt lat="45.94454" lon="4.72986">
        <ele>167</ele>
        <time>2018-04-18T10:10:39Z</time>
      </trkpt>
      <trkpt lat="45.94453" lon="4.72981">
        <ele>167</ele>
        <time>2018-04-18T10:10:40Z</time>
      </trkpt>
      <trkpt lat="45.94452" lon="4.72972">
        <ele>167</ele>
        <time>2018-04-18T10:10:42Z</time>
      </trkpt>
      <trkpt lat="45.94451" lon="4.72965">
        <ele>167</ele>
        <time>2018-04-18T10:10:43Z</time>
      </trkpt>
      <trkpt lat="45.94451" lon="4.72955">
        <ele>167</ele>
        <time>2018-04-18T10:10:46Z</time>
      </trkpt>
      <trkpt lat="45.9445" lon="4.72952">
        <ele>167</ele>
        <time>2018-04-18T10:10:47Z</time>
      </trkpt>
      <trkpt lat="45.94448" lon="4.72939">
        <ele>167</ele>
        <time>2018-04-18T10:10:50Z</time>
      </trkpt>
      <trkpt lat="45.94448" lon="4.72935">
        <ele>167</ele>
        <time>2018-04-18T10:10:51Z</time>
      </trkpt>
      <trkpt lat="45.94446" lon="4.72927">
        <ele>167</ele>
        <time>2018-04-18T10:10:53Z</time>
      </trkpt>
      <trkpt lat="45.94444" lon="4.72912">
        <ele>167</ele>
        <time>2018-04-18T10:10:54Z</time>
      </trkpt>
      <trkpt lat="45.94441" lon="4.729">
        <ele>167</ele>
        <time>2018-04-18T10:10:56Z</time>
      </trkpt>
      <trkpt lat="45.94437" lon="4.72892">
        <ele>167</ele>
        <time>2018-04-18T10:10:57Z</time>
      </trkpt>
      <trkpt lat="45.94438" lon="4.72882">
        <ele>167</ele>
        <time>2018-04-18T10:10:59Z</time>
      </trkpt>
      <trkpt lat="45.94436" lon="4.72876">
        <ele>167</ele>
        <time>2018-04-18T10:11:00Z</time>
      </trkpt>
      <trkpt lat="45.94435" lon="4.72869">
        <ele>167</ele>
        <time>2018-04-18T10:11:01Z</time>
      </trkpt>
      <trkpt lat="45.94435" lon="4.72862">
        <ele>167</ele>
        <time>2018-04-18T10:11:02Z</time>
      </trkpt>
      <trkpt lat="45.94434" lon="4.72855">
        <ele>167</ele>
        <time>2018-04-18T10:11:03Z</time>
      </trkpt>
      <trkpt lat="45.94434" lon="4.72848">
        <ele>167</ele>
        <time>2018-04-18T10:11:04Z</time>
      </trkpt>
      <trkpt lat="45.94435" lon="4.72841">
        <ele>167</ele>
        <time>2018-04-18T10:11:05Z</time>
      </trkpt>
      <trkpt lat="45.94434" lon="4.72832">
        <ele>167</ele>
        <time>2018-04-18T10:11:06Z</time>
      </trkpt>
      <trkpt lat="45.94429" lon="4.72819">
        <ele>167</ele>
        <time>2018-04-18T10:11:07Z</time>
      </trkpt>
      <trkpt lat="45.94427" lon="4.7281">
        <ele>167</ele>
        <time>2018-04-18T10:11:08Z</time>
      </trkpt>
      <trkpt lat="45.94427" lon="4.72801">
        <ele>167.6</ele>
        <time>2018-04-18T10:11:09Z</time>
      </trkpt>
      <trkpt lat="45.94426" lon="4.72792">
        <ele>168.7</ele>
        <time>2018-04-18T10:11:10Z</time>
      </trkpt>
      <trkpt lat="45.94427" lon="4.72784">
        <ele>169.5</ele>
        <time>2018-04-18T10:11:11Z</time>
      </trkpt>
      <trkpt lat="45.94427" lon="4.72774">
        <ele>170.1</ele>
        <time>2018-04-18T10:11:12Z</time>
      </trkpt>
      <trkpt lat="45.94426" lon="4.72764">
        <ele>170.3</ele>
        <time>2018-04-18T10:11:13Z</time>
      </trkpt>
      <trkpt lat="45.94425" lon="4.72754">
        <ele>170.4</ele>
        <time>2018-04-18T10:11:14Z</time>
      </trkpt>
      <trkpt lat="45.94426" lon="4.72747">
        <ele>170.3</ele>
        <time>2018-04-18T10:11:15Z</time>
      </trkpt>
      <trkpt lat="45.94424" lon="4.72736">
        <ele>170.4</ele>
        <time>2018-04-18T10:11:16Z</time>
      </trkpt>
      <trkpt lat="45.94423" lon="4.72726">
        <ele>170.2</ele>
        <time>2018-04-18T10:11:17Z</time>
      </trkpt>
      <trkpt lat="45.94424" lon="4.72718">
        <ele>169.8</ele>
        <time>2018-04-18T10:11:18Z</time>
      </trkpt>
      <trkpt lat="45.94421" lon="4.72707">
        <ele>170</ele>
        <time>2018-04-18T10:11:19Z</time>
      </trkpt>
      <trkpt lat="45.9442" lon="4.72697">
        <ele>169.8</ele>
        <time>2018-04-18T10:11:20Z</time>
      </trkpt>
      <trkpt lat="45.94417" lon="4.72688">
        <ele>170</ele>
        <time>2018-04-18T10:11:21Z</time>
      </trkpt>
      <trkpt lat="45.94416" lon="4.72677">
        <ele>170</ele>
        <time>2018-04-18T10:11:22Z</time>
      </trkpt>
      <trkpt lat="45.94414" lon="4.72669">
        <ele>170.1</ele>
        <time>2018-04-18T10:11:23Z</time>
      </trkpt>
      <trkpt lat="45.94414" lon="4.7266">
        <ele>170.3</ele>
        <time>2018-04-18T10:11:24Z</time>
      </trkpt>
      <trkpt lat="45.94413" lon="4.72653">
        <ele>170.7</ele>
        <time>2018-04-18T10:11:25Z</time>
      </trkpt>
      <trkpt lat="45.94413" lon="4.72644">
        <ele>171</ele>
        <time>2018-04-18T10:11:26Z</time>
      </trkpt>
      <trkpt lat="45.94412" lon="4.72635">
        <ele>171.3</ele>
        <time>2018-04-18T10:11:27Z</time>
      </trkpt>
      <trkpt lat="45.94408" lon="4.72624">
        <ele>171.7</ele>
        <time>2018-04-18T10:11:28Z</time>
      </trkpt>
      <trkpt lat="45.94405" lon="4.72613">
        <ele>172</ele>
        <time>2018-04-18T10:11:29Z</time>
      </trkpt>
      <trkpt lat="45.94403" lon="4.72604">
        <ele>171.9</ele>
        <time>2018-04-18T10:11:30Z</time>
      </trkpt>
      <trkpt lat="45.94401" lon="4.72594">
        <ele>171.7</ele>
        <time>2018-04-18T10:11:31Z</time>
      </trkpt>
      <trkpt lat="45.94405" lon="4.7259">
        <ele>171.6</ele>
        <time>2018-04-18T10:11:32Z</time>
      </trkpt>
      <trkpt lat="45.94403" lon="4.72582">
        <ele>171.4</ele>
        <time>2018-04-18T10:11:33Z</time>
      </trkpt>
      <trkpt lat="45.94403" lon="4.72574">
        <ele>171.3</ele>
        <time>2018-04-18T10:11:34Z</time>
      </trkpt>
      <trkpt lat="45.94401" lon="4.72564">
        <ele>171.3</ele>
        <time>2018-04-18T10:11:35Z</time>
      </trkpt>
      <trkpt lat="45.94401" lon="4.72557">
        <ele>171.1</ele>
        <time>2018-04-18T10:11:36Z</time>
      </trkpt>
      <trkpt lat="45.94398" lon="4.72548">
        <ele>171.2</ele>
        <time>2018-04-18T10:11:37Z</time>
      </trkpt>
      <trkpt lat="45.94395" lon="4.7254">
        <ele>171.1</ele>
        <time>2018-04-18T10:11:38Z</time>
      </trkpt>
      <trkpt lat="45.94394" lon="4.72533">
        <ele>171</ele>
        <time>2018-04-18T10:11:39Z</time>
      </trkpt>
      <trkpt lat="45.94391" lon="4.72525">
        <ele>170.8</ele>
        <time>2018-04-18T10:11:40Z</time>
      </trkpt>
      <trkpt lat="45.94389" lon="4.72517">
        <ele>170.6</ele>
        <time>2018-04-18T10:11:41Z</time>
      </trkpt>
      <trkpt lat="45.94387" lon="4.7251">
        <ele>170.5</ele>
        <time>2018-04-18T10:11:42Z</time>
      </trkpt>
      <trkpt lat="45.94383" lon="4.72502">
        <ele>170.4</ele>
        <time>2018-04-18T10:11:43Z</time>
      </trkpt>
      <trkpt lat="45.9438" lon="4.72494">
        <ele>170.7</ele>
        <time>2018-04-18T10:11:44Z</time>
      </trkpt>
      <trkpt lat="45.94377" lon="4.72487">
        <ele>170.9</ele>
        <time>2018-04-18T10:11:45Z</time>
      </trkpt>
      <trkpt lat="45.94374" lon="4.72481">
        <ele>171.1</ele>
        <time>2018-04-18T10:11:46Z</time>
      </trkpt>
      <trkpt lat="45.94369" lon="4.72471">
        <ele>171.4</ele>
        <time>2018-04-18T10:11:47Z</time>
      </trkpt>
      <trkpt lat="45.94366" lon="4.72463">
        <ele>171.1</ele>
        <time>2018-04-18T10:11:48Z</time>
      </trkpt>
      <trkpt lat="45.94362" lon="4.72454">
        <ele>170.7</ele>
        <time>2018-04-18T10:11:49Z</time>
      </trkpt>
      <trkpt lat="45.94359" lon="4.72447">
        <ele>170.3</ele>
        <time>2018-04-18T10:11:50Z</time>
      </trkpt>
      <trkpt lat="45.94356" lon="4.7244">
        <ele>170.2</ele>
        <time>2018-04-18T10:11:51Z</time>
      </trkpt>
      <trkpt lat="45.94354" lon="4.72434">
        <ele>170.2</ele>
        <time>2018-04-18T10:11:52Z</time>
      </trkpt>
      <trkpt lat="45.9435" lon="4.72425">
        <ele>170.4</ele>
        <time>2018-04-18T10:11:53Z</time>
      </trkpt>
      <trkpt lat="45.94349" lon="4.72419">
        <ele>170.4</ele>
        <time>2018-04-18T10:11:54Z</time>
      </trkpt>
      <trkpt lat="45.94345" lon="4.72411">
        <ele>170.7</ele>
        <time>2018-04-18T10:11:55Z</time>
      </trkpt>
      <trkpt lat="45.94342" lon="4.72404">
        <ele>170.8</ele>
        <time>2018-04-18T10:11:56Z</time>
      </trkpt>
      <trkpt lat="45.94338" lon="4.72397">
        <ele>170.9</ele>
        <time>2018-04-18T10:11:57Z</time>
      </trkpt>
      <trkpt lat="45.94334" lon="4.7239">
        <ele>171</ele>
        <time>2018-04-18T10:11:58Z</time>
      </trkpt>
      <trkpt lat="45.9433" lon="4.72382">
        <ele>170.9</ele>
        <time>2018-04-18T10:11:59Z</time>
      </trkpt>
      <trkpt lat="45.94328" lon="4.72371">
        <ele>170.4</ele>
        <time>2018-04-18T10:12:01Z</time>
      </trkpt>
      <trkpt lat="45.94325" lon="4.72363">
        <ele>170.4</ele>
        <time>2018-04-18T10:12:02Z</time>
      </trkpt>
      <trkpt lat="45.94322" lon="4.72356">
        <ele>170.4</ele>
        <time>2018-04-18T10:12:03Z</time>
      </trkpt>
      <trkpt lat="45.94317" lon="4.72348">
        <ele>170.5</ele>
        <time>2018-04-18T10:12:04Z</time>
      </trkpt>
      <trkpt lat="45.94314" lon="4.72341">
        <ele>170.3</ele>
        <time>2018-04-18T10:12:05Z</time>
      </trkpt>
      <trkpt lat="45.94312" lon="4.72336">
        <ele>170</ele>
        <time>2018-04-18T10:12:06Z</time>
      </trkpt>
      <trkpt lat="45.94308" lon="4.72329">
        <ele>169.8</ele>
        <time>2018-04-18T10:12:07Z</time>
      </trkpt>
      <trkpt lat="45.94304" lon="4.72321">
        <ele>169.8</ele>
        <time>2018-04-18T10:12:08Z</time>
      </trkpt>
      <trkpt lat="45.943" lon="4.72314">
        <ele>169.8</ele>
        <time>2018-04-18T10:12:09Z</time>
      </trkpt>
      <trkpt lat="45.94295" lon="4.72304">
        <ele>169.8</ele>
        <time>2018-04-18T10:12:10Z</time>
      </trkpt>
      <trkpt lat="45.94292" lon="4.72296">
        <ele>170.1</ele>
        <time>2018-04-18T10:12:11Z</time>
      </trkpt>
      <trkpt lat="45.94289" lon="4.72291">
        <ele>170.5</ele>
        <time>2018-04-18T10:12:12Z</time>
      </trkpt>
      <trkpt lat="45.94287" lon="4.72284">
        <ele>170.9</ele>
        <time>2018-04-18T10:12:13Z</time>
      </trkpt>
      <trkpt lat="45.94285" lon="4.72278">
        <ele>171.2</ele>
        <time>2018-04-18T10:12:14Z</time>
      </trkpt>
      <trkpt lat="45.94283" lon="4.72276">
        <ele>171.6</ele>
        <time>2018-04-18T10:12:15Z</time>
      </trkpt>
      <trkpt lat="45.94276" lon="4.7227">
        <ele>172.3</ele>
        <time>2018-04-18T10:12:16Z</time>
      </trkpt>
      <trkpt lat="45.94271" lon="4.72267">
        <ele>172.4</ele>
        <time>2018-04-18T10:12:17Z</time>
      </trkpt>
      <trkpt lat="45.94266" lon="4.72267">
        <ele>172.4</ele>
        <time>2018-04-18T10:12:18Z</time>
      </trkpt>
      <trkpt lat="45.94259" lon="4.72268">
        <ele>172.4</ele>
        <time>2018-04-18T10:12:19Z</time>
      </trkpt>
      <trkpt lat="45.94254" lon="4.72271">
        <ele>172.3</ele>
        <time>2018-04-18T10:12:20Z</time>
      </trkpt>
      <trkpt lat="45.94248" lon="4.72272">
        <ele>172.3</ele>
        <time>2018-04-18T10:12:21Z</time>
      </trkpt>
      <trkpt lat="45.94242" lon="4.72275">
        <ele>172.4</ele>
        <time>2018-04-18T10:12:22Z</time>
      </trkpt>
      <trkpt lat="45.94236" lon="4.72277">
        <ele>172.5</ele>
        <time>2018-04-18T10:12:23Z</time>
      </trkpt>
      <trkpt lat="45.9423" lon="4.72278">
        <ele>172.7</ele>
        <time>2018-04-18T10:12:24Z</time>
      </trkpt>
      <trkpt lat="45.94224" lon="4.72279">
        <ele>172.8</ele>
        <time>2018-04-18T10:12:25Z</time>
      </trkpt>
      <trkpt lat="45.94219" lon="4.72281">
        <ele>172.5</ele>
        <time>2018-04-18T10:12:26Z</time>
      </trkpt>
      <trkpt lat="45.94214" lon="4.72282">
        <ele>172.3</ele>
        <time>2018-04-18T10:12:27Z</time>
      </trkpt>
      <trkpt lat="45.94207" lon="4.72283">
        <ele>172</ele>
        <time>2018-04-18T10:12:28Z</time>
      </trkpt>
      <trkpt lat="45.94202" lon="4.72288">
        <ele>171.5</ele>
        <time>2018-04-18T10:12:29Z</time>
      </trkpt>
      <trkpt lat="45.94196" lon="4.72287">
        <ele>171.4</ele>
        <time>2018-04-18T10:12:30Z</time>
      </trkpt>
      <trkpt lat="45.9419" lon="4.72286">
        <ele>171.4</ele>
        <time>2018-04-18T10:12:31Z</time>
      </trkpt>
      <trkpt lat="45.94184" lon="4.72286">
        <ele>171.4</ele>
        <time>2018-04-18T10:12:32Z</time>
      </trkpt>
      <trkpt lat="45.94178" lon="4.72286">
        <ele>171.4</ele>
        <time>2018-04-18T10:12:33Z</time>
      </trkpt>
      <trkpt lat="45.94173" lon="4.72286">
        <ele>171.4</ele>
        <time>2018-04-18T10:12:34Z</time>
      </trkpt>
      <trkpt lat="45.94167" lon="4.72285">
        <ele>171.5</ele>
        <time>2018-04-18T10:12:35Z</time>
      </trkpt>
      <trkpt lat="45.94161" lon="4.72284">
        <ele>171.6</ele>
        <time>2018-04-18T10:12:36Z</time>
      </trkpt>
      <trkpt lat="45.94156" lon="4.72283">
        <ele>171.6</ele>
        <time>2018-04-18T10:12:37Z</time>
      </trkpt>
      <trkpt lat="45.94151" lon="4.72284">
        <ele>171.6</ele>
        <time>2018-04-18T10:12:38Z</time>
      </trkpt>
      <trkpt lat="45.94146" lon="4.72288">
        <ele>171.3</ele>
        <time>2018-04-18T10:12:39Z</time>
      </trkpt>
      <trkpt lat="45.94141" lon="4.72285">
        <ele>171.5</ele>
        <time>2018-04-18T10:12:40Z</time>
      </trkpt>
      <trkpt lat="45.94138" lon="4.72284">
        <ele>171.5</ele>
        <time>2018-04-18T10:12:41Z</time>
      </trkpt>
      <trkpt lat="45.94133" lon="4.72279">
        <ele>171.7</ele>
        <time>2018-04-18T10:12:42Z</time>
      </trkpt>
      <trkpt lat="45.94127" lon="4.72277">
        <ele>171.6</ele>
        <time>2018-04-18T10:12:43Z</time>
      </trkpt>
      <trkpt lat="45.94123" lon="4.7228">
        <ele>171.3</ele>
        <time>2018-04-18T10:12:44Z</time>
      </trkpt>
      <trkpt lat="45.94118" lon="4.72278">
        <ele>171.2</ele>
        <time>2018-04-18T10:12:45Z</time>
      </trkpt>
      <trkpt lat="45.94113" lon="4.72276">
        <ele>171.1</ele>
        <time>2018-04-18T10:12:46Z</time>
      </trkpt>
      <trkpt lat="45.94107" lon="4.72275">
        <ele>171.1</ele>
        <time>2018-04-18T10:12:47Z</time>
      </trkpt>
      <trkpt lat="45.94101" lon="4.72274">
        <ele>171.1</ele>
        <time>2018-04-18T10:12:48Z</time>
      </trkpt>
      <trkpt lat="45.94096" lon="4.72274">
        <ele>171.1</ele>
        <time>2018-04-18T10:12:49Z</time>
      </trkpt>
      <trkpt lat="45.9409" lon="4.72274">
        <ele>171</ele>
        <time>2018-04-18T10:12:50Z</time>
      </trkpt>
      <trkpt lat="45.94085" lon="4.72275">
        <ele>171</ele>
        <time>2018-04-18T10:12:51Z</time>
      </trkpt>
      <trkpt lat="45.94079" lon="4.72278">
        <ele>171</ele>
        <time>2018-04-18T10:12:52Z</time>
      </trkpt>
      <trkpt lat="45.94074" lon="4.72282">
        <ele>170.9</ele>
        <time>2018-04-18T10:12:53Z</time>
      </trkpt>
      <trkpt lat="45.94069" lon="4.72287">
        <ele>170.7</ele>
        <time>2018-04-18T10:12:54Z</time>
      </trkpt>
      <trkpt lat="45.94064" lon="4.7229">
        <ele>170.6</ele>
        <time>2018-04-18T10:12:55Z</time>
      </trkpt>
      <trkpt lat="45.94059" lon="4.72294">
        <ele>170.4</ele>
        <time>2018-04-18T10:12:56Z</time>
      </trkpt>
      <trkpt lat="45.94055" lon="4.723">
        <ele>170.3</ele>
        <time>2018-04-18T10:12:57Z</time>
      </trkpt>
      <trkpt lat="45.9405" lon="4.72306">
        <ele>170.4</ele>
        <time>2018-04-18T10:12:58Z</time>
      </trkpt>
      <trkpt lat="45.94045" lon="4.72314">
        <ele>170.5</ele>
        <time>2018-04-18T10:12:59Z</time>
      </trkpt>
      <trkpt lat="45.94041" lon="4.72319">
        <ele>170.5</ele>
        <time>2018-04-18T10:13:00Z</time>
      </trkpt>
      <trkpt lat="45.94036" lon="4.72325">
        <ele>170.4</ele>
        <time>2018-04-18T10:13:01Z</time>
      </trkpt>
      <trkpt lat="45.94032" lon="4.72331">
        <ele>170.1</ele>
        <time>2018-04-18T10:13:02Z</time>
      </trkpt>
      <trkpt lat="45.94027" lon="4.72337">
        <ele>170.1</ele>
        <time>2018-04-18T10:13:03Z</time>
      </trkpt>
      <trkpt lat="45.94022" lon="4.72343">
        <ele>170.2</ele>
        <time>2018-04-18T10:13:04Z</time>
      </trkpt>
      <trkpt lat="45.94017" lon="4.72349">
        <ele>170.1</ele>
        <time>2018-04-18T10:13:05Z</time>
      </trkpt>
      <trkpt lat="45.94011" lon="4.72355">
        <ele>169.8</ele>
        <time>2018-04-18T10:13:06Z</time>
      </trkpt>
      <trkpt lat="45.94008" lon="4.72359">
        <ele>169.5</ele>
        <time>2018-04-18T10:13:07Z</time>
      </trkpt>
      <trkpt lat="45.94004" lon="4.72364">
        <ele>169.1</ele>
        <time>2018-04-18T10:13:08Z</time>
      </trkpt>
      <trkpt lat="45.93999" lon="4.72368">
        <ele>169.2</ele>
        <time>2018-04-18T10:13:09Z</time>
      </trkpt>
      <trkpt lat="45.93994" lon="4.72373">
        <ele>169.5</ele>
        <time>2018-04-18T10:13:10Z</time>
      </trkpt>
      <trkpt lat="45.9399" lon="4.72379">
        <ele>169.8</ele>
        <time>2018-04-18T10:13:11Z</time>
      </trkpt>
      <trkpt lat="45.93986" lon="4.72384">
        <ele>169.8</ele>
        <time>2018-04-18T10:13:12Z</time>
      </trkpt>
      <trkpt lat="45.93981" lon="4.72387">
        <ele>169.8</ele>
        <time>2018-04-18T10:13:13Z</time>
      </trkpt>
      <trkpt lat="45.93977" lon="4.72392">
        <ele>169.8</ele>
        <time>2018-04-18T10:13:14Z</time>
      </trkpt>
      <trkpt lat="45.93972" lon="4.72396">
        <ele>170</ele>
        <time>2018-04-18T10:13:15Z</time>
      </trkpt>
      <trkpt lat="45.93968" lon="4.72403">
        <ele>170.4</ele>
        <time>2018-04-18T10:13:16Z</time>
      </trkpt>
      <trkpt lat="45.93963" lon="4.72409">
        <ele>170.6</ele>
        <time>2018-04-18T10:13:17Z</time>
      </trkpt>
      <trkpt lat="45.9396" lon="4.72413">
        <ele>170.6</ele>
        <time>2018-04-18T10:13:18Z</time>
      </trkpt>
      <trkpt lat="45.93956" lon="4.72418">
        <ele>170.6</ele>
        <time>2018-04-18T10:13:19Z</time>
      </trkpt>
      <trkpt lat="45.93951" lon="4.72422">
        <ele>170.6</ele>
        <time>2018-04-18T10:13:20Z</time>
      </trkpt>
      <trkpt lat="45.93949" lon="4.72427">
        <ele>170.5</ele>
        <time>2018-04-18T10:13:21Z</time>
      </trkpt>
      <trkpt lat="45.93944" lon="4.7243">
        <ele>170.5</ele>
        <time>2018-04-18T10:13:22Z</time>
      </trkpt>
      <trkpt lat="45.9394" lon="4.72434">
        <ele>170.8</ele>
        <time>2018-04-18T10:13:23Z</time>
      </trkpt>
      <trkpt lat="45.93935" lon="4.7244">
        <ele>170.9</ele>
        <time>2018-04-18T10:13:24Z</time>
      </trkpt>
      <trkpt lat="45.93931" lon="4.72445">
        <ele>171</ele>
        <time>2018-04-18T10:13:25Z</time>
      </trkpt>
      <trkpt lat="45.93928" lon="4.7245">
        <ele>171.2</ele>
        <time>2018-04-18T10:13:26Z</time>
      </trkpt>
      <trkpt lat="45.93924" lon="4.72456">
        <ele>171.4</ele>
        <time>2018-04-18T10:13:27Z</time>
      </trkpt>
      <trkpt lat="45.93921" lon="4.72461">
        <ele>171.4</ele>
        <time>2018-04-18T10:13:28Z</time>
      </trkpt>
      <trkpt lat="45.93917" lon="4.72466">
        <ele>171.2</ele>
        <time>2018-04-18T10:13:29Z</time>
      </trkpt>
      <trkpt lat="45.93913" lon="4.72469">
        <ele>171.6</ele>
        <time>2018-04-18T10:13:30Z</time>
      </trkpt>
      <trkpt lat="45.93909" lon="4.72474">
        <ele>171.9</ele>
        <time>2018-04-18T10:13:31Z</time>
      </trkpt>
      <trkpt lat="45.93905" lon="4.72479">
        <ele>172.3</ele>
        <time>2018-04-18T10:13:32Z</time>
      </trkpt>
      <trkpt lat="45.93901" lon="4.72483">
        <ele>172.6</ele>
        <time>2018-04-18T10:13:33Z</time>
      </trkpt>
      <trkpt lat="45.93897" lon="4.72487">
        <ele>172.7</ele>
        <time>2018-04-18T10:13:34Z</time>
      </trkpt>
      <trkpt lat="45.93893" lon="4.72492">
        <ele>172.5</ele>
        <time>2018-04-18T10:13:35Z</time>
      </trkpt>
      <trkpt lat="45.93889" lon="4.725">
        <ele>172</ele>
        <time>2018-04-18T10:13:36Z</time>
      </trkpt>
      <trkpt lat="45.93885" lon="4.72504">
        <ele>172.5</ele>
        <time>2018-04-18T10:13:37Z</time>
      </trkpt>
      <trkpt lat="45.9388" lon="4.72509">
        <ele>172.9</ele>
        <time>2018-04-18T10:13:38Z</time>
      </trkpt>
      <trkpt lat="45.93875" lon="4.72512">
        <ele>173.1</ele>
        <time>2018-04-18T10:13:39Z</time>
      </trkpt>
      <trkpt lat="45.9387" lon="4.72512">
        <ele>173.3</ele>
        <time>2018-04-18T10:13:40Z</time>
      </trkpt>
      <trkpt lat="45.93864" lon="4.72509">
        <ele>173.8</ele>
        <time>2018-04-18T10:13:41Z</time>
      </trkpt>
      <trkpt lat="45.9386" lon="4.72508">
        <ele>174</ele>
        <time>2018-04-18T10:13:42Z</time>
      </trkpt>
      <trkpt lat="45.93857" lon="4.72507">
        <ele>173.7</ele>
        <time>2018-04-18T10:13:43Z</time>
      </trkpt>
      <trkpt lat="45.93814" lon="4.72463">
        <ele>173.7</ele>
        <time>2018-04-18T10:13:53Z</time>
      </trkpt>
      <trkpt lat="45.93809" lon="4.72462">
        <ele>173.1</ele>
        <time>2018-04-18T10:13:54Z</time>
      </trkpt>
      <trkpt lat="45.93806" lon="4.72454">
        <ele>173.3</ele>
        <time>2018-04-18T10:13:55Z</time>
      </trkpt>
      <trkpt lat="45.938" lon="4.72448">
        <ele>173.3</ele>
        <time>2018-04-18T10:13:56Z</time>
      </trkpt>
      <trkpt lat="45.93795" lon="4.72444">
        <ele>173.2</ele>
        <time>2018-04-18T10:13:57Z</time>
      </trkpt>
      <trkpt lat="45.93791" lon="4.72436">
        <ele>173</ele>
        <time>2018-04-18T10:13:58Z</time>
      </trkpt>
      <trkpt lat="45.93786" lon="4.72432">
        <ele>172.8</ele>
        <time>2018-04-18T10:13:59Z</time>
      </trkpt>
      <trkpt lat="45.9378" lon="4.72424">
        <ele>172.8</ele>
        <time>2018-04-18T10:14:01Z</time>
      </trkpt>
      <trkpt lat="45.93776" lon="4.7242">
        <ele>172.8</ele>
        <time>2018-04-18T10:14:02Z</time>
      </trkpt>
      <trkpt lat="45.93769" lon="4.72414">
        <ele>172.7</ele>
        <time>2018-04-18T10:14:04Z</time>
      </trkpt>
      <trkpt lat="45.93765" lon="4.7241">
        <ele>172.6</ele>
        <time>2018-04-18T10:14:05Z</time>
      </trkpt>
      <trkpt lat="45.9376" lon="4.72406">
        <ele>172.6</ele>
        <time>2018-04-18T10:14:06Z</time>
      </trkpt>
      <trkpt lat="45.93756" lon="4.72402">
        <ele>172.6</ele>
        <time>2018-04-18T10:14:07Z</time>
      </trkpt>
      <trkpt lat="45.93751" lon="4.72398">
        <ele>172.7</ele>
        <time>2018-04-18T10:14:08Z</time>
      </trkpt>
      <trkpt lat="45.93746" lon="4.72393">
        <ele>172.8</ele>
        <time>2018-04-18T10:14:09Z</time>
      </trkpt>
      <trkpt lat="45.93742" lon="4.7239">
        <ele>173</ele>
        <time>2018-04-18T10:14:10Z</time>
      </trkpt>
      <trkpt lat="45.93737" lon="4.72384">
        <ele>173</ele>
        <time>2018-04-18T10:14:11Z</time>
      </trkpt>
      <trkpt lat="45.9373" lon="4.72377">
        <ele>173</ele>
        <time>2018-04-18T10:14:13Z</time>
      </trkpt>
      <trkpt lat="45.93725" lon="4.72374">
        <ele>173</ele>
        <time>2018-04-18T10:14:14Z</time>
      </trkpt>
      <trkpt lat="45.9372" lon="4.7237">
        <ele>172.9</ele>
        <time>2018-04-18T10:14:15Z</time>
      </trkpt>
      <trkpt lat="45.93716" lon="4.72366">
        <ele>172.9</ele>
        <time>2018-04-18T10:14:16Z</time>
      </trkpt>
      <trkpt lat="45.93711" lon="4.72361">
        <ele>173</ele>
        <time>2018-04-18T10:14:17Z</time>
      </trkpt>
      <trkpt lat="45.93706" lon="4.72357">
        <ele>173.2</ele>
        <time>2018-04-18T10:14:18Z</time>
      </trkpt>
      <trkpt lat="45.93701" lon="4.72352">
        <ele>173.5</ele>
        <time>2018-04-18T10:14:19Z</time>
      </trkpt>
      <trkpt lat="45.93697" lon="4.72347">
        <ele>173.9</ele>
        <time>2018-04-18T10:14:20Z</time>
      </trkpt>
      <trkpt lat="45.93696" lon="4.72345">
        <ele>174.1</ele>
        <time>2018-04-18T10:14:21Z</time>
      </trkpt>
      <trkpt lat="45.93686" lon="4.72335">
        <ele>174.3</ele>
        <time>2018-04-18T10:14:23Z</time>
      </trkpt>
      <trkpt lat="45.9368" lon="4.72327">
        <ele>173.5</ele>
        <time>2018-04-18T10:14:25Z</time>
      </trkpt>
      <trkpt lat="45.93675" lon="4.72325">
        <ele>173.1</ele>
        <time>2018-04-18T10:14:26Z</time>
      </trkpt>
      <trkpt lat="45.93671" lon="4.7232">
        <ele>172.7</ele>
        <time>2018-04-18T10:14:27Z</time>
      </trkpt>
      <trkpt lat="45.93666" lon="4.72316">
        <ele>172.3</ele>
        <time>2018-04-18T10:14:28Z</time>
      </trkpt>
      <trkpt lat="45.93659" lon="4.72309">
        <ele>172</ele>
        <time>2018-04-18T10:14:30Z</time>
      </trkpt>
      <trkpt lat="45.93656" lon="4.72305">
        <ele>172</ele>
        <time>2018-04-18T10:14:31Z</time>
      </trkpt>
      <trkpt lat="45.93648" lon="4.72299">
        <ele>172</ele>
        <time>2018-04-18T10:14:33Z</time>
      </trkpt>
      <trkpt lat="45.93644" lon="4.72295">
        <ele>172</ele>
        <time>2018-04-18T10:14:34Z</time>
      </trkpt>
      <trkpt lat="45.93636" lon="4.72289">
        <ele>172</ele>
        <time>2018-04-18T10:14:36Z</time>
      </trkpt>
      <trkpt lat="45.93632" lon="4.72287">
        <ele>172</ele>
        <time>2018-04-18T10:14:37Z</time>
      </trkpt>
      <trkpt lat="45.93626" lon="4.72281">
        <ele>172.3</ele>
        <time>2018-04-18T10:14:39Z</time>
      </trkpt>
      <trkpt lat="45.93624" lon="4.7228">
        <ele>172.4</ele>
        <time>2018-04-18T10:14:40Z</time>
      </trkpt>
      <trkpt lat="45.93618" lon="4.7227">
        <ele>172.5</ele>
        <time>2018-04-18T10:14:41Z</time>
      </trkpt>
      <trkpt lat="45.93614" lon="4.72266">
        <ele>172.5</ele>
        <time>2018-04-18T10:14:42Z</time>
      </trkpt>
      <trkpt lat="45.93611" lon="4.72262">
        <ele>172.4</ele>
        <time>2018-04-18T10:14:43Z</time>
      </trkpt>
      <trkpt lat="45.93606" lon="4.72261">
        <ele>172.3</ele>
        <time>2018-04-18T10:14:44Z</time>
      </trkpt>
      <trkpt lat="45.93601" lon="4.72257">
        <ele>172.2</ele>
        <time>2018-04-18T10:14:45Z</time>
      </trkpt>
      <trkpt lat="45.93597" lon="4.72254">
        <ele>172.4</ele>
        <time>2018-04-18T10:14:46Z</time>
      </trkpt>
      <trkpt lat="45.93594" lon="4.72249">
        <ele>172.6</ele>
        <time>2018-04-18T10:14:47Z</time>
      </trkpt>
      <trkpt lat="45.93587" lon="4.72241">
        <ele>172.9</ele>
        <time>2018-04-18T10:14:49Z</time>
      </trkpt>
      <trkpt lat="45.93585" lon="4.7224">
        <ele>172.9</ele>
        <time>2018-04-18T10:14:50Z</time>
      </trkpt>
      <trkpt lat="45.93578" lon="4.72233">
        <ele>172.8</ele>
        <time>2018-04-18T10:14:52Z</time>
      </trkpt>
      <trkpt lat="45.93576" lon="4.72232">
        <ele>172.8</ele>
        <time>2018-04-18T10:14:53Z</time>
      </trkpt>
      <trkpt lat="45.9357" lon="4.72226">
        <ele>172.9</ele>
        <time>2018-04-18T10:14:55Z</time>
      </trkpt>
      <trkpt lat="45.93568" lon="4.72225">
        <ele>172.9</ele>
        <time>2018-04-18T10:14:56Z</time>
      </trkpt>
      <trkpt lat="45.93562" lon="4.72221">
        <ele>173</ele>
        <time>2018-04-18T10:14:59Z</time>
      </trkpt>
      <trkpt lat="45.93559" lon="4.7222">
        <ele>173</ele>
        <time>2018-04-18T10:15:00Z</time>
      </trkpt>
      <trkpt lat="45.93553" lon="4.72218">
        <ele>172.9</ele>
        <time>2018-04-18T10:15:02Z</time>
      </trkpt>
      <trkpt lat="45.93544" lon="4.7222">
        <ele>172.6</ele>
        <time>2018-04-18T10:15:03Z</time>
      </trkpt>
      <trkpt lat="45.93539" lon="4.72231">
        <ele>171.5</ele>
        <time>2018-04-18T10:15:05Z</time>
      </trkpt>
      <trkpt lat="45.93537" lon="4.72236">
        <ele>170.7</ele>
        <time>2018-04-18T10:15:06Z</time>
      </trkpt>
      <trkpt lat="45.93535" lon="4.72242">
        <ele>169.8</ele>
        <time>2018-04-18T10:15:07Z</time>
      </trkpt>
      <trkpt lat="45.93533" lon="4.72247">
        <ele>168.9</ele>
        <time>2018-04-18T10:15:08Z</time>
      </trkpt>
      <trkpt lat="45.9353" lon="4.72256">
        <ele>168.2</ele>
        <time>2018-04-18T10:15:09Z</time>
      </trkpt>
      <trkpt lat="45.93528" lon="4.72261">
        <ele>168</ele>
        <time>2018-04-18T10:15:10Z</time>
      </trkpt>
      <trkpt lat="45.93526" lon="4.72269">
        <ele>168</ele>
        <time>2018-04-18T10:15:11Z</time>
      </trkpt>
      <trkpt lat="45.93524" lon="4.72275">
        <ele>168</ele>
        <time>2018-04-18T10:15:12Z</time>
      </trkpt>
      <trkpt lat="45.93521" lon="4.7228">
        <ele>168.1</ele>
        <time>2018-04-18T10:15:13Z</time>
      </trkpt>
      <trkpt lat="45.93519" lon="4.72286">
        <ele>168.6</ele>
        <time>2018-04-18T10:15:14Z</time>
      </trkpt>
      <trkpt lat="45.93516" lon="4.72292">
        <ele>169.2</ele>
        <time>2018-04-18T10:15:15Z</time>
      </trkpt>
      <trkpt lat="45.93513" lon="4.72298">
        <ele>169.9</ele>
        <time>2018-04-18T10:15:16Z</time>
      </trkpt>
      <trkpt lat="45.93509" lon="4.72302">
        <ele>170.6</ele>
        <time>2018-04-18T10:15:17Z</time>
      </trkpt>
      <trkpt lat="45.93504" lon="4.72308">
        <ele>171.6</ele>
        <time>2018-04-18T10:15:18Z</time>
      </trkpt>
      <trkpt lat="45.935" lon="4.72314">
        <ele>172.3</ele>
        <time>2018-04-18T10:15:19Z</time>
      </trkpt>
      <trkpt lat="45.93495" lon="4.7232">
        <ele>172.4</ele>
        <time>2018-04-18T10:15:20Z</time>
      </trkpt>
      <trkpt lat="45.93491" lon="4.72325">
        <ele>172.5</ele>
        <time>2018-04-18T10:15:21Z</time>
      </trkpt>
      <trkpt lat="45.93488" lon="4.72331">
        <ele>172.5</ele>
        <time>2018-04-18T10:15:22Z</time>
      </trkpt>
      <trkpt lat="45.93483" lon="4.72337">
        <ele>172.3</ele>
        <time>2018-04-18T10:15:23Z</time>
      </trkpt>
      <trkpt lat="45.93478" lon="4.72343">
        <ele>172.1</ele>
        <time>2018-04-18T10:15:24Z</time>
      </trkpt>
      <trkpt lat="45.93476" lon="4.72349">
        <ele>172.1</ele>
        <time>2018-04-18T10:15:25Z</time>
      </trkpt>
      <trkpt lat="45.93471" lon="4.72354">
        <ele>172</ele>
        <time>2018-04-18T10:15:26Z</time>
      </trkpt>
      <trkpt lat="45.93468" lon="4.72359">
        <ele>172</ele>
        <time>2018-04-18T10:15:27Z</time>
      </trkpt>
      <trkpt lat="45.93463" lon="4.72364">
        <ele>172</ele>
        <time>2018-04-18T10:15:28Z</time>
      </trkpt>
      <trkpt lat="45.93456" lon="4.72371">
        <ele>172</ele>
        <time>2018-04-18T10:15:30Z</time>
      </trkpt>
      <trkpt lat="45.93452" lon="4.72378">
        <ele>172</ele>
        <time>2018-04-18T10:15:31Z</time>
      </trkpt>
      <trkpt lat="45.93447" lon="4.72382">
        <ele>172</ele>
        <time>2018-04-18T10:15:32Z</time>
      </trkpt>
      <trkpt lat="45.93443" lon="4.72386">
        <ele>172</ele>
        <time>2018-04-18T10:15:33Z</time>
      </trkpt>
      <trkpt lat="45.93438" lon="4.72389">
        <ele>172</ele>
        <time>2018-04-18T10:15:34Z</time>
      </trkpt>
      <trkpt lat="45.93433" lon="4.72391">
        <ele>172</ele>
        <time>2018-04-18T10:15:35Z</time>
      </trkpt>
      <trkpt lat="45.93426" lon="4.72393">
        <ele>172</ele>
        <time>2018-04-18T10:15:36Z</time>
      </trkpt>
      <trkpt lat="45.93421" lon="4.72395">
        <ele>172</ele>
        <time>2018-04-18T10:15:37Z</time>
      </trkpt>
      <trkpt lat="45.93416" lon="4.72398">
        <ele>172</ele>
        <time>2018-04-18T10:15:38Z</time>
      </trkpt>
      <trkpt lat="45.93411" lon="4.72399">
        <ele>172.1</ele>
        <time>2018-04-18T10:15:39Z</time>
      </trkpt>
      <trkpt lat="45.93406" lon="4.72399">
        <ele>172.3</ele>
        <time>2018-04-18T10:15:40Z</time>
      </trkpt>
      <trkpt lat="45.93401" lon="4.72397">
        <ele>172.4</ele>
        <time>2018-04-18T10:15:41Z</time>
      </trkpt>
      <trkpt lat="45.93396" lon="4.72398">
        <ele>172.5</ele>
        <time>2018-04-18T10:15:42Z</time>
      </trkpt>
      <trkpt lat="45.93391" lon="4.72399">
        <ele>172.6</ele>
        <time>2018-04-18T10:15:43Z</time>
      </trkpt>
      <trkpt lat="45.93387" lon="4.72401">
        <ele>172.6</ele>
        <time>2018-04-18T10:15:44Z</time>
      </trkpt>
      <trkpt lat="45.93383" lon="4.72406">
        <ele>172.5</ele>
        <time>2018-04-18T10:15:45Z</time>
      </trkpt>
      <trkpt lat="45.93382" lon="4.72412">
        <ele>172.4</ele>
        <time>2018-04-18T10:15:46Z</time>
      </trkpt>
      <trkpt lat="45.93385" lon="4.72421">
        <ele>172.1</ele>
        <time>2018-04-18T10:15:47Z</time>
      </trkpt>
      <trkpt lat="45.93389" lon="4.72429">
        <ele>172</ele>
        <time>2018-04-18T10:15:48Z</time>
      </trkpt>
      <trkpt lat="45.93389" lon="4.72437">
        <ele>172</ele>
        <time>2018-04-18T10:15:49Z</time>
      </trkpt>
      <trkpt lat="45.93391" lon="4.72445">
        <ele>172</ele>
        <time>2018-04-18T10:15:50Z</time>
      </trkpt>
      <trkpt lat="45.93392" lon="4.72452">
        <ele>172</ele>
        <time>2018-04-18T10:15:51Z</time>
      </trkpt>
      <trkpt lat="45.93389" lon="4.7246">
        <ele>172</ele>
        <time>2018-04-18T10:15:52Z</time>
      </trkpt>
      <trkpt lat="45.93388" lon="4.72466">
        <ele>172</ele>
        <time>2018-04-18T10:15:53Z</time>
      </trkpt>
      <trkpt lat="45.93385" lon="4.72471">
        <ele>172</ele>
        <time>2018-04-18T10:15:54Z</time>
      </trkpt>
      <trkpt lat="45.9338" lon="4.72476">
        <ele>171.9</ele>
        <time>2018-04-18T10:15:55Z</time>
      </trkpt>
      <trkpt lat="45.93376" lon="4.72481">
        <ele>171.8</ele>
        <time>2018-04-18T10:15:56Z</time>
      </trkpt>
      <trkpt lat="45.93371" lon="4.72487">
        <ele>171.8</ele>
        <time>2018-04-18T10:15:57Z</time>
      </trkpt>
      <trkpt lat="45.93367" lon="4.72492">
        <ele>171.9</ele>
        <time>2018-04-18T10:15:58Z</time>
      </trkpt>
      <trkpt lat="45.93362" lon="4.72501">
        <ele>172</ele>
        <time>2018-04-18T10:15:59Z</time>
      </trkpt>
      <trkpt lat="45.93357" lon="4.72506">
        <ele>171.8</ele>
        <time>2018-04-18T10:16:00Z</time>
      </trkpt>
      <trkpt lat="45.93352" lon="4.72509">
        <ele>171.8</ele>
        <time>2018-04-18T10:16:01Z</time>
      </trkpt>
      <trkpt lat="45.93347" lon="4.72513">
        <ele>171.8</ele>
        <time>2018-04-18T10:16:02Z</time>
      </trkpt>
      <trkpt lat="45.93343" lon="4.72518">
        <ele>171.8</ele>
        <time>2018-04-18T10:16:03Z</time>
      </trkpt>
      <trkpt lat="45.9334" lon="4.72522">
        <ele>171.8</ele>
        <time>2018-04-18T10:16:04Z</time>
      </trkpt>
      <trkpt lat="45.93336" lon="4.72527">
        <ele>171.9</ele>
        <time>2018-04-18T10:16:05Z</time>
      </trkpt>
      <trkpt lat="45.93331" lon="4.72531">
        <ele>171.8</ele>
        <time>2018-04-18T10:16:06Z</time>
      </trkpt>
      <trkpt lat="45.93327" lon="4.72535">
        <ele>171.6</ele>
        <time>2018-04-18T10:16:07Z</time>
      </trkpt>
      <trkpt lat="45.93322" lon="4.72539">
        <ele>171.5</ele>
        <time>2018-04-18T10:16:08Z</time>
      </trkpt>
      <trkpt lat="45.93318" lon="4.72543">
        <ele>171.5</ele>
        <time>2018-04-18T10:16:09Z</time>
      </trkpt>
      <trkpt lat="45.93315" lon="4.72552">
        <ele>171.6</ele>
        <time>2018-04-18T10:16:10Z</time>
      </trkpt>
      <trkpt lat="45.9331" lon="4.72556">
        <ele>171.8</ele>
        <time>2018-04-18T10:16:11Z</time>
      </trkpt>
      <trkpt lat="45.93306" lon="4.7256">
        <ele>171.8</ele>
        <time>2018-04-18T10:16:12Z</time>
      </trkpt>
      <trkpt lat="45.93302" lon="4.72565">
        <ele>171.7</ele>
        <time>2018-04-18T10:16:13Z</time>
      </trkpt>
      <trkpt lat="45.933" lon="4.72572">
        <ele>171.5</ele>
        <time>2018-04-18T10:16:14Z</time>
      </trkpt>
      <trkpt lat="45.93296" lon="4.72576">
        <ele>171.5</ele>
        <time>2018-04-18T10:16:15Z</time>
      </trkpt>
      <trkpt lat="45.93294" lon="4.72584">
        <ele>171.4</ele>
        <time>2018-04-18T10:16:16Z</time>
      </trkpt>
      <trkpt lat="45.93291" lon="4.72589">
        <ele>171.4</ele>
        <time>2018-04-18T10:16:17Z</time>
      </trkpt>
      <trkpt lat="45.93288" lon="4.72592">
        <ele>171.4</ele>
        <time>2018-04-18T10:16:18Z</time>
      </trkpt>
      <trkpt lat="45.93284" lon="4.72597">
        <ele>171.4</ele>
        <time>2018-04-18T10:16:19Z</time>
      </trkpt>
      <trkpt lat="45.93279" lon="4.72601">
        <ele>171.3</ele>
        <time>2018-04-18T10:16:20Z</time>
      </trkpt>
      <trkpt lat="45.93275" lon="4.72605">
        <ele>171.3</ele>
        <time>2018-04-18T10:16:21Z</time>
      </trkpt>
      <trkpt lat="45.93271" lon="4.7261">
        <ele>171.2</ele>
        <time>2018-04-18T10:16:22Z</time>
      </trkpt>
      <trkpt lat="45.93267" lon="4.72615">
        <ele>171.4</ele>
        <time>2018-04-18T10:16:23Z</time>
      </trkpt>
      <trkpt lat="45.93263" lon="4.72619">
        <ele>171.5</ele>
        <time>2018-04-18T10:16:24Z</time>
      </trkpt>
      <trkpt lat="45.93258" lon="4.72623">
        <ele>171.7</ele>
        <time>2018-04-18T10:16:25Z</time>
      </trkpt>
      <trkpt lat="45.93253" lon="4.72627">
        <ele>171.9</ele>
        <time>2018-04-18T10:16:26Z</time>
      </trkpt>
      <trkpt lat="45.93248" lon="4.72631">
        <ele>172</ele>
        <time>2018-04-18T10:16:27Z</time>
      </trkpt>
      <trkpt lat="45.93244" lon="4.72636">
        <ele>172</ele>
        <time>2018-04-18T10:16:28Z</time>
      </trkpt>
      <trkpt lat="45.93239" lon="4.7264">
        <ele>172</ele>
        <time>2018-04-18T10:16:29Z</time>
      </trkpt>
      <trkpt lat="45.93235" lon="4.72645">
        <ele>171.8</ele>
        <time>2018-04-18T10:16:30Z</time>
      </trkpt>
      <trkpt lat="45.9323" lon="4.7265">
        <ele>171.6</ele>
        <time>2018-04-18T10:16:31Z</time>
      </trkpt>
      <trkpt lat="45.93225" lon="4.72656">
        <ele>171.4</ele>
        <time>2018-04-18T10:16:32Z</time>
      </trkpt>
      <trkpt lat="45.9322" lon="4.72661">
        <ele>171.3</ele>
        <time>2018-04-18T10:16:33Z</time>
      </trkpt>
      <trkpt lat="45.93212" lon="4.72667">
        <ele>171.4</ele>
        <time>2018-04-18T10:16:35Z</time>
      </trkpt>
      <trkpt lat="45.9321" lon="4.72672">
        <ele>171.5</ele>
        <time>2018-04-18T10:16:36Z</time>
      </trkpt>
      <trkpt lat="45.93206" lon="4.72676">
        <ele>171.6</ele>
        <time>2018-04-18T10:16:37Z</time>
      </trkpt>
      <trkpt lat="45.93202" lon="4.72681">
        <ele>171.7</ele>
        <time>2018-04-18T10:16:38Z</time>
      </trkpt>
      <trkpt lat="45.93198" lon="4.72686">
        <ele>171.9</ele>
        <time>2018-04-18T10:16:39Z</time>
      </trkpt>
      <trkpt lat="45.93194" lon="4.7269">
        <ele>172</ele>
        <time>2018-04-18T10:16:40Z</time>
      </trkpt>
      <trkpt lat="45.9319" lon="4.72695">
        <ele>171.8</ele>
        <time>2018-04-18T10:16:41Z</time>
      </trkpt>
      <trkpt lat="45.93185" lon="4.727">
        <ele>171.6</ele>
        <time>2018-04-18T10:16:42Z</time>
      </trkpt>
      <trkpt lat="45.93181" lon="4.72704">
        <ele>171.5</ele>
        <time>2018-04-18T10:16:43Z</time>
      </trkpt>
      <trkpt lat="45.93178" lon="4.7271">
        <ele>171.5</ele>
        <time>2018-04-18T10:16:44Z</time>
      </trkpt>
      <trkpt lat="45.93174" lon="4.72715">
        <ele>171.6</ele>
        <time>2018-04-18T10:16:45Z</time>
      </trkpt>
      <trkpt lat="45.93169" lon="4.7272">
        <ele>171.8</ele>
        <time>2018-04-18T10:16:46Z</time>
      </trkpt>
      <trkpt lat="45.93165" lon="4.72725">
        <ele>171.9</ele>
        <time>2018-04-18T10:16:47Z</time>
      </trkpt>
      <trkpt lat="45.9316" lon="4.72729">
        <ele>171.8</ele>
        <time>2018-04-18T10:16:48Z</time>
      </trkpt>
      <trkpt lat="45.93155" lon="4.72734">
        <ele>171.8</ele>
        <time>2018-04-18T10:16:49Z</time>
      </trkpt>
      <trkpt lat="45.93152" lon="4.72739">
        <ele>171.8</ele>
        <time>2018-04-18T10:16:50Z</time>
      </trkpt>
      <trkpt lat="45.93147" lon="4.72745">
        <ele>171.9</ele>
        <time>2018-04-18T10:16:51Z</time>
      </trkpt>
      <trkpt lat="45.93142" lon="4.7275">
        <ele>172</ele>
        <time>2018-04-18T10:16:52Z</time>
      </trkpt>
      <trkpt lat="45.93138" lon="4.72755">
        <ele>172</ele>
        <time>2018-04-18T10:16:53Z</time>
      </trkpt>
      <trkpt lat="45.93133" lon="4.7276">
        <ele>171.8</ele>
        <time>2018-04-18T10:16:54Z</time>
      </trkpt>
      <trkpt lat="45.93128" lon="4.72765">
        <ele>171.6</ele>
        <time>2018-04-18T10:16:55Z</time>
      </trkpt>
      <trkpt lat="45.93123" lon="4.7277">
        <ele>171.4</ele>
        <time>2018-04-18T10:16:56Z</time>
      </trkpt>
      <trkpt lat="45.93118" lon="4.72776">
        <ele>171.2</ele>
        <time>2018-04-18T10:16:57Z</time>
      </trkpt>
      <trkpt lat="45.93113" lon="4.72781">
        <ele>171.2</ele>
        <time>2018-04-18T10:16:58Z</time>
      </trkpt>
      <trkpt lat="45.9311" lon="4.72786">
        <ele>171.3</ele>
        <time>2018-04-18T10:16:59Z</time>
      </trkpt>
      <trkpt lat="45.93106" lon="4.72793">
        <ele>171.6</ele>
        <time>2018-04-18T10:17:00Z</time>
      </trkpt>
      <trkpt lat="45.93102" lon="4.72801">
        <ele>171.9</ele>
        <time>2018-04-18T10:17:01Z</time>
      </trkpt>
      <trkpt lat="45.93097" lon="4.72806">
        <ele>172</ele>
        <time>2018-04-18T10:17:02Z</time>
      </trkpt>
      <trkpt lat="45.93093" lon="4.7281">
        <ele>172.8</ele>
        <time>2018-04-18T10:17:03Z</time>
      </trkpt>
      <trkpt lat="45.93088" lon="4.72815">
        <ele>173.7</ele>
        <time>2018-04-18T10:17:04Z</time>
      </trkpt>
      <trkpt lat="45.93085" lon="4.72821">
        <ele>174.7</ele>
        <time>2018-04-18T10:17:05Z</time>
      </trkpt>
      <trkpt lat="45.93081" lon="4.72826">
        <ele>175.7</ele>
        <time>2018-04-18T10:17:06Z</time>
      </trkpt>
      <trkpt lat="45.93058" lon="4.72847">
        <ele>177</ele>
        <time>2018-04-18T10:17:12Z</time>
      </trkpt>
      <trkpt lat="45.93051" lon="4.72846">
        <ele>177</ele>
        <time>2018-04-18T10:17:13Z</time>
      </trkpt>
      <trkpt lat="45.93047" lon="4.72855">
        <ele>176.2</ele>
        <time>2018-04-18T10:17:14Z</time>
      </trkpt>
      <trkpt lat="45.93043" lon="4.72863">
        <ele>175.3</ele>
        <time>2018-04-18T10:17:15Z</time>
      </trkpt>
      <trkpt lat="45.93038" lon="4.72869">
        <ele>174.3</ele>
        <time>2018-04-18T10:17:16Z</time>
      </trkpt>
      <trkpt lat="45.93033" lon="4.72876">
        <ele>173.4</ele>
        <time>2018-04-18T10:17:17Z</time>
      </trkpt>
      <trkpt lat="45.9303" lon="4.72881">
        <ele>172.8</ele>
        <time>2018-04-18T10:17:18Z</time>
      </trkpt>
      <trkpt lat="45.93023" lon="4.72889">
        <ele>171.9</ele>
        <time>2018-04-18T10:17:20Z</time>
      </trkpt>
      <trkpt lat="45.93018" lon="4.72893">
        <ele>171.7</ele>
        <time>2018-04-18T10:17:21Z</time>
      </trkpt>
      <trkpt lat="45.93014" lon="4.72898">
        <ele>171.7</ele>
        <time>2018-04-18T10:17:22Z</time>
      </trkpt>
      <trkpt lat="45.93011" lon="4.72902">
        <ele>171.7</ele>
        <time>2018-04-18T10:17:23Z</time>
      </trkpt>
      <trkpt lat="45.93006" lon="4.72908">
        <ele>171.8</ele>
        <time>2018-04-18T10:17:24Z</time>
      </trkpt>
      <trkpt lat="45.93003" lon="4.72913">
        <ele>171.9</ele>
        <time>2018-04-18T10:17:25Z</time>
      </trkpt>
      <trkpt lat="45.92999" lon="4.7292">
        <ele>171.8</ele>
        <time>2018-04-18T10:17:27Z</time>
      </trkpt>
      <trkpt lat="45.92995" lon="4.72923">
        <ele>171.7</ele>
        <time>2018-04-18T10:17:28Z</time>
      </trkpt>
      <trkpt lat="45.92991" lon="4.72929">
        <ele>171.5</ele>
        <time>2018-04-18T10:17:29Z</time>
      </trkpt>
      <trkpt lat="45.92987" lon="4.72933">
        <ele>171.5</ele>
        <time>2018-04-18T10:17:30Z</time>
      </trkpt>
      <trkpt lat="45.92983" lon="4.72939">
        <ele>171.6</ele>
        <time>2018-04-18T10:17:31Z</time>
      </trkpt>
      <trkpt lat="45.92978" lon="4.72944">
        <ele>171.8</ele>
        <time>2018-04-18T10:17:32Z</time>
      </trkpt>
      <trkpt lat="45.92975" lon="4.7295">
        <ele>171.9</ele>
        <time>2018-04-18T10:17:33Z</time>
      </trkpt>
      <trkpt lat="45.9297" lon="4.72955">
        <ele>172.1</ele>
        <time>2018-04-18T10:17:34Z</time>
      </trkpt>
      <trkpt lat="45.92966" lon="4.7296">
        <ele>172.1</ele>
        <time>2018-04-18T10:17:35Z</time>
      </trkpt>
      <trkpt lat="45.92962" lon="4.72965">
        <ele>172.1</ele>
        <time>2018-04-18T10:17:36Z</time>
      </trkpt>
      <trkpt lat="45.92959" lon="4.72969">
        <ele>172.1</ele>
        <time>2018-04-18T10:17:37Z</time>
      </trkpt>
      <trkpt lat="45.92955" lon="4.72974">
        <ele>172</ele>
        <time>2018-04-18T10:17:38Z</time>
      </trkpt>
      <trkpt lat="45.92948" lon="4.72982">
        <ele>172</ele>
        <time>2018-04-18T10:17:40Z</time>
      </trkpt>
      <trkpt lat="45.92945" lon="4.72988">
        <ele>172</ele>
        <time>2018-04-18T10:17:41Z</time>
      </trkpt>
      <trkpt lat="45.92942" lon="4.72991">
        <ele>171.9</ele>
        <time>2018-04-18T10:17:42Z</time>
      </trkpt>
      <trkpt lat="45.92938" lon="4.72997">
        <ele>171.8</ele>
        <time>2018-04-18T10:17:43Z</time>
      </trkpt>
      <trkpt lat="45.92933" lon="4.73">
        <ele>171.6</ele>
        <time>2018-04-18T10:17:44Z</time>
      </trkpt>
      <trkpt lat="45.92929" lon="4.73004">
        <ele>171.5</ele>
        <time>2018-04-18T10:17:45Z</time>
      </trkpt>
      <trkpt lat="45.92925" lon="4.73009">
        <ele>171.5</ele>
        <time>2018-04-18T10:17:46Z</time>
      </trkpt>
      <trkpt lat="45.92922" lon="4.73013">
        <ele>171.5</ele>
        <time>2018-04-18T10:17:47Z</time>
      </trkpt>
      <trkpt lat="45.92918" lon="4.73016">
        <ele>171.6</ele>
        <time>2018-04-18T10:17:48Z</time>
      </trkpt>
      <trkpt lat="45.92914" lon="4.73021">
        <ele>171.8</ele>
        <time>2018-04-18T10:17:49Z</time>
      </trkpt>
      <trkpt lat="45.92911" lon="4.73026">
        <ele>171.9</ele>
        <time>2018-04-18T10:17:50Z</time>
      </trkpt>
      <trkpt lat="45.92906" lon="4.7303">
        <ele>172</ele>
        <time>2018-04-18T10:17:51Z</time>
      </trkpt>
      <trkpt lat="45.92902" lon="4.73034">
        <ele>172</ele>
        <time>2018-04-18T10:17:52Z</time>
      </trkpt>
      <trkpt lat="45.92899" lon="4.73039">
        <ele>172</ele>
        <time>2018-04-18T10:17:53Z</time>
      </trkpt>
      <trkpt lat="45.92896" lon="4.73044">
        <ele>172</ele>
        <time>2018-04-18T10:17:54Z</time>
      </trkpt>
      <trkpt lat="45.92892" lon="4.73049">
        <ele>172</ele>
        <time>2018-04-18T10:17:55Z</time>
      </trkpt>
      <trkpt lat="45.92888" lon="4.73055">
        <ele>172</ele>
        <time>2018-04-18T10:17:56Z</time>
      </trkpt>
      <trkpt lat="45.92884" lon="4.73059">
        <ele>171.9</ele>
        <time>2018-04-18T10:17:57Z</time>
      </trkpt>
      <trkpt lat="45.92881" lon="4.73064">
        <ele>171.8</ele>
        <time>2018-04-18T10:17:58Z</time>
      </trkpt>
      <trkpt lat="45.92879" lon="4.7307">
        <ele>171.8</ele>
        <time>2018-04-18T10:17:59Z</time>
      </trkpt>
      <trkpt lat="45.92875" lon="4.73074">
        <ele>171.8</ele>
        <time>2018-04-18T10:18:00Z</time>
      </trkpt>
      <trkpt lat="45.92871" lon="4.73079">
        <ele>171.9</ele>
        <time>2018-04-18T10:18:01Z</time>
      </trkpt>
      <trkpt lat="45.92867" lon="4.73083">
        <ele>172</ele>
        <time>2018-04-18T10:18:02Z</time>
      </trkpt>
      <trkpt lat="45.92864" lon="4.73088">
        <ele>172</ele>
        <time>2018-04-18T10:18:03Z</time>
      </trkpt>
      <trkpt lat="45.92861" lon="4.731">
        <ele>172</ele>
        <time>2018-04-18T10:18:05Z</time>
      </trkpt>
      <trkpt lat="45.92857" lon="4.73102">
        <ele>172</ele>
        <time>2018-04-18T10:18:06Z</time>
      </trkpt>
      <trkpt lat="45.92851" lon="4.73098">
        <ele>172</ele>
        <time>2018-04-18T10:18:08Z</time>
      </trkpt>
      <trkpt lat="45.92849" lon="4.73094">
        <ele>172</ele>
        <time>2018-04-18T10:18:09Z</time>
      </trkpt>
      <trkpt lat="45.92849" lon="4.73087">
        <ele>172</ele>
        <time>2018-04-18T10:18:10Z</time>
      </trkpt>
      <trkpt lat="45.92848" lon="4.7308">
        <ele>171.9</ele>
        <time>2018-04-18T10:18:11Z</time>
      </trkpt>
      <trkpt lat="45.92846" lon="4.73068">
        <ele>171.5</ele>
        <time>2018-04-18T10:18:13Z</time>
      </trkpt>
      <trkpt lat="45.92844" lon="4.73062">
        <ele>171.2</ele>
        <time>2018-04-18T10:18:14Z</time>
      </trkpt>
      <trkpt lat="45.92843" lon="4.73052">
        <ele>171</ele>
        <time>2018-04-18T10:18:16Z</time>
      </trkpt>
      <trkpt lat="45.92842" lon="4.73045">
        <ele>171.1</ele>
        <time>2018-04-18T10:18:17Z</time>
      </trkpt>
      <trkpt lat="45.92841" lon="4.73038">
        <ele>171.2</ele>
        <time>2018-04-18T10:18:18Z</time>
      </trkpt>
      <trkpt lat="45.92839" lon="4.73031">
        <ele>171.2</ele>
        <time>2018-04-18T10:18:19Z</time>
      </trkpt>
      <trkpt lat="45.92837" lon="4.73023">
        <ele>171.1</ele>
        <time>2018-04-18T10:18:20Z</time>
      </trkpt>
      <trkpt lat="45.92835" lon="4.73015">
        <ele>171</ele>
        <time>2018-04-18T10:18:21Z</time>
      </trkpt>
      <trkpt lat="45.92834" lon="4.73006">
        <ele>171</ele>
        <time>2018-04-18T10:18:22Z</time>
      </trkpt>
      <trkpt lat="45.92833" lon="4.72998">
        <ele>171</ele>
        <time>2018-04-18T10:18:23Z</time>
      </trkpt>
      <trkpt lat="45.92833" lon="4.7299">
        <ele>171</ele>
        <time>2018-04-18T10:18:24Z</time>
      </trkpt>
      <trkpt lat="45.92832" lon="4.72982">
        <ele>171</ele>
        <time>2018-04-18T10:18:25Z</time>
      </trkpt>
      <trkpt lat="45.92832" lon="4.72974">
        <ele>171</ele>
        <time>2018-04-18T10:18:26Z</time>
      </trkpt>
      <trkpt lat="45.92831" lon="4.72967">
        <ele>171</ele>
        <time>2018-04-18T10:18:27Z</time>
      </trkpt>
      <trkpt lat="45.92832" lon="4.72955">
        <ele>171</ele>
        <time>2018-04-18T10:18:29Z</time>
      </trkpt>
      <trkpt lat="45.92831" lon="4.72949">
        <ele>171</ele>
        <time>2018-04-18T10:18:30Z</time>
      </trkpt>
      <trkpt lat="45.9283" lon="4.72942">
        <ele>171</ele>
        <time>2018-04-18T10:18:31Z</time>
      </trkpt>
      <trkpt lat="45.9283" lon="4.72935">
        <ele>171</ele>
        <time>2018-04-18T10:18:32Z</time>
      </trkpt>
      <trkpt lat="45.92831" lon="4.72929">
        <ele>171.1</ele>
        <time>2018-04-18T10:18:33Z</time>
      </trkpt>
      <trkpt lat="45.92831" lon="4.72922">
        <ele>171.1</ele>
        <time>2018-04-18T10:18:34Z</time>
      </trkpt>
      <trkpt lat="45.92831" lon="4.72916">
        <ele>171.1</ele>
        <time>2018-04-18T10:18:35Z</time>
      </trkpt>
      <trkpt lat="45.92832" lon="4.72908">
        <ele>171.1</ele>
        <time>2018-04-18T10:18:36Z</time>
      </trkpt>
      <trkpt lat="45.9283" lon="4.729">
        <ele>171.1</ele>
        <time>2018-04-18T10:18:37Z</time>
      </trkpt>
      <trkpt lat="45.92826" lon="4.7289">
        <ele>171.3</ele>
        <time>2018-04-18T10:18:38Z</time>
      </trkpt>
      <trkpt lat="45.92824" lon="4.72881">
        <ele>171.2</ele>
        <time>2018-04-18T10:18:39Z</time>
      </trkpt>
      <trkpt lat="45.92823" lon="4.72874">
        <ele>171.2</ele>
        <time>2018-04-18T10:18:40Z</time>
      </trkpt>
      <trkpt lat="45.92822" lon="4.72863">
        <ele>171</ele>
        <time>2018-04-18T10:18:42Z</time>
      </trkpt>
      <trkpt lat="45.92822" lon="4.72857">
        <ele>171</ele>
        <time>2018-04-18T10:18:43Z</time>
      </trkpt>
      <trkpt lat="45.92821" lon="4.72844">
        <ele>171</ele>
        <time>2018-04-18T10:18:45Z</time>
      </trkpt>
      <trkpt lat="45.92817" lon="4.72836">
        <ele>171</ele>
        <time>2018-04-18T10:18:46Z</time>
      </trkpt>
      <trkpt lat="45.92812" lon="4.72826">
        <ele>171.2</ele>
        <time>2018-04-18T10:18:47Z</time>
      </trkpt>
      <trkpt lat="45.9281" lon="4.72818">
        <ele>171.4</ele>
        <time>2018-04-18T10:18:48Z</time>
      </trkpt>
      <trkpt lat="45.92811" lon="4.72807">
        <ele>171.8</ele>
        <time>2018-04-18T10:18:50Z</time>
      </trkpt>
      <trkpt lat="45.92808" lon="4.72801">
        <ele>172.4</ele>
        <time>2018-04-18T10:18:51Z</time>
      </trkpt>
      <trkpt lat="45.92806" lon="4.72793">
        <ele>173.4</ele>
        <time>2018-04-18T10:18:53Z</time>
      </trkpt>
      <trkpt lat="45.928" lon="4.72791">
        <ele>173.4</ele>
        <time>2018-04-18T10:18:54Z</time>
      </trkpt>
      <trkpt lat="45.92792" lon="4.72793">
        <ele>173.2</ele>
        <time>2018-04-18T10:18:56Z</time>
      </trkpt>
      <trkpt lat="45.92788" lon="4.72795">
        <ele>172.9</ele>
        <time>2018-04-18T10:18:57Z</time>
      </trkpt>
      <trkpt lat="45.92783" lon="4.72798">
        <ele>172.6</ele>
        <time>2018-04-18T10:18:58Z</time>
      </trkpt>
      <trkpt lat="45.92779" lon="4.72801">
        <ele>172.3</ele>
        <time>2018-04-18T10:18:59Z</time>
      </trkpt>
      <trkpt lat="45.92775" lon="4.72806">
        <ele>172</ele>
        <time>2018-04-18T10:19:00Z</time>
      </trkpt>
      <trkpt lat="45.92771" lon="4.72809">
        <ele>172</ele>
        <time>2018-04-18T10:19:01Z</time>
      </trkpt>
      <trkpt lat="45.92768" lon="4.72812">
        <ele>172</ele>
        <time>2018-04-18T10:19:02Z</time>
      </trkpt>
      <trkpt lat="45.92763" lon="4.72815">
        <ele>172</ele>
        <time>2018-04-18T10:19:03Z</time>
      </trkpt>
      <trkpt lat="45.92757" lon="4.72817">
        <ele>172</ele>
        <time>2018-04-18T10:19:04Z</time>
      </trkpt>
      <trkpt lat="45.92751" lon="4.72824">
        <ele>172</ele>
        <time>2018-04-18T10:19:05Z</time>
      </trkpt>
      <trkpt lat="45.92747" lon="4.72826">
        <ele>172</ele>
        <time>2018-04-18T10:19:06Z</time>
      </trkpt>
      <trkpt lat="45.92742" lon="4.72829">
        <ele>172</ele>
        <time>2018-04-18T10:19:07Z</time>
      </trkpt>
      <trkpt lat="45.92738" lon="4.72832">
        <ele>172</ele>
        <time>2018-04-18T10:19:08Z</time>
      </trkpt>
      <trkpt lat="45.92734" lon="4.72835">
        <ele>172</ele>
        <time>2018-04-18T10:19:09Z</time>
      </trkpt>
      <trkpt lat="45.92727" lon="4.72842">
        <ele>172</ele>
        <time>2018-04-18T10:19:11Z</time>
      </trkpt>
      <trkpt lat="45.92723" lon="4.72845">
        <ele>172</ele>
        <time>2018-04-18T10:19:12Z</time>
      </trkpt>
      <trkpt lat="45.92719" lon="4.72849">
        <ele>172</ele>
        <time>2018-04-18T10:19:13Z</time>
      </trkpt>
      <trkpt lat="45.92714" lon="4.72853">
        <ele>172</ele>
        <time>2018-04-18T10:19:14Z</time>
      </trkpt>
      <trkpt lat="45.92709" lon="4.72855">
        <ele>172</ele>
        <time>2018-04-18T10:19:15Z</time>
      </trkpt>
      <trkpt lat="45.92704" lon="4.72858">
        <ele>172</ele>
        <time>2018-04-18T10:19:16Z</time>
      </trkpt>
      <trkpt lat="45.92699" lon="4.7286">
        <ele>172</ele>
        <time>2018-04-18T10:19:17Z</time>
      </trkpt>
      <trkpt lat="45.92694" lon="4.72863">
        <ele>172</ele>
        <time>2018-04-18T10:19:18Z</time>
      </trkpt>
      <trkpt lat="45.9269" lon="4.72867">
        <ele>172</ele>
        <time>2018-04-18T10:19:19Z</time>
      </trkpt>
      <trkpt lat="45.92685" lon="4.72871">
        <ele>172</ele>
        <time>2018-04-18T10:19:20Z</time>
      </trkpt>
      <trkpt lat="45.92681" lon="4.72873">
        <ele>172</ele>
        <time>2018-04-18T10:19:21Z</time>
      </trkpt>
      <trkpt lat="45.92676" lon="4.72877">
        <ele>172</ele>
        <time>2018-04-18T10:19:22Z</time>
      </trkpt>
      <trkpt lat="45.92673" lon="4.7288">
        <ele>172</ele>
        <time>2018-04-18T10:19:23Z</time>
      </trkpt>
      <trkpt lat="45.92668" lon="4.72884">
        <ele>172</ele>
        <time>2018-04-18T10:19:24Z</time>
      </trkpt>
      <trkpt lat="45.92664" lon="4.72888">
        <ele>172</ele>
        <time>2018-04-18T10:19:25Z</time>
      </trkpt>
      <trkpt lat="45.9266" lon="4.72892">
        <ele>172</ele>
        <time>2018-04-18T10:19:26Z</time>
      </trkpt>
      <trkpt lat="45.92656" lon="4.72896">
        <ele>172</ele>
        <time>2018-04-18T10:19:27Z</time>
      </trkpt>
      <trkpt lat="45.92651" lon="4.72898">
        <ele>172</ele>
        <time>2018-04-18T10:19:28Z</time>
      </trkpt>
      <trkpt lat="45.92646" lon="4.72901">
        <ele>172</ele>
        <time>2018-04-18T10:19:29Z</time>
      </trkpt>
      <trkpt lat="45.92642" lon="4.72905">
        <ele>172</ele>
        <time>2018-04-18T10:19:30Z</time>
      </trkpt>
      <trkpt lat="45.92638" lon="4.72909">
        <ele>172</ele>
        <time>2018-04-18T10:19:31Z</time>
      </trkpt>
      <trkpt lat="45.92633" lon="4.72915">
        <ele>172</ele>
        <time>2018-04-18T10:19:32Z</time>
      </trkpt>
      <trkpt lat="45.92628" lon="4.72918">
        <ele>172</ele>
        <time>2018-04-18T10:19:33Z</time>
      </trkpt>
      <trkpt lat="45.92624" lon="4.72921">
        <ele>172</ele>
        <time>2018-04-18T10:19:34Z</time>
      </trkpt>
      <trkpt lat="45.9262" lon="4.72924">
        <ele>172</ele>
        <time>2018-04-18T10:19:35Z</time>
      </trkpt>
      <trkpt lat="45.92615" lon="4.72928">
        <ele>172</ele>
        <time>2018-04-18T10:19:36Z</time>
      </trkpt>
      <trkpt lat="45.92611" lon="4.72932">
        <ele>172</ele>
        <time>2018-04-18T10:19:37Z</time>
      </trkpt>
      <trkpt lat="45.92608" lon="4.72937">
        <ele>172</ele>
        <time>2018-04-18T10:19:38Z</time>
      </trkpt>
      <trkpt lat="45.92603" lon="4.72941">
        <ele>172</ele>
        <time>2018-04-18T10:19:39Z</time>
      </trkpt>
      <trkpt lat="45.92598" lon="4.72946">
        <ele>172</ele>
        <time>2018-04-18T10:19:40Z</time>
      </trkpt>
      <trkpt lat="45.92594" lon="4.72952">
        <ele>172</ele>
        <time>2018-04-18T10:19:41Z</time>
      </trkpt>
      <trkpt lat="45.92591" lon="4.72957">
        <ele>172</ele>
        <time>2018-04-18T10:19:42Z</time>
      </trkpt>
      <trkpt lat="45.92586" lon="4.72962">
        <ele>172</ele>
        <time>2018-04-18T10:19:43Z</time>
      </trkpt>
      <trkpt lat="45.92583" lon="4.72967">
        <ele>172</ele>
        <time>2018-04-18T10:19:44Z</time>
      </trkpt>
      <trkpt lat="45.92578" lon="4.72972">
        <ele>172</ele>
        <time>2018-04-18T10:19:45Z</time>
      </trkpt>
      <trkpt lat="45.92573" lon="4.72977">
        <ele>172</ele>
        <time>2018-04-18T10:19:46Z</time>
      </trkpt>
      <trkpt lat="45.92567" lon="4.72981">
        <ele>172</ele>
        <time>2018-04-18T10:19:47Z</time>
      </trkpt>
      <trkpt lat="45.92562" lon="4.72987">
        <ele>172</ele>
        <time>2018-04-18T10:19:48Z</time>
      </trkpt>
      <trkpt lat="45.92558" lon="4.72991">
        <ele>172</ele>
        <time>2018-04-18T10:19:49Z</time>
      </trkpt>
      <trkpt lat="45.92554" lon="4.72996">
        <ele>172</ele>
        <time>2018-04-18T10:19:50Z</time>
      </trkpt>
      <trkpt lat="45.92551" lon="4.73">
        <ele>172</ele>
        <time>2018-04-18T10:19:51Z</time>
      </trkpt>
      <trkpt lat="45.92547" lon="4.73004">
        <ele>172</ele>
        <time>2018-04-18T10:19:52Z</time>
      </trkpt>
      <trkpt lat="45.92543" lon="4.73008">
        <ele>172</ele>
        <time>2018-04-18T10:19:53Z</time>
      </trkpt>
      <trkpt lat="45.92538" lon="4.73013">
        <ele>172</ele>
        <time>2018-04-18T10:19:54Z</time>
      </trkpt>
      <trkpt lat="45.92534" lon="4.73018">
        <ele>172</ele>
        <time>2018-04-18T10:19:55Z</time>
      </trkpt>
      <trkpt lat="45.9253" lon="4.73022">
        <ele>172</ele>
        <time>2018-04-18T10:19:56Z</time>
      </trkpt>
      <trkpt lat="45.92525" lon="4.73026">
        <ele>172</ele>
        <time>2018-04-18T10:19:57Z</time>
      </trkpt>
      <trkpt lat="45.92521" lon="4.73029">
        <ele>172</ele>
        <time>2018-04-18T10:19:58Z</time>
      </trkpt>
      <trkpt lat="45.92515" lon="4.73032">
        <ele>172</ele>
        <time>2018-04-18T10:19:59Z</time>
      </trkpt>
      <trkpt lat="45.92511" lon="4.73035">
        <ele>172</ele>
        <time>2018-04-18T10:20:00Z</time>
      </trkpt>
      <trkpt lat="45.92507" lon="4.73038">
        <ele>172</ele>
        <time>2018-04-18T10:20:01Z</time>
      </trkpt>
      <trkpt lat="45.92502" lon="4.73043">
        <ele>172</ele>
        <time>2018-04-18T10:20:02Z</time>
      </trkpt>
      <trkpt lat="45.92498" lon="4.73049">
        <ele>172</ele>
        <time>2018-04-18T10:20:03Z</time>
      </trkpt>
      <trkpt lat="45.92493" lon="4.73052">
        <ele>172</ele>
        <time>2018-04-18T10:20:04Z</time>
      </trkpt>
      <trkpt lat="45.92488" lon="4.73056">
        <ele>172</ele>
        <time>2018-04-18T10:20:05Z</time>
      </trkpt>
      <trkpt lat="45.92482" lon="4.73061">
        <ele>172</ele>
        <time>2018-04-18T10:20:06Z</time>
      </trkpt>
      <trkpt lat="45.92478" lon="4.73065">
        <ele>172</ele>
        <time>2018-04-18T10:20:07Z</time>
      </trkpt>
      <trkpt lat="45.92473" lon="4.73069">
        <ele>172</ele>
        <time>2018-04-18T10:20:08Z</time>
      </trkpt>
      <trkpt lat="45.92468" lon="4.73075">
        <ele>172</ele>
        <time>2018-04-18T10:20:09Z</time>
      </trkpt>
      <trkpt lat="45.92463" lon="4.7308">
        <ele>172</ele>
        <time>2018-04-18T10:20:10Z</time>
      </trkpt>
      <trkpt lat="45.92458" lon="4.73084">
        <ele>172</ele>
        <time>2018-04-18T10:20:11Z</time>
      </trkpt>
      <trkpt lat="45.92453" lon="4.73088">
        <ele>172</ele>
        <time>2018-04-18T10:20:12Z</time>
      </trkpt>
      <trkpt lat="45.92449" lon="4.73091">
        <ele>172</ele>
        <time>2018-04-18T10:20:13Z</time>
      </trkpt>
      <trkpt lat="45.92444" lon="4.73094">
        <ele>172</ele>
        <time>2018-04-18T10:20:14Z</time>
      </trkpt>
      <trkpt lat="45.92438" lon="4.73103">
        <ele>172</ele>
        <time>2018-04-18T10:20:16Z</time>
      </trkpt>
      <trkpt lat="45.92434" lon="4.73106">
        <ele>172</ele>
        <time>2018-04-18T10:20:17Z</time>
      </trkpt>
      <trkpt lat="45.92429" lon="4.7311">
        <ele>172</ele>
        <time>2018-04-18T10:20:18Z</time>
      </trkpt>
      <trkpt lat="45.92425" lon="4.73112">
        <ele>172</ele>
        <time>2018-04-18T10:20:19Z</time>
      </trkpt>
      <trkpt lat="45.9242" lon="4.73115">
        <ele>172</ele>
        <time>2018-04-18T10:20:20Z</time>
      </trkpt>
      <trkpt lat="45.92415" lon="4.73122">
        <ele>172</ele>
        <time>2018-04-18T10:20:21Z</time>
      </trkpt>
      <trkpt lat="45.92412" lon="4.73127">
        <ele>172</ele>
        <time>2018-04-18T10:20:22Z</time>
      </trkpt>
      <trkpt lat="45.92409" lon="4.73132">
        <ele>172</ele>
        <time>2018-04-18T10:20:23Z</time>
      </trkpt>
      <trkpt lat="45.92408" lon="4.73144">
        <ele>172.1</ele>
        <time>2018-04-18T10:20:25Z</time>
      </trkpt>
      <trkpt lat="45.92409" lon="4.73153">
        <ele>172.2</ele>
        <time>2018-04-18T10:20:26Z</time>
      </trkpt>
      <trkpt lat="45.92409" lon="4.7316">
        <ele>172.2</ele>
        <time>2018-04-18T10:20:27Z</time>
      </trkpt>
      <trkpt lat="45.9241" lon="4.73168">
        <ele>172.2</ele>
        <time>2018-04-18T10:20:28Z</time>
      </trkpt>
      <trkpt lat="45.9241" lon="4.73174">
        <ele>172.2</ele>
        <time>2018-04-18T10:20:29Z</time>
      </trkpt>
      <trkpt lat="45.9241" lon="4.73181">
        <ele>172.1</ele>
        <time>2018-04-18T10:20:30Z</time>
      </trkpt>
      <trkpt lat="45.9241" lon="4.73188">
        <ele>172.1</ele>
        <time>2018-04-18T10:20:31Z</time>
      </trkpt>
      <trkpt lat="45.9241" lon="4.73195">
        <ele>172</ele>
        <time>2018-04-18T10:20:32Z</time>
      </trkpt>
      <trkpt lat="45.9241" lon="4.73202">
        <ele>172</ele>
        <time>2018-04-18T10:20:33Z</time>
      </trkpt>
      <trkpt lat="45.92411" lon="4.73208">
        <ele>172</ele>
        <time>2018-04-18T10:20:34Z</time>
      </trkpt>
      <trkpt lat="45.92411" lon="4.73215">
        <ele>172</ele>
        <time>2018-04-18T10:20:35Z</time>
      </trkpt>
      <trkpt lat="45.92413" lon="4.73222">
        <ele>172</ele>
        <time>2018-04-18T10:20:36Z</time>
      </trkpt>
      <trkpt lat="45.92412" lon="4.73234">
        <ele>172.1</ele>
        <time>2018-04-18T10:20:38Z</time>
      </trkpt>
      <trkpt lat="45.92413" lon="4.73241">
        <ele>172.1</ele>
        <time>2018-04-18T10:20:39Z</time>
      </trkpt>
      <trkpt lat="45.92413" lon="4.73247">
        <ele>172.1</ele>
        <time>2018-04-18T10:20:40Z</time>
      </trkpt>
      <trkpt lat="45.92413" lon="4.73254">
        <ele>172.2</ele>
        <time>2018-04-18T10:20:41Z</time>
      </trkpt>
      <trkpt lat="45.92413" lon="4.73266">
        <ele>172.6</ele>
        <time>2018-04-18T10:20:43Z</time>
      </trkpt>
      <trkpt lat="45.92413" lon="4.73272">
        <ele>172.8</ele>
        <time>2018-04-18T10:20:44Z</time>
      </trkpt>
      <trkpt lat="45.92414" lon="4.73278">
        <ele>173</ele>
        <time>2018-04-18T10:20:45Z</time>
      </trkpt>
      <trkpt lat="45.92414" lon="4.73285">
        <ele>173</ele>
        <time>2018-04-18T10:20:46Z</time>
      </trkpt>
      <trkpt lat="45.92413" lon="4.73296">
        <ele>173</ele>
        <time>2018-04-18T10:20:48Z</time>
      </trkpt>
      <trkpt lat="45.92413" lon="4.73302">
        <ele>173</ele>
        <time>2018-04-18T10:20:49Z</time>
      </trkpt>
      <trkpt lat="45.92414" lon="4.73309">
        <ele>173</ele>
        <time>2018-04-18T10:20:50Z</time>
      </trkpt>
      <trkpt lat="45.92414" lon="4.73317">
        <ele>173</ele>
        <time>2018-04-18T10:20:51Z</time>
      </trkpt>
      <trkpt lat="45.92414" lon="4.73323">
        <ele>173</ele>
        <time>2018-04-18T10:20:52Z</time>
      </trkpt>
      <trkpt lat="45.92414" lon="4.7333">
        <ele>173</ele>
        <time>2018-04-18T10:20:53Z</time>
      </trkpt>
      <trkpt lat="45.92415" lon="4.73336">
        <ele>172.9</ele>
        <time>2018-04-18T10:20:54Z</time>
      </trkpt>
      <trkpt lat="45.92415" lon="4.73343">
        <ele>172.7</ele>
        <time>2018-04-18T10:20:55Z</time>
      </trkpt>
      <trkpt lat="45.92417" lon="4.7335">
        <ele>172.4</ele>
        <time>2018-04-18T10:20:56Z</time>
      </trkpt>
      <trkpt lat="45.92419" lon="4.73357">
        <ele>172.2</ele>
        <time>2018-04-18T10:20:57Z</time>
      </trkpt>
      <trkpt lat="45.9242" lon="4.73363">
        <ele>172.2</ele>
        <time>2018-04-18T10:20:58Z</time>
      </trkpt>
      <trkpt lat="45.92421" lon="4.7337">
        <ele>172.4</ele>
        <time>2018-04-18T10:20:59Z</time>
      </trkpt>
      <trkpt lat="45.92424" lon="4.7338">
        <ele>172.8</ele>
        <time>2018-04-18T10:21:01Z</time>
      </trkpt>
      <trkpt lat="45.92426" lon="4.73387">
        <ele>172.9</ele>
        <time>2018-04-18T10:21:02Z</time>
      </trkpt>
      <trkpt lat="45.92427" lon="4.73393">
        <ele>172.9</ele>
        <time>2018-04-18T10:21:03Z</time>
      </trkpt>
      <trkpt lat="45.92431" lon="4.73399">
        <ele>172.8</ele>
        <time>2018-04-18T10:21:04Z</time>
      </trkpt>
      <trkpt lat="45.92437" lon="4.73407">
        <ele>172.8</ele>
        <time>2018-04-18T10:21:06Z</time>
      </trkpt>
      <trkpt lat="45.9244" lon="4.73411">
        <ele>172.9</ele>
        <time>2018-04-18T10:21:07Z</time>
      </trkpt>
      <trkpt lat="45.92447" lon="4.73417">
        <ele>173</ele>
        <time>2018-04-18T10:21:09Z</time>
      </trkpt>
      <trkpt lat="45.9245" lon="4.7342">
        <ele>173</ele>
        <time>2018-04-18T10:21:10Z</time>
      </trkpt>
      <trkpt lat="45.92454" lon="4.73424">
        <ele>173</ele>
        <time>2018-04-18T10:21:11Z</time>
      </trkpt>
      <trkpt lat="45.92457" lon="4.73429">
        <ele>173</ele>
        <time>2018-04-18T10:21:12Z</time>
      </trkpt>
      <trkpt lat="45.92462" lon="4.73438">
        <ele>173</ele>
        <time>2018-04-18T10:21:14Z</time>
      </trkpt>
      <trkpt lat="45.92465" lon="4.73444">
        <ele>173</ele>
        <time>2018-04-18T10:21:15Z</time>
      </trkpt>
      <trkpt lat="45.92467" lon="4.7345">
        <ele>173</ele>
        <time>2018-04-18T10:21:16Z</time>
      </trkpt>
      <trkpt lat="45.92468" lon="4.73457">
        <ele>173</ele>
        <time>2018-04-18T10:21:17Z</time>
      </trkpt>
      <trkpt lat="45.92468" lon="4.7347">
        <ele>173</ele>
        <time>2018-04-18T10:21:19Z</time>
      </trkpt>
      <trkpt lat="45.92469" lon="4.73478">
        <ele>173</ele>
        <time>2018-04-18T10:21:20Z</time>
      </trkpt>
      <trkpt lat="45.92469" lon="4.73485">
        <ele>173</ele>
        <time>2018-04-18T10:21:21Z</time>
      </trkpt>
      <trkpt lat="45.92469" lon="4.73493">
        <ele>173</ele>
        <time>2018-04-18T10:21:22Z</time>
      </trkpt>
      <trkpt lat="45.92468" lon="4.735">
        <ele>173</ele>
        <time>2018-04-18T10:21:23Z</time>
      </trkpt>
      <trkpt lat="45.92468" lon="4.73507">
        <ele>173</ele>
        <time>2018-04-18T10:21:24Z</time>
      </trkpt>
      <trkpt lat="45.92465" lon="4.73519">
        <ele>173</ele>
        <time>2018-04-18T10:21:26Z</time>
      </trkpt>
      <trkpt lat="45.92465" lon="4.73525">
        <ele>173</ele>
        <time>2018-04-18T10:21:27Z</time>
      </trkpt>
      <trkpt lat="45.92465" lon="4.73536">
        <ele>173.2</ele>
        <time>2018-04-18T10:21:29Z</time>
      </trkpt>
      <trkpt lat="45.92465" lon="4.73539">
        <ele>173.3</ele>
        <time>2018-04-18T10:21:30Z</time>
      </trkpt>
      <trkpt lat="45.92466" lon="4.73547">
        <ele>173.5</ele>
        <time>2018-04-18T10:21:31Z</time>
      </trkpt>
      <trkpt lat="45.92466" lon="4.73553">
        <ele>173.7</ele>
        <time>2018-04-18T10:21:32Z</time>
      </trkpt>
      <trkpt lat="45.92465" lon="4.73566">
        <ele>173.5</ele>
        <time>2018-04-18T10:21:34Z</time>
      </trkpt>
      <trkpt lat="45.92465" lon="4.73573">
        <ele>173.3</ele>
        <time>2018-04-18T10:21:35Z</time>
      </trkpt>
      <trkpt lat="45.92466" lon="4.7358">
        <ele>173.1</ele>
        <time>2018-04-18T10:21:36Z</time>
      </trkpt>
      <trkpt lat="45.92466" lon="4.73588">
        <ele>173</ele>
        <time>2018-04-18T10:21:37Z</time>
      </trkpt>
      <trkpt lat="45.92467" lon="4.73595">
        <ele>173</ele>
        <time>2018-04-18T10:21:38Z</time>
      </trkpt>
      <trkpt lat="45.92467" lon="4.73603">
        <ele>173</ele>
        <time>2018-04-18T10:21:39Z</time>
      </trkpt>
      <trkpt lat="45.92467" lon="4.7361">
        <ele>173</ele>
        <time>2018-04-18T10:21:40Z</time>
      </trkpt>
      <trkpt lat="45.92468" lon="4.73618">
        <ele>173</ele>
        <time>2018-04-18T10:21:41Z</time>
      </trkpt>
      <trkpt lat="45.92467" lon="4.73624">
        <ele>173</ele>
        <time>2018-04-18T10:21:42Z</time>
      </trkpt>
      <trkpt lat="45.92468" lon="4.73631">
        <ele>173</ele>
        <time>2018-04-18T10:21:43Z</time>
      </trkpt>
      <trkpt lat="45.92468" lon="4.73638">
        <ele>173</ele>
        <time>2018-04-18T10:21:44Z</time>
      </trkpt>
      <trkpt lat="45.92468" lon="4.73645">
        <ele>173</ele>
        <time>2018-04-18T10:21:45Z</time>
      </trkpt>
      <trkpt lat="45.92468" lon="4.73652">
        <ele>173</ele>
        <time>2018-04-18T10:21:46Z</time>
      </trkpt>
      <trkpt lat="45.92468" lon="4.73658">
        <ele>173</ele>
        <time>2018-04-18T10:21:47Z</time>
      </trkpt>
      <trkpt lat="45.92468" lon="4.73666">
        <ele>173</ele>
        <time>2018-04-18T10:21:48Z</time>
      </trkpt>
      <trkpt lat="45.92466" lon="4.73673">
        <ele>173</ele>
        <time>2018-04-18T10:21:49Z</time>
      </trkpt>
      <trkpt lat="45.92466" lon="4.73681">
        <ele>173</ele>
        <time>2018-04-18T10:21:50Z</time>
      </trkpt>
      <trkpt lat="45.92466" lon="4.73688">
        <ele>173</ele>
        <time>2018-04-18T10:21:51Z</time>
      </trkpt>
      <trkpt lat="45.92464" lon="4.73699">
        <ele>173</ele>
        <time>2018-04-18T10:21:53Z</time>
      </trkpt>
      <trkpt lat="45.92464" lon="4.73701">
        <ele>173</ele>
        <time>2018-04-18T10:21:54Z</time>
      </trkpt>
      <trkpt lat="45.92462" lon="4.73712">
        <ele>173</ele>
        <time>2018-04-18T10:22:07Z</time>
      </trkpt>
      <trkpt lat="45.92462" lon="4.73713">
        <ele>173</ele>
        <time>2018-04-18T10:22:08Z</time>
      </trkpt>
      <trkpt lat="45.92462" lon="4.73714">
        <ele>173</ele>
        <time>2018-04-18T10:22:09Z</time>
      </trkpt>
      <trkpt lat="45.9246" lon="4.73713">
        <ele>173</ele>
        <time>2018-04-18T10:22:28.632Z</time>
      </trkpt>
    </trkseg>
  </trk>
</gpx>